<?xml version="1.0" encoding="UTF-8"?>
<gpx version="1.1" creator="https://www.youtrack.es" xsi:schemaLocation="http://www.topografix.com/GPX/1/1 http://www.topografix.com/GPX/1/1/gpx.xsd http://www.garmin.com/xmlschemas/GpxExtensions/v3 http://www.garmin.com/xmlschemas/GpxExtensionsv3.xsd http://www.garmin.com/xmlschemas/TrackPointExtension/v1 http://www.garmin.com/xmlschemas/TrackPointExtensionv1.xsd" xmlns:gpxtpx="http://www.garmin.com/xmlschemas/TrackPointExtension/v1" xmlns:gpxx="http://www.garmin.com/xmlschemas/GpxExtensions/v3" xmlns:xsi="http://www.w3.org/2001/XMLSchema-instance">
  <metadata>
    <link href="https://www.youtrack.es">
      <text>YouTrack.es</text>
    </link>
    <time>2026-05-09T00:28:20Z</time>
  </metadata>
  <trk>
    <src>https://www.youtrack.es</src>
    <link href="https://www.youtrack.es/ruta/32676-curro">
      <text>YouTrack.es</text>
    </link>
    <trkseg>
      <trkpt lat="39.51211" lon="-0.44354332999999996">
        <ele>79.0</ele>
        <time>2022-05-31T19:04:48+02:00</time>
      </trkpt>
      <trkpt lat="39.51208334" lon="-0.44353333000000006">
        <ele>79.0</ele>
        <time>2022-05-31T19:04:49+02:00</time>
      </trkpt>
      <trkpt lat="39.512015000000005" lon="-0.44352333">
        <ele>79.0</ele>
        <time>2022-05-31T19:04:51+02:00</time>
      </trkpt>
      <trkpt lat="39.511925000000005" lon="-0.443525">
        <ele>79.0</ele>
        <time>2022-05-31T19:04:53+02:00</time>
      </trkpt>
      <trkpt lat="39.51187" lon="-0.44352833">
        <ele>78.0</ele>
        <time>2022-05-31T19:04:54+02:00</time>
      </trkpt>
      <trkpt lat="39.511813339999996" lon="-0.44353566000000005">
        <ele>78.0</ele>
        <time>2022-05-31T19:04:55+02:00</time>
      </trkpt>
      <trkpt lat="39.51175834" lon="-0.44354266">
        <ele>78.0</ele>
        <time>2022-05-31T19:04:56+02:00</time>
      </trkpt>
      <trkpt lat="39.51170167" lon="-0.44355066">
        <ele>78.0</ele>
        <time>2022-05-31T19:04:57+02:00</time>
      </trkpt>
      <trkpt lat="39.51164333999999" lon="-0.44355665999999994">
        <ele>77.0</ele>
        <time>2022-05-31T19:04:58+02:00</time>
      </trkpt>
      <trkpt lat="39.51158334" lon="-0.443565">
        <ele>77.0</ele>
        <time>2022-05-31T19:04:59+02:00</time>
      </trkpt>
      <trkpt lat="39.511525" lon="-0.44357300000000005">
        <ele>77.0</ele>
        <time>2022-05-31T19:05:00+02:00</time>
      </trkpt>
      <trkpt lat="39.51146834" lon="-0.44358166">
        <ele>76.0</ele>
        <time>2022-05-31T19:05:01+02:00</time>
      </trkpt>
      <trkpt lat="39.51141167" lon="-0.44359200000000004">
        <ele>76.0</ele>
        <time>2022-05-31T19:05:02+02:00</time>
      </trkpt>
      <trkpt lat="39.51136167" lon="-0.44360465999999993">
        <ele>75.0</ele>
        <time>2022-05-31T19:05:03+02:00</time>
      </trkpt>
      <trkpt lat="39.511311670000005" lon="-0.44361933000000003">
        <ele>75.0</ele>
        <time>2022-05-31T19:05:04+02:00</time>
      </trkpt>
      <trkpt lat="39.511261669999996" lon="-0.44363665999999996">
        <ele>74.0</ele>
        <time>2022-05-31T19:05:05+02:00</time>
      </trkpt>
      <trkpt lat="39.51121500000001" lon="-0.44369665999999996">
        <ele>74.0</ele>
        <time>2022-05-31T19:05:06+02:00</time>
      </trkpt>
      <trkpt lat="39.51117667" lon="-0.44373333000000004">
        <ele>73.0</ele>
        <time>2022-05-31T19:05:07+02:00</time>
      </trkpt>
      <trkpt lat="39.511145000000006" lon="-0.4437749999999999">
        <ele>73.0</ele>
        <time>2022-05-31T19:05:08+02:00</time>
      </trkpt>
      <trkpt lat="39.51110333999999" lon="-0.443865">
        <ele>72.0</ele>
        <time>2022-05-31T19:05:10+02:00</time>
      </trkpt>
      <trkpt lat="39.51107667" lon="-0.44395500000000004">
        <ele>71.0</ele>
        <time>2022-05-31T19:05:12+02:00</time>
      </trkpt>
      <trkpt lat="39.51103134" lon="-0.44401332999999993">
        <ele>70.0</ele>
        <time>2022-05-31T19:05:14+02:00</time>
      </trkpt>
      <trkpt lat="39.51096834" lon="-0.444045">
        <ele>69.0</ele>
        <time>2022-05-31T19:05:16+02:00</time>
      </trkpt>
      <trkpt lat="39.51090333999999" lon="-0.44406333">
        <ele>68.0</ele>
        <time>2022-05-31T19:05:18+02:00</time>
      </trkpt>
      <trkpt lat="39.51084667000001" lon="-0.44408133000000005">
        <ele>68.0</ele>
        <time>2022-05-31T19:05:20+02:00</time>
      </trkpt>
      <trkpt lat="39.5108" lon="-0.44409532999999995">
        <ele>67.0</ele>
        <time>2022-05-31T19:05:22+02:00</time>
      </trkpt>
      <trkpt lat="39.51063499999999" lon="-0.44415666">
        <ele>67.0</ele>
        <time>2022-05-31T19:05:28+02:00</time>
      </trkpt>
      <trkpt lat="39.51059" lon="-0.444158">
        <ele>67.0</ele>
        <time>2022-05-31T19:05:29+02:00</time>
      </trkpt>
      <trkpt lat="39.51051667" lon="-0.44416433">
        <ele>66.0</ele>
        <time>2022-05-31T19:05:31+02:00</time>
      </trkpt>
      <trkpt lat="39.510466670000014" lon="-0.44418366000000004">
        <ele>66.0</ele>
        <time>2022-05-31T19:05:33+02:00</time>
      </trkpt>
      <trkpt lat="39.510423339999996" lon="-0.44421665999999993">
        <ele>64.0</ele>
        <time>2022-05-31T19:05:37+02:00</time>
      </trkpt>
      <trkpt lat="39.510374999999996" lon="-0.444205">
        <ele>64.0</ele>
        <time>2022-05-31T19:05:41+02:00</time>
      </trkpt>
      <trkpt lat="39.51031334" lon="-0.44416332999999997">
        <ele>64.0</ele>
        <time>2022-05-31T19:05:43+02:00</time>
      </trkpt>
      <trkpt lat="39.51023667" lon="-0.44411666">
        <ele>64.0</ele>
        <time>2022-05-31T19:05:45+02:00</time>
      </trkpt>
      <trkpt lat="39.51016334" lon="-0.444085">
        <ele>64.0</ele>
        <time>2022-05-31T19:05:47+02:00</time>
      </trkpt>
      <trkpt lat="39.51008667000001" lon="-0.44408166">
        <ele>64.0</ele>
        <time>2022-05-31T19:05:49+02:00</time>
      </trkpt>
      <trkpt lat="39.51001167" lon="-0.44408166">
        <ele>64.0</ele>
        <time>2022-05-31T19:05:51+02:00</time>
      </trkpt>
      <trkpt lat="39.50993667" lon="-0.44408166">
        <ele>64.0</ele>
        <time>2022-05-31T19:05:53+02:00</time>
      </trkpt>
      <trkpt lat="39.509859999999996" lon="-0.444084">
        <ele>64.0</ele>
        <time>2022-05-31T19:05:55+02:00</time>
      </trkpt>
      <trkpt lat="39.509785" lon="-0.44409200000000004">
        <ele>64.0</ele>
        <time>2022-05-31T19:05:57+02:00</time>
      </trkpt>
      <trkpt lat="39.50971500000001" lon="-0.444103">
        <ele>65.0</ele>
        <time>2022-05-31T19:05:59+02:00</time>
      </trkpt>
      <trkpt lat="39.50966834" lon="-0.4441116599999999">
        <ele>65.0</ele>
        <time>2022-05-31T19:06:01+02:00</time>
      </trkpt>
      <trkpt lat="39.509605" lon="-0.44410599999999995">
        <ele>65.0</ele>
        <time>2022-05-31T19:06:04+02:00</time>
      </trkpt>
      <trkpt lat="39.509573339999996" lon="-0.44402166000000004">
        <ele>65.0</ele>
        <time>2022-05-31T19:06:06+02:00</time>
      </trkpt>
      <trkpt lat="39.50956834" lon="-0.44392">
        <ele>65.0</ele>
        <time>2022-05-31T19:06:08+02:00</time>
      </trkpt>
      <trkpt lat="39.50956834" lon="-0.4438116599999999">
        <ele>65.0</ele>
        <time>2022-05-31T19:06:10+02:00</time>
      </trkpt>
      <trkpt lat="39.50956334" lon="-0.44371832999999994">
        <ele>66.0</ele>
        <time>2022-05-31T19:06:12+02:00</time>
      </trkpt>
      <trkpt lat="39.50954967" lon="-0.44361333">
        <ele>67.0</ele>
        <time>2022-05-31T19:06:14+02:00</time>
      </trkpt>
      <trkpt lat="39.50954433999999" lon="-0.44355500000000003">
        <ele>67.0</ele>
        <time>2022-05-31T19:06:15+02:00</time>
      </trkpt>
      <trkpt lat="39.509538000000006" lon="-0.44345833000000007">
        <ele>68.0</ele>
        <time>2022-05-31T19:06:17+02:00</time>
      </trkpt>
      <trkpt lat="39.509533" lon="-0.44335666000000007">
        <ele>68.0</ele>
        <time>2022-05-31T19:06:19+02:00</time>
      </trkpt>
      <trkpt lat="39.509528339999996" lon="-0.44325333">
        <ele>68.0</ele>
        <time>2022-05-31T19:06:21+02:00</time>
      </trkpt>
      <trkpt lat="39.509524670000005" lon="-0.4431383299999999">
        <ele>69.0</ele>
        <time>2022-05-31T19:06:23+02:00</time>
      </trkpt>
      <trkpt lat="39.509522669999996" lon="-0.44304">
        <ele>69.0</ele>
        <time>2022-05-31T19:06:25+02:00</time>
      </trkpt>
      <trkpt lat="39.509513670000004" lon="-0.44295833">
        <ele>70.0</ele>
        <time>2022-05-31T19:06:27+02:00</time>
      </trkpt>
      <trkpt lat="39.509465000000006" lon="-0.44289666">
        <ele>70.0</ele>
        <time>2022-05-31T19:06:29+02:00</time>
      </trkpt>
      <trkpt lat="39.50943334" lon="-0.44283333">
        <ele>70.0</ele>
        <time>2022-05-31T19:06:31+02:00</time>
      </trkpt>
      <trkpt lat="39.50938667" lon="-0.44278333000000003">
        <ele>70.0</ele>
        <time>2022-05-31T19:06:33+02:00</time>
      </trkpt>
      <trkpt lat="39.50933167" lon="-0.442775">
        <ele>70.0</ele>
        <time>2022-05-31T19:06:35+02:00</time>
      </trkpt>
      <trkpt lat="39.50924834" lon="-0.442795">
        <ele>70.0</ele>
        <time>2022-05-31T19:06:37+02:00</time>
      </trkpt>
      <trkpt lat="39.50920167" lon="-0.44280500000000006">
        <ele>70.0</ele>
        <time>2022-05-31T19:06:38+02:00</time>
      </trkpt>
      <trkpt lat="39.50914834" lon="-0.44281499999999996">
        <ele>70.0</ele>
        <time>2022-05-31T19:06:39+02:00</time>
      </trkpt>
      <trkpt lat="39.509095" lon="-0.442825">
        <ele>70.0</ele>
        <time>2022-05-31T19:06:40+02:00</time>
      </trkpt>
      <trkpt lat="39.50904" lon="-0.44283733">
        <ele>70.0</ele>
        <time>2022-05-31T19:06:41+02:00</time>
      </trkpt>
      <trkpt lat="39.508981670000004" lon="-0.44284833">
        <ele>70.0</ele>
        <time>2022-05-31T19:06:42+02:00</time>
      </trkpt>
      <trkpt lat="39.50892167000001" lon="-0.44285932999999994">
        <ele>70.0</ele>
        <time>2022-05-31T19:06:43+02:00</time>
      </trkpt>
      <trkpt lat="39.50886334" lon="-0.44286966000000005">
        <ele>70.0</ele>
        <time>2022-05-31T19:06:44+02:00</time>
      </trkpt>
      <trkpt lat="39.50880334" lon="-0.442879">
        <ele>70.0</ele>
        <time>2022-05-31T19:06:45+02:00</time>
      </trkpt>
      <trkpt lat="39.50874334" lon="-0.44289000000000006">
        <ele>70.0</ele>
        <time>2022-05-31T19:06:46+02:00</time>
      </trkpt>
      <trkpt lat="39.50868" lon="-0.44290465999999995">
        <ele>70.0</ele>
        <time>2022-05-31T19:06:47+02:00</time>
      </trkpt>
      <trkpt lat="39.50861667" lon="-0.44291833">
        <ele>70.0</ele>
        <time>2022-05-31T19:06:48+02:00</time>
      </trkpt>
      <trkpt lat="39.50855" lon="-0.44293366">
        <ele>70.0</ele>
        <time>2022-05-31T19:06:49+02:00</time>
      </trkpt>
      <trkpt lat="39.50848167" lon="-0.44294933">
        <ele>70.0</ele>
        <time>2022-05-31T19:06:50+02:00</time>
      </trkpt>
      <trkpt lat="39.508425" lon="-0.44296099999999994">
        <ele>69.0</ele>
        <time>2022-05-31T19:06:51+02:00</time>
      </trkpt>
      <trkpt lat="39.50834667" lon="-0.44297699999999995">
        <ele>69.0</ele>
        <time>2022-05-31T19:06:52+02:00</time>
      </trkpt>
      <trkpt lat="39.50828834" lon="-0.44298866">
        <ele>69.0</ele>
        <time>2022-05-31T19:06:53+02:00</time>
      </trkpt>
      <trkpt lat="39.50818" lon="-0.44301066">
        <ele>68.0</ele>
        <time>2022-05-31T19:06:55+02:00</time>
      </trkpt>
      <trkpt lat="39.508129999999994" lon="-0.44302100000000005">
        <ele>68.0</ele>
        <time>2022-05-31T19:06:56+02:00</time>
      </trkpt>
      <trkpt lat="39.50807833999999" lon="-0.44303133">
        <ele>68.0</ele>
        <time>2022-05-31T19:06:57+02:00</time>
      </trkpt>
      <trkpt lat="39.50797334" lon="-0.44305000000000005">
        <ele>68.0</ele>
        <time>2022-05-31T19:06:59+02:00</time>
      </trkpt>
      <trkpt lat="39.507918339999996" lon="-0.443061">
        <ele>68.0</ele>
        <time>2022-05-31T19:07:00+02:00</time>
      </trkpt>
      <trkpt lat="39.50786333999999" lon="-0.443075">
        <ele>68.0</ele>
        <time>2022-05-31T19:07:01+02:00</time>
      </trkpt>
      <trkpt lat="39.507808340000004" lon="-0.44308633">
        <ele>68.0</ele>
        <time>2022-05-31T19:07:02+02:00</time>
      </trkpt>
      <trkpt lat="39.507751670000005" lon="-0.4430980000000001">
        <ele>68.0</ele>
        <time>2022-05-31T19:07:03+02:00</time>
      </trkpt>
      <trkpt lat="39.50769667000001" lon="-0.44310900000000003">
        <ele>68.0</ele>
        <time>2022-05-31T19:07:04+02:00</time>
      </trkpt>
      <trkpt lat="39.507641670000005" lon="-0.44311999999999996">
        <ele>68.0</ele>
        <time>2022-05-31T19:07:05+02:00</time>
      </trkpt>
      <trkpt lat="39.50758667000001" lon="-0.443131">
        <ele>67.0</ele>
        <time>2022-05-31T19:07:06+02:00</time>
      </trkpt>
      <trkpt lat="39.507485" lon="-0.44314766">
        <ele>67.0</ele>
        <time>2022-05-31T19:07:08+02:00</time>
      </trkpt>
      <trkpt lat="39.50740999999999" lon="-0.44316265999999993">
        <ele>66.0</ele>
        <time>2022-05-31T19:07:10+02:00</time>
      </trkpt>
      <trkpt lat="39.50735834" lon="-0.44318">
        <ele>66.0</ele>
        <time>2022-05-31T19:07:12+02:00</time>
      </trkpt>
      <trkpt lat="39.50730334" lon="-0.4432250000000001">
        <ele>61.0</ele>
        <time>2022-05-31T19:07:49+02:00</time>
      </trkpt>
      <trkpt lat="39.50724834" lon="-0.44323300000000004">
        <ele>61.0</ele>
        <time>2022-05-31T19:07:51+02:00</time>
      </trkpt>
      <trkpt lat="39.50717834" lon="-0.44325166000000005">
        <ele>60.0</ele>
        <time>2022-05-31T19:07:53+02:00</time>
      </trkpt>
      <trkpt lat="39.5071" lon="-0.443277">
        <ele>60.0</ele>
        <time>2022-05-31T19:07:55+02:00</time>
      </trkpt>
      <trkpt lat="39.507008340000006" lon="-0.443313">
        <ele>60.0</ele>
        <time>2022-05-31T19:07:57+02:00</time>
      </trkpt>
      <trkpt lat="39.506965" lon="-0.44334100000000004">
        <ele>60.0</ele>
        <time>2022-05-31T19:07:58+02:00</time>
      </trkpt>
      <trkpt lat="39.50692667" lon="-0.44339832999999995">
        <ele>60.0</ele>
        <time>2022-05-31T19:07:59+02:00</time>
      </trkpt>
      <trkpt lat="39.506885" lon="-0.44344665999999994">
        <ele>60.0</ele>
        <time>2022-05-31T19:08:00+02:00</time>
      </trkpt>
      <trkpt lat="39.50684167000001" lon="-0.44349132999999996">
        <ele>60.0</ele>
        <time>2022-05-31T19:08:01+02:00</time>
      </trkpt>
      <trkpt lat="39.506795" lon="-0.44353533">
        <ele>60.0</ele>
        <time>2022-05-31T19:08:02+02:00</time>
      </trkpt>
      <trkpt lat="39.50669334" lon="-0.4436326599999999">
        <ele>60.0</ele>
        <time>2022-05-31T19:08:03+02:00</time>
      </trkpt>
      <trkpt lat="39.50664334" lon="-0.44367633">
        <ele>60.0</ele>
        <time>2022-05-31T19:08:04+02:00</time>
      </trkpt>
      <trkpt lat="39.50659334" lon="-0.44372">
        <ele>61.0</ele>
        <time>2022-05-31T19:08:05+02:00</time>
      </trkpt>
      <trkpt lat="39.506541670000004" lon="-0.44376466">
        <ele>61.0</ele>
        <time>2022-05-31T19:08:06+02:00</time>
      </trkpt>
      <trkpt lat="39.50649167" lon="-0.44380900000000006">
        <ele>61.0</ele>
        <time>2022-05-31T19:08:07+02:00</time>
      </trkpt>
      <trkpt lat="39.506440000000005" lon="-0.4438536599999999">
        <ele>61.0</ele>
        <time>2022-05-31T19:08:08+02:00</time>
      </trkpt>
      <trkpt lat="39.50640334" lon="-0.443887">
        <ele>61.0</ele>
        <time>2022-05-31T19:08:09+02:00</time>
      </trkpt>
      <trkpt lat="39.506344999999996" lon="-0.443942">
        <ele>61.0</ele>
        <time>2022-05-31T19:08:10+02:00</time>
      </trkpt>
      <trkpt lat="39.50629667" lon="-0.44398766">
        <ele>61.0</ele>
        <time>2022-05-31T19:08:11+02:00</time>
      </trkpt>
      <trkpt lat="39.50624834" lon="-0.44403465999999997">
        <ele>60.0</ele>
        <time>2022-05-31T19:08:12+02:00</time>
      </trkpt>
      <trkpt lat="39.50619667" lon="-0.4440843299999999">
        <ele>60.0</ele>
        <time>2022-05-31T19:08:13+02:00</time>
      </trkpt>
      <trkpt lat="39.50614667000001" lon="-0.44413232999999985">
        <ele>60.0</ele>
        <time>2022-05-31T19:08:14+02:00</time>
      </trkpt>
      <trkpt lat="39.506095" lon="-0.44418232999999996">
        <ele>60.0</ele>
        <time>2022-05-31T19:08:15+02:00</time>
      </trkpt>
      <trkpt lat="39.50604" lon="-0.44423366">
        <ele>60.0</ele>
        <time>2022-05-31T19:08:16+02:00</time>
      </trkpt>
      <trkpt lat="39.50598167" lon="-0.44428833">
        <ele>59.0</ele>
        <time>2022-05-31T19:08:17+02:00</time>
      </trkpt>
      <trkpt lat="39.505923339999995" lon="-0.44434265999999994">
        <ele>59.0</ele>
        <time>2022-05-31T19:08:18+02:00</time>
      </trkpt>
      <trkpt lat="39.50586334" lon="-0.44439800000000007">
        <ele>59.0</ele>
        <time>2022-05-31T19:08:19+02:00</time>
      </trkpt>
      <trkpt lat="39.50580334" lon="-0.4444536599999999">
        <ele>59.0</ele>
        <time>2022-05-31T19:08:20+02:00</time>
      </trkpt>
      <trkpt lat="39.50574" lon="-0.44450966000000003">
        <ele>59.0</ele>
        <time>2022-05-31T19:08:21+02:00</time>
      </trkpt>
      <trkpt lat="39.505678339999996" lon="-0.4445636599999999">
        <ele>59.0</ele>
        <time>2022-05-31T19:08:22+02:00</time>
      </trkpt>
      <trkpt lat="39.50563167" lon="-0.4446">
        <ele>59.0</ele>
        <time>2022-05-31T19:08:23+02:00</time>
      </trkpt>
      <trkpt lat="39.505581670000005" lon="-0.44464165999999994">
        <ele>59.0</ele>
        <time>2022-05-31T19:08:24+02:00</time>
      </trkpt>
      <trkpt lat="39.505509999999994" lon="-0.44470732999999985">
        <ele>59.0</ele>
        <time>2022-05-31T19:08:25+02:00</time>
      </trkpt>
      <trkpt lat="39.50543834" lon="-0.444773">
        <ele>59.0</ele>
        <time>2022-05-31T19:08:26+02:00</time>
      </trkpt>
      <trkpt lat="39.50537167000001" lon="-0.444837">
        <ele>59.0</ele>
        <time>2022-05-31T19:08:27+02:00</time>
      </trkpt>
      <trkpt lat="39.50530834" lon="-0.4448953299999999">
        <ele>59.0</ele>
        <time>2022-05-31T19:08:28+02:00</time>
      </trkpt>
      <trkpt lat="39.50524334000001" lon="-0.444959">
        <ele>58.0</ele>
        <time>2022-05-31T19:08:29+02:00</time>
      </trkpt>
      <trkpt lat="39.50518667" lon="-0.44501133">
        <ele>58.0</ele>
        <time>2022-05-31T19:08:30+02:00</time>
      </trkpt>
      <trkpt lat="39.505129999999994" lon="-0.445064">
        <ele>58.0</ele>
        <time>2022-05-31T19:08:31+02:00</time>
      </trkpt>
      <trkpt lat="39.50508334" lon="-0.44510666">
        <ele>57.0</ele>
        <time>2022-05-31T19:08:32+02:00</time>
      </trkpt>
      <trkpt lat="39.50503" lon="-0.44514565999999994">
        <ele>57.0</ele>
        <time>2022-05-31T19:08:33+02:00</time>
      </trkpt>
      <trkpt lat="39.50496" lon="-0.44520300000000007">
        <ele>57.0</ele>
        <time>2022-05-31T19:08:35+02:00</time>
      </trkpt>
      <trkpt lat="39.504913339999995" lon="-0.4452363299999999">
        <ele>57.0</ele>
        <time>2022-05-31T19:08:36+02:00</time>
      </trkpt>
      <trkpt lat="39.504875000000006" lon="-0.44527">
        <ele>56.0</ele>
        <time>2022-05-31T19:08:37+02:00</time>
      </trkpt>
      <trkpt lat="39.50483667" lon="-0.445304">
        <ele>56.0</ele>
        <time>2022-05-31T19:08:38+02:00</time>
      </trkpt>
      <trkpt lat="39.50480334" lon="-0.4454116599999999">
        <ele>55.0</ele>
        <time>2022-05-31T19:08:40+02:00</time>
      </trkpt>
      <trkpt lat="39.50478334" lon="-0.44547">
        <ele>53.0</ele>
        <time>2022-05-31T19:08:41+02:00</time>
      </trkpt>
      <trkpt lat="39.504754999999996" lon="-0.44552665999999996">
        <ele>53.0</ele>
        <time>2022-05-31T19:08:42+02:00</time>
      </trkpt>
      <trkpt lat="39.504715000000004" lon="-0.44556000000000007">
        <ele>52.0</ele>
        <time>2022-05-31T19:08:43+02:00</time>
      </trkpt>
      <trkpt lat="39.50463499999999" lon="-0.44553166">
        <ele>52.0</ele>
        <time>2022-05-31T19:08:45+02:00</time>
      </trkpt>
      <trkpt lat="39.504598339999994" lon="-0.44548833">
        <ele>52.0</ele>
        <time>2022-05-31T19:08:47+02:00</time>
      </trkpt>
      <trkpt lat="39.50453667000001" lon="-0.445395">
        <ele>52.0</ele>
        <time>2022-05-31T19:08:48+02:00</time>
      </trkpt>
      <trkpt lat="39.50448666999999" lon="-0.44532666">
        <ele>52.0</ele>
        <time>2022-05-31T19:08:49+02:00</time>
      </trkpt>
      <trkpt lat="39.50444667000001" lon="-0.44527665999999994">
        <ele>51.0</ele>
        <time>2022-05-31T19:08:50+02:00</time>
      </trkpt>
      <trkpt lat="39.50439333999999" lon="-0.445195">
        <ele>51.0</ele>
        <time>2022-05-31T19:08:51+02:00</time>
      </trkpt>
      <trkpt lat="39.50435" lon="-0.44512166">
        <ele>51.0</ele>
        <time>2022-05-31T19:08:52+02:00</time>
      </trkpt>
      <trkpt lat="39.504306670000005" lon="-0.4450449999999999">
        <ele>51.0</ele>
        <time>2022-05-31T19:08:53+02:00</time>
      </trkpt>
      <trkpt lat="39.504266" lon="-0.444965">
        <ele>51.0</ele>
        <time>2022-05-31T19:08:54+02:00</time>
      </trkpt>
      <trkpt lat="39.504236" lon="-0.44489999999999996">
        <ele>51.0</ele>
        <time>2022-05-31T19:08:55+02:00</time>
      </trkpt>
      <trkpt lat="39.504191000000006" lon="-0.444805">
        <ele>50.0</ele>
        <time>2022-05-31T19:08:56+02:00</time>
      </trkpt>
      <trkpt lat="39.504127" lon="-0.444675">
        <ele>50.0</ele>
        <time>2022-05-31T19:08:58+02:00</time>
      </trkpt>
      <trkpt lat="39.50408434" lon="-0.44458665999999997">
        <ele>50.0</ele>
        <time>2022-05-31T19:08:59+02:00</time>
      </trkpt>
      <trkpt lat="39.50404534" lon="-0.44451166">
        <ele>50.0</ele>
        <time>2022-05-31T19:09:00+02:00</time>
      </trkpt>
      <trkpt lat="39.50401167" lon="-0.44444833">
        <ele>50.0</ele>
        <time>2022-05-31T19:09:01+02:00</time>
      </trkpt>
      <trkpt lat="39.50396234" lon="-0.444355">
        <ele>49.0</ele>
        <time>2022-05-31T19:09:02+02:00</time>
      </trkpt>
      <trkpt lat="39.50392267" lon="-0.44427833000000005">
        <ele>49.0</ele>
        <time>2022-05-31T19:09:03+02:00</time>
      </trkpt>
      <trkpt lat="39.503888339999996" lon="-0.44421499999999997">
        <ele>49.0</ele>
        <time>2022-05-31T19:09:04+02:00</time>
      </trkpt>
      <trkpt lat="39.503840000000004" lon="-0.44412666000000006">
        <ele>49.0</ele>
        <time>2022-05-31T19:09:05+02:00</time>
      </trkpt>
      <trkpt lat="39.503799" lon="-0.44405333">
        <ele>49.0</ele>
        <time>2022-05-31T19:09:06+02:00</time>
      </trkpt>
      <trkpt lat="39.50368867" lon="-0.4438616599999999">
        <ele>49.0</ele>
        <time>2022-05-31T19:09:08+02:00</time>
      </trkpt>
      <trkpt lat="39.503641" lon="-0.44378">
        <ele>48.0</ele>
        <time>2022-05-31T19:09:09+02:00</time>
      </trkpt>
      <trkpt lat="39.50359367" lon="-0.44369833">
        <ele>48.0</ele>
        <time>2022-05-31T19:09:10+02:00</time>
      </trkpt>
      <trkpt lat="39.50354867" lon="-0.443615">
        <ele>47.0</ele>
        <time>2022-05-31T19:09:11+02:00</time>
      </trkpt>
      <trkpt lat="39.50350767" lon="-0.44353166">
        <ele>47.0</ele>
        <time>2022-05-31T19:09:12+02:00</time>
      </trkpt>
      <trkpt lat="39.503461" lon="-0.4434433299999999">
        <ele>47.0</ele>
        <time>2022-05-31T19:09:13+02:00</time>
      </trkpt>
      <trkpt lat="39.50341400000001" lon="-0.44334666">
        <ele>46.0</ele>
        <time>2022-05-31T19:09:14+02:00</time>
      </trkpt>
      <trkpt lat="39.50337433999999" lon="-0.44326165999999995">
        <ele>46.0</ele>
        <time>2022-05-31T19:09:15+02:00</time>
      </trkpt>
      <trkpt lat="39.503342339999996" lon="-0.44319165999999993">
        <ele>46.0</ele>
        <time>2022-05-31T19:09:16+02:00</time>
      </trkpt>
      <trkpt lat="39.50330967000001" lon="-0.44312832999999996">
        <ele>46.0</ele>
        <time>2022-05-31T19:09:17+02:00</time>
      </trkpt>
      <trkpt lat="39.503271" lon="-0.44305500000000003">
        <ele>46.0</ele>
        <time>2022-05-31T19:09:18+02:00</time>
      </trkpt>
      <trkpt lat="39.503230339999995" lon="-0.44296832999999997">
        <ele>46.0</ele>
        <time>2022-05-31T19:09:19+02:00</time>
      </trkpt>
      <trkpt lat="39.503190000000004" lon="-0.44289000000000006">
        <ele>46.0</ele>
        <time>2022-05-31T19:09:20+02:00</time>
      </trkpt>
      <trkpt lat="39.503146339999994" lon="-0.44280500000000006">
        <ele>46.0</ele>
        <time>2022-05-31T19:09:21+02:00</time>
      </trkpt>
      <trkpt lat="39.503113" lon="-0.44273999999999997">
        <ele>46.0</ele>
        <time>2022-05-31T19:09:22+02:00</time>
      </trkpt>
      <trkpt lat="39.503079" lon="-0.44267500000000004">
        <ele>46.0</ele>
        <time>2022-05-31T19:09:23+02:00</time>
      </trkpt>
      <trkpt lat="39.50303834" lon="-0.44259666">
        <ele>46.0</ele>
        <time>2022-05-31T19:09:24+02:00</time>
      </trkpt>
      <trkpt lat="39.503003" lon="-0.44253">
        <ele>46.0</ele>
        <time>2022-05-31T19:09:25+02:00</time>
      </trkpt>
      <trkpt lat="39.502959999999995" lon="-0.44244833000000006">
        <ele>46.0</ele>
        <time>2022-05-31T19:09:26+02:00</time>
      </trkpt>
      <trkpt lat="39.502923339999995" lon="-0.44238999999999995">
        <ele>46.0</ele>
        <time>2022-05-31T19:09:27+02:00</time>
      </trkpt>
      <trkpt lat="39.502885" lon="-0.44231833">
        <ele>46.0</ele>
        <time>2022-05-31T19:09:28+02:00</time>
      </trkpt>
      <trkpt lat="39.50285" lon="-0.44225166">
        <ele>46.0</ele>
        <time>2022-05-31T19:09:29+02:00</time>
      </trkpt>
      <trkpt lat="39.50281367000001" lon="-0.44218333000000004">
        <ele>46.0</ele>
        <time>2022-05-31T19:09:30+02:00</time>
      </trkpt>
      <trkpt lat="39.502782999999994" lon="-0.442125">
        <ele>46.0</ele>
        <time>2022-05-31T19:09:31+02:00</time>
      </trkpt>
      <trkpt lat="39.50275067" lon="-0.44206333">
        <ele>45.0</ele>
        <time>2022-05-31T19:09:33+02:00</time>
      </trkpt>
      <trkpt lat="39.50271733999999" lon="-0.442">
        <ele>45.0</ele>
        <time>2022-05-31T19:09:34+02:00</time>
      </trkpt>
      <trkpt lat="39.502688" lon="-0.44194332999999997">
        <ele>45.0</ele>
        <time>2022-05-31T19:09:36+02:00</time>
      </trkpt>
      <trkpt lat="39.502675" lon="-0.44186333">
        <ele>43.0</ele>
        <time>2022-05-31T19:10:01+02:00</time>
      </trkpt>
      <trkpt lat="39.50263534" lon="-0.44179832999999996">
        <ele>43.0</ele>
        <time>2022-05-31T19:10:04+02:00</time>
      </trkpt>
      <trkpt lat="39.502595" lon="-0.44171832999999994">
        <ele>43.0</ele>
        <time>2022-05-31T19:10:06+02:00</time>
      </trkpt>
      <trkpt lat="39.50254833999999" lon="-0.441615">
        <ele>43.0</ele>
        <time>2022-05-31T19:10:08+02:00</time>
      </trkpt>
      <trkpt lat="39.50251567000001" lon="-0.4415433299999999">
        <ele>43.0</ele>
        <time>2022-05-31T19:10:09+02:00</time>
      </trkpt>
      <trkpt lat="39.50248634" lon="-0.4414783300000001">
        <ele>43.0</ele>
        <time>2022-05-31T19:10:10+02:00</time>
      </trkpt>
      <trkpt lat="39.502428339999994" lon="-0.4413600000000001">
        <ele>43.0</ele>
        <time>2022-05-31T19:10:12+02:00</time>
      </trkpt>
      <trkpt lat="39.50238734" lon="-0.4412833300000001">
        <ele>44.0</ele>
        <time>2022-05-31T19:10:13+02:00</time>
      </trkpt>
      <trkpt lat="39.502355" lon="-0.44122000000000006">
        <ele>44.0</ele>
        <time>2022-05-31T19:10:14+02:00</time>
      </trkpt>
      <trkpt lat="39.502329339999996" lon="-0.44116999999999995">
        <ele>44.0</ele>
        <time>2022-05-31T19:10:15+02:00</time>
      </trkpt>
      <trkpt lat="39.502299" lon="-0.44110832999999994">
        <ele>44.0</ele>
        <time>2022-05-31T19:10:16+02:00</time>
      </trkpt>
      <trkpt lat="39.50226933999999" lon="-0.44104833">
        <ele>45.0</ele>
        <time>2022-05-31T19:10:17+02:00</time>
      </trkpt>
      <trkpt lat="39.50221067" lon="-0.44093">
        <ele>45.0</ele>
        <time>2022-05-31T19:10:19+02:00</time>
      </trkpt>
      <trkpt lat="39.50217633999999" lon="-0.44086">
        <ele>45.0</ele>
        <time>2022-05-31T19:10:20+02:00</time>
      </trkpt>
      <trkpt lat="39.502123999999995" lon="-0.4407583300000001">
        <ele>46.0</ele>
        <time>2022-05-31T19:10:22+02:00</time>
      </trkpt>
      <trkpt lat="39.502092669999996" lon="-0.440695">
        <ele>46.0</ele>
        <time>2022-05-31T19:10:23+02:00</time>
      </trkpt>
      <trkpt lat="39.502055999999996" lon="-0.44062165999999997">
        <ele>46.0</ele>
        <time>2022-05-31T19:10:24+02:00</time>
      </trkpt>
      <trkpt lat="39.50202567" lon="-0.44056000000000006">
        <ele>46.0</ele>
        <time>2022-05-31T19:10:25+02:00</time>
      </trkpt>
      <trkpt lat="39.501999999999995" lon="-0.44050832999999995">
        <ele>46.0</ele>
        <time>2022-05-31T19:10:26+02:00</time>
      </trkpt>
      <trkpt lat="39.50196767" lon="-0.4404433299999999">
        <ele>46.0</ele>
        <time>2022-05-31T19:10:27+02:00</time>
      </trkpt>
      <trkpt lat="39.501936" lon="-0.44037999999999994">
        <ele>46.0</ele>
        <time>2022-05-31T19:10:28+02:00</time>
      </trkpt>
      <trkpt lat="39.50190266999999" lon="-0.44032">
        <ele>46.0</ele>
        <time>2022-05-31T19:10:29+02:00</time>
      </trkpt>
      <trkpt lat="39.50186500000001" lon="-0.44025333">
        <ele>46.0</ele>
        <time>2022-05-31T19:10:30+02:00</time>
      </trkpt>
      <trkpt lat="39.501838670000005" lon="-0.44021499999999997">
        <ele>46.0</ele>
        <time>2022-05-31T19:10:31+02:00</time>
      </trkpt>
      <trkpt lat="39.501756670000006" lon="-0.440175">
        <ele>46.0</ele>
        <time>2022-05-31T19:10:32+02:00</time>
      </trkpt>
      <trkpt lat="39.50169834" lon="-0.44012666000000006">
        <ele>46.0</ele>
        <time>2022-05-31T19:10:33+02:00</time>
      </trkpt>
      <trkpt lat="39.50165" lon="-0.4400966599999999">
        <ele>46.0</ele>
        <time>2022-05-31T19:10:34+02:00</time>
      </trkpt>
      <trkpt lat="39.50158167" lon="-0.44005700000000003">
        <ele>46.0</ele>
        <time>2022-05-31T19:10:36+02:00</time>
      </trkpt>
      <trkpt lat="39.50153334" lon="-0.4400269999999999">
        <ele>46.0</ele>
        <time>2022-05-31T19:10:37+02:00</time>
      </trkpt>
      <trkpt lat="39.50147667" lon="-0.439991">
        <ele>46.0</ele>
        <time>2022-05-31T19:10:39+02:00</time>
      </trkpt>
      <trkpt lat="39.50143" lon="-0.43996566000000004">
        <ele>46.0</ele>
        <time>2022-05-31T19:10:42+02:00</time>
      </trkpt>
      <trkpt lat="39.50138" lon="-0.43996166">
        <ele>47.0</ele>
        <time>2022-05-31T19:10:56+02:00</time>
      </trkpt>
      <trkpt lat="39.501333339999995" lon="-0.43994333">
        <ele>47.0</ele>
        <time>2022-05-31T19:10:58+02:00</time>
      </trkpt>
      <trkpt lat="39.501263339999994" lon="-0.43990466">
        <ele>47.0</ele>
        <time>2022-05-31T19:11:00+02:00</time>
      </trkpt>
      <trkpt lat="39.50118" lon="-0.439866">
        <ele>48.0</ele>
        <time>2022-05-31T19:11:02+02:00</time>
      </trkpt>
      <trkpt lat="39.50109834" lon="-0.43984433">
        <ele>48.0</ele>
        <time>2022-05-31T19:11:04+02:00</time>
      </trkpt>
      <trkpt lat="39.501025" lon="-0.43989165999999996">
        <ele>48.0</ele>
        <time>2022-05-31T19:11:06+02:00</time>
      </trkpt>
      <trkpt lat="39.50099000000001" lon="-0.43993166000000006">
        <ele>48.0</ele>
        <time>2022-05-31T19:11:07+02:00</time>
      </trkpt>
      <trkpt lat="39.500925" lon="-0.44001">
        <ele>49.0</ele>
        <time>2022-05-31T19:11:09+02:00</time>
      </trkpt>
      <trkpt lat="39.50087167" lon="-0.44008333000000005">
        <ele>49.0</ele>
        <time>2022-05-31T19:11:11+02:00</time>
      </trkpt>
      <trkpt lat="39.50082167000001" lon="-0.44014165999999993">
        <ele>49.0</ele>
        <time>2022-05-31T19:11:13+02:00</time>
      </trkpt>
      <trkpt lat="39.500771670000006" lon="-0.44020232999999986">
        <ele>49.0</ele>
        <time>2022-05-31T19:11:15+02:00</time>
      </trkpt>
      <trkpt lat="39.500715" lon="-0.44027399999999994">
        <ele>48.0</ele>
        <time>2022-05-31T19:11:17+02:00</time>
      </trkpt>
      <trkpt lat="39.500685" lon="-0.4403156600000001">
        <ele>48.0</ele>
        <time>2022-05-31T19:11:18+02:00</time>
      </trkpt>
      <trkpt lat="39.50064834" lon="-0.44036099999999995">
        <ele>48.0</ele>
        <time>2022-05-31T19:11:19+02:00</time>
      </trkpt>
      <trkpt lat="39.50060667" lon="-0.44040932999999993">
        <ele>47.0</ele>
        <time>2022-05-31T19:11:20+02:00</time>
      </trkpt>
      <trkpt lat="39.500569999999996" lon="-0.44045065999999994">
        <ele>47.0</ele>
        <time>2022-05-31T19:11:21+02:00</time>
      </trkpt>
      <trkpt lat="39.500525" lon="-0.44050033">
        <ele>47.0</ele>
        <time>2022-05-31T19:11:22+02:00</time>
      </trkpt>
      <trkpt lat="39.50045333999999" lon="-0.44056300000000004">
        <ele>46.0</ele>
        <time>2022-05-31T19:11:24+02:00</time>
      </trkpt>
      <trkpt lat="39.50036" lon="-0.44050333">
        <ele>45.0</ele>
        <time>2022-05-31T19:11:26+02:00</time>
      </trkpt>
      <trkpt lat="39.50031167" lon="-0.44047833000000003">
        <ele>43.0</ele>
        <time>2022-05-31T19:11:27+02:00</time>
      </trkpt>
      <trkpt lat="39.50026167" lon="-0.44044833">
        <ele>43.0</ele>
        <time>2022-05-31T19:11:28+02:00</time>
      </trkpt>
      <trkpt lat="39.50017167" lon="-0.44038832999999994">
        <ele>42.0</ele>
        <time>2022-05-31T19:11:30+02:00</time>
      </trkpt>
      <trkpt lat="39.50012334" lon="-0.44035666000000007">
        <ele>42.0</ele>
        <time>2022-05-31T19:11:31+02:00</time>
      </trkpt>
      <trkpt lat="39.50006667000001" lon="-0.44031866">
        <ele>41.0</ele>
        <time>2022-05-31T19:11:32+02:00</time>
      </trkpt>
      <trkpt lat="39.49998667" lon="-0.4402623299999999">
        <ele>41.0</ele>
        <time>2022-05-31T19:11:34+02:00</time>
      </trkpt>
      <trkpt lat="39.49994334" lon="-0.44023">
        <ele>41.0</ele>
        <time>2022-05-31T19:11:35+02:00</time>
      </trkpt>
      <trkpt lat="39.49989834" lon="-0.440198">
        <ele>41.0</ele>
        <time>2022-05-31T19:11:36+02:00</time>
      </trkpt>
      <trkpt lat="39.499855" lon="-0.44016732999999997">
        <ele>41.0</ele>
        <time>2022-05-31T19:11:37+02:00</time>
      </trkpt>
      <trkpt lat="39.49981" lon="-0.44013766">
        <ele>41.0</ele>
        <time>2022-05-31T19:11:38+02:00</time>
      </trkpt>
      <trkpt lat="39.499765" lon="-0.44010765999999996">
        <ele>41.0</ele>
        <time>2022-05-31T19:11:39+02:00</time>
      </trkpt>
      <trkpt lat="39.499725" lon="-0.44008133000000005">
        <ele>41.0</ele>
        <time>2022-05-31T19:11:40+02:00</time>
      </trkpt>
      <trkpt lat="39.49964333999999" lon="-0.44002732999999994">
        <ele>41.0</ele>
        <time>2022-05-31T19:11:42+02:00</time>
      </trkpt>
      <trkpt lat="39.49958334" lon="-0.43998833">
        <ele>41.0</ele>
        <time>2022-05-31T19:11:43+02:00</time>
      </trkpt>
      <trkpt lat="39.49953167" lon="-0.43995565999999997">
        <ele>41.0</ele>
        <time>2022-05-31T19:11:44+02:00</time>
      </trkpt>
      <trkpt lat="39.49947999999999" lon="-0.43992266">
        <ele>41.0</ele>
        <time>2022-05-31T19:11:45+02:00</time>
      </trkpt>
      <trkpt lat="39.499428339999994" lon="-0.43989033">
        <ele>41.0</ele>
        <time>2022-05-31T19:11:46+02:00</time>
      </trkpt>
      <trkpt lat="39.499376670000004" lon="-0.43985833">
        <ele>41.0</ele>
        <time>2022-05-31T19:11:47+02:00</time>
      </trkpt>
      <trkpt lat="39.499325" lon="-0.43982433">
        <ele>41.0</ele>
        <time>2022-05-31T19:11:48+02:00</time>
      </trkpt>
      <trkpt lat="39.499275" lon="-0.43979366">
        <ele>41.0</ele>
        <time>2022-05-31T19:11:49+02:00</time>
      </trkpt>
      <trkpt lat="39.49922334" lon="-0.43975966">
        <ele>41.0</ele>
        <time>2022-05-31T19:11:50+02:00</time>
      </trkpt>
      <trkpt lat="39.49917" lon="-0.4397253299999999">
        <ele>41.0</ele>
        <time>2022-05-31T19:11:51+02:00</time>
      </trkpt>
      <trkpt lat="39.49911667" lon="-0.439693">
        <ele>41.0</ele>
        <time>2022-05-31T19:11:52+02:00</time>
      </trkpt>
      <trkpt lat="39.49907167" lon="-0.43966400000000005">
        <ele>41.0</ele>
        <time>2022-05-31T19:11:53+02:00</time>
      </trkpt>
      <trkpt lat="39.498951670000004" lon="-0.43958832999999997">
        <ele>41.0</ele>
        <time>2022-05-31T19:11:55+02:00</time>
      </trkpt>
      <trkpt lat="39.498895000000005" lon="-0.43955165999999996">
        <ele>41.0</ele>
        <time>2022-05-31T19:11:56+02:00</time>
      </trkpt>
      <trkpt lat="39.49884000000001" lon="-0.43951599999999996">
        <ele>41.0</ele>
        <time>2022-05-31T19:11:57+02:00</time>
      </trkpt>
      <trkpt lat="39.498785" lon="-0.43948033">
        <ele>41.0</ele>
        <time>2022-05-31T19:11:58+02:00</time>
      </trkpt>
      <trkpt lat="39.49872833999999" lon="-0.4394436599999999">
        <ele>40.0</ele>
        <time>2022-05-31T19:11:59+02:00</time>
      </trkpt>
      <trkpt lat="39.498673339999996" lon="-0.4394080000000001">
        <ele>40.0</ele>
        <time>2022-05-31T19:12:00+02:00</time>
      </trkpt>
      <trkpt lat="39.498621670000006" lon="-0.43937433">
        <ele>40.0</ele>
        <time>2022-05-31T19:12:01+02:00</time>
      </trkpt>
      <trkpt lat="39.49856834" lon="-0.43933966">
        <ele>40.0</ele>
        <time>2022-05-31T19:12:02+02:00</time>
      </trkpt>
      <trkpt lat="39.498515" lon="-0.43930466">
        <ele>40.0</ele>
        <time>2022-05-31T19:12:03+02:00</time>
      </trkpt>
      <trkpt lat="39.49846" lon="-0.439269">
        <ele>40.0</ele>
        <time>2022-05-31T19:12:04+02:00</time>
      </trkpt>
      <trkpt lat="39.498405" lon="-0.43923333">
        <ele>40.0</ele>
        <time>2022-05-31T19:12:05+02:00</time>
      </trkpt>
      <trkpt lat="39.49829334" lon="-0.439156">
        <ele>40.0</ele>
        <time>2022-05-31T19:12:07+02:00</time>
      </trkpt>
      <trkpt lat="39.49823667" lon="-0.439119">
        <ele>39.0</ele>
        <time>2022-05-31T19:12:08+02:00</time>
      </trkpt>
      <trkpt lat="39.498180000000005" lon="-0.43908132999999994">
        <ele>39.0</ele>
        <time>2022-05-31T19:12:09+02:00</time>
      </trkpt>
      <trkpt lat="39.498125" lon="-0.43904066">
        <ele>39.0</ele>
        <time>2022-05-31T19:12:10+02:00</time>
      </trkpt>
      <trkpt lat="39.49807" lon="-0.43900400000000006">
        <ele>39.0</ele>
        <time>2022-05-31T19:12:11+02:00</time>
      </trkpt>
      <trkpt lat="39.498018339999994" lon="-0.43896999999999997">
        <ele>39.0</ele>
        <time>2022-05-31T19:12:12+02:00</time>
      </trkpt>
      <trkpt lat="39.49796834" lon="-0.438932">
        <ele>39.0</ele>
        <time>2022-05-31T19:12:13+02:00</time>
      </trkpt>
      <trkpt lat="39.497926670000005" lon="-0.43890399999999996">
        <ele>39.0</ele>
        <time>2022-05-31T19:12:14+02:00</time>
      </trkpt>
      <trkpt lat="39.49786667" lon="-0.43886433">
        <ele>38.0</ele>
        <time>2022-05-31T19:12:15+02:00</time>
      </trkpt>
      <trkpt lat="39.49781167" lon="-0.43882765999999995">
        <ele>38.0</ele>
        <time>2022-05-31T19:12:16+02:00</time>
      </trkpt>
      <trkpt lat="39.49767167" lon="-0.4387346599999999">
        <ele>38.0</ele>
        <time>2022-05-31T19:12:17+02:00</time>
      </trkpt>
      <trkpt lat="39.49761500000001" lon="-0.438697">
        <ele>38.0</ele>
        <time>2022-05-31T19:12:18+02:00</time>
      </trkpt>
      <trkpt lat="39.497566670000005" lon="-0.43866499999999997">
        <ele>38.0</ele>
        <time>2022-05-31T19:12:19+02:00</time>
      </trkpt>
      <trkpt lat="39.49751334" lon="-0.43863">
        <ele>38.0</ele>
        <time>2022-05-31T19:12:20+02:00</time>
      </trkpt>
      <trkpt lat="39.49746834" lon="-0.43860066">
        <ele>38.0</ele>
        <time>2022-05-31T19:12:21+02:00</time>
      </trkpt>
      <trkpt lat="39.497409999999995" lon="-0.43862000000000007">
        <ele>38.0</ele>
        <time>2022-05-31T19:12:22+02:00</time>
      </trkpt>
      <trkpt lat="39.497348339999995" lon="-0.4386133299999999">
        <ele>38.0</ele>
        <time>2022-05-31T19:12:23+02:00</time>
      </trkpt>
      <trkpt lat="39.49728334" lon="-0.43860666000000004">
        <ele>38.0</ele>
        <time>2022-05-31T19:12:24+02:00</time>
      </trkpt>
      <trkpt lat="39.49721834" lon="-0.43860133">
        <ele>38.0</ele>
        <time>2022-05-31T19:12:25+02:00</time>
      </trkpt>
      <trkpt lat="39.497155" lon="-0.43859332999999995">
        <ele>38.0</ele>
        <time>2022-05-31T19:12:26+02:00</time>
      </trkpt>
      <trkpt lat="39.49708834" lon="-0.43857833">
        <ele>38.0</ele>
        <time>2022-05-31T19:12:27+02:00</time>
      </trkpt>
      <trkpt lat="39.497026670000004" lon="-0.4385573299999999">
        <ele>38.0</ele>
        <time>2022-05-31T19:12:28+02:00</time>
      </trkpt>
      <trkpt lat="39.496923339999995" lon="-0.43845165999999997">
        <ele>38.0</ele>
        <time>2022-05-31T19:12:30+02:00</time>
      </trkpt>
      <trkpt lat="39.49688334" lon="-0.43839332999999997">
        <ele>38.0</ele>
        <time>2022-05-31T19:12:31+02:00</time>
      </trkpt>
      <trkpt lat="39.49684334" lon="-0.43833333">
        <ele>38.0</ele>
        <time>2022-05-31T19:12:32+02:00</time>
      </trkpt>
      <trkpt lat="39.496809999999996" lon="-0.43827333">
        <ele>38.0</ele>
        <time>2022-05-31T19:12:33+02:00</time>
      </trkpt>
      <trkpt lat="39.49677167" lon="-0.43820166">
        <ele>38.0</ele>
        <time>2022-05-31T19:12:34+02:00</time>
      </trkpt>
      <trkpt lat="39.49673" lon="-0.43809">
        <ele>38.0</ele>
        <time>2022-05-31T19:12:36+02:00</time>
      </trkpt>
      <trkpt lat="39.49671167" lon="-0.43802833">
        <ele>38.0</ele>
        <time>2022-05-31T19:12:37+02:00</time>
      </trkpt>
      <trkpt lat="39.49669333999999" lon="-0.43796332999999993">
        <ele>38.0</ele>
        <time>2022-05-31T19:12:38+02:00</time>
      </trkpt>
      <trkpt lat="39.496666000000005" lon="-0.43788333">
        <ele>38.0</ele>
        <time>2022-05-31T19:12:39+02:00</time>
      </trkpt>
      <trkpt lat="39.49661167" lon="-0.437755">
        <ele>37.0</ele>
        <time>2022-05-31T19:12:41+02:00</time>
      </trkpt>
      <trkpt lat="39.49657833999999" lon="-0.4376833299999999">
        <ele>37.0</ele>
        <time>2022-05-31T19:12:42+02:00</time>
      </trkpt>
      <trkpt lat="39.496541670000006" lon="-0.43760833000000005">
        <ele>37.0</ele>
        <time>2022-05-31T19:12:43+02:00</time>
      </trkpt>
      <trkpt lat="39.496512" lon="-0.4375449999999999">
        <ele>37.0</ele>
        <time>2022-05-31T19:12:44+02:00</time>
      </trkpt>
      <trkpt lat="39.49647" lon="-0.43745165999999996">
        <ele>37.0</ele>
        <time>2022-05-31T19:12:45+02:00</time>
      </trkpt>
      <trkpt lat="39.496437" lon="-0.43737166">
        <ele>36.0</ele>
        <time>2022-05-31T19:12:46+02:00</time>
      </trkpt>
      <trkpt lat="39.496406670000006" lon="-0.43729165999999997">
        <ele>36.0</ele>
        <time>2022-05-31T19:12:47+02:00</time>
      </trkpt>
      <trkpt lat="39.496377" lon="-0.43721000000000004">
        <ele>36.0</ele>
        <time>2022-05-31T19:12:48+02:00</time>
      </trkpt>
      <trkpt lat="39.49635133999999" lon="-0.437125">
        <ele>36.0</ele>
        <time>2022-05-31T19:12:49+02:00</time>
      </trkpt>
      <trkpt lat="39.49633034" lon="-0.43705833">
        <ele>36.0</ele>
        <time>2022-05-31T19:12:50+02:00</time>
      </trkpt>
      <trkpt lat="39.496303" lon="-0.43696">
        <ele>36.0</ele>
        <time>2022-05-31T19:12:51+02:00</time>
      </trkpt>
      <trkpt lat="39.496282" lon="-0.43688000000000005">
        <ele>35.0</ele>
        <time>2022-05-31T19:12:52+02:00</time>
      </trkpt>
      <trkpt lat="39.49625999999999" lon="-0.4368">
        <ele>35.0</ele>
        <time>2022-05-31T19:12:53+02:00</time>
      </trkpt>
      <trkpt lat="39.496244669999996" lon="-0.4367366599999999">
        <ele>35.0</ele>
        <time>2022-05-31T19:12:54+02:00</time>
      </trkpt>
      <trkpt lat="39.496218999999996" lon="-0.43664165999999993">
        <ele>35.0</ele>
        <time>2022-05-31T19:12:55+02:00</time>
      </trkpt>
      <trkpt lat="39.49619867" lon="-0.43656166">
        <ele>35.0</ele>
        <time>2022-05-31T19:12:56+02:00</time>
      </trkpt>
      <trkpt lat="39.49617200000001" lon="-0.43646665999999995">
        <ele>35.0</ele>
        <time>2022-05-31T19:12:57+02:00</time>
      </trkpt>
      <trkpt lat="39.49615333999999" lon="-0.43638500000000013">
        <ele>35.0</ele>
        <time>2022-05-31T19:12:58+02:00</time>
      </trkpt>
      <trkpt lat="39.496132" lon="-0.43630499999999994">
        <ele>35.0</ele>
        <time>2022-05-31T19:12:59+02:00</time>
      </trkpt>
      <trkpt lat="39.49611034" lon="-0.43622166">
        <ele>35.0</ele>
        <time>2022-05-31T19:13:00+02:00</time>
      </trkpt>
      <trkpt lat="39.49609" lon="-0.43614166">
        <ele>35.0</ele>
        <time>2022-05-31T19:13:01+02:00</time>
      </trkpt>
      <trkpt lat="39.496067000000004" lon="-0.4360633299999999">
        <ele>35.0</ele>
        <time>2022-05-31T19:13:02+02:00</time>
      </trkpt>
      <trkpt lat="39.496049" lon="-0.43598833">
        <ele>35.0</ele>
        <time>2022-05-31T19:13:03+02:00</time>
      </trkpt>
      <trkpt lat="39.496036999999994" lon="-0.43593166000000005">
        <ele>35.0</ele>
        <time>2022-05-31T19:13:04+02:00</time>
      </trkpt>
      <trkpt lat="39.49602167" lon="-0.4358649999999999">
        <ele>35.0</ele>
        <time>2022-05-31T19:13:05+02:00</time>
      </trkpt>
      <trkpt lat="39.49599933999999" lon="-0.43578665999999994">
        <ele>35.0</ele>
        <time>2022-05-31T19:13:06+02:00</time>
      </trkpt>
      <trkpt lat="39.495985669999996" lon="-0.43572332999999996">
        <ele>35.0</ele>
        <time>2022-05-31T19:13:07+02:00</time>
      </trkpt>
      <trkpt lat="39.49596734" lon="-0.43565833000000004">
        <ele>35.0</ele>
        <time>2022-05-31T19:13:08+02:00</time>
      </trkpt>
      <trkpt lat="39.495953670000006" lon="-0.4355916599999999">
        <ele>35.0</ele>
        <time>2022-05-31T19:13:09+02:00</time>
      </trkpt>
      <trkpt lat="39.49594067" lon="-0.435525">
        <ele>35.0</ele>
        <time>2022-05-31T19:13:10+02:00</time>
      </trkpt>
      <trkpt lat="39.49599500000001" lon="-0.43545500000000004">
        <ele>35.0</ele>
        <time>2022-05-31T19:13:11+02:00</time>
      </trkpt>
      <trkpt lat="39.495999999999995" lon="-0.4353866599999999">
        <ele>35.0</ele>
        <time>2022-05-31T19:13:12+02:00</time>
      </trkpt>
      <trkpt lat="39.49599833999999" lon="-0.43531833">
        <ele>35.0</ele>
        <time>2022-05-31T19:13:13+02:00</time>
      </trkpt>
      <trkpt lat="39.49598299999999" lon="-0.43519832999999997">
        <ele>35.0</ele>
        <time>2022-05-31T19:13:15+02:00</time>
      </trkpt>
      <trkpt lat="39.49594667" lon="-0.43504499999999996">
        <ele>35.0</ele>
        <time>2022-05-31T19:13:17+02:00</time>
      </trkpt>
      <trkpt lat="39.495927" lon="-0.43497665999999996">
        <ele>35.0</ele>
        <time>2022-05-31T19:13:18+02:00</time>
      </trkpt>
      <trkpt lat="39.495908" lon="-0.43490665999999994">
        <ele>35.0</ele>
        <time>2022-05-31T19:13:19+02:00</time>
      </trkpt>
      <trkpt lat="39.495893339999995" lon="-0.43484999999999996">
        <ele>35.0</ele>
        <time>2022-05-31T19:13:20+02:00</time>
      </trkpt>
      <trkpt lat="39.49587433999999" lon="-0.43477666">
        <ele>35.0</ele>
        <time>2022-05-31T19:13:21+02:00</time>
      </trkpt>
      <trkpt lat="39.49585467" lon="-0.4347">
        <ele>35.0</ele>
        <time>2022-05-31T19:13:22+02:00</time>
      </trkpt>
      <trkpt lat="39.495834669999994" lon="-0.43462333">
        <ele>35.0</ele>
        <time>2022-05-31T19:13:23+02:00</time>
      </trkpt>
      <trkpt lat="39.49581167" lon="-0.43453500000000006">
        <ele>35.0</ele>
        <time>2022-05-31T19:13:24+02:00</time>
      </trkpt>
      <trkpt lat="39.49579167" lon="-0.43446000000000007">
        <ele>35.0</ele>
        <time>2022-05-31T19:13:25+02:00</time>
      </trkpt>
      <trkpt lat="39.495772669999994" lon="-0.43438666000000004">
        <ele>35.0</ele>
        <time>2022-05-31T19:13:26+02:00</time>
      </trkpt>
      <trkpt lat="39.49575367" lon="-0.43431499999999995">
        <ele>35.0</ele>
        <time>2022-05-31T19:13:27+02:00</time>
      </trkpt>
      <trkpt lat="39.49573667" lon="-0.43424333">
        <ele>35.0</ele>
        <time>2022-05-31T19:13:28+02:00</time>
      </trkpt>
      <trkpt lat="39.49570367" lon="-0.434105">
        <ele>35.0</ele>
        <time>2022-05-31T19:13:30+02:00</time>
      </trkpt>
      <trkpt lat="39.495686670000005" lon="-0.43403833">
        <ele>35.0</ele>
        <time>2022-05-31T19:13:31+02:00</time>
      </trkpt>
      <trkpt lat="39.49566900000001" lon="-0.43396999999999997">
        <ele>35.0</ele>
        <time>2022-05-31T19:13:32+02:00</time>
      </trkpt>
      <trkpt lat="39.49564867" lon="-0.43390165999999997">
        <ele>35.0</ele>
        <time>2022-05-31T19:13:33+02:00</time>
      </trkpt>
      <trkpt lat="39.49563234" lon="-0.43385000000000007">
        <ele>35.0</ele>
        <time>2022-05-31T19:13:34+02:00</time>
      </trkpt>
      <trkpt lat="39.49560799999999" lon="-0.43377333">
        <ele>35.0</ele>
        <time>2022-05-31T19:13:35+02:00</time>
      </trkpt>
      <trkpt lat="39.495583999999994" lon="-0.43371000000000004">
        <ele>35.0</ele>
        <time>2022-05-31T19:13:36+02:00</time>
      </trkpt>
      <trkpt lat="39.49555834" lon="-0.433645">
        <ele>35.0</ele>
        <time>2022-05-31T19:13:37+02:00</time>
      </trkpt>
      <trkpt lat="39.495535669999995" lon="-0.43359165999999993">
        <ele>35.0</ele>
        <time>2022-05-31T19:13:38+02:00</time>
      </trkpt>
      <trkpt lat="39.49550467" lon="-0.43351333">
        <ele>35.0</ele>
        <time>2022-05-31T19:13:39+02:00</time>
      </trkpt>
      <trkpt lat="39.495477" lon="-0.43344833000000005">
        <ele>35.0</ele>
        <time>2022-05-31T19:13:40+02:00</time>
      </trkpt>
      <trkpt lat="39.495448669999995" lon="-0.43338333">
        <ele>35.0</ele>
        <time>2022-05-31T19:13:41+02:00</time>
      </trkpt>
      <trkpt lat="39.49539734" lon="-0.43325333">
        <ele>35.0</ele>
        <time>2022-05-31T19:13:43+02:00</time>
      </trkpt>
      <trkpt lat="39.49536967" lon="-0.4331816600000001">
        <ele>35.0</ele>
        <time>2022-05-31T19:13:44+02:00</time>
      </trkpt>
      <trkpt lat="39.495341339999996" lon="-0.43310833000000004">
        <ele>35.0</ele>
        <time>2022-05-31T19:13:45+02:00</time>
      </trkpt>
      <trkpt lat="39.49531733999999" lon="-0.43303665999999996">
        <ele>35.0</ele>
        <time>2022-05-31T19:13:46+02:00</time>
      </trkpt>
      <trkpt lat="39.49529767" lon="-0.4329783300000001">
        <ele>35.0</ele>
        <time>2022-05-31T19:13:47+02:00</time>
      </trkpt>
      <trkpt lat="39.495269670000006" lon="-0.43289333">
        <ele>35.0</ele>
        <time>2022-05-31T19:13:48+02:00</time>
      </trkpt>
      <trkpt lat="39.49524634" lon="-0.43282165999999994">
        <ele>35.0</ele>
        <time>2022-05-31T19:13:49+02:00</time>
      </trkpt>
      <trkpt lat="39.49522367" lon="-0.43275166">
        <ele>35.0</ele>
        <time>2022-05-31T19:13:50+02:00</time>
      </trkpt>
      <trkpt lat="39.495206339999996" lon="-0.43268165999999997">
        <ele>35.0</ele>
        <time>2022-05-31T19:13:51+02:00</time>
      </trkpt>
      <trkpt lat="39.49518467" lon="-0.43261332999999996">
        <ele>35.0</ele>
        <time>2022-05-31T19:13:52+02:00</time>
      </trkpt>
      <trkpt lat="39.49514633999999" lon="-0.432475">
        <ele>35.0</ele>
        <time>2022-05-31T19:13:54+02:00</time>
      </trkpt>
      <trkpt lat="39.49513" lon="-0.43240333">
        <ele>35.0</ele>
        <time>2022-05-31T19:13:55+02:00</time>
      </trkpt>
      <trkpt lat="39.49511467000001" lon="-0.43233166">
        <ele>35.0</ele>
        <time>2022-05-31T19:13:56+02:00</time>
      </trkpt>
      <trkpt lat="39.495099999999994" lon="-0.4322616599999999">
        <ele>35.0</ele>
        <time>2022-05-31T19:13:57+02:00</time>
      </trkpt>
      <trkpt lat="39.49508633999999" lon="-0.43219332999999993">
        <ele>35.0</ele>
        <time>2022-05-31T19:13:58+02:00</time>
      </trkpt>
      <trkpt lat="39.49507333999999" lon="-0.432125">
        <ele>35.0</ele>
        <time>2022-05-31T19:13:59+02:00</time>
      </trkpt>
      <trkpt lat="39.49506667000001" lon="-0.43205499999999997">
        <ele>35.0</ele>
        <time>2022-05-31T19:14:00+02:00</time>
      </trkpt>
      <trkpt lat="39.49503" lon="-0.4318416599999999">
        <ele>35.0</ele>
        <time>2022-05-31T19:14:03+02:00</time>
      </trkpt>
      <trkpt lat="39.49502667" lon="-0.43177000000000004">
        <ele>35.0</ele>
        <time>2022-05-31T19:14:04+02:00</time>
      </trkpt>
      <trkpt lat="39.495017999999995" lon="-0.43170000000000003">
        <ele>35.0</ele>
        <time>2022-05-31T19:14:05+02:00</time>
      </trkpt>
      <trkpt lat="39.495016670000005" lon="-0.43163">
        <ele>35.0</ele>
        <time>2022-05-31T19:14:06+02:00</time>
      </trkpt>
      <trkpt lat="39.49501734" lon="-0.43156333">
        <ele>35.0</ele>
        <time>2022-05-31T19:14:07+02:00</time>
      </trkpt>
      <trkpt lat="39.495019" lon="-0.43149833">
        <ele>35.0</ele>
        <time>2022-05-31T19:14:08+02:00</time>
      </trkpt>
      <trkpt lat="39.49502167" lon="-0.43143332999999995">
        <ele>35.0</ele>
        <time>2022-05-31T19:14:09+02:00</time>
      </trkpt>
      <trkpt lat="39.49502433999999" lon="-0.43137165999999993">
        <ele>35.0</ele>
        <time>2022-05-31T19:14:10+02:00</time>
      </trkpt>
      <trkpt lat="39.49503467" lon="-0.4313116599999999">
        <ele>35.0</ele>
        <time>2022-05-31T19:14:11+02:00</time>
      </trkpt>
      <trkpt lat="39.49503867" lon="-0.43125333">
        <ele>35.0</ele>
        <time>2022-05-31T19:14:12+02:00</time>
      </trkpt>
      <trkpt lat="39.49504234" lon="-0.43115500000000007">
        <ele>36.0</ele>
        <time>2022-05-31T19:14:14+02:00</time>
      </trkpt>
      <trkpt lat="39.49505567" lon="-0.4310600000000001">
        <ele>36.0</ele>
        <time>2022-05-31T19:14:16+02:00</time>
      </trkpt>
      <trkpt lat="39.49506567" lon="-0.43098333">
        <ele>36.0</ele>
        <time>2022-05-31T19:14:19+02:00</time>
      </trkpt>
      <trkpt lat="39.495265" lon="-0.43100166">
        <ele>27.0</ele>
        <time>2022-05-31T19:16:13+02:00</time>
      </trkpt>
      <trkpt lat="39.49518834" lon="-0.43099">
        <ele>28.0</ele>
        <time>2022-05-31T19:16:16+02:00</time>
      </trkpt>
      <trkpt lat="39.49511166999999" lon="-0.430955">
        <ele>29.0</ele>
        <time>2022-05-31T19:16:18+02:00</time>
      </trkpt>
      <trkpt lat="39.49503167" lon="-0.4308916599999999">
        <ele>30.0</ele>
        <time>2022-05-31T19:16:20+02:00</time>
      </trkpt>
      <trkpt lat="39.494986669999996" lon="-0.43086">
        <ele>30.0</ele>
        <time>2022-05-31T19:16:21+02:00</time>
      </trkpt>
      <trkpt lat="39.494925" lon="-0.43082566">
        <ele>30.0</ele>
        <time>2022-05-31T19:16:22+02:00</time>
      </trkpt>
      <trkpt lat="39.49487334" lon="-0.43079599999999996">
        <ele>31.0</ele>
        <time>2022-05-31T19:16:23+02:00</time>
      </trkpt>
      <trkpt lat="39.49481667000001" lon="-0.43076433">
        <ele>31.0</ele>
        <time>2022-05-31T19:16:24+02:00</time>
      </trkpt>
      <trkpt lat="39.49477167" lon="-0.4307393299999999">
        <ele>31.0</ele>
        <time>2022-05-31T19:16:25+02:00</time>
      </trkpt>
      <trkpt lat="39.49471500000001" lon="-0.43070566">
        <ele>32.0</ele>
        <time>2022-05-31T19:16:26+02:00</time>
      </trkpt>
      <trkpt lat="39.49464834" lon="-0.430666">
        <ele>32.0</ele>
        <time>2022-05-31T19:16:27+02:00</time>
      </trkpt>
      <trkpt lat="39.49459" lon="-0.43063199999999996">
        <ele>32.0</ele>
        <time>2022-05-31T19:16:28+02:00</time>
      </trkpt>
      <trkpt lat="39.49454" lon="-0.43060400000000004">
        <ele>33.0</ele>
        <time>2022-05-31T19:16:29+02:00</time>
      </trkpt>
      <trkpt lat="39.49448167" lon="-0.43057032999999995">
        <ele>33.0</ele>
        <time>2022-05-31T19:16:30+02:00</time>
      </trkpt>
      <trkpt lat="39.494420000000005" lon="-0.4305363299999999">
        <ele>33.0</ele>
        <time>2022-05-31T19:16:31+02:00</time>
      </trkpt>
      <trkpt lat="39.49428834" lon="-0.43046033">
        <ele>34.0</ele>
        <time>2022-05-31T19:16:32+02:00</time>
      </trkpt>
      <trkpt lat="39.494245" lon="-0.43042932999999994">
        <ele>34.0</ele>
        <time>2022-05-31T19:16:33+02:00</time>
      </trkpt>
      <trkpt lat="39.49419833999999" lon="-0.43034833">
        <ele>34.0</ele>
        <time>2022-05-31T19:16:34+02:00</time>
      </trkpt>
      <trkpt lat="39.49417" lon="-0.43028832999999994">
        <ele>34.0</ele>
        <time>2022-05-31T19:16:35+02:00</time>
      </trkpt>
      <trkpt lat="39.49414" lon="-0.43021166">
        <ele>35.0</ele>
        <time>2022-05-31T19:16:36+02:00</time>
      </trkpt>
      <trkpt lat="39.494105" lon="-0.43011833">
        <ele>35.0</ele>
        <time>2022-05-31T19:16:37+02:00</time>
      </trkpt>
      <trkpt lat="39.49407333999999" lon="-0.43004166">
        <ele>35.0</ele>
        <time>2022-05-31T19:16:38+02:00</time>
      </trkpt>
      <trkpt lat="39.494032340000004" lon="-0.42996999999999996">
        <ele>35.0</ele>
        <time>2022-05-31T19:16:39+02:00</time>
      </trkpt>
      <trkpt lat="39.49399367" lon="-0.42991999999999997">
        <ele>35.0</ele>
        <time>2022-05-31T19:16:40+02:00</time>
      </trkpt>
      <trkpt lat="39.49382" lon="-0.42984165999999996">
        <ele>35.0</ele>
        <time>2022-05-31T19:16:42+02:00</time>
      </trkpt>
      <trkpt lat="39.49375167000001" lon="-0.42980666">
        <ele>35.0</ele>
        <time>2022-05-31T19:16:43+02:00</time>
      </trkpt>
      <trkpt lat="39.493694999999995" lon="-0.42979165999999996">
        <ele>35.0</ele>
        <time>2022-05-31T19:16:44+02:00</time>
      </trkpt>
      <trkpt lat="39.49360667" lon="-0.42978000000000005">
        <ele>35.0</ele>
        <time>2022-05-31T19:16:45+02:00</time>
      </trkpt>
      <trkpt lat="39.49352667000001" lon="-0.42977666000000003">
        <ele>35.0</ele>
        <time>2022-05-31T19:16:46+02:00</time>
      </trkpt>
      <trkpt lat="39.493445" lon="-0.42976932999999995">
        <ele>35.0</ele>
        <time>2022-05-31T19:16:47+02:00</time>
      </trkpt>
      <trkpt lat="39.49336167" lon="-0.42975865999999996">
        <ele>34.0</ele>
        <time>2022-05-31T19:16:48+02:00</time>
      </trkpt>
      <trkpt lat="39.493295" lon="-0.42975132999999993">
        <ele>34.0</ele>
        <time>2022-05-31T19:16:49+02:00</time>
      </trkpt>
      <trkpt lat="39.49318" lon="-0.429735">
        <ele>34.0</ele>
        <time>2022-05-31T19:16:50+02:00</time>
      </trkpt>
      <trkpt lat="39.49311" lon="-0.42972166000000006">
        <ele>34.0</ele>
        <time>2022-05-31T19:16:51+02:00</time>
      </trkpt>
      <trkpt lat="39.493028339999995" lon="-0.429698">
        <ele>34.0</ele>
        <time>2022-05-31T19:16:52+02:00</time>
      </trkpt>
      <trkpt lat="39.492958339999994" lon="-0.42962833000000006">
        <ele>34.0</ele>
        <time>2022-05-31T19:16:53+02:00</time>
      </trkpt>
      <trkpt lat="39.49282" lon="-0.42948533">
        <ele>34.0</ele>
        <time>2022-05-31T19:16:55+02:00</time>
      </trkpt>
      <trkpt lat="39.492763339999996" lon="-0.42942600000000003">
        <ele>34.0</ele>
        <time>2022-05-31T19:16:56+02:00</time>
      </trkpt>
      <trkpt lat="39.49272167" lon="-0.42938133">
        <ele>34.0</ele>
        <time>2022-05-31T19:16:57+02:00</time>
      </trkpt>
      <trkpt lat="39.492658340000006" lon="-0.4293113299999999">
        <ele>34.0</ele>
        <time>2022-05-31T19:16:58+02:00</time>
      </trkpt>
      <trkpt lat="39.49263834" lon="-0.42927400000000004">
        <ele>34.0</ele>
        <time>2022-05-31T19:16:59+02:00</time>
      </trkpt>
      <trkpt lat="39.492571670000004" lon="-0.429195">
        <ele>34.0</ele>
        <time>2022-05-31T19:17:00+02:00</time>
      </trkpt>
      <trkpt lat="39.492525" lon="-0.429143">
        <ele>34.0</ele>
        <time>2022-05-31T19:17:01+02:00</time>
      </trkpt>
      <trkpt lat="39.49246834" lon="-0.4290826599999999">
        <ele>34.0</ele>
        <time>2022-05-31T19:17:02+02:00</time>
      </trkpt>
      <trkpt lat="39.492421670000006" lon="-0.42903132999999993">
        <ele>34.0</ele>
        <time>2022-05-31T19:17:03+02:00</time>
      </trkpt>
      <trkpt lat="39.492376670000006" lon="-0.42898033">
        <ele>34.0</ele>
        <time>2022-05-31T19:17:04+02:00</time>
      </trkpt>
      <trkpt lat="39.49234" lon="-0.4289386599999999">
        <ele>34.0</ele>
        <time>2022-05-31T19:17:05+02:00</time>
      </trkpt>
      <trkpt lat="39.49227667000001" lon="-0.42887000000000003">
        <ele>34.0</ele>
        <time>2022-05-31T19:17:06+02:00</time>
      </trkpt>
      <trkpt lat="39.492171670000005" lon="-0.42875666">
        <ele>34.0</ele>
        <time>2022-05-31T19:17:08+02:00</time>
      </trkpt>
      <trkpt lat="39.492110000000004" lon="-0.428694">
        <ele>34.0</ele>
        <time>2022-05-31T19:17:09+02:00</time>
      </trkpt>
      <trkpt lat="39.492065000000004" lon="-0.4286486599999999">
        <ele>34.0</ele>
        <time>2022-05-31T19:17:10+02:00</time>
      </trkpt>
      <trkpt lat="39.49199334" lon="-0.42857732999999987">
        <ele>34.0</ele>
        <time>2022-05-31T19:17:11+02:00</time>
      </trkpt>
      <trkpt lat="39.49192333999999" lon="-0.42850599999999994">
        <ele>34.0</ele>
        <time>2022-05-31T19:17:12+02:00</time>
      </trkpt>
      <trkpt lat="39.49185333999999" lon="-0.42843099999999995">
        <ele>34.0</ele>
        <time>2022-05-31T19:17:13+02:00</time>
      </trkpt>
      <trkpt lat="39.49176334" lon="-0.4283393299999999">
        <ele>34.0</ele>
        <time>2022-05-31T19:17:14+02:00</time>
      </trkpt>
      <trkpt lat="39.49169833999999" lon="-0.42827033">
        <ele>34.0</ele>
        <time>2022-05-31T19:17:15+02:00</time>
      </trkpt>
      <trkpt lat="39.49161500000001" lon="-0.42818066000000005">
        <ele>34.0</ele>
        <time>2022-05-31T19:17:16+02:00</time>
      </trkpt>
      <trkpt lat="39.49153499999999" lon="-0.42809165999999993">
        <ele>34.0</ele>
        <time>2022-05-31T19:17:17+02:00</time>
      </trkpt>
      <trkpt lat="39.49146667000001" lon="-0.42797666">
        <ele>34.0</ele>
        <time>2022-05-31T19:17:18+02:00</time>
      </trkpt>
      <trkpt lat="39.49140033999999" lon="-0.42787166">
        <ele>33.0</ele>
        <time>2022-05-31T19:17:19+02:00</time>
      </trkpt>
      <trkpt lat="39.49134633999999" lon="-0.42778499999999997">
        <ele>33.0</ele>
        <time>2022-05-31T19:17:20+02:00</time>
      </trkpt>
      <trkpt lat="39.491285669999996" lon="-0.42768333">
        <ele>33.0</ele>
        <time>2022-05-31T19:17:21+02:00</time>
      </trkpt>
      <trkpt lat="39.49121667000001" lon="-0.42756333">
        <ele>32.0</ele>
        <time>2022-05-31T19:17:22+02:00</time>
      </trkpt>
      <trkpt lat="39.491098" lon="-0.42734666">
        <ele>32.0</ele>
        <time>2022-05-31T19:17:24+02:00</time>
      </trkpt>
      <trkpt lat="39.491055" lon="-0.42726500000000006">
        <ele>31.0</ele>
        <time>2022-05-31T19:17:25+02:00</time>
      </trkpt>
      <trkpt lat="39.491007999999994" lon="-0.42717499999999997">
        <ele>31.0</ele>
        <time>2022-05-31T19:17:26+02:00</time>
      </trkpt>
      <trkpt lat="39.49096134" lon="-0.42708665999999995">
        <ele>31.0</ele>
        <time>2022-05-31T19:17:27+02:00</time>
      </trkpt>
      <trkpt lat="39.49090600000001" lon="-0.42698665999999985">
        <ele>30.0</ele>
        <time>2022-05-31T19:17:28+02:00</time>
      </trkpt>
      <trkpt lat="39.490872339999996" lon="-0.42692166">
        <ele>30.0</ele>
        <time>2022-05-31T19:17:29+02:00</time>
      </trkpt>
      <trkpt lat="39.490816339999995" lon="-0.42682000000000003">
        <ele>30.0</ele>
        <time>2022-05-31T19:17:30+02:00</time>
      </trkpt>
      <trkpt lat="39.490781000000005" lon="-0.426755">
        <ele>29.0</ele>
        <time>2022-05-31T19:17:31+02:00</time>
      </trkpt>
      <trkpt lat="39.49073967" lon="-0.426675">
        <ele>29.0</ele>
        <time>2022-05-31T19:17:32+02:00</time>
      </trkpt>
      <trkpt lat="39.490697" lon="-0.42659666000000007">
        <ele>29.0</ele>
        <time>2022-05-31T19:17:33+02:00</time>
      </trkpt>
      <trkpt lat="39.490647339999995" lon="-0.42650666">
        <ele>29.0</ele>
        <time>2022-05-31T19:17:34+02:00</time>
      </trkpt>
      <trkpt lat="39.49060467" lon="-0.426435">
        <ele>29.0</ele>
        <time>2022-05-31T19:17:35+02:00</time>
      </trkpt>
      <trkpt lat="39.49056467000001" lon="-0.42636332999999993">
        <ele>29.0</ele>
        <time>2022-05-31T19:17:36+02:00</time>
      </trkpt>
      <trkpt lat="39.49053299999999" lon="-0.42631333">
        <ele>29.0</ele>
        <time>2022-05-31T19:17:37+02:00</time>
      </trkpt>
      <trkpt lat="39.490511" lon="-0.42628166">
        <ele>29.0</ele>
        <time>2022-05-31T19:17:38+02:00</time>
      </trkpt>
      <trkpt lat="39.49047" lon="-0.42611833">
        <ele>28.0</ele>
        <time>2022-05-31T19:17:40+02:00</time>
      </trkpt>
      <trkpt lat="39.49049334" lon="-0.4260383299999999">
        <ele>28.0</ele>
        <time>2022-05-31T19:17:41+02:00</time>
      </trkpt>
      <trkpt lat="39.49052667000001" lon="-0.4259583300000001">
        <ele>28.0</ele>
        <time>2022-05-31T19:17:42+02:00</time>
      </trkpt>
      <trkpt lat="39.49055167" lon="-0.42590500000000003">
        <ele>28.0</ele>
        <time>2022-05-31T19:17:43+02:00</time>
      </trkpt>
      <trkpt lat="39.49057467" lon="-0.42584">
        <ele>28.0</ele>
        <time>2022-05-31T19:17:44+02:00</time>
      </trkpt>
      <trkpt lat="39.490602339999995" lon="-0.42577499999999996">
        <ele>27.0</ele>
        <time>2022-05-31T19:17:45+02:00</time>
      </trkpt>
      <trkpt lat="39.490629999999996" lon="-0.42570166">
        <ele>27.0</ele>
        <time>2022-05-31T19:17:46+02:00</time>
      </trkpt>
      <trkpt lat="39.490657" lon="-0.42563000000000006">
        <ele>27.0</ele>
        <time>2022-05-31T19:17:47+02:00</time>
      </trkpt>
      <trkpt lat="39.490688999999996" lon="-0.42554333">
        <ele>27.0</ele>
        <time>2022-05-31T19:17:48+02:00</time>
      </trkpt>
      <trkpt lat="39.49071067" lon="-0.42548332999999994">
        <ele>27.0</ele>
        <time>2022-05-31T19:17:49+02:00</time>
      </trkpt>
      <trkpt lat="39.49073667" lon="-0.42541">
        <ele>27.0</ele>
        <time>2022-05-31T19:17:50+02:00</time>
      </trkpt>
      <trkpt lat="39.490764" lon="-0.42533666">
        <ele>26.0</ele>
        <time>2022-05-31T19:17:51+02:00</time>
      </trkpt>
      <trkpt lat="39.49079533999999" lon="-0.42524832999999995">
        <ele>26.0</ele>
        <time>2022-05-31T19:17:52+02:00</time>
      </trkpt>
      <trkpt lat="39.49081600000001" lon="-0.42519165999999997">
        <ele>26.0</ele>
        <time>2022-05-31T19:17:53+02:00</time>
      </trkpt>
      <trkpt lat="39.49086967" lon="-0.4250449999999999">
        <ele>26.0</ele>
        <time>2022-05-31T19:17:55+02:00</time>
      </trkpt>
      <trkpt lat="39.490897000000004" lon="-0.42497166000000003">
        <ele>26.0</ele>
        <time>2022-05-31T19:17:56+02:00</time>
      </trkpt>
      <trkpt lat="39.49092567000001" lon="-0.42489999999999994">
        <ele>26.0</ele>
        <time>2022-05-31T19:17:57+02:00</time>
      </trkpt>
      <trkpt lat="39.490958" lon="-0.42482165999999993">
        <ele>26.0</ele>
        <time>2022-05-31T19:17:58+02:00</time>
      </trkpt>
      <trkpt lat="39.490988" lon="-0.4247583300000001">
        <ele>25.0</ele>
        <time>2022-05-31T19:17:59+02:00</time>
      </trkpt>
      <trkpt lat="39.49105067000001" lon="-0.42463832999999995">
        <ele>25.0</ele>
        <time>2022-05-31T19:18:01+02:00</time>
      </trkpt>
      <trkpt lat="39.491083999999994" lon="-0.4245749999999999">
        <ele>24.0</ele>
        <time>2022-05-31T19:18:02+02:00</time>
      </trkpt>
      <trkpt lat="39.491118" lon="-0.42451165999999996">
        <ele>24.0</ele>
        <time>2022-05-31T19:18:03+02:00</time>
      </trkpt>
      <trkpt lat="39.491153" lon="-0.42444666">
        <ele>24.0</ele>
        <time>2022-05-31T19:18:04+02:00</time>
      </trkpt>
      <trkpt lat="39.49119100000001" lon="-0.42437500000000006">
        <ele>23.0</ele>
        <time>2022-05-31T19:18:05+02:00</time>
      </trkpt>
      <trkpt lat="39.49122667" lon="-0.42430333000000003">
        <ele>23.0</ele>
        <time>2022-05-31T19:18:06+02:00</time>
      </trkpt>
      <trkpt lat="39.49125866999999" lon="-0.42423166000000007">
        <ele>23.0</ele>
        <time>2022-05-31T19:18:07+02:00</time>
      </trkpt>
      <trkpt lat="39.49129167" lon="-0.4241566600000001">
        <ele>22.0</ele>
        <time>2022-05-31T19:18:08+02:00</time>
      </trkpt>
      <trkpt lat="39.49132367" lon="-0.42408333000000004">
        <ele>22.0</ele>
        <time>2022-05-31T19:18:09+02:00</time>
      </trkpt>
      <trkpt lat="39.49135499999999" lon="-0.42401">
        <ele>22.0</ele>
        <time>2022-05-31T19:18:10+02:00</time>
      </trkpt>
      <trkpt lat="39.491382" lon="-0.4239383299999999">
        <ele>22.0</ele>
        <time>2022-05-31T19:18:11+02:00</time>
      </trkpt>
      <trkpt lat="39.49140167" lon="-0.42388166">
        <ele>22.0</ele>
        <time>2022-05-31T19:18:12+02:00</time>
      </trkpt>
      <trkpt lat="39.491437669999996" lon="-0.423795">
        <ele>22.0</ele>
        <time>2022-05-31T19:18:13+02:00</time>
      </trkpt>
      <trkpt lat="39.49146234" lon="-0.423725">
        <ele>22.0</ele>
        <time>2022-05-31T19:18:14+02:00</time>
      </trkpt>
      <trkpt lat="39.491486339999994" lon="-0.42365665999999996">
        <ele>22.0</ele>
        <time>2022-05-31T19:18:15+02:00</time>
      </trkpt>
      <trkpt lat="39.49150634" lon="-0.423595">
        <ele>22.0</ele>
        <time>2022-05-31T19:18:16+02:00</time>
      </trkpt>
      <trkpt lat="39.49142834" lon="-0.4235100000000001">
        <ele>22.0</ele>
        <time>2022-05-31T19:18:18+02:00</time>
      </trkpt>
      <trkpt lat="39.491346670000006" lon="-0.42348333">
        <ele>22.0</ele>
        <time>2022-05-31T19:18:20+02:00</time>
      </trkpt>
      <trkpt lat="39.49129833999999" lon="-0.42347665999999995">
        <ele>22.0</ele>
        <time>2022-05-31T19:18:21+02:00</time>
      </trkpt>
      <trkpt lat="39.491245000000006" lon="-0.42347166">
        <ele>22.0</ele>
        <time>2022-05-31T19:18:22+02:00</time>
      </trkpt>
      <trkpt lat="39.491188339999994" lon="-0.4234699999999999">
        <ele>22.0</ele>
        <time>2022-05-31T19:18:23+02:00</time>
      </trkpt>
      <trkpt lat="39.49107167000001" lon="-0.42346533">
        <ele>22.0</ele>
        <time>2022-05-31T19:18:25+02:00</time>
      </trkpt>
      <trkpt lat="39.49101167" lon="-0.42346332999999997">
        <ele>22.0</ele>
        <time>2022-05-31T19:18:26+02:00</time>
      </trkpt>
      <trkpt lat="39.49095" lon="-0.4234593299999999">
        <ele>22.0</ele>
        <time>2022-05-31T19:18:27+02:00</time>
      </trkpt>
      <trkpt lat="39.49088834" lon="-0.42345466">
        <ele>22.0</ele>
        <time>2022-05-31T19:18:28+02:00</time>
      </trkpt>
      <trkpt lat="39.490826670000004" lon="-0.423451">
        <ele>22.0</ele>
        <time>2022-05-31T19:18:29+02:00</time>
      </trkpt>
      <trkpt lat="39.49076334" lon="-0.42344766">
        <ele>22.0</ele>
        <time>2022-05-31T19:18:30+02:00</time>
      </trkpt>
      <trkpt lat="39.49070167000001" lon="-0.42344165999999994">
        <ele>21.0</ele>
        <time>2022-05-31T19:18:31+02:00</time>
      </trkpt>
      <trkpt lat="39.49064" lon="-0.423433">
        <ele>21.0</ele>
        <time>2022-05-31T19:18:32+02:00</time>
      </trkpt>
      <trkpt lat="39.49058" lon="-0.42342132999999993">
        <ele>21.0</ele>
        <time>2022-05-31T19:18:33+02:00</time>
      </trkpt>
      <trkpt lat="39.490525000000005" lon="-0.4234023299999999">
        <ele>21.0</ele>
        <time>2022-05-31T19:18:34+02:00</time>
      </trkpt>
      <trkpt lat="39.490471670000005" lon="-0.4233300000000001">
        <ele>21.0</ele>
        <time>2022-05-31T19:18:35+02:00</time>
      </trkpt>
      <trkpt lat="39.49042" lon="-0.42328832999999993">
        <ele>21.0</ele>
        <time>2022-05-31T19:18:36+02:00</time>
      </trkpt>
      <trkpt lat="39.490368339999996" lon="-0.42324165999999996">
        <ele>21.0</ele>
        <time>2022-05-31T19:18:37+02:00</time>
      </trkpt>
      <trkpt lat="39.490314999999995" lon="-0.42319499999999993">
        <ele>21.0</ele>
        <time>2022-05-31T19:18:38+02:00</time>
      </trkpt>
      <trkpt lat="39.49026334" lon="-0.4231530000000001">
        <ele>21.0</ele>
        <time>2022-05-31T19:18:39+02:00</time>
      </trkpt>
      <trkpt lat="39.49021" lon="-0.42311533">
        <ele>21.0</ele>
        <time>2022-05-31T19:18:40+02:00</time>
      </trkpt>
      <trkpt lat="39.49015834000001" lon="-0.42308900000000005">
        <ele>21.0</ele>
        <time>2022-05-31T19:18:41+02:00</time>
      </trkpt>
      <trkpt lat="39.49010499999999" lon="-0.42307000000000006">
        <ele>21.0</ele>
        <time>2022-05-31T19:18:42+02:00</time>
      </trkpt>
      <trkpt lat="39.49005167" lon="-0.42309165999999987">
        <ele>21.0</ele>
        <time>2022-05-31T19:18:43+02:00</time>
      </trkpt>
      <trkpt lat="39.48999834" lon="-0.4231116599999999">
        <ele>21.0</ele>
        <time>2022-05-31T19:18:44+02:00</time>
      </trkpt>
      <trkpt lat="39.48994834" lon="-0.42313999999999996">
        <ele>21.0</ele>
        <time>2022-05-31T19:18:45+02:00</time>
      </trkpt>
      <trkpt lat="39.489895000000004" lon="-0.4231683299999999">
        <ele>21.0</ele>
        <time>2022-05-31T19:18:46+02:00</time>
      </trkpt>
      <trkpt lat="39.48984167000001" lon="-0.42319632999999995">
        <ele>21.0</ele>
        <time>2022-05-31T19:18:47+02:00</time>
      </trkpt>
      <trkpt lat="39.48978667" lon="-0.42322333">
        <ele>21.0</ele>
        <time>2022-05-31T19:18:48+02:00</time>
      </trkpt>
      <trkpt lat="39.489729999999994" lon="-0.42325166000000003">
        <ele>21.0</ele>
        <time>2022-05-31T19:18:49+02:00</time>
      </trkpt>
      <trkpt lat="39.48961333999999" lon="-0.4233056599999999">
        <ele>21.0</ele>
        <time>2022-05-31T19:18:51+02:00</time>
      </trkpt>
      <trkpt lat="39.48956" lon="-0.4233323299999999">
        <ele>21.0</ele>
        <time>2022-05-31T19:18:52+02:00</time>
      </trkpt>
      <trkpt lat="39.48950334" lon="-0.42336">
        <ele>20.0</ele>
        <time>2022-05-31T19:18:53+02:00</time>
      </trkpt>
      <trkpt lat="39.48945" lon="-0.4233873299999999">
        <ele>20.0</ele>
        <time>2022-05-31T19:18:54+02:00</time>
      </trkpt>
      <trkpt lat="39.48939167" lon="-0.42341566">
        <ele>20.0</ele>
        <time>2022-05-31T19:18:55+02:00</time>
      </trkpt>
      <trkpt lat="39.48933667" lon="-0.42344265999999997">
        <ele>20.0</ele>
        <time>2022-05-31T19:18:56+02:00</time>
      </trkpt>
      <trkpt lat="39.48927834" lon="-0.42347133000000003">
        <ele>19.0</ele>
        <time>2022-05-31T19:18:57+02:00</time>
      </trkpt>
      <trkpt lat="39.48922" lon="-0.42350132999999995">
        <ele>19.0</ele>
        <time>2022-05-31T19:18:58+02:00</time>
      </trkpt>
      <trkpt lat="39.48916334" lon="-0.4235293299999999">
        <ele>19.0</ele>
        <time>2022-05-31T19:18:59+02:00</time>
      </trkpt>
      <trkpt lat="39.48910667" lon="-0.42355732999999995">
        <ele>19.0</ele>
        <time>2022-05-31T19:19:00+02:00</time>
      </trkpt>
      <trkpt lat="39.489050000000006" lon="-0.42358733">
        <ele>19.0</ele>
        <time>2022-05-31T19:19:01+02:00</time>
      </trkpt>
      <trkpt lat="39.48899334" lon="-0.42361532999999996">
        <ele>19.0</ele>
        <time>2022-05-31T19:19:02+02:00</time>
      </trkpt>
      <trkpt lat="39.488935" lon="-0.42364432999999996">
        <ele>19.0</ele>
        <time>2022-05-31T19:19:03+02:00</time>
      </trkpt>
      <trkpt lat="39.48888" lon="-0.42367199999999994">
        <ele>18.0</ele>
        <time>2022-05-31T19:19:04+02:00</time>
      </trkpt>
      <trkpt lat="39.488823339999996" lon="-0.42370032999999996">
        <ele>18.0</ele>
        <time>2022-05-31T19:19:05+02:00</time>
      </trkpt>
      <trkpt lat="39.488766670000004" lon="-0.42372833">
        <ele>18.0</ele>
        <time>2022-05-31T19:19:06+02:00</time>
      </trkpt>
      <trkpt lat="39.488713340000004" lon="-0.42375533">
        <ele>18.0</ele>
        <time>2022-05-31T19:19:07+02:00</time>
      </trkpt>
      <trkpt lat="39.488659999999996" lon="-0.42378400000000005">
        <ele>18.0</ele>
        <time>2022-05-31T19:19:08+02:00</time>
      </trkpt>
      <trkpt lat="39.48860334" lon="-0.42380966000000003">
        <ele>18.0</ele>
        <time>2022-05-31T19:19:09+02:00</time>
      </trkpt>
      <trkpt lat="39.488495" lon="-0.4238523299999999">
        <ele>18.0</ele>
        <time>2022-05-31T19:19:11+02:00</time>
      </trkpt>
      <trkpt lat="39.48845" lon="-0.42378166000000006">
        <ele>18.0</ele>
        <time>2022-05-31T19:19:12+02:00</time>
      </trkpt>
      <trkpt lat="39.488414999999996" lon="-0.42373666">
        <ele>18.0</ele>
        <time>2022-05-31T19:19:13+02:00</time>
      </trkpt>
      <trkpt lat="39.48838833999999" lon="-0.42368500000000003">
        <ele>18.0</ele>
        <time>2022-05-31T19:19:14+02:00</time>
      </trkpt>
      <trkpt lat="39.48836834" lon="-0.42362500000000003">
        <ele>18.0</ele>
        <time>2022-05-31T19:19:15+02:00</time>
      </trkpt>
      <trkpt lat="39.48834834" lon="-0.4235633299999999">
        <ele>18.0</ele>
        <time>2022-05-31T19:19:16+02:00</time>
      </trkpt>
      <trkpt lat="39.488328339999995" lon="-0.42350000000000004">
        <ele>18.0</ele>
        <time>2022-05-31T19:19:17+02:00</time>
      </trkpt>
      <trkpt lat="39.488305000000004" lon="-0.42343333000000005">
        <ele>18.0</ele>
        <time>2022-05-31T19:19:18+02:00</time>
      </trkpt>
      <trkpt lat="39.488281670000006" lon="-0.42336665999999995">
        <ele>19.0</ele>
        <time>2022-05-31T19:19:19+02:00</time>
      </trkpt>
      <trkpt lat="39.48825934" lon="-0.42329665999999994">
        <ele>19.0</ele>
        <time>2022-05-31T19:19:20+02:00</time>
      </trkpt>
      <trkpt lat="39.48823933999999" lon="-0.4232250000000001">
        <ele>19.0</ele>
        <time>2022-05-31T19:19:21+02:00</time>
      </trkpt>
      <trkpt lat="39.488221339999996" lon="-0.42315333">
        <ele>19.0</ele>
        <time>2022-05-31T19:19:22+02:00</time>
      </trkpt>
      <trkpt lat="39.488203999999996" lon="-0.42308">
        <ele>20.0</ele>
        <time>2022-05-31T19:19:23+02:00</time>
      </trkpt>
      <trkpt lat="39.488186670000005" lon="-0.42300832999999993">
        <ele>20.0</ele>
        <time>2022-05-31T19:19:24+02:00</time>
      </trkpt>
      <trkpt lat="39.48816867" lon="-0.42293665999999996">
        <ele>20.0</ele>
        <time>2022-05-31T19:19:25+02:00</time>
      </trkpt>
      <trkpt lat="39.488151339999995" lon="-0.422865">
        <ele>20.0</ele>
        <time>2022-05-31T19:19:26+02:00</time>
      </trkpt>
      <trkpt lat="39.488133340000005" lon="-0.42279165999999996">
        <ele>20.0</ele>
        <time>2022-05-31T19:19:27+02:00</time>
      </trkpt>
      <trkpt lat="39.488116670000004" lon="-0.42272">
        <ele>20.0</ele>
        <time>2022-05-31T19:19:28+02:00</time>
      </trkpt>
      <trkpt lat="39.488097339999996" lon="-0.42264333">
        <ele>20.0</ele>
        <time>2022-05-31T19:19:29+02:00</time>
      </trkpt>
      <trkpt lat="39.488081" lon="-0.42257166">
        <ele>21.0</ele>
        <time>2022-05-31T19:19:30+02:00</time>
      </trkpt>
      <trkpt lat="39.48806467000001" lon="-0.42249833">
        <ele>21.0</ele>
        <time>2022-05-31T19:19:31+02:00</time>
      </trkpt>
      <trkpt lat="39.48804634" lon="-0.42242333">
        <ele>21.0</ele>
        <time>2022-05-31T19:19:32+02:00</time>
      </trkpt>
      <trkpt lat="39.48803067" lon="-0.42234999999999995">
        <ele>21.0</ele>
        <time>2022-05-31T19:19:33+02:00</time>
      </trkpt>
      <trkpt lat="39.48801267" lon="-0.42227665999999997">
        <ele>21.0</ele>
        <time>2022-05-31T19:19:34+02:00</time>
      </trkpt>
      <trkpt lat="39.48799533999999" lon="-0.42220500000000005">
        <ele>21.0</ele>
        <time>2022-05-31T19:19:35+02:00</time>
      </trkpt>
      <trkpt lat="39.48796234" lon="-0.4220583299999999">
        <ele>21.0</ele>
        <time>2022-05-31T19:19:37+02:00</time>
      </trkpt>
      <trkpt lat="39.487945" lon="-0.42198665999999985">
        <ele>21.0</ele>
        <time>2022-05-31T19:19:38+02:00</time>
      </trkpt>
      <trkpt lat="39.48792767" lon="-0.42191665999999994">
        <ele>21.0</ele>
        <time>2022-05-31T19:19:39+02:00</time>
      </trkpt>
      <trkpt lat="39.487907" lon="-0.42184499999999997">
        <ele>21.0</ele>
        <time>2022-05-31T19:19:40+02:00</time>
      </trkpt>
      <trkpt lat="39.48788967" lon="-0.42177666">
        <ele>21.0</ele>
        <time>2022-05-31T19:19:41+02:00</time>
      </trkpt>
      <trkpt lat="39.487872339999996" lon="-0.4217083300000001">
        <ele>21.0</ele>
        <time>2022-05-31T19:19:42+02:00</time>
      </trkpt>
      <trkpt lat="39.48785133999999" lon="-0.42164166">
        <ele>21.0</ele>
        <time>2022-05-31T19:19:43+02:00</time>
      </trkpt>
      <trkpt lat="39.48783433999999" lon="-0.42157666000000005">
        <ele>21.0</ele>
        <time>2022-05-31T19:19:44+02:00</time>
      </trkpt>
      <trkpt lat="39.487813" lon="-0.42151166">
        <ele>21.0</ele>
        <time>2022-05-31T19:19:45+02:00</time>
      </trkpt>
      <trkpt lat="39.48779534" lon="-0.421445">
        <ele>21.0</ele>
        <time>2022-05-31T19:19:46+02:00</time>
      </trkpt>
      <trkpt lat="39.487773000000004" lon="-0.42137666000000007">
        <ele>21.0</ele>
        <time>2022-05-31T19:19:47+02:00</time>
      </trkpt>
      <trkpt lat="39.487751339999996" lon="-0.4213116599999999">
        <ele>21.0</ele>
        <time>2022-05-31T19:19:48+02:00</time>
      </trkpt>
      <trkpt lat="39.48773267" lon="-0.4212433299999999">
        <ele>21.0</ele>
        <time>2022-05-31T19:19:49+02:00</time>
      </trkpt>
      <trkpt lat="39.487709669999994" lon="-0.42117666">
        <ele>21.0</ele>
        <time>2022-05-31T19:19:50+02:00</time>
      </trkpt>
      <trkpt lat="39.487691000000005" lon="-0.42111">
        <ele>21.0</ele>
        <time>2022-05-31T19:19:51+02:00</time>
      </trkpt>
      <trkpt lat="39.487672999999994" lon="-0.42104333">
        <ele>21.0</ele>
        <time>2022-05-31T19:19:52+02:00</time>
      </trkpt>
      <trkpt lat="39.48765" lon="-0.42097832999999996">
        <ele>21.0</ele>
        <time>2022-05-31T19:19:53+02:00</time>
      </trkpt>
      <trkpt lat="39.487606" lon="-0.42083999999999994">
        <ele>21.0</ele>
        <time>2022-05-31T19:19:55+02:00</time>
      </trkpt>
      <trkpt lat="39.48758734" lon="-0.420775">
        <ele>21.0</ele>
        <time>2022-05-31T19:19:56+02:00</time>
      </trkpt>
      <trkpt lat="39.487542000000005" lon="-0.42063500000000004">
        <ele>21.0</ele>
        <time>2022-05-31T19:19:58+02:00</time>
      </trkpt>
      <trkpt lat="39.48752267" lon="-0.42056832999999993">
        <ele>21.0</ele>
        <time>2022-05-31T19:19:59+02:00</time>
      </trkpt>
      <trkpt lat="39.487503669999995" lon="-0.42050166000000005">
        <ele>20.0</ele>
        <time>2022-05-31T19:20:00+02:00</time>
      </trkpt>
      <trkpt lat="39.48747934" lon="-0.4204383299999999">
        <ele>20.0</ele>
        <time>2022-05-31T19:20:01+02:00</time>
      </trkpt>
      <trkpt lat="39.48746" lon="-0.42037166">
        <ele>20.0</ele>
        <time>2022-05-31T19:20:02+02:00</time>
      </trkpt>
      <trkpt lat="39.487441000000004" lon="-0.42030666000000005">
        <ele>20.0</ele>
        <time>2022-05-31T19:20:03+02:00</time>
      </trkpt>
      <trkpt lat="39.487421000000005" lon="-0.42023832999999994">
        <ele>20.0</ele>
        <time>2022-05-31T19:20:04+02:00</time>
      </trkpt>
      <trkpt lat="39.48739467" lon="-0.42017">
        <ele>20.0</ele>
        <time>2022-05-31T19:20:05+02:00</time>
      </trkpt>
      <trkpt lat="39.48737567" lon="-0.42010500000000006">
        <ele>20.0</ele>
        <time>2022-05-31T19:20:06+02:00</time>
      </trkpt>
      <trkpt lat="39.48735667" lon="-0.42004">
        <ele>20.0</ele>
        <time>2022-05-31T19:20:07+02:00</time>
      </trkpt>
      <trkpt lat="39.48733034" lon="-0.41997166">
        <ele>20.0</ele>
        <time>2022-05-31T19:20:08+02:00</time>
      </trkpt>
      <trkpt lat="39.487311340000005" lon="-0.4199050000000001">
        <ele>20.0</ele>
        <time>2022-05-31T19:20:09+02:00</time>
      </trkpt>
      <trkpt lat="39.487284339999995" lon="-0.41983500000000007">
        <ele>20.0</ele>
        <time>2022-05-31T19:20:10+02:00</time>
      </trkpt>
      <trkpt lat="39.48726433999999" lon="-0.41976500000000005">
        <ele>20.0</ele>
        <time>2022-05-31T19:20:11+02:00</time>
      </trkpt>
      <trkpt lat="39.48723767" lon="-0.41969499999999993">
        <ele>20.0</ele>
        <time>2022-05-31T19:20:12+02:00</time>
      </trkpt>
      <trkpt lat="39.487217" lon="-0.419625">
        <ele>20.0</ele>
        <time>2022-05-31T19:20:13+02:00</time>
      </trkpt>
      <trkpt lat="39.487190670000004" lon="-0.41955833">
        <ele>20.0</ele>
        <time>2022-05-31T19:20:14+02:00</time>
      </trkpt>
      <trkpt lat="39.48717034" lon="-0.41949">
        <ele>20.0</ele>
        <time>2022-05-31T19:20:15+02:00</time>
      </trkpt>
      <trkpt lat="39.48714433999999" lon="-0.41942500000000005">
        <ele>20.0</ele>
        <time>2022-05-31T19:20:16+02:00</time>
      </trkpt>
      <trkpt lat="39.48711834" lon="-0.41936">
        <ele>20.0</ele>
        <time>2022-05-31T19:20:17+02:00</time>
      </trkpt>
      <trkpt lat="39.487097999999996" lon="-0.419295">
        <ele>20.0</ele>
        <time>2022-05-31T19:20:18+02:00</time>
      </trkpt>
      <trkpt lat="39.48707133999999" lon="-0.41923000000000005">
        <ele>20.0</ele>
        <time>2022-05-31T19:20:19+02:00</time>
      </trkpt>
      <trkpt lat="39.48704467" lon="-0.41916666">
        <ele>19.0</ele>
        <time>2022-05-31T19:20:20+02:00</time>
      </trkpt>
      <trkpt lat="39.48701967" lon="-0.4191083300000001">
        <ele>19.0</ele>
        <time>2022-05-31T19:20:21+02:00</time>
      </trkpt>
      <trkpt lat="39.48696967000001" lon="-0.41897666000000006">
        <ele>19.0</ele>
        <time>2022-05-31T19:20:23+02:00</time>
      </trkpt>
      <trkpt lat="39.486943339999996" lon="-0.41891666">
        <ele>19.0</ele>
        <time>2022-05-31T19:20:24+02:00</time>
      </trkpt>
      <trkpt lat="39.48691567" lon="-0.41885333">
        <ele>19.0</ele>
        <time>2022-05-31T19:20:25+02:00</time>
      </trkpt>
      <trkpt lat="39.486892999999995" lon="-0.41878833000000004">
        <ele>18.0</ele>
        <time>2022-05-31T19:20:26+02:00</time>
      </trkpt>
      <trkpt lat="39.48686467" lon="-0.41872500000000007">
        <ele>18.0</ele>
        <time>2022-05-31T19:20:27+02:00</time>
      </trkpt>
      <trkpt lat="39.48683534" lon="-0.4186583300000001">
        <ele>18.0</ele>
        <time>2022-05-31T19:20:28+02:00</time>
      </trkpt>
      <trkpt lat="39.486811339999996" lon="-0.4185899999999999">
        <ele>18.0</ele>
        <time>2022-05-31T19:20:29+02:00</time>
      </trkpt>
      <trkpt lat="39.486779999999996" lon="-0.41852">
        <ele>18.0</ele>
        <time>2022-05-31T19:20:30+02:00</time>
      </trkpt>
      <trkpt lat="39.48675033999999" lon="-0.41845333">
        <ele>18.0</ele>
        <time>2022-05-31T19:20:31+02:00</time>
      </trkpt>
      <trkpt lat="39.486726000000004" lon="-0.41838500000000006">
        <ele>17.0</ele>
        <time>2022-05-31T19:20:32+02:00</time>
      </trkpt>
      <trkpt lat="39.486696339999995" lon="-0.41831832999999996">
        <ele>17.0</ele>
        <time>2022-05-31T19:20:33+02:00</time>
      </trkpt>
      <trkpt lat="39.486667" lon="-0.41825333000000003">
        <ele>17.0</ele>
        <time>2022-05-31T19:20:34+02:00</time>
      </trkpt>
      <trkpt lat="39.48664433999999" lon="-0.41818999999999995">
        <ele>17.0</ele>
        <time>2022-05-31T19:20:35+02:00</time>
      </trkpt>
      <trkpt lat="39.486614339999996" lon="-0.418125">
        <ele>16.0</ele>
        <time>2022-05-31T19:20:36+02:00</time>
      </trkpt>
      <trkpt lat="39.48658733999999" lon="-0.41806666000000003">
        <ele>16.0</ele>
        <time>2022-05-31T19:20:37+02:00</time>
      </trkpt>
      <trkpt lat="39.486564339999994" lon="-0.41800333">
        <ele>16.0</ele>
        <time>2022-05-31T19:20:38+02:00</time>
      </trkpt>
      <trkpt lat="39.48653434" lon="-0.41793832999999997">
        <ele>15.0</ele>
        <time>2022-05-31T19:20:39+02:00</time>
      </trkpt>
      <trkpt lat="39.486504000000004" lon="-0.41787333000000004">
        <ele>15.0</ele>
        <time>2022-05-31T19:20:40+02:00</time>
      </trkpt>
      <trkpt lat="39.48647233999999" lon="-0.4178050000000001">
        <ele>15.0</ele>
        <time>2022-05-31T19:20:41+02:00</time>
      </trkpt>
      <trkpt lat="39.486447999999996" lon="-0.41773999999999994">
        <ele>14.0</ele>
        <time>2022-05-31T19:20:42+02:00</time>
      </trkpt>
      <trkpt lat="39.486417339999996" lon="-0.417675">
        <ele>14.0</ele>
        <time>2022-05-31T19:20:43+02:00</time>
      </trkpt>
      <trkpt lat="39.48638634" lon="-0.41761">
        <ele>14.0</ele>
        <time>2022-05-31T19:20:44+02:00</time>
      </trkpt>
      <trkpt lat="39.48635499999999" lon="-0.41754333">
        <ele>14.0</ele>
        <time>2022-05-31T19:20:45+02:00</time>
      </trkpt>
      <trkpt lat="39.48626567000001" lon="-0.41734333">
        <ele>14.0</ele>
        <time>2022-05-31T19:20:47+02:00</time>
      </trkpt>
      <trkpt lat="39.48624067000001" lon="-0.41728000000000004">
        <ele>14.0</ele>
        <time>2022-05-31T19:20:48+02:00</time>
      </trkpt>
      <trkpt lat="39.48620967" lon="-0.4172166600000001">
        <ele>14.0</ele>
        <time>2022-05-31T19:20:49+02:00</time>
      </trkpt>
      <trkpt lat="39.48617767" lon="-0.41715166000000015">
        <ele>14.0</ele>
        <time>2022-05-31T19:20:50+02:00</time>
      </trkpt>
      <trkpt lat="39.486152669999996" lon="-0.4170883299999999">
        <ele>14.0</ele>
        <time>2022-05-31T19:20:51+02:00</time>
      </trkpt>
      <trkpt lat="39.48612134" lon="-0.41702666000000005">
        <ele>14.0</ele>
        <time>2022-05-31T19:20:52+02:00</time>
      </trkpt>
      <trkpt lat="39.486091339999994" lon="-0.41696833">
        <ele>14.0</ele>
        <time>2022-05-31T19:20:53+02:00</time>
      </trkpt>
      <trkpt lat="39.48606066999999" lon="-0.41691">
        <ele>14.0</ele>
        <time>2022-05-31T19:20:54+02:00</time>
      </trkpt>
      <trkpt lat="39.48603" lon="-0.4168516600000001">
        <ele>14.0</ele>
        <time>2022-05-31T19:20:55+02:00</time>
      </trkpt>
      <trkpt lat="39.48599867" lon="-0.41679332999999996">
        <ele>14.0</ele>
        <time>2022-05-31T19:20:56+02:00</time>
      </trkpt>
      <trkpt lat="39.485967339999995" lon="-0.4167350000000001">
        <ele>15.0</ele>
        <time>2022-05-31T19:20:57+02:00</time>
      </trkpt>
      <trkpt lat="39.48593667" lon="-0.41668000000000005">
        <ele>15.0</ele>
        <time>2022-05-31T19:20:58+02:00</time>
      </trkpt>
      <trkpt lat="39.48590634" lon="-0.4166266600000001">
        <ele>15.0</ele>
        <time>2022-05-31T19:20:59+02:00</time>
      </trkpt>
      <trkpt lat="39.485765" lon="-0.41657666000000004">
        <ele>15.0</ele>
        <time>2022-05-31T19:21:00+02:00</time>
      </trkpt>
      <trkpt lat="39.48572167000001" lon="-0.41652166000000007">
        <ele>15.0</ele>
        <time>2022-05-31T19:21:01+02:00</time>
      </trkpt>
      <trkpt lat="39.48568334" lon="-0.4164633299999999">
        <ele>15.0</ele>
        <time>2022-05-31T19:21:02+02:00</time>
      </trkpt>
      <trkpt lat="39.48565167" lon="-0.4164016600000001">
        <ele>15.0</ele>
        <time>2022-05-31T19:21:03+02:00</time>
      </trkpt>
      <trkpt lat="39.48562667" lon="-0.41633166">
        <ele>15.0</ele>
        <time>2022-05-31T19:21:04+02:00</time>
      </trkpt>
      <trkpt lat="39.48561500000001" lon="-0.41625832999999995">
        <ele>15.0</ele>
        <time>2022-05-31T19:21:05+02:00</time>
      </trkpt>
      <trkpt lat="39.48560834" lon="-0.41610665999999996">
        <ele>15.0</ele>
        <time>2022-05-31T19:21:07+02:00</time>
      </trkpt>
      <trkpt lat="39.48561167" lon="-0.41603165999999997">
        <ele>15.0</ele>
        <time>2022-05-31T19:21:08+02:00</time>
      </trkpt>
      <trkpt lat="39.48561667" lon="-0.41596">
        <ele>15.0</ele>
        <time>2022-05-31T19:21:09+02:00</time>
      </trkpt>
      <trkpt lat="39.485620000000004" lon="-0.4158866600000001">
        <ele>15.0</ele>
        <time>2022-05-31T19:21:10+02:00</time>
      </trkpt>
      <trkpt lat="39.485620000000004" lon="-0.41581166">
        <ele>15.0</ele>
        <time>2022-05-31T19:21:11+02:00</time>
      </trkpt>
      <trkpt lat="39.48561834" lon="-0.415735">
        <ele>15.0</ele>
        <time>2022-05-31T19:21:12+02:00</time>
      </trkpt>
      <trkpt lat="39.485614" lon="-0.41567500000000007">
        <ele>15.0</ele>
        <time>2022-05-31T19:21:13+02:00</time>
      </trkpt>
      <trkpt lat="39.485605670000005" lon="-0.41558832999999995">
        <ele>15.0</ele>
        <time>2022-05-31T19:21:14+02:00</time>
      </trkpt>
      <trkpt lat="39.485596" lon="-0.41551499999999997">
        <ele>15.0</ele>
        <time>2022-05-31T19:21:15+02:00</time>
      </trkpt>
      <trkpt lat="39.48558267" lon="-0.4154433299999999">
        <ele>15.0</ele>
        <time>2022-05-31T19:21:16+02:00</time>
      </trkpt>
      <trkpt lat="39.485566000000006" lon="-0.41537666000000006">
        <ele>16.0</ele>
        <time>2022-05-31T19:21:17+02:00</time>
      </trkpt>
      <trkpt lat="39.485521670000004" lon="-0.41530500000000004">
        <ele>16.0</ele>
        <time>2022-05-31T19:21:18+02:00</time>
      </trkpt>
      <trkpt lat="39.48549667000001" lon="-0.415235">
        <ele>16.0</ele>
        <time>2022-05-31T19:21:19+02:00</time>
      </trkpt>
      <trkpt lat="39.48547433999999" lon="-0.4151649999999999">
        <ele>16.0</ele>
        <time>2022-05-31T19:21:20+02:00</time>
      </trkpt>
      <trkpt lat="39.48545467" lon="-0.41508832999999995">
        <ele>16.0</ele>
        <time>2022-05-31T19:21:21+02:00</time>
      </trkpt>
      <trkpt lat="39.48543834" lon="-0.41501332999999996">
        <ele>16.0</ele>
        <time>2022-05-31T19:21:22+02:00</time>
      </trkpt>
      <trkpt lat="39.485424" lon="-0.4149399999999999">
        <ele>16.0</ele>
        <time>2022-05-31T19:21:23+02:00</time>
      </trkpt>
      <trkpt lat="39.485411" lon="-0.41486499999999993">
        <ele>16.0</ele>
        <time>2022-05-31T19:21:24+02:00</time>
      </trkpt>
      <trkpt lat="39.485399339999994" lon="-0.41479">
        <ele>16.0</ele>
        <time>2022-05-31T19:21:25+02:00</time>
      </trkpt>
      <trkpt lat="39.485387" lon="-0.41471666">
        <ele>16.0</ele>
        <time>2022-05-31T19:21:26+02:00</time>
      </trkpt>
      <trkpt lat="39.48537399999999" lon="-0.414645">
        <ele>16.0</ele>
        <time>2022-05-31T19:21:27+02:00</time>
      </trkpt>
      <trkpt lat="39.48536034" lon="-0.41457666">
        <ele>16.0</ele>
        <time>2022-05-31T19:21:28+02:00</time>
      </trkpt>
      <trkpt lat="39.485345" lon="-0.41450332999999995">
        <ele>16.0</ele>
        <time>2022-05-31T19:21:29+02:00</time>
      </trkpt>
      <trkpt lat="39.48532833999999" lon="-0.4144316600000001">
        <ele>16.0</ele>
        <time>2022-05-31T19:21:30+02:00</time>
      </trkpt>
      <trkpt lat="39.485294999999994" lon="-0.41428666000000003">
        <ele>16.0</ele>
        <time>2022-05-31T19:21:32+02:00</time>
      </trkpt>
      <trkpt lat="39.485277669999995" lon="-0.41421666">
        <ele>16.0</ele>
        <time>2022-05-31T19:21:33+02:00</time>
      </trkpt>
      <trkpt lat="39.48526167" lon="-0.41414333000000003">
        <ele>16.0</ele>
        <time>2022-05-31T19:21:34+02:00</time>
      </trkpt>
      <trkpt lat="39.485245000000006" lon="-0.41406666000000014">
        <ele>16.0</ele>
        <time>2022-05-31T19:21:35+02:00</time>
      </trkpt>
      <trkpt lat="39.48522967" lon="-0.4139966600000001">
        <ele>16.0</ele>
        <time>2022-05-31T19:21:36+02:00</time>
      </trkpt>
      <trkpt lat="39.485214" lon="-0.413925">
        <ele>16.0</ele>
        <time>2022-05-31T19:21:37+02:00</time>
      </trkpt>
      <trkpt lat="39.485199" lon="-0.4138533300000001">
        <ele>16.0</ele>
        <time>2022-05-31T19:21:38+02:00</time>
      </trkpt>
      <trkpt lat="39.485183340000006" lon="-0.41378166">
        <ele>16.0</ele>
        <time>2022-05-31T19:21:39+02:00</time>
      </trkpt>
      <trkpt lat="39.485168" lon="-0.41371166000000004">
        <ele>16.0</ele>
        <time>2022-05-31T19:21:40+02:00</time>
      </trkpt>
      <trkpt lat="39.48514899999999" lon="-0.41364166">
        <ele>16.0</ele>
        <time>2022-05-31T19:21:41+02:00</time>
      </trkpt>
      <trkpt lat="39.485133669999996" lon="-0.41357333">
        <ele>16.0</ele>
        <time>2022-05-31T19:21:42+02:00</time>
      </trkpt>
      <trkpt lat="39.48511467" lon="-0.41350666">
        <ele>16.0</ele>
        <time>2022-05-31T19:21:43+02:00</time>
      </trkpt>
      <trkpt lat="39.48509833999999" lon="-0.41343832999999997">
        <ele>16.0</ele>
        <time>2022-05-31T19:21:44+02:00</time>
      </trkpt>
      <trkpt lat="39.48507967" lon="-0.413375">
        <ele>16.0</ele>
        <time>2022-05-31T19:21:45+02:00</time>
      </trkpt>
      <trkpt lat="39.48506034" lon="-0.41331166">
        <ele>16.0</ele>
        <time>2022-05-31T19:21:46+02:00</time>
      </trkpt>
      <trkpt lat="39.48504467" lon="-0.41324500000000003">
        <ele>16.0</ele>
        <time>2022-05-31T19:21:47+02:00</time>
      </trkpt>
      <trkpt lat="39.48502367" lon="-0.4131766600000001">
        <ele>15.0</ele>
        <time>2022-05-31T19:21:48+02:00</time>
      </trkpt>
      <trkpt lat="39.48500834" lon="-0.41311166000000005">
        <ele>15.0</ele>
        <time>2022-05-31T19:21:49+02:00</time>
      </trkpt>
      <trkpt lat="39.48499334" lon="-0.41304832999999996">
        <ele>15.0</ele>
        <time>2022-05-31T19:21:50+02:00</time>
      </trkpt>
      <trkpt lat="39.484978999999996" lon="-0.4129899999999999">
        <ele>15.0</ele>
        <time>2022-05-31T19:21:51+02:00</time>
      </trkpt>
      <trkpt lat="39.48495834" lon="-0.41290166000000017">
        <ele>15.0</ele>
        <time>2022-05-31T19:21:54+02:00</time>
      </trkpt>
      <trkpt lat="39.48492" lon="-0.41281999999999996">
        <ele>14.0</ele>
        <time>2022-05-31T19:21:55+02:00</time>
      </trkpt>
      <trkpt lat="39.48488034" lon="-0.41272833000000003">
        <ele>14.0</ele>
        <time>2022-05-31T19:21:57+02:00</time>
      </trkpt>
      <trkpt lat="39.48483667000001" lon="-0.41262833">
        <ele>14.0</ele>
        <time>2022-05-31T19:21:59+02:00</time>
      </trkpt>
      <trkpt lat="39.48481399999999" lon="-0.41257333">
        <ele>14.0</ele>
        <time>2022-05-31T19:22:00+02:00</time>
      </trkpt>
      <trkpt lat="39.48479167000001" lon="-0.41251833">
        <ele>14.0</ele>
        <time>2022-05-31T19:22:01+02:00</time>
      </trkpt>
      <trkpt lat="39.484768339999995" lon="-0.4124633299999999">
        <ele>14.0</ele>
        <time>2022-05-31T19:22:02+02:00</time>
      </trkpt>
      <trkpt lat="39.48474467" lon="-0.41240666">
        <ele>14.0</ele>
        <time>2022-05-31T19:22:03+02:00</time>
      </trkpt>
      <trkpt lat="39.48472167000001" lon="-0.41235333">
        <ele>14.0</ele>
        <time>2022-05-31T19:22:04+02:00</time>
      </trkpt>
      <trkpt lat="39.484697" lon="-0.41229499999999997">
        <ele>14.0</ele>
        <time>2022-05-31T19:22:05+02:00</time>
      </trkpt>
      <trkpt lat="39.48467167" lon="-0.412235">
        <ele>14.0</ele>
        <time>2022-05-31T19:22:06+02:00</time>
      </trkpt>
      <trkpt lat="39.48464700000001" lon="-0.4121766600000001">
        <ele>14.0</ele>
        <time>2022-05-31T19:22:07+02:00</time>
      </trkpt>
      <trkpt lat="39.484622" lon="-0.4121216600000001">
        <ele>14.0</ele>
        <time>2022-05-31T19:22:08+02:00</time>
      </trkpt>
      <trkpt lat="39.48459767000001" lon="-0.41206499999999996">
        <ele>13.0</ele>
        <time>2022-05-31T19:22:09+02:00</time>
      </trkpt>
      <trkpt lat="39.48457133999999" lon="-0.41200833000000003">
        <ele>13.0</ele>
        <time>2022-05-31T19:22:10+02:00</time>
      </trkpt>
      <trkpt lat="39.484546339999994" lon="-0.411955">
        <ele>13.0</ele>
        <time>2022-05-31T19:22:11+02:00</time>
      </trkpt>
      <trkpt lat="39.48452" lon="-0.4119">
        <ele>13.0</ele>
        <time>2022-05-31T19:22:12+02:00</time>
      </trkpt>
      <trkpt lat="39.48447133999999" lon="-0.41179499999999997">
        <ele>13.0</ele>
        <time>2022-05-31T19:22:14+02:00</time>
      </trkpt>
      <trkpt lat="39.484435" lon="-0.41171832999999997">
        <ele>13.0</ele>
        <time>2022-05-31T19:22:16+02:00</time>
      </trkpt>
      <trkpt lat="39.48440567" lon="-0.41166">
        <ele>13.0</ele>
        <time>2022-05-31T19:22:19+02:00</time>
      </trkpt>
      <trkpt lat="39.484369339999986" lon="-0.41158666000000005">
        <ele>13.0</ele>
        <time>2022-05-31T19:22:20+02:00</time>
      </trkpt>
      <trkpt lat="39.484323339999996" lon="-0.41150000000000003">
        <ele>13.0</ele>
        <time>2022-05-31T19:22:22+02:00</time>
      </trkpt>
      <trkpt lat="39.48427433999999" lon="-0.41141000000000005">
        <ele>13.0</ele>
        <time>2022-05-31T19:22:24+02:00</time>
      </trkpt>
      <trkpt lat="39.48424433999999" lon="-0.41136166">
        <ele>13.0</ele>
        <time>2022-05-31T19:22:25+02:00</time>
      </trkpt>
      <trkpt lat="39.48421667000001" lon="-0.4113133299999999">
        <ele>13.0</ele>
        <time>2022-05-31T19:22:26+02:00</time>
      </trkpt>
      <trkpt lat="39.48418433999999" lon="-0.41126166">
        <ele>13.0</ele>
        <time>2022-05-31T19:22:27+02:00</time>
      </trkpt>
      <trkpt lat="39.48415367" lon="-0.41120833">
        <ele>13.0</ele>
        <time>2022-05-31T19:22:28+02:00</time>
      </trkpt>
      <trkpt lat="39.48412267" lon="-0.41115500000000005">
        <ele>13.0</ele>
        <time>2022-05-31T19:22:29+02:00</time>
      </trkpt>
      <trkpt lat="39.48409234" lon="-0.4111033300000001">
        <ele>13.0</ele>
        <time>2022-05-31T19:22:30+02:00</time>
      </trkpt>
      <trkpt lat="39.484061000000004" lon="-0.41105">
        <ele>13.0</ele>
        <time>2022-05-31T19:22:31+02:00</time>
      </trkpt>
      <trkpt lat="39.48403" lon="-0.4109983300000001">
        <ele>13.0</ele>
        <time>2022-05-31T19:22:32+02:00</time>
      </trkpt>
      <trkpt lat="39.48399667" lon="-0.4109416600000001">
        <ele>13.0</ele>
        <time>2022-05-31T19:22:33+02:00</time>
      </trkpt>
      <trkpt lat="39.48396334" lon="-0.41088666000000007">
        <ele>13.0</ele>
        <time>2022-05-31T19:22:34+02:00</time>
      </trkpt>
      <trkpt lat="39.48393367" lon="-0.4108300000000001">
        <ele>13.0</ele>
        <time>2022-05-31T19:22:35+02:00</time>
      </trkpt>
      <trkpt lat="39.48389933999999" lon="-0.4107716600000001">
        <ele>13.0</ele>
        <time>2022-05-31T19:22:36+02:00</time>
      </trkpt>
      <trkpt lat="39.483867000000004" lon="-0.4107100000000001">
        <ele>13.0</ele>
        <time>2022-05-31T19:22:37+02:00</time>
      </trkpt>
      <trkpt lat="39.48383667" lon="-0.4106516600000001">
        <ele>13.0</ele>
        <time>2022-05-31T19:22:38+02:00</time>
      </trkpt>
      <trkpt lat="39.483808669999995" lon="-0.41058832999999995">
        <ele>13.0</ele>
        <time>2022-05-31T19:22:39+02:00</time>
      </trkpt>
      <trkpt lat="39.48377634" lon="-0.410525">
        <ele>13.0</ele>
        <time>2022-05-31T19:22:40+02:00</time>
      </trkpt>
      <trkpt lat="39.48375" lon="-0.4104633299999999">
        <ele>13.0</ele>
        <time>2022-05-31T19:22:41+02:00</time>
      </trkpt>
      <trkpt lat="39.48371867" lon="-0.4104">
        <ele>13.0</ele>
        <time>2022-05-31T19:22:42+02:00</time>
      </trkpt>
      <trkpt lat="39.483664000000005" lon="-0.41026832999999996">
        <ele>13.0</ele>
        <time>2022-05-31T19:22:44+02:00</time>
      </trkpt>
      <trkpt lat="39.48363867" lon="-0.41020500000000004">
        <ele>13.0</ele>
        <time>2022-05-31T19:22:45+02:00</time>
      </trkpt>
      <trkpt lat="39.483613670000004" lon="-0.41014166">
        <ele>13.0</ele>
        <time>2022-05-31T19:22:46+02:00</time>
      </trkpt>
      <trkpt lat="39.483589339999995" lon="-0.41007833">
        <ele>13.0</ele>
        <time>2022-05-31T19:22:47+02:00</time>
      </trkpt>
      <trkpt lat="39.48356367" lon="-0.41001166">
        <ele>13.0</ele>
        <time>2022-05-31T19:22:48+02:00</time>
      </trkpt>
      <trkpt lat="39.483540000000005" lon="-0.40994833">
        <ele>13.0</ele>
        <time>2022-05-31T19:22:49+02:00</time>
      </trkpt>
      <trkpt lat="39.483517000000006" lon="-0.40988500000000005">
        <ele>13.0</ele>
        <time>2022-05-31T19:22:50+02:00</time>
      </trkpt>
      <trkpt lat="39.483495000000005" lon="-0.40982332999999993">
        <ele>13.0</ele>
        <time>2022-05-31T19:22:51+02:00</time>
      </trkpt>
      <trkpt lat="39.483473339999996" lon="-0.40976166">
        <ele>13.0</ele>
        <time>2022-05-31T19:22:52+02:00</time>
      </trkpt>
      <trkpt lat="39.48345234" lon="-0.4097016600000001">
        <ele>13.0</ele>
        <time>2022-05-31T19:22:53+02:00</time>
      </trkpt>
      <trkpt lat="39.48342667" lon="-0.4096433299999999">
        <ele>13.0</ele>
        <time>2022-05-31T19:22:54+02:00</time>
      </trkpt>
      <trkpt lat="39.48340634" lon="-0.40958500000000003">
        <ele>12.0</ele>
        <time>2022-05-31T19:22:55+02:00</time>
      </trkpt>
      <trkpt lat="39.483393670000005" lon="-0.40952833">
        <ele>12.0</ele>
        <time>2022-05-31T19:22:56+02:00</time>
      </trkpt>
      <trkpt lat="39.483375" lon="-0.40947332999999997">
        <ele>12.0</ele>
        <time>2022-05-31T19:22:57+02:00</time>
      </trkpt>
      <trkpt lat="39.483357340000005" lon="-0.4094199999999999">
        <ele>12.0</ele>
        <time>2022-05-31T19:22:58+02:00</time>
      </trkpt>
      <trkpt lat="39.48333167" lon="-0.40935000000000005">
        <ele>11.0</ele>
        <time>2022-05-31T19:23:00+02:00</time>
      </trkpt>
      <trkpt lat="39.483295" lon="-0.4093400000000001">
        <ele>11.0</ele>
        <time>2022-05-31T19:23:02+02:00</time>
      </trkpt>
      <trkpt lat="39.48317" lon="-0.40937666000000006">
        <ele>9.0</ele>
        <time>2022-05-31T19:23:05+02:00</time>
      </trkpt>
      <trkpt lat="39.483125" lon="-0.40938466">
        <ele>9.0</ele>
        <time>2022-05-31T19:23:06+02:00</time>
      </trkpt>
      <trkpt lat="39.48307667" lon="-0.40939333">
        <ele>8.0</ele>
        <time>2022-05-31T19:23:07+02:00</time>
      </trkpt>
      <trkpt lat="39.48302834" lon="-0.40940032999999987">
        <ele>8.0</ele>
        <time>2022-05-31T19:23:08+02:00</time>
      </trkpt>
      <trkpt lat="39.48298" lon="-0.40940899999999997">
        <ele>8.0</ele>
        <time>2022-05-31T19:23:09+02:00</time>
      </trkpt>
      <trkpt lat="39.482929999999996" lon="-0.40941799999999995">
        <ele>7.0</ele>
        <time>2022-05-31T19:23:10+02:00</time>
      </trkpt>
      <trkpt lat="39.482879999999994" lon="-0.40942833">
        <ele>7.0</ele>
        <time>2022-05-31T19:23:11+02:00</time>
      </trkpt>
      <trkpt lat="39.48282833999999" lon="-0.40943966000000004">
        <ele>7.0</ele>
        <time>2022-05-31T19:23:12+02:00</time>
      </trkpt>
      <trkpt lat="39.48277667000001" lon="-0.40945133">
        <ele>7.0</ele>
        <time>2022-05-31T19:23:13+02:00</time>
      </trkpt>
      <trkpt lat="39.48272667" lon="-0.40946266">
        <ele>6.0</ele>
        <time>2022-05-31T19:23:14+02:00</time>
      </trkpt>
      <trkpt lat="39.48267833999999" lon="-0.409474">
        <ele>6.0</ele>
        <time>2022-05-31T19:23:15+02:00</time>
      </trkpt>
      <trkpt lat="39.48262667" lon="-0.40948699999999993">
        <ele>6.0</ele>
        <time>2022-05-31T19:23:16+02:00</time>
      </trkpt>
      <trkpt lat="39.482526670000006" lon="-0.4095156600000001">
        <ele>6.0</ele>
        <time>2022-05-31T19:23:18+02:00</time>
      </trkpt>
      <trkpt lat="39.482475" lon="-0.409535">
        <ele>6.0</ele>
        <time>2022-05-31T19:23:19+02:00</time>
      </trkpt>
      <trkpt lat="39.48242334" lon="-0.4095536600000001">
        <ele>5.0</ele>
        <time>2022-05-31T19:23:20+02:00</time>
      </trkpt>
      <trkpt lat="39.482373339999995" lon="-0.409571">
        <ele>5.0</ele>
        <time>2022-05-31T19:23:21+02:00</time>
      </trkpt>
      <trkpt lat="39.48232" lon="-0.4095916600000001">
        <ele>5.0</ele>
        <time>2022-05-31T19:23:22+02:00</time>
      </trkpt>
      <trkpt lat="39.48226834" lon="-0.40961100000000006">
        <ele>5.0</ele>
        <time>2022-05-31T19:23:23+02:00</time>
      </trkpt>
      <trkpt lat="39.48221667000001" lon="-0.40963033">
        <ele>5.0</ele>
        <time>2022-05-31T19:23:24+02:00</time>
      </trkpt>
      <trkpt lat="39.482161669999996" lon="-0.40964966">
        <ele>5.0</ele>
        <time>2022-05-31T19:23:25+02:00</time>
      </trkpt>
      <trkpt lat="39.48211" lon="-0.40966766000000004">
        <ele>5.0</ele>
        <time>2022-05-31T19:23:26+02:00</time>
      </trkpt>
      <trkpt lat="39.48205834" lon="-0.4096863299999999">
        <ele>5.0</ele>
        <time>2022-05-31T19:23:27+02:00</time>
      </trkpt>
      <trkpt lat="39.48200667" lon="-0.40970466000000005">
        <ele>4.0</ele>
        <time>2022-05-31T19:23:28+02:00</time>
      </trkpt>
      <trkpt lat="39.48195833999999" lon="-0.4097199999999999">
        <ele>4.0</ele>
        <time>2022-05-31T19:23:30+02:00</time>
      </trkpt>
      <trkpt lat="39.48186667" lon="-0.4097513299999999">
        <ele>4.0</ele>
        <time>2022-05-31T19:23:31+02:00</time>
      </trkpt>
      <trkpt lat="39.48182333999999" lon="-0.409768">
        <ele>4.0</ele>
        <time>2022-05-31T19:23:32+02:00</time>
      </trkpt>
      <trkpt lat="39.481781670000004" lon="-0.4097883299999999">
        <ele>4.0</ele>
        <time>2022-05-31T19:23:33+02:00</time>
      </trkpt>
      <trkpt lat="39.48170167" lon="-0.4099216600000001">
        <ele>4.0</ele>
        <time>2022-05-31T19:23:35+02:00</time>
      </trkpt>
      <trkpt lat="39.48166334" lon="-0.40997500000000003">
        <ele>4.0</ele>
        <time>2022-05-31T19:23:36+02:00</time>
      </trkpt>
      <trkpt lat="39.48162834" lon="-0.4100230000000001">
        <ele>4.0</ele>
        <time>2022-05-31T19:23:37+02:00</time>
      </trkpt>
      <trkpt lat="39.481590000000004" lon="-0.41006766000000006">
        <ele>4.0</ele>
        <time>2022-05-31T19:23:38+02:00</time>
      </trkpt>
      <trkpt lat="39.48155334" lon="-0.410105">
        <ele>4.0</ele>
        <time>2022-05-31T19:23:39+02:00</time>
      </trkpt>
      <trkpt lat="39.48148334" lon="-0.4101166600000001">
        <ele>4.0</ele>
        <time>2022-05-31T19:23:41+02:00</time>
      </trkpt>
      <trkpt lat="39.48141167" lon="-0.41008500000000003">
        <ele>4.0</ele>
        <time>2022-05-31T19:23:43+02:00</time>
      </trkpt>
      <trkpt lat="39.481336670000005" lon="-0.410025">
        <ele>4.0</ele>
        <time>2022-05-31T19:23:45+02:00</time>
      </trkpt>
      <trkpt lat="39.4813" lon="-0.40998666000000006">
        <ele>4.0</ele>
        <time>2022-05-31T19:23:46+02:00</time>
      </trkpt>
      <trkpt lat="39.481261669999995" lon="-0.40994833">
        <ele>4.0</ele>
        <time>2022-05-31T19:23:47+02:00</time>
      </trkpt>
      <trkpt lat="39.48118334" lon="-0.40985866">
        <ele>4.0</ele>
        <time>2022-05-31T19:23:49+02:00</time>
      </trkpt>
      <trkpt lat="39.48114167000001" lon="-0.409814">
        <ele>4.0</ele>
        <time>2022-05-31T19:23:50+02:00</time>
      </trkpt>
      <trkpt lat="39.48109834" lon="-0.40977066000000006">
        <ele>4.0</ele>
        <time>2022-05-31T19:23:51+02:00</time>
      </trkpt>
      <trkpt lat="39.48105334" lon="-0.40973">
        <ele>4.0</ele>
        <time>2022-05-31T19:23:52+02:00</time>
      </trkpt>
      <trkpt lat="39.48096667000001" lon="-0.40965266">
        <ele>5.0</ele>
        <time>2022-05-31T19:23:54+02:00</time>
      </trkpt>
      <trkpt lat="39.480925" lon="-0.40961566000000005">
        <ele>5.0</ele>
        <time>2022-05-31T19:23:55+02:00</time>
      </trkpt>
      <trkpt lat="39.48088167" lon="-0.40957633">
        <ele>5.0</ele>
        <time>2022-05-31T19:23:56+02:00</time>
      </trkpt>
      <trkpt lat="39.480841670000004" lon="-0.40953933">
        <ele>5.0</ele>
        <time>2022-05-31T19:23:57+02:00</time>
      </trkpt>
      <trkpt lat="39.48080167" lon="-0.40950166">
        <ele>5.0</ele>
        <time>2022-05-31T19:23:58+02:00</time>
      </trkpt>
      <trkpt lat="39.48076167000001" lon="-0.40946432999999993">
        <ele>5.0</ele>
        <time>2022-05-31T19:23:59+02:00</time>
      </trkpt>
      <trkpt lat="39.48072167000001" lon="-0.40942632999999995">
        <ele>5.0</ele>
        <time>2022-05-31T19:24:00+02:00</time>
      </trkpt>
      <trkpt lat="39.48068167" lon="-0.409389">
        <ele>5.0</ele>
        <time>2022-05-31T19:24:01+02:00</time>
      </trkpt>
      <trkpt lat="39.480605" lon="-0.409318">
        <ele>5.0</ele>
        <time>2022-05-31T19:24:03+02:00</time>
      </trkpt>
      <trkpt lat="39.480568340000005" lon="-0.40928332999999995">
        <ele>5.0</ele>
        <time>2022-05-31T19:24:04+02:00</time>
      </trkpt>
      <trkpt lat="39.48052833999999" lon="-0.40924632999999994">
        <ele>5.0</ele>
        <time>2022-05-31T19:24:05+02:00</time>
      </trkpt>
      <trkpt lat="39.480485" lon="-0.4092053299999999">
        <ele>5.0</ele>
        <time>2022-05-31T19:24:06+02:00</time>
      </trkpt>
      <trkpt lat="39.48044" lon="-0.40916566000000004">
        <ele>5.0</ele>
        <time>2022-05-31T19:24:07+02:00</time>
      </trkpt>
      <trkpt lat="39.48039333999999" lon="-0.4091240000000001">
        <ele>5.0</ele>
        <time>2022-05-31T19:24:08+02:00</time>
      </trkpt>
      <trkpt lat="39.48034833999999" lon="-0.40908432999999994">
        <ele>5.0</ele>
        <time>2022-05-31T19:24:09+02:00</time>
      </trkpt>
      <trkpt lat="39.48030167" lon="-0.4090433299999999">
        <ele>5.0</ele>
        <time>2022-05-31T19:24:10+02:00</time>
      </trkpt>
      <trkpt lat="39.480255" lon="-0.40900099999999995">
        <ele>5.0</ele>
        <time>2022-05-31T19:24:11+02:00</time>
      </trkpt>
      <trkpt lat="39.48016167" lon="-0.40892">
        <ele>5.0</ele>
        <time>2022-05-31T19:24:13+02:00</time>
      </trkpt>
      <trkpt lat="39.48011167" lon="-0.4088780000000001">
        <ele>5.0</ele>
        <time>2022-05-31T19:24:14+02:00</time>
      </trkpt>
      <trkpt lat="39.480059999999995" lon="-0.40884">
        <ele>5.0</ele>
        <time>2022-05-31T19:24:16+02:00</time>
      </trkpt>
      <trkpt lat="39.479955000000004" lon="-0.40884166000000005">
        <ele>6.0</ele>
        <time>2022-05-31T19:24:17+02:00</time>
      </trkpt>
      <trkpt lat="39.47990334" lon="-0.40882333000000004">
        <ele>6.0</ele>
        <time>2022-05-31T19:24:18+02:00</time>
      </trkpt>
      <trkpt lat="39.47985167" lon="-0.40881032999999994">
        <ele>6.0</ele>
        <time>2022-05-31T19:24:19+02:00</time>
      </trkpt>
      <trkpt lat="39.47974834" lon="-0.40879433">
        <ele>6.0</ele>
        <time>2022-05-31T19:24:21+02:00</time>
      </trkpt>
      <trkpt lat="39.47969500000001" lon="-0.40878800000000004">
        <ele>6.0</ele>
        <time>2022-05-31T19:24:22+02:00</time>
      </trkpt>
      <trkpt lat="39.479643339999996" lon="-0.4087803299999999">
        <ele>6.0</ele>
        <time>2022-05-31T19:24:23+02:00</time>
      </trkpt>
      <trkpt lat="39.479591670000005" lon="-0.40877333">
        <ele>6.0</ele>
        <time>2022-05-31T19:24:24+02:00</time>
      </trkpt>
      <trkpt lat="39.47953834" lon="-0.40876766">
        <ele>6.0</ele>
        <time>2022-05-31T19:24:25+02:00</time>
      </trkpt>
      <trkpt lat="39.479440000000004" lon="-0.40875500000000003">
        <ele>6.0</ele>
        <time>2022-05-31T19:24:27+02:00</time>
      </trkpt>
      <trkpt lat="39.47939" lon="-0.40874766000000007">
        <ele>6.0</ele>
        <time>2022-05-31T19:24:28+02:00</time>
      </trkpt>
      <trkpt lat="39.47934" lon="-0.40873866000000003">
        <ele>6.0</ele>
        <time>2022-05-31T19:24:29+02:00</time>
      </trkpt>
      <trkpt lat="39.479290000000006" lon="-0.4087286600000001">
        <ele>6.0</ele>
        <time>2022-05-31T19:24:30+02:00</time>
      </trkpt>
      <trkpt lat="39.479240000000004" lon="-0.40871899999999994">
        <ele>6.0</ele>
        <time>2022-05-31T19:24:31+02:00</time>
      </trkpt>
      <trkpt lat="39.47919" lon="-0.408709">
        <ele>6.0</ele>
        <time>2022-05-31T19:24:32+02:00</time>
      </trkpt>
      <trkpt lat="39.479139999999994" lon="-0.40869833">
        <ele>6.0</ele>
        <time>2022-05-31T19:24:33+02:00</time>
      </trkpt>
      <trkpt lat="39.47904334" lon="-0.40867966000000006">
        <ele>6.0</ele>
        <time>2022-05-31T19:24:35+02:00</time>
      </trkpt>
      <trkpt lat="39.478991670000006" lon="-0.40866832999999997">
        <ele>6.0</ele>
        <time>2022-05-31T19:24:36+02:00</time>
      </trkpt>
      <trkpt lat="39.47894" lon="-0.40865933">
        <ele>6.0</ele>
        <time>2022-05-31T19:24:37+02:00</time>
      </trkpt>
      <trkpt lat="39.47888834" lon="-0.40865232999999995">
        <ele>6.0</ele>
        <time>2022-05-31T19:24:38+02:00</time>
      </trkpt>
      <trkpt lat="39.478835" lon="-0.4086436600000001">
        <ele>6.0</ele>
        <time>2022-05-31T19:24:39+02:00</time>
      </trkpt>
      <trkpt lat="39.47873" lon="-0.40862866000000003">
        <ele>7.0</ele>
        <time>2022-05-31T19:24:41+02:00</time>
      </trkpt>
      <trkpt lat="39.47867834" lon="-0.4086203299999999">
        <ele>7.0</ele>
        <time>2022-05-31T19:24:42+02:00</time>
      </trkpt>
      <trkpt lat="39.478626670000004" lon="-0.40861466">
        <ele>7.0</ele>
        <time>2022-05-31T19:24:43+02:00</time>
      </trkpt>
      <trkpt lat="39.47857667" lon="-0.4086063299999999">
        <ele>7.0</ele>
        <time>2022-05-31T19:24:44+02:00</time>
      </trkpt>
      <trkpt lat="39.47853" lon="-0.40859533">
        <ele>7.0</ele>
        <time>2022-05-31T19:24:45+02:00</time>
      </trkpt>
      <trkpt lat="39.47848" lon="-0.408583">
        <ele>7.0</ele>
        <time>2022-05-31T19:24:46+02:00</time>
      </trkpt>
      <trkpt lat="39.47842834" lon="-0.40857">
        <ele>7.0</ele>
        <time>2022-05-31T19:24:47+02:00</time>
      </trkpt>
      <trkpt lat="39.47837667" lon="-0.40855632999999997">
        <ele>7.0</ele>
        <time>2022-05-31T19:24:48+02:00</time>
      </trkpt>
      <trkpt lat="39.47832667" lon="-0.40854366">
        <ele>7.0</ele>
        <time>2022-05-31T19:24:49+02:00</time>
      </trkpt>
      <trkpt lat="39.478275000000004" lon="-0.40852966">
        <ele>7.0</ele>
        <time>2022-05-31T19:24:50+02:00</time>
      </trkpt>
      <trkpt lat="39.478224999999995" lon="-0.40851932999999996">
        <ele>7.0</ele>
        <time>2022-05-31T19:24:51+02:00</time>
      </trkpt>
      <trkpt lat="39.47812667000001" lon="-0.40849633">
        <ele>7.0</ele>
        <time>2022-05-31T19:24:53+02:00</time>
      </trkpt>
      <trkpt lat="39.47808167" lon="-0.40848266000000005">
        <ele>7.0</ele>
        <time>2022-05-31T19:24:54+02:00</time>
      </trkpt>
      <trkpt lat="39.47803667" lon="-0.408469">
        <ele>7.0</ele>
        <time>2022-05-31T19:24:55+02:00</time>
      </trkpt>
      <trkpt lat="39.477990000000005" lon="-0.40845433">
        <ele>7.0</ele>
        <time>2022-05-31T19:24:56+02:00</time>
      </trkpt>
      <trkpt lat="39.477945" lon="-0.40843933000000004">
        <ele>7.0</ele>
        <time>2022-05-31T19:24:57+02:00</time>
      </trkpt>
      <trkpt lat="39.47789834" lon="-0.40842">
        <ele>7.0</ele>
        <time>2022-05-31T19:24:58+02:00</time>
      </trkpt>
      <trkpt lat="39.47781" lon="-0.40839466">
        <ele>7.0</ele>
        <time>2022-05-31T19:25:00+02:00</time>
      </trkpt>
      <trkpt lat="39.477668339999994" lon="-0.408328">
        <ele>7.0</ele>
        <time>2022-05-31T19:25:01+02:00</time>
      </trkpt>
      <trkpt lat="39.47761334" lon="-0.40830199999999994">
        <ele>7.0</ele>
        <time>2022-05-31T19:25:02+02:00</time>
      </trkpt>
      <trkpt lat="39.477551670000004" lon="-0.40827366">
        <ele>7.0</ele>
        <time>2022-05-31T19:25:03+02:00</time>
      </trkpt>
      <trkpt lat="39.477485" lon="-0.40824365999999995">
        <ele>7.0</ele>
        <time>2022-05-31T19:25:04+02:00</time>
      </trkpt>
      <trkpt lat="39.47741667000001" lon="-0.4082123299999999">
        <ele>7.0</ele>
        <time>2022-05-31T19:25:05+02:00</time>
      </trkpt>
      <trkpt lat="39.47734834" lon="-0.40818033">
        <ele>7.0</ele>
        <time>2022-05-31T19:25:06+02:00</time>
      </trkpt>
      <trkpt lat="39.47728667" lon="-0.40814965999999997">
        <ele>7.0</ele>
        <time>2022-05-31T19:25:07+02:00</time>
      </trkpt>
      <trkpt lat="39.477225" lon="-0.40812366000000005">
        <ele>7.0</ele>
        <time>2022-05-31T19:25:08+02:00</time>
      </trkpt>
      <trkpt lat="39.477165" lon="-0.40809266">
        <ele>7.0</ele>
        <time>2022-05-31T19:25:09+02:00</time>
      </trkpt>
      <trkpt lat="39.47710334" lon="-0.4080663299999999">
        <ele>7.0</ele>
        <time>2022-05-31T19:25:10+02:00</time>
      </trkpt>
      <trkpt lat="39.477041670000006" lon="-0.40803599999999995">
        <ele>7.0</ele>
        <time>2022-05-31T19:25:11+02:00</time>
      </trkpt>
      <trkpt lat="39.476995" lon="-0.4080103299999999">
        <ele>7.0</ele>
        <time>2022-05-31T19:25:12+02:00</time>
      </trkpt>
      <trkpt lat="39.476925" lon="-0.40797166">
        <ele>7.0</ele>
        <time>2022-05-31T19:25:13+02:00</time>
      </trkpt>
      <trkpt lat="39.47686667000001" lon="-0.40794166">
        <ele>7.0</ele>
        <time>2022-05-31T19:25:14+02:00</time>
      </trkpt>
      <trkpt lat="39.47680999999999" lon="-0.40791199999999994">
        <ele>7.0</ele>
        <time>2022-05-31T19:25:15+02:00</time>
      </trkpt>
      <trkpt lat="39.47675" lon="-0.407881">
        <ele>7.0</ele>
        <time>2022-05-31T19:25:16+02:00</time>
      </trkpt>
      <trkpt lat="39.476688339999995" lon="-0.40784933">
        <ele>7.0</ele>
        <time>2022-05-31T19:25:17+02:00</time>
      </trkpt>
      <trkpt lat="39.47662834" lon="-0.40782333">
        <ele>7.0</ele>
        <time>2022-05-31T19:25:18+02:00</time>
      </trkpt>
      <trkpt lat="39.47657833999999" lon="-0.40779533">
        <ele>7.0</ele>
        <time>2022-05-31T19:25:19+02:00</time>
      </trkpt>
      <trkpt lat="39.476504999999996" lon="-0.40776433">
        <ele>7.0</ele>
        <time>2022-05-31T19:25:20+02:00</time>
      </trkpt>
      <trkpt lat="39.476443339999996" lon="-0.407738">
        <ele>6.0</ele>
        <time>2022-05-31T19:25:21+02:00</time>
      </trkpt>
      <trkpt lat="39.47638" lon="-0.40771066000000006">
        <ele>6.0</ele>
        <time>2022-05-31T19:25:22+02:00</time>
      </trkpt>
      <trkpt lat="39.476324999999996" lon="-0.40769233">
        <ele>6.0</ele>
        <time>2022-05-31T19:25:23+02:00</time>
      </trkpt>
      <trkpt lat="39.476240000000004" lon="-0.40765666000000006">
        <ele>6.0</ele>
        <time>2022-05-31T19:25:24+02:00</time>
      </trkpt>
      <trkpt lat="39.476096670000004" lon="-0.40760732999999993">
        <ele>6.0</ele>
        <time>2022-05-31T19:25:26+02:00</time>
      </trkpt>
      <trkpt lat="39.47603834" lon="-0.40758799999999995">
        <ele>5.0</ele>
        <time>2022-05-31T19:25:27+02:00</time>
      </trkpt>
      <trkpt lat="39.47595667" lon="-0.40756533">
        <ele>5.0</ele>
        <time>2022-05-31T19:25:28+02:00</time>
      </trkpt>
      <trkpt lat="39.47589167" lon="-0.4075433299999999">
        <ele>5.0</ele>
        <time>2022-05-31T19:25:29+02:00</time>
      </trkpt>
      <trkpt lat="39.47582833999999" lon="-0.4075349999999999">
        <ele>4.0</ele>
        <time>2022-05-31T19:25:30+02:00</time>
      </trkpt>
      <trkpt lat="39.47577334" lon="-0.407725">
        <ele>4.0</ele>
        <time>2022-05-31T19:25:31+02:00</time>
      </trkpt>
      <trkpt lat="39.47573167" lon="-0.407775">
        <ele>3.0</ele>
        <time>2022-05-31T19:25:32+02:00</time>
      </trkpt>
      <trkpt lat="39.47570167" lon="-0.40783833">
        <ele>3.0</ele>
        <time>2022-05-31T19:25:33+02:00</time>
      </trkpt>
      <trkpt lat="39.475675" lon="-0.4079016600000001">
        <ele>2.0</ele>
        <time>2022-05-31T19:25:34+02:00</time>
      </trkpt>
      <trkpt lat="39.47564334" lon="-0.407955">
        <ele>2.0</ele>
        <time>2022-05-31T19:25:35+02:00</time>
      </trkpt>
      <trkpt lat="39.475604340000004" lon="-0.40801">
        <ele>1.0</ele>
        <time>2022-05-31T19:25:36+02:00</time>
      </trkpt>
      <trkpt lat="39.475559999999994" lon="-0.40805500000000006">
        <ele>1.0</ele>
        <time>2022-05-31T19:25:37+02:00</time>
      </trkpt>
      <trkpt lat="39.47551334" lon="-0.40808966">
        <ele>0.0</ele>
        <time>2022-05-31T19:25:38+02:00</time>
      </trkpt>
      <trkpt lat="39.47546667000001" lon="-0.40811333000000005">
        <ele>0.0</ele>
        <time>2022-05-31T19:25:39+02:00</time>
      </trkpt>
      <trkpt lat="39.47541834" lon="-0.40813000000000005">
        <ele>0.0</ele>
        <time>2022-05-31T19:25:40+02:00</time>
      </trkpt>
      <trkpt lat="39.47531834" lon="-0.40815">
        <ele>0.0</ele>
        <time>2022-05-31T19:25:42+02:00</time>
      </trkpt>
      <trkpt lat="39.47527000000001" lon="-0.40815999999999997">
        <ele>0.0</ele>
        <time>2022-05-31T19:25:43+02:00</time>
      </trkpt>
      <trkpt lat="39.475190000000005" lon="-0.40817066">
        <ele>0.0</ele>
        <time>2022-05-31T19:25:45+02:00</time>
      </trkpt>
      <trkpt lat="39.47512667" lon="-0.4081716600000001">
        <ele>0.0</ele>
        <time>2022-05-31T19:25:47+02:00</time>
      </trkpt>
      <trkpt lat="39.47507" lon="-0.40815833">
        <ele>0.0</ele>
        <time>2022-05-31T19:25:49+02:00</time>
      </trkpt>
      <trkpt lat="39.47499834" lon="-0.40815">
        <ele>0.0</ele>
        <time>2022-05-31T19:25:52+02:00</time>
      </trkpt>
      <trkpt lat="39.47495667" lon="-0.40812766">
        <ele>0.0</ele>
        <time>2022-05-31T19:25:54+02:00</time>
      </trkpt>
      <trkpt lat="39.47491167" lon="-0.40810599999999997">
        <ele>0.0</ele>
        <time>2022-05-31T19:25:56+02:00</time>
      </trkpt>
      <trkpt lat="39.474853339999996" lon="-0.408078">
        <ele>0.0</ele>
        <time>2022-05-31T19:25:58+02:00</time>
      </trkpt>
      <trkpt lat="39.474776670000004" lon="-0.40803466000000005">
        <ele>0.0</ele>
        <time>2022-05-31T19:26:00+02:00</time>
      </trkpt>
      <trkpt lat="39.47473667" lon="-0.40800800000000004">
        <ele>0.0</ele>
        <time>2022-05-31T19:26:01+02:00</time>
      </trkpt>
      <trkpt lat="39.47469334" lon="-0.40798033">
        <ele>1.0</ele>
        <time>2022-05-31T19:26:02+02:00</time>
      </trkpt>
      <trkpt lat="39.47461500000001" lon="-0.4079263299999999">
        <ele>1.0</ele>
        <time>2022-05-31T19:26:04+02:00</time>
      </trkpt>
      <trkpt lat="39.474538339999995" lon="-0.407863">
        <ele>1.0</ele>
        <time>2022-05-31T19:26:06+02:00</time>
      </trkpt>
      <trkpt lat="39.47450334" lon="-0.407824">
        <ele>2.0</ele>
        <time>2022-05-31T19:26:07+02:00</time>
      </trkpt>
      <trkpt lat="39.474470000000004" lon="-0.4077859999999999">
        <ele>2.0</ele>
        <time>2022-05-31T19:26:08+02:00</time>
      </trkpt>
      <trkpt lat="39.47443667" lon="-0.4077466600000001">
        <ele>2.0</ele>
        <time>2022-05-31T19:26:09+02:00</time>
      </trkpt>
      <trkpt lat="39.47436834" lon="-0.40760500000000005">
        <ele>3.0</ele>
        <time>2022-05-31T19:26:11+02:00</time>
      </trkpt>
      <trkpt lat="39.47433667" lon="-0.40755832999999997">
        <ele>3.0</ele>
        <time>2022-05-31T19:26:13+02:00</time>
      </trkpt>
      <trkpt lat="39.474283" lon="-0.40747">
        <ele>3.0</ele>
        <time>2022-05-31T19:26:14+02:00</time>
      </trkpt>
      <trkpt lat="39.47425033999999" lon="-0.40741166000000006">
        <ele>4.0</ele>
        <time>2022-05-31T19:26:15+02:00</time>
      </trkpt>
      <trkpt lat="39.47422367" lon="-0.40735666000000004">
        <ele>4.0</ele>
        <time>2022-05-31T19:26:16+02:00</time>
      </trkpt>
      <trkpt lat="39.474199999999996" lon="-0.4073033300000001">
        <ele>4.0</ele>
        <time>2022-05-31T19:26:17+02:00</time>
      </trkpt>
      <trkpt lat="39.47415334" lon="-0.40719166000000007">
        <ele>4.0</ele>
        <time>2022-05-31T19:26:19+02:00</time>
      </trkpt>
      <trkpt lat="39.47413433999999" lon="-0.40713333">
        <ele>4.0</ele>
        <time>2022-05-31T19:26:20+02:00</time>
      </trkpt>
      <trkpt lat="39.47411567" lon="-0.40707499999999996">
        <ele>4.0</ele>
        <time>2022-05-31T19:26:21+02:00</time>
      </trkpt>
      <trkpt lat="39.474078999999996" lon="-0.40695">
        <ele>4.0</ele>
        <time>2022-05-31T19:26:23+02:00</time>
      </trkpt>
      <trkpt lat="39.47407167" lon="-0.40688665999999996">
        <ele>4.0</ele>
        <time>2022-05-31T19:26:24+02:00</time>
      </trkpt>
      <trkpt lat="39.4741" lon="-0.40682166000000014">
        <ele>4.0</ele>
        <time>2022-05-31T19:26:25+02:00</time>
      </trkpt>
      <trkpt lat="39.47409667000001" lon="-0.4067566600000001">
        <ele>4.0</ele>
        <time>2022-05-31T19:26:26+02:00</time>
      </trkpt>
      <trkpt lat="39.47409334" lon="-0.40668666">
        <ele>4.0</ele>
        <time>2022-05-31T19:26:27+02:00</time>
      </trkpt>
      <trkpt lat="39.47409033999999" lon="-0.40662000000000004">
        <ele>4.0</ele>
        <time>2022-05-31T19:26:28+02:00</time>
      </trkpt>
      <trkpt lat="39.474087" lon="-0.40655166000000004">
        <ele>4.0</ele>
        <time>2022-05-31T19:26:29+02:00</time>
      </trkpt>
      <trkpt lat="39.47408434" lon="-0.406485">
        <ele>5.0</ele>
        <time>2022-05-31T19:26:30+02:00</time>
      </trkpt>
      <trkpt lat="39.47407967" lon="-0.40641999999999995">
        <ele>5.0</ele>
        <time>2022-05-31T19:26:31+02:00</time>
      </trkpt>
      <trkpt lat="39.47407167" lon="-0.40636333">
        <ele>5.0</ele>
        <time>2022-05-31T19:26:32+02:00</time>
      </trkpt>
      <trkpt lat="39.474014999999994" lon="-0.40627832999999997">
        <ele>5.0</ele>
        <time>2022-05-31T19:26:34+02:00</time>
      </trkpt>
      <trkpt lat="39.473975" lon="-0.40625166">
        <ele>5.0</ele>
        <time>2022-05-31T19:26:35+02:00</time>
      </trkpt>
      <trkpt lat="39.473884999999996" lon="-0.40621666">
        <ele>6.0</ele>
        <time>2022-05-31T19:26:37+02:00</time>
      </trkpt>
      <trkpt lat="39.47383834" lon="-0.4062050000000001">
        <ele>6.0</ele>
        <time>2022-05-31T19:26:38+02:00</time>
      </trkpt>
      <trkpt lat="39.473789999999994" lon="-0.4061966600000001">
        <ele>6.0</ele>
        <time>2022-05-31T19:26:39+02:00</time>
      </trkpt>
      <trkpt lat="39.47373667" lon="-0.40619132999999985">
        <ele>6.0</ele>
        <time>2022-05-31T19:26:40+02:00</time>
      </trkpt>
      <trkpt lat="39.47368667" lon="-0.4061826600000001">
        <ele>6.0</ele>
        <time>2022-05-31T19:26:41+02:00</time>
      </trkpt>
      <trkpt lat="39.47358333999999" lon="-0.4061616600000001">
        <ele>6.0</ele>
        <time>2022-05-31T19:26:43+02:00</time>
      </trkpt>
      <trkpt lat="39.47353" lon="-0.40614965999999997">
        <ele>6.0</ele>
        <time>2022-05-31T19:26:44+02:00</time>
      </trkpt>
      <trkpt lat="39.473479999999995" lon="-0.40613833">
        <ele>6.0</ele>
        <time>2022-05-31T19:26:45+02:00</time>
      </trkpt>
      <trkpt lat="39.47342999999999" lon="-0.406126">
        <ele>6.0</ele>
        <time>2022-05-31T19:26:46+02:00</time>
      </trkpt>
      <trkpt lat="39.47338167" lon="-0.40611366000000004">
        <ele>6.0</ele>
        <time>2022-05-31T19:26:47+02:00</time>
      </trkpt>
      <trkpt lat="39.47333667" lon="-0.40609900000000004">
        <ele>6.0</ele>
        <time>2022-05-31T19:26:48+02:00</time>
      </trkpt>
      <trkpt lat="39.47325167" lon="-0.40606333">
        <ele>6.0</ele>
        <time>2022-05-31T19:26:50+02:00</time>
      </trkpt>
      <trkpt lat="39.47319" lon="-0.40595">
        <ele>6.0</ele>
        <time>2022-05-31T19:26:52+02:00</time>
      </trkpt>
      <trkpt lat="39.47315667" lon="-0.405908">
        <ele>6.0</ele>
        <time>2022-05-31T19:26:53+02:00</time>
      </trkpt>
      <trkpt lat="39.47313334" lon="-0.40583166000000004">
        <ele>6.0</ele>
        <time>2022-05-31T19:26:55+02:00</time>
      </trkpt>
      <trkpt lat="39.473136669999995" lon="-0.40577333">
        <ele>6.0</ele>
        <time>2022-05-31T19:26:56+02:00</time>
      </trkpt>
      <trkpt lat="39.473145" lon="-0.40571166000000003">
        <ele>6.0</ele>
        <time>2022-05-31T19:26:57+02:00</time>
      </trkpt>
      <trkpt lat="39.47316167" lon="-0.4055916600000001">
        <ele>6.0</ele>
        <time>2022-05-31T19:26:59+02:00</time>
      </trkpt>
      <trkpt lat="39.47317834" lon="-0.40552833">
        <ele>6.0</ele>
        <time>2022-05-31T19:27:00+02:00</time>
      </trkpt>
      <trkpt lat="39.473193" lon="-0.40546999999999994">
        <ele>5.0</ele>
        <time>2022-05-31T19:27:01+02:00</time>
      </trkpt>
      <trkpt lat="39.473247" lon="-0.40536666000000005">
        <ele>5.0</ele>
        <time>2022-05-31T19:27:03+02:00</time>
      </trkpt>
      <trkpt lat="39.473278" lon="-0.4053050000000001">
        <ele>5.0</ele>
        <time>2022-05-31T19:27:04+02:00</time>
      </trkpt>
      <trkpt lat="39.473307340000005" lon="-0.405245">
        <ele>5.0</ele>
        <time>2022-05-31T19:27:05+02:00</time>
      </trkpt>
      <trkpt lat="39.47333534" lon="-0.405185">
        <ele>5.0</ele>
        <time>2022-05-31T19:27:06+02:00</time>
      </trkpt>
      <trkpt lat="39.473364000000004" lon="-0.4051216600000001">
        <ele>5.0</ele>
        <time>2022-05-31T19:27:07+02:00</time>
      </trkpt>
      <trkpt lat="39.473393" lon="-0.40506000000000003">
        <ele>5.0</ele>
        <time>2022-05-31T19:27:08+02:00</time>
      </trkpt>
      <trkpt lat="39.47342" lon="-0.40499999999999997">
        <ele>5.0</ele>
        <time>2022-05-31T19:27:09+02:00</time>
      </trkpt>
      <trkpt lat="39.473447" lon="-0.4049416600000001">
        <ele>5.0</ele>
        <time>2022-05-31T19:27:10+02:00</time>
      </trkpt>
      <trkpt lat="39.47347167000001" lon="-0.40488166000000003">
        <ele>5.0</ele>
        <time>2022-05-31T19:27:11+02:00</time>
      </trkpt>
      <trkpt lat="39.47349467" lon="-0.40481833">
        <ele>5.0</ele>
        <time>2022-05-31T19:27:12+02:00</time>
      </trkpt>
      <trkpt lat="39.47349334" lon="-0.4046916600000001">
        <ele>5.0</ele>
        <time>2022-05-31T19:27:14+02:00</time>
      </trkpt>
      <trkpt lat="39.47349334" lon="-0.4046283300000001">
        <ele>5.0</ele>
        <time>2022-05-31T19:27:15+02:00</time>
      </trkpt>
      <trkpt lat="39.473490000000005" lon="-0.40456333000000005">
        <ele>5.0</ele>
        <time>2022-05-31T19:27:16+02:00</time>
      </trkpt>
      <trkpt lat="39.473483339999994" lon="-0.40444499999999994">
        <ele>5.0</ele>
        <time>2022-05-31T19:27:18+02:00</time>
      </trkpt>
      <trkpt lat="39.47347734" lon="-0.4043633300000001">
        <ele>5.0</ele>
        <time>2022-05-31T19:27:19+02:00</time>
      </trkpt>
      <trkpt lat="39.473473" lon="-0.40429332999999995">
        <ele>5.0</ele>
        <time>2022-05-31T19:27:20+02:00</time>
      </trkpt>
      <trkpt lat="39.47347167000001" lon="-0.40422833">
        <ele>5.0</ele>
        <time>2022-05-31T19:27:21+02:00</time>
      </trkpt>
      <trkpt lat="39.47347267" lon="-0.404165">
        <ele>5.0</ele>
        <time>2022-05-31T19:27:22+02:00</time>
      </trkpt>
      <trkpt lat="39.473476999999995" lon="-0.40410666000000006">
        <ele>5.0</ele>
        <time>2022-05-31T19:27:23+02:00</time>
      </trkpt>
      <trkpt lat="39.47350834" lon="-0.40401499999999996">
        <ele>5.0</ele>
        <time>2022-05-31T19:27:25+02:00</time>
      </trkpt>
      <trkpt lat="39.473528339999994" lon="-0.4039583299999999">
        <ele>5.0</ele>
        <time>2022-05-31T19:27:26+02:00</time>
      </trkpt>
      <trkpt lat="39.473558340000004" lon="-0.40386833">
        <ele>5.0</ele>
        <time>2022-05-31T19:27:28+02:00</time>
      </trkpt>
      <trkpt lat="39.473586999999995" lon="-0.40379332999999995">
        <ele>5.0</ele>
        <time>2022-05-31T19:27:30+02:00</time>
      </trkpt>
      <trkpt lat="39.47361667" lon="-0.40372666000000007">
        <ele>5.0</ele>
        <time>2022-05-31T19:27:32+02:00</time>
      </trkpt>
      <trkpt lat="39.473642000000005" lon="-0.403655">
        <ele>5.0</ele>
        <time>2022-05-31T19:27:34+02:00</time>
      </trkpt>
      <trkpt lat="39.473641670000006" lon="-0.40356833">
        <ele>5.0</ele>
        <time>2022-05-31T19:27:36+02:00</time>
      </trkpt>
      <trkpt lat="39.47363167" lon="-0.40347333">
        <ele>5.0</ele>
        <time>2022-05-31T19:27:38+02:00</time>
      </trkpt>
      <trkpt lat="39.47361500000001" lon="-0.40336166">
        <ele>5.0</ele>
        <time>2022-05-31T19:27:40+02:00</time>
      </trkpt>
      <trkpt lat="39.473608" lon="-0.40329999999999994">
        <ele>5.0</ele>
        <time>2022-05-31T19:27:41+02:00</time>
      </trkpt>
      <trkpt lat="39.47360367" lon="-0.40323666">
        <ele>5.0</ele>
        <time>2022-05-31T19:27:42+02:00</time>
      </trkpt>
      <trkpt lat="39.473602670000005" lon="-0.40317333">
        <ele>5.0</ele>
        <time>2022-05-31T19:27:43+02:00</time>
      </trkpt>
      <trkpt lat="39.473607" lon="-0.40311">
        <ele>5.0</ele>
        <time>2022-05-31T19:27:44+02:00</time>
      </trkpt>
      <trkpt lat="39.47362833999999" lon="-0.403045">
        <ele>5.0</ele>
        <time>2022-05-31T19:27:45+02:00</time>
      </trkpt>
      <trkpt lat="39.473643339999995" lon="-0.40298">
        <ele>5.0</ele>
        <time>2022-05-31T19:27:46+02:00</time>
      </trkpt>
      <trkpt lat="39.473656670000004" lon="-0.40291332999999996">
        <ele>5.0</ele>
        <time>2022-05-31T19:27:47+02:00</time>
      </trkpt>
      <trkpt lat="39.473684999999996" lon="-0.40277833">
        <ele>5.0</ele>
        <time>2022-05-31T19:27:49+02:00</time>
      </trkpt>
      <trkpt lat="39.47371034" lon="-0.402645">
        <ele>5.0</ele>
        <time>2022-05-31T19:27:51+02:00</time>
      </trkpt>
      <trkpt lat="39.47373033999999" lon="-0.40251165999999994">
        <ele>5.0</ele>
        <time>2022-05-31T19:27:53+02:00</time>
      </trkpt>
      <trkpt lat="39.473739339999995" lon="-0.402445">
        <ele>5.0</ele>
        <time>2022-05-31T19:27:54+02:00</time>
      </trkpt>
      <trkpt lat="39.47375067" lon="-0.40237833">
        <ele>5.0</ele>
        <time>2022-05-31T19:27:55+02:00</time>
      </trkpt>
      <trkpt lat="39.47376467" lon="-0.40231000000000006">
        <ele>5.0</ele>
        <time>2022-05-31T19:27:56+02:00</time>
      </trkpt>
      <trkpt lat="39.473781" lon="-0.40223833">
        <ele>5.0</ele>
        <time>2022-05-31T19:27:57+02:00</time>
      </trkpt>
      <trkpt lat="39.473795339999995" lon="-0.402175">
        <ele>5.0</ele>
        <time>2022-05-31T19:27:58+02:00</time>
      </trkpt>
      <trkpt lat="39.473813670000006" lon="-0.4021">
        <ele>5.0</ele>
        <time>2022-05-31T19:27:59+02:00</time>
      </trkpt>
      <trkpt lat="39.473834669999995" lon="-0.40200499999999995">
        <ele>5.0</ele>
        <time>2022-05-31T19:28:00+02:00</time>
      </trkpt>
      <trkpt lat="39.47385167" lon="-0.40192332999999997">
        <ele>5.0</ele>
        <time>2022-05-31T19:28:01+02:00</time>
      </trkpt>
      <trkpt lat="39.47386567" lon="-0.401855">
        <ele>5.0</ele>
        <time>2022-05-31T19:28:02+02:00</time>
      </trkpt>
      <trkpt lat="39.473888" lon="-0.401755">
        <ele>5.0</ele>
        <time>2022-05-31T19:28:03+02:00</time>
      </trkpt>
      <trkpt lat="39.47390434" lon="-0.401675">
        <ele>5.0</ele>
        <time>2022-05-31T19:28:04+02:00</time>
      </trkpt>
      <trkpt lat="39.473922" lon="-0.4015916600000001">
        <ele>5.0</ele>
        <time>2022-05-31T19:28:05+02:00</time>
      </trkpt>
      <trkpt lat="39.473938340000004" lon="-0.40151166000000005">
        <ele>5.0</ele>
        <time>2022-05-31T19:28:06+02:00</time>
      </trkpt>
      <trkpt lat="39.47395433999999" lon="-0.40145">
        <ele>5.0</ele>
        <time>2022-05-31T19:28:07+02:00</time>
      </trkpt>
      <trkpt lat="39.47396934" lon="-0.40137833">
        <ele>5.0</ele>
        <time>2022-05-31T19:28:08+02:00</time>
      </trkpt>
      <trkpt lat="39.473987" lon="-0.4012949999999999">
        <ele>5.0</ele>
        <time>2022-05-31T19:28:09+02:00</time>
      </trkpt>
      <trkpt lat="39.474002" lon="-0.40122333">
        <ele>5.0</ele>
        <time>2022-05-31T19:28:10+02:00</time>
      </trkpt>
      <trkpt lat="39.47401767" lon="-0.40114833">
        <ele>5.0</ele>
        <time>2022-05-31T19:28:11+02:00</time>
      </trkpt>
      <trkpt lat="39.47404867" lon="-0.40099833">
        <ele>5.0</ele>
        <time>2022-05-31T19:28:13+02:00</time>
      </trkpt>
      <trkpt lat="39.474064" lon="-0.400925">
        <ele>5.0</ele>
        <time>2022-05-31T19:28:14+02:00</time>
      </trkpt>
      <trkpt lat="39.474076000000004" lon="-0.40086666">
        <ele>4.0</ele>
        <time>2022-05-31T19:28:15+02:00</time>
      </trkpt>
      <trkpt lat="39.47409134" lon="-0.40079332999999995">
        <ele>4.0</ele>
        <time>2022-05-31T19:28:16+02:00</time>
      </trkpt>
      <trkpt lat="39.47410634" lon="-0.40072166000000004">
        <ele>4.0</ele>
        <time>2022-05-31T19:28:17+02:00</time>
      </trkpt>
      <trkpt lat="39.474121339999996" lon="-0.40065166">
        <ele>4.0</ele>
        <time>2022-05-31T19:28:18+02:00</time>
      </trkpt>
      <trkpt lat="39.47414" lon="-0.40056166000000004">
        <ele>4.0</ele>
        <time>2022-05-31T19:28:19+02:00</time>
      </trkpt>
      <trkpt lat="39.474155339999996" lon="-0.40048833000000006">
        <ele>4.0</ele>
        <time>2022-05-31T19:28:20+02:00</time>
      </trkpt>
      <trkpt lat="39.474183999999994" lon="-0.40035166">
        <ele>4.0</ele>
        <time>2022-05-31T19:28:22+02:00</time>
      </trkpt>
      <trkpt lat="39.474199" lon="-0.4002800000000001">
        <ele>4.0</ele>
        <time>2022-05-31T19:28:23+02:00</time>
      </trkpt>
      <trkpt lat="39.474214" lon="-0.4002066600000001">
        <ele>4.0</ele>
        <time>2022-05-31T19:28:24+02:00</time>
      </trkpt>
      <trkpt lat="39.47423067000001" lon="-0.40012833">
        <ele>4.0</ele>
        <time>2022-05-31T19:28:25+02:00</time>
      </trkpt>
      <trkpt lat="39.47424634" lon="-0.40005333">
        <ele>4.0</ele>
        <time>2022-05-31T19:28:26+02:00</time>
      </trkpt>
      <trkpt lat="39.474262" lon="-0.39997666">
        <ele>4.0</ele>
        <time>2022-05-31T19:28:27+02:00</time>
      </trkpt>
      <trkpt lat="39.47427433999999" lon="-0.39991833">
        <ele>4.0</ele>
        <time>2022-05-31T19:28:28+02:00</time>
      </trkpt>
      <trkpt lat="39.474290339999996" lon="-0.39984000000000003">
        <ele>4.0</ele>
        <time>2022-05-31T19:28:29+02:00</time>
      </trkpt>
      <trkpt lat="39.47430734" lon="-0.39975833">
        <ele>4.0</ele>
        <time>2022-05-31T19:28:30+02:00</time>
      </trkpt>
      <trkpt lat="39.47432833999999" lon="-0.39965832999999995">
        <ele>4.0</ele>
        <time>2022-05-31T19:28:31+02:00</time>
      </trkpt>
      <trkpt lat="39.47434367" lon="-0.39958166000000006">
        <ele>4.0</ele>
        <time>2022-05-31T19:28:32+02:00</time>
      </trkpt>
      <trkpt lat="39.47435734" lon="-0.39951666">
        <ele>4.0</ele>
        <time>2022-05-31T19:28:33+02:00</time>
      </trkpt>
      <trkpt lat="39.47437767" lon="-0.39941832999999993">
        <ele>4.0</ele>
        <time>2022-05-31T19:28:34+02:00</time>
      </trkpt>
      <trkpt lat="39.47439034" lon="-0.39935666000000003">
        <ele>4.0</ele>
        <time>2022-05-31T19:28:35+02:00</time>
      </trkpt>
      <trkpt lat="39.47440934" lon="-0.39926333">
        <ele>4.0</ele>
        <time>2022-05-31T19:28:36+02:00</time>
      </trkpt>
      <trkpt lat="39.47442467" lon="-0.39918833">
        <ele>4.0</ele>
        <time>2022-05-31T19:28:37+02:00</time>
      </trkpt>
      <trkpt lat="39.47445534" lon="-0.39903833">
        <ele>4.0</ele>
        <time>2022-05-31T19:28:39+02:00</time>
      </trkpt>
      <trkpt lat="39.474469670000005" lon="-0.39896833000000004">
        <ele>4.0</ele>
        <time>2022-05-31T19:28:40+02:00</time>
      </trkpt>
      <trkpt lat="39.47448367" lon="-0.39889832999999997">
        <ele>4.0</ele>
        <time>2022-05-31T19:28:41+02:00</time>
      </trkpt>
      <trkpt lat="39.474487999999994" lon="-0.3988416600000001">
        <ele>4.0</ele>
        <time>2022-05-31T19:28:42+02:00</time>
      </trkpt>
      <trkpt lat="39.47450267000001" lon="-0.39876999999999996">
        <ele>4.0</ele>
        <time>2022-05-31T19:28:43+02:00</time>
      </trkpt>
      <trkpt lat="39.474520999999996" lon="-0.3986816600000001">
        <ele>4.0</ele>
        <time>2022-05-31T19:28:44+02:00</time>
      </trkpt>
      <trkpt lat="39.474536670000006" lon="-0.39860666">
        <ele>4.0</ele>
        <time>2022-05-31T19:28:45+02:00</time>
      </trkpt>
      <trkpt lat="39.47455167" lon="-0.398535">
        <ele>4.0</ele>
        <time>2022-05-31T19:28:46+02:00</time>
      </trkpt>
      <trkpt lat="39.474566339999996" lon="-0.39846166000000005">
        <ele>4.0</ele>
        <time>2022-05-31T19:28:47+02:00</time>
      </trkpt>
      <trkpt lat="39.47458067000001" lon="-0.39839166000000004">
        <ele>4.0</ele>
        <time>2022-05-31T19:28:48+02:00</time>
      </trkpt>
      <trkpt lat="39.47459533999999" lon="-0.39832">
        <ele>4.0</ele>
        <time>2022-05-31T19:28:49+02:00</time>
      </trkpt>
      <trkpt lat="39.47460067" lon="-0.39825833000000005">
        <ele>4.0</ele>
        <time>2022-05-31T19:28:50+02:00</time>
      </trkpt>
      <trkpt lat="39.474618670000005" lon="-0.39816832999999996">
        <ele>4.0</ele>
        <time>2022-05-31T19:28:51+02:00</time>
      </trkpt>
      <trkpt lat="39.47463366999999" lon="-0.398095">
        <ele>4.0</ele>
        <time>2022-05-31T19:28:52+02:00</time>
      </trkpt>
      <trkpt lat="39.47464834" lon="-0.39802166000000005">
        <ele>4.0</ele>
        <time>2022-05-31T19:28:53+02:00</time>
      </trkpt>
      <trkpt lat="39.47466267000001" lon="-0.39795">
        <ele>4.0</ele>
        <time>2022-05-31T19:28:54+02:00</time>
      </trkpt>
      <trkpt lat="39.47467733999999" lon="-0.39787833">
        <ele>4.0</ele>
        <time>2022-05-31T19:28:55+02:00</time>
      </trkpt>
      <trkpt lat="39.474692000000005" lon="-0.39780333">
        <ele>4.0</ele>
        <time>2022-05-31T19:28:56+02:00</time>
      </trkpt>
      <trkpt lat="39.47469667" lon="-0.397745">
        <ele>4.0</ele>
        <time>2022-05-31T19:28:57+02:00</time>
      </trkpt>
      <trkpt lat="39.474711" lon="-0.39767332999999994">
        <ele>4.0</ele>
        <time>2022-05-31T19:28:58+02:00</time>
      </trkpt>
      <trkpt lat="39.474725" lon="-0.39760166">
        <ele>4.0</ele>
        <time>2022-05-31T19:28:59+02:00</time>
      </trkpt>
      <trkpt lat="39.47475333999999" lon="-0.39745832999999997">
        <ele>3.0</ele>
        <time>2022-05-31T19:29:01+02:00</time>
      </trkpt>
      <trkpt lat="39.47477034" lon="-0.39737166000000007">
        <ele>3.0</ele>
        <time>2022-05-31T19:29:02+02:00</time>
      </trkpt>
      <trkpt lat="39.47478467" lon="-0.39730000000000004">
        <ele>3.0</ele>
        <time>2022-05-31T19:29:03+02:00</time>
      </trkpt>
      <trkpt lat="39.47481234" lon="-0.39715999999999996">
        <ele>3.0</ele>
        <time>2022-05-31T19:29:05+02:00</time>
      </trkpt>
      <trkpt lat="39.47482567000001" lon="-0.39709333">
        <ele>3.0</ele>
        <time>2022-05-31T19:29:06+02:00</time>
      </trkpt>
      <trkpt lat="39.474840670000006" lon="-0.39702">
        <ele>3.0</ele>
        <time>2022-05-31T19:29:07+02:00</time>
      </trkpt>
      <trkpt lat="39.474856" lon="-0.39694833">
        <ele>3.0</ele>
        <time>2022-05-31T19:29:08+02:00</time>
      </trkpt>
      <trkpt lat="39.47486834" lon="-0.39689">
        <ele>3.0</ele>
        <time>2022-05-31T19:29:09+02:00</time>
      </trkpt>
      <trkpt lat="39.474894" lon="-0.39680333000000007">
        <ele>3.0</ele>
        <time>2022-05-31T19:29:10+02:00</time>
      </trkpt>
      <trkpt lat="39.47490667000001" lon="-0.3967466600000001">
        <ele>2.0</ele>
        <time>2022-05-31T19:29:11+02:00</time>
      </trkpt>
      <trkpt lat="39.474932339999995" lon="-0.3966633299999999">
        <ele>2.0</ele>
        <time>2022-05-31T19:29:12+02:00</time>
      </trkpt>
      <trkpt lat="39.47495167" lon="-0.39661166000000003">
        <ele>2.0</ele>
        <time>2022-05-31T19:29:13+02:00</time>
      </trkpt>
      <trkpt lat="39.474979" lon="-0.39652499999999996">
        <ele>1.0</ele>
        <time>2022-05-31T19:29:14+02:00</time>
      </trkpt>
      <trkpt lat="39.475000339999994" lon="-0.39646666">
        <ele>1.0</ele>
        <time>2022-05-31T19:29:15+02:00</time>
      </trkpt>
      <trkpt lat="39.47505567" lon="-0.39629499999999995">
        <ele>1.0</ele>
        <time>2022-05-31T19:29:16+02:00</time>
      </trkpt>
      <trkpt lat="39.47508667000001" lon="-0.39623">
        <ele>0.0</ele>
        <time>2022-05-31T19:29:17+02:00</time>
      </trkpt>
      <trkpt lat="39.475118" lon="-0.396135">
        <ele>0.0</ele>
        <time>2022-05-31T19:29:18+02:00</time>
      </trkpt>
      <trkpt lat="39.47514867" lon="-0.39607166000000005">
        <ele>0.0</ele>
        <time>2022-05-31T19:29:19+02:00</time>
      </trkpt>
      <trkpt lat="39.47518133999999" lon="-0.3959750000000001">
        <ele>0.0</ele>
        <time>2022-05-31T19:29:20+02:00</time>
      </trkpt>
      <trkpt lat="39.475210999999994" lon="-0.39592">
        <ele>0.0</ele>
        <time>2022-05-31T19:29:21+02:00</time>
      </trkpt>
      <trkpt lat="39.47527334" lon="-0.39577">
        <ele>0.0</ele>
        <time>2022-05-31T19:29:23+02:00</time>
      </trkpt>
      <trkpt lat="39.47530167" lon="-0.3956916600000001">
        <ele>0.0</ele>
        <time>2022-05-31T19:29:24+02:00</time>
      </trkpt>
      <trkpt lat="39.47532967" lon="-0.395615">
        <ele>0.0</ele>
        <time>2022-05-31T19:29:25+02:00</time>
      </trkpt>
      <trkpt lat="39.475366" lon="-0.395535">
        <ele>0.0</ele>
        <time>2022-05-31T19:29:26+02:00</time>
      </trkpt>
      <trkpt lat="39.47539633999999" lon="-0.3954516600000001">
        <ele>0.0</ele>
        <time>2022-05-31T19:29:27+02:00</time>
      </trkpt>
      <trkpt lat="39.475426" lon="-0.39537166000000007">
        <ele>0.0</ele>
        <time>2022-05-31T19:29:28+02:00</time>
      </trkpt>
      <trkpt lat="39.475452669999996" lon="-0.39530333">
        <ele>0.0</ele>
        <time>2022-05-31T19:29:29+02:00</time>
      </trkpt>
      <trkpt lat="39.47551367" lon="-0.39514832999999994">
        <ele>0.0</ele>
        <time>2022-05-31T19:29:30+02:00</time>
      </trkpt>
      <trkpt lat="39.475544" lon="-0.39507166000000005">
        <ele>0.0</ele>
        <time>2022-05-31T19:29:31+02:00</time>
      </trkpt>
      <trkpt lat="39.47558834" lon="-0.39497666000000003">
        <ele>0.0</ele>
        <time>2022-05-31T19:29:32+02:00</time>
      </trkpt>
      <trkpt lat="39.47562067" lon="-0.39489666000000007">
        <ele>0.0</ele>
        <time>2022-05-31T19:29:33+02:00</time>
      </trkpt>
      <trkpt lat="39.475652339999996" lon="-0.39481832999999994">
        <ele>0.0</ele>
        <time>2022-05-31T19:29:34+02:00</time>
      </trkpt>
      <trkpt lat="39.47569867" lon="-0.39472166">
        <ele>0.0</ele>
        <time>2022-05-31T19:29:35+02:00</time>
      </trkpt>
      <trkpt lat="39.47573767" lon="-0.394625">
        <ele>0.0</ele>
        <time>2022-05-31T19:29:36+02:00</time>
      </trkpt>
      <trkpt lat="39.475773" lon="-0.39456499999999994">
        <ele>0.0</ele>
        <time>2022-05-31T19:29:37+02:00</time>
      </trkpt>
      <trkpt lat="39.475809999999996" lon="-0.39447666000000003">
        <ele>0.0</ele>
        <time>2022-05-31T19:29:38+02:00</time>
      </trkpt>
      <trkpt lat="39.475836339999994" lon="-0.39442166000000006">
        <ele>0.0</ele>
        <time>2022-05-31T19:29:39+02:00</time>
      </trkpt>
      <trkpt lat="39.47588033999999" lon="-0.39433666">
        <ele>0.0</ele>
        <time>2022-05-31T19:29:40+02:00</time>
      </trkpt>
      <trkpt lat="39.47590867" lon="-0.39427666">
        <ele>0.0</ele>
        <time>2022-05-31T19:29:41+02:00</time>
      </trkpt>
      <trkpt lat="39.47594067000001" lon="-0.39420666000000004">
        <ele>0.0</ele>
        <time>2022-05-31T19:29:42+02:00</time>
      </trkpt>
      <trkpt lat="39.475978" lon="-0.39412333000000005">
        <ele>0.0</ele>
        <time>2022-05-31T19:29:43+02:00</time>
      </trkpt>
      <trkpt lat="39.47600834" lon="-0.39405999999999997">
        <ele>0.0</ele>
        <time>2022-05-31T19:29:44+02:00</time>
      </trkpt>
      <trkpt lat="39.47603834" lon="-0.39399833">
        <ele>0.0</ele>
        <time>2022-05-31T19:29:45+02:00</time>
      </trkpt>
      <trkpt lat="39.47606534" lon="-0.393945">
        <ele>0.0</ele>
        <time>2022-05-31T19:29:46+02:00</time>
      </trkpt>
      <trkpt lat="39.476096999999996" lon="-0.39387999999999995">
        <ele>0.0</ele>
        <time>2022-05-31T19:29:47+02:00</time>
      </trkpt>
      <trkpt lat="39.47613167000001" lon="-0.39380833">
        <ele>0.0</ele>
        <time>2022-05-31T19:29:49+02:00</time>
      </trkpt>
      <trkpt lat="39.47618" lon="-0.39370166000000006">
        <ele>0.0</ele>
        <time>2022-05-31T19:29:50+02:00</time>
      </trkpt>
      <trkpt lat="39.476222670000006" lon="-0.39361166000000003">
        <ele>0.0</ele>
        <time>2022-05-31T19:29:52+02:00</time>
      </trkpt>
      <trkpt lat="39.476266" lon="-0.39352166000000005">
        <ele>0.0</ele>
        <time>2022-05-31T19:29:54+02:00</time>
      </trkpt>
      <trkpt lat="39.47630834" lon="-0.393415">
        <ele>0.0</ele>
        <time>2022-05-31T19:29:56+02:00</time>
      </trkpt>
      <trkpt lat="39.476362" lon="-0.39330166000000005">
        <ele>0.0</ele>
        <time>2022-05-31T19:29:58+02:00</time>
      </trkpt>
      <trkpt lat="39.47638634" lon="-0.39324332999999995">
        <ele>-1.0</ele>
        <time>2022-05-31T19:29:59+02:00</time>
      </trkpt>
      <trkpt lat="39.47641600000001" lon="-0.3931916600000001">
        <ele>-1.0</ele>
        <time>2022-05-31T19:30:00+02:00</time>
      </trkpt>
      <trkpt lat="39.47644100000001" lon="-0.39313333">
        <ele>-1.0</ele>
        <time>2022-05-31T19:30:01+02:00</time>
      </trkpt>
      <trkpt lat="39.476477669999994" lon="-0.39306333000000004">
        <ele>-1.0</ele>
        <time>2022-05-31T19:30:02+02:00</time>
      </trkpt>
      <trkpt lat="39.47650367" lon="-0.39300166000000003">
        <ele>-1.0</ele>
        <time>2022-05-31T19:30:03+02:00</time>
      </trkpt>
      <trkpt lat="39.47653100000001" lon="-0.39293666000000005">
        <ele>-1.0</ele>
        <time>2022-05-31T19:30:04+02:00</time>
      </trkpt>
      <trkpt lat="39.476567" lon="-0.39286832999999993">
        <ele>-1.0</ele>
        <time>2022-05-31T19:30:05+02:00</time>
      </trkpt>
      <trkpt lat="39.476590339999994" lon="-0.39281333">
        <ele>-1.0</ele>
        <time>2022-05-31T19:30:06+02:00</time>
      </trkpt>
      <trkpt lat="39.476631000000005" lon="-0.39273332999999994">
        <ele>-1.0</ele>
        <time>2022-05-31T19:30:07+02:00</time>
      </trkpt>
      <trkpt lat="39.47665967" lon="-0.392665">
        <ele>-2.0</ele>
        <time>2022-05-31T19:30:08+02:00</time>
      </trkpt>
      <trkpt lat="39.47672433999999" lon="-0.3925283299999999">
        <ele>-2.0</ele>
        <time>2022-05-31T19:30:10+02:00</time>
      </trkpt>
      <trkpt lat="39.47676" lon="-0.3924599999999999">
        <ele>-2.0</ele>
        <time>2022-05-31T19:30:11+02:00</time>
      </trkpt>
      <trkpt lat="39.47679" lon="-0.392405">
        <ele>-2.0</ele>
        <time>2022-05-31T19:30:12+02:00</time>
      </trkpt>
      <trkpt lat="39.476826" lon="-0.39232">
        <ele>-2.0</ele>
        <time>2022-05-31T19:30:13+02:00</time>
      </trkpt>
      <trkpt lat="39.47685767" lon="-0.39226166">
        <ele>-2.0</ele>
        <time>2022-05-31T19:30:14+02:00</time>
      </trkpt>
      <trkpt lat="39.476895" lon="-0.39219">
        <ele>-2.0</ele>
        <time>2022-05-31T19:30:15+02:00</time>
      </trkpt>
      <trkpt lat="39.47693667" lon="-0.39210832999999995">
        <ele>-2.0</ele>
        <time>2022-05-31T19:30:16+02:00</time>
      </trkpt>
      <trkpt lat="39.47696067" lon="-0.39205166">
        <ele>-2.0</ele>
        <time>2022-05-31T19:30:17+02:00</time>
      </trkpt>
      <trkpt lat="39.477006" lon="-0.39196332999999994">
        <ele>-2.0</ele>
        <time>2022-05-31T19:30:18+02:00</time>
      </trkpt>
      <trkpt lat="39.477044" lon="-0.3918916600000001">
        <ele>-2.0</ele>
        <time>2022-05-31T19:30:19+02:00</time>
      </trkpt>
      <trkpt lat="39.477069670000006" lon="-0.39183333">
        <ele>-2.0</ele>
        <time>2022-05-31T19:30:20+02:00</time>
      </trkpt>
      <trkpt lat="39.477100339999986" lon="-0.391765">
        <ele>-2.0</ele>
        <time>2022-05-31T19:30:21+02:00</time>
      </trkpt>
      <trkpt lat="39.477137000000006" lon="-0.39168332999999994">
        <ele>-2.0</ele>
        <time>2022-05-31T19:30:22+02:00</time>
      </trkpt>
      <trkpt lat="39.47716167" lon="-0.39162832999999997">
        <ele>-2.0</ele>
        <time>2022-05-31T19:30:23+02:00</time>
      </trkpt>
      <trkpt lat="39.47719334" lon="-0.39155832999999995">
        <ele>-2.0</ele>
        <time>2022-05-31T19:30:24+02:00</time>
      </trkpt>
      <trkpt lat="39.47722533999999" lon="-0.3914866600000001">
        <ele>-2.0</ele>
        <time>2022-05-31T19:30:25+02:00</time>
      </trkpt>
      <trkpt lat="39.47729867" lon="-0.39133832999999996">
        <ele>-2.0</ele>
        <time>2022-05-31T19:30:27+02:00</time>
      </trkpt>
      <trkpt lat="39.47732467" lon="-0.39127999999999996">
        <ele>-2.0</ele>
        <time>2022-05-31T19:30:28+02:00</time>
      </trkpt>
      <trkpt lat="39.477357340000005" lon="-0.39119166000000005">
        <ele>-2.0</ele>
        <time>2022-05-31T19:30:29+02:00</time>
      </trkpt>
      <trkpt lat="39.47738834" lon="-0.3911216600000001">
        <ele>-2.0</ele>
        <time>2022-05-31T19:30:30+02:00</time>
      </trkpt>
      <trkpt lat="39.47742100000001" lon="-0.39104833">
        <ele>-2.0</ele>
        <time>2022-05-31T19:30:31+02:00</time>
      </trkpt>
      <trkpt lat="39.477438" lon="-0.39099333">
        <ele>-2.0</ele>
        <time>2022-05-31T19:30:32+02:00</time>
      </trkpt>
      <trkpt lat="39.477475670000004" lon="-0.3909066600000001">
        <ele>-2.0</ele>
        <time>2022-05-31T19:30:33+02:00</time>
      </trkpt>
      <trkpt lat="39.47750133999999" lon="-0.39083166">
        <ele>-2.0</ele>
        <time>2022-05-31T19:30:34+02:00</time>
      </trkpt>
      <trkpt lat="39.477526999999995" lon="-0.3907716600000001">
        <ele>-2.0</ele>
        <time>2022-05-31T19:30:35+02:00</time>
      </trkpt>
      <trkpt lat="39.47755866999999" lon="-0.39068166000000004">
        <ele>-2.0</ele>
        <time>2022-05-31T19:30:36+02:00</time>
      </trkpt>
      <trkpt lat="39.47758367" lon="-0.39060666000000005">
        <ele>-2.0</ele>
        <time>2022-05-31T19:30:37+02:00</time>
      </trkpt>
      <trkpt lat="39.47760799999999" lon="-0.39053166000000006">
        <ele>-2.0</ele>
        <time>2022-05-31T19:30:38+02:00</time>
      </trkpt>
      <trkpt lat="39.47762867" lon="-0.390465">
        <ele>-2.0</ele>
        <time>2022-05-31T19:30:39+02:00</time>
      </trkpt>
      <trkpt lat="39.477645" lon="-0.39040832999999997">
        <ele>-2.0</ele>
        <time>2022-05-31T19:30:40+02:00</time>
      </trkpt>
      <trkpt lat="39.477668339999994" lon="-0.390335">
        <ele>-2.0</ele>
        <time>2022-05-31T19:30:41+02:00</time>
      </trkpt>
      <trkpt lat="39.47769233999999" lon="-0.39025833">
        <ele>-2.0</ele>
        <time>2022-05-31T19:30:42+02:00</time>
      </trkpt>
      <trkpt lat="39.477719670000006" lon="-0.39015666000000004">
        <ele>-2.0</ele>
        <time>2022-05-31T19:30:43+02:00</time>
      </trkpt>
      <trkpt lat="39.47773667" lon="-0.39009666000000004">
        <ele>-2.0</ele>
        <time>2022-05-31T19:30:44+02:00</time>
      </trkpt>
      <trkpt lat="39.47775367" lon="-0.39003666000000003">
        <ele>-2.0</ele>
        <time>2022-05-31T19:30:45+02:00</time>
      </trkpt>
      <trkpt lat="39.47777834" lon="-0.38995666000000007">
        <ele>-2.0</ele>
        <time>2022-05-31T19:30:46+02:00</time>
      </trkpt>
      <trkpt lat="39.47780067000001" lon="-0.38986333">
        <ele>-2.0</ele>
        <time>2022-05-31T19:30:47+02:00</time>
      </trkpt>
      <trkpt lat="39.47782367" lon="-0.38978499999999994">
        <ele>-2.0</ele>
        <time>2022-05-31T19:30:48+02:00</time>
      </trkpt>
      <trkpt lat="39.477846670000005" lon="-0.389705">
        <ele>-2.0</ele>
        <time>2022-05-31T19:30:49+02:00</time>
      </trkpt>
      <trkpt lat="39.477878" lon="-0.38956166000000003">
        <ele>-2.0</ele>
        <time>2022-05-31T19:30:51+02:00</time>
      </trkpt>
      <trkpt lat="39.47790134" lon="-0.38947833000000004">
        <ele>-2.0</ele>
        <time>2022-05-31T19:30:52+02:00</time>
      </trkpt>
      <trkpt lat="39.47792067000001" lon="-0.38938332999999997">
        <ele>-2.0</ele>
        <time>2022-05-31T19:30:53+02:00</time>
      </trkpt>
      <trkpt lat="39.47793800000001" lon="-0.38931499999999997">
        <ele>-2.0</ele>
        <time>2022-05-31T19:30:54+02:00</time>
      </trkpt>
      <trkpt lat="39.47795634" lon="-0.38922166">
        <ele>-2.0</ele>
        <time>2022-05-31T19:30:55+02:00</time>
      </trkpt>
      <trkpt lat="39.477976" lon="-0.38914499999999996">
        <ele>-2.0</ele>
        <time>2022-05-31T19:30:56+02:00</time>
      </trkpt>
      <trkpt lat="39.477987670000005" lon="-0.3890683299999999">
        <ele>-2.0</ele>
        <time>2022-05-31T19:30:57+02:00</time>
      </trkpt>
      <trkpt lat="39.47800634" lon="-0.38899166">
        <ele>-2.0</ele>
        <time>2022-05-31T19:30:58+02:00</time>
      </trkpt>
      <trkpt lat="39.478025" lon="-0.388915">
        <ele>-2.0</ele>
        <time>2022-05-31T19:30:59+02:00</time>
      </trkpt>
      <trkpt lat="39.478043" lon="-0.38883832999999995">
        <ele>-2.0</ele>
        <time>2022-05-31T19:31:00+02:00</time>
      </trkpt>
      <trkpt lat="39.478055" lon="-0.38875833000000004">
        <ele>-2.0</ele>
        <time>2022-05-31T19:31:01+02:00</time>
      </trkpt>
      <trkpt lat="39.47806799999999" lon="-0.38869833">
        <ele>-2.0</ele>
        <time>2022-05-31T19:31:02+02:00</time>
      </trkpt>
      <trkpt lat="39.478084339999995" lon="-0.38862499999999994">
        <ele>-2.0</ele>
        <time>2022-05-31T19:31:03+02:00</time>
      </trkpt>
      <trkpt lat="39.478101" lon="-0.38855000000000006">
        <ele>-2.0</ele>
        <time>2022-05-31T19:31:04+02:00</time>
      </trkpt>
      <trkpt lat="39.47811700000001" lon="-0.38847833">
        <ele>-2.0</ele>
        <time>2022-05-31T19:31:05+02:00</time>
      </trkpt>
      <trkpt lat="39.47813767000001" lon="-0.38838833">
        <ele>-2.0</ele>
        <time>2022-05-31T19:31:06+02:00</time>
      </trkpt>
      <trkpt lat="39.478156999999996" lon="-0.38832833">
        <ele>-2.0</ele>
        <time>2022-05-31T19:31:07+02:00</time>
      </trkpt>
      <trkpt lat="39.47817633999999" lon="-0.38824166000000004">
        <ele>-2.0</ele>
        <time>2022-05-31T19:31:08+02:00</time>
      </trkpt>
      <trkpt lat="39.47818733999999" lon="-0.38818332999999994">
        <ele>-2.0</ele>
        <time>2022-05-31T19:31:09+02:00</time>
      </trkpt>
      <trkpt lat="39.478213999999994" lon="-0.3880966600000001">
        <ele>-2.0</ele>
        <time>2022-05-31T19:31:10+02:00</time>
      </trkpt>
      <trkpt lat="39.478232340000005" lon="-0.38804000000000005">
        <ele>-2.0</ele>
        <time>2022-05-31T19:31:11+02:00</time>
      </trkpt>
      <trkpt lat="39.478255669999996" lon="-0.387965">
        <ele>-2.0</ele>
        <time>2022-05-31T19:31:12+02:00</time>
      </trkpt>
      <trkpt lat="39.478299" lon="-0.38782832999999994">
        <ele>-2.0</ele>
        <time>2022-05-31T19:31:14+02:00</time>
      </trkpt>
      <trkpt lat="39.478330670000005" lon="-0.38775">
        <ele>-2.0</ele>
        <time>2022-05-31T19:31:15+02:00</time>
      </trkpt>
      <trkpt lat="39.478349" lon="-0.38769332999999995">
        <ele>-2.0</ele>
        <time>2022-05-31T19:31:16+02:00</time>
      </trkpt>
      <trkpt lat="39.478380339999994" lon="-0.387615">
        <ele>-2.0</ele>
        <time>2022-05-31T19:31:17+02:00</time>
      </trkpt>
      <trkpt lat="39.478404" lon="-0.38753833000000004">
        <ele>-2.0</ele>
        <time>2022-05-31T19:31:18+02:00</time>
      </trkpt>
      <trkpt lat="39.47849334" lon="-0.38744500000000004">
        <ele>-2.0</ele>
        <time>2022-05-31T19:31:19+02:00</time>
      </trkpt>
      <trkpt lat="39.478503339999996" lon="-0.38738166000000007">
        <ele>-2.0</ele>
        <time>2022-05-31T19:31:20+02:00</time>
      </trkpt>
      <trkpt lat="39.478517999999994" lon="-0.38728832999999996">
        <ele>-2.0</ele>
        <time>2022-05-31T19:31:21+02:00</time>
      </trkpt>
      <trkpt lat="39.47853367" lon="-0.38721500000000003">
        <ele>-2.0</ele>
        <time>2022-05-31T19:31:22+02:00</time>
      </trkpt>
      <trkpt lat="39.478550000000006" lon="-0.38715666000000004">
        <ele>-2.0</ele>
        <time>2022-05-31T19:31:23+02:00</time>
      </trkpt>
      <trkpt lat="39.47857834" lon="-0.38707">
        <ele>-2.0</ele>
        <time>2022-05-31T19:31:24+02:00</time>
      </trkpt>
      <trkpt lat="39.47860033999999" lon="-0.38701166000000004">
        <ele>-2.0</ele>
        <time>2022-05-31T19:31:25+02:00</time>
      </trkpt>
      <trkpt lat="39.478629999999995" lon="-0.38693833">
        <ele>-2.0</ele>
        <time>2022-05-31T19:31:26+02:00</time>
      </trkpt>
      <trkpt lat="39.478664339999995" lon="-0.38685166000000004">
        <ele>-2.0</ele>
        <time>2022-05-31T19:31:27+02:00</time>
      </trkpt>
      <trkpt lat="39.478695" lon="-0.38678">
        <ele>-2.0</ele>
        <time>2022-05-31T19:31:28+02:00</time>
      </trkpt>
      <trkpt lat="39.478729" lon="-0.38670333">
        <ele>-2.0</ele>
        <time>2022-05-31T19:31:29+02:00</time>
      </trkpt>
      <trkpt lat="39.478761" lon="-0.38662666">
        <ele>-1.0</ele>
        <time>2022-05-31T19:31:30+02:00</time>
      </trkpt>
      <trkpt lat="39.47879433999999" lon="-0.38654833">
        <ele>-1.0</ele>
        <time>2022-05-31T19:31:31+02:00</time>
      </trkpt>
      <trkpt lat="39.47882799999999" lon="-0.38647166000000005">
        <ele>-1.0</ele>
        <time>2022-05-31T19:31:32+02:00</time>
      </trkpt>
      <trkpt lat="39.47885967" lon="-0.38639832999999996">
        <ele>-1.0</ele>
        <time>2022-05-31T19:31:33+02:00</time>
      </trkpt>
      <trkpt lat="39.478886" lon="-0.38633832999999995">
        <ele>-2.0</ele>
        <time>2022-05-31T19:31:34+02:00</time>
      </trkpt>
      <trkpt lat="39.47892399999999" lon="-0.38625">
        <ele>-2.0</ele>
        <time>2022-05-31T19:31:35+02:00</time>
      </trkpt>
      <trkpt lat="39.478955670000005" lon="-0.38617833">
        <ele>-2.0</ele>
        <time>2022-05-31T19:31:36+02:00</time>
      </trkpt>
      <trkpt lat="39.478988339999994" lon="-0.38610500000000003">
        <ele>-2.0</ele>
        <time>2022-05-31T19:31:37+02:00</time>
      </trkpt>
      <trkpt lat="39.47901267" lon="-0.3860466600000001">
        <ele>-3.0</ele>
        <time>2022-05-31T19:31:38+02:00</time>
      </trkpt>
      <trkpt lat="39.479049339999996" lon="-0.38596500000000006">
        <ele>-3.0</ele>
        <time>2022-05-31T19:31:39+02:00</time>
      </trkpt>
      <trkpt lat="39.479077999999994" lon="-0.3858966600000001">
        <ele>-3.0</ele>
        <time>2022-05-31T19:31:40+02:00</time>
      </trkpt>
      <trkpt lat="39.47910967" lon="-0.38582833">
        <ele>-3.0</ele>
        <time>2022-05-31T19:31:41+02:00</time>
      </trkpt>
      <trkpt lat="39.479138670000005" lon="-0.38576">
        <ele>-3.0</ele>
        <time>2022-05-31T19:31:42+02:00</time>
      </trkpt>
      <trkpt lat="39.479172000000005" lon="-0.38568832999999997">
        <ele>-3.0</ele>
        <time>2022-05-31T19:31:43+02:00</time>
      </trkpt>
      <trkpt lat="39.479194670000005" lon="-0.385635">
        <ele>-3.0</ele>
        <time>2022-05-31T19:31:44+02:00</time>
      </trkpt>
      <trkpt lat="39.479229999999994" lon="-0.38555166">
        <ele>-3.0</ele>
        <time>2022-05-31T19:31:45+02:00</time>
      </trkpt>
      <trkpt lat="39.47925866999999" lon="-0.38548333">
        <ele>-3.0</ele>
        <time>2022-05-31T19:31:46+02:00</time>
      </trkpt>
      <trkpt lat="39.47929033999999" lon="-0.38541833">
        <ele>-3.0</ele>
        <time>2022-05-31T19:31:47+02:00</time>
      </trkpt>
      <trkpt lat="39.479319999999994" lon="-0.38534832999999996">
        <ele>-3.0</ele>
        <time>2022-05-31T19:31:48+02:00</time>
      </trkpt>
      <trkpt lat="39.47934600000001" lon="-0.38528832999999996">
        <ele>-3.0</ele>
        <time>2022-05-31T19:31:49+02:00</time>
      </trkpt>
      <trkpt lat="39.479370339999996" lon="-0.38523166000000003">
        <ele>-3.0</ele>
        <time>2022-05-31T19:31:50+02:00</time>
      </trkpt>
      <trkpt lat="39.47939667" lon="-0.38517999999999997">
        <ele>-3.0</ele>
        <time>2022-05-31T19:31:51+02:00</time>
      </trkpt>
      <trkpt lat="39.479421339999995" lon="-0.38512333">
        <ele>-3.0</ele>
        <time>2022-05-31T19:31:52+02:00</time>
      </trkpt>
      <trkpt lat="39.47944434" lon="-0.38507166000000004">
        <ele>-3.0</ele>
        <time>2022-05-31T19:31:53+02:00</time>
      </trkpt>
      <trkpt lat="39.47947267000001" lon="-0.38501666000000007">
        <ele>-3.0</ele>
        <time>2022-05-31T19:31:54+02:00</time>
      </trkpt>
      <trkpt lat="39.479497339999995" lon="-0.38495999999999997">
        <ele>-3.0</ele>
        <time>2022-05-31T19:31:55+02:00</time>
      </trkpt>
      <trkpt lat="39.47952033999999" lon="-0.38490666000000007">
        <ele>-3.0</ele>
        <time>2022-05-31T19:31:56+02:00</time>
      </trkpt>
      <trkpt lat="39.479583999999996" lon="-0.38476">
        <ele>-3.0</ele>
        <time>2022-05-31T19:31:59+02:00</time>
      </trkpt>
      <trkpt lat="39.47961567000001" lon="-0.3847">
        <ele>-3.0</ele>
        <time>2022-05-31T19:32:00+02:00</time>
      </trkpt>
      <trkpt lat="39.47963933999999" lon="-0.3846466600000001">
        <ele>-3.0</ele>
        <time>2022-05-31T19:32:01+02:00</time>
      </trkpt>
      <trkpt lat="39.47968767" lon="-0.3845366600000001">
        <ele>-3.0</ele>
        <time>2022-05-31T19:32:03+02:00</time>
      </trkpt>
      <trkpt lat="39.479716339999996" lon="-0.384485">
        <ele>-3.0</ele>
        <time>2022-05-31T19:32:04+02:00</time>
      </trkpt>
      <trkpt lat="39.479738" lon="-0.38443666">
        <ele>-3.0</ele>
        <time>2022-05-31T19:32:05+02:00</time>
      </trkpt>
      <trkpt lat="39.479784339999995" lon="-0.38433333">
        <ele>-3.0</ele>
        <time>2022-05-31T19:32:07+02:00</time>
      </trkpt>
      <trkpt lat="39.47982499999999" lon="-0.38425666">
        <ele>-3.0</ele>
        <time>2022-05-31T19:32:08+02:00</time>
      </trkpt>
      <trkpt lat="39.479858670000006" lon="-0.38418333">
        <ele>-3.0</ele>
        <time>2022-05-31T19:32:09+02:00</time>
      </trkpt>
      <trkpt lat="39.479894" lon="-0.38411999999999996">
        <ele>-3.0</ele>
        <time>2022-05-31T19:32:10+02:00</time>
      </trkpt>
      <trkpt lat="39.47993667" lon="-0.3840266600000001">
        <ele>-3.0</ele>
        <time>2022-05-31T19:32:11+02:00</time>
      </trkpt>
      <trkpt lat="39.47997934" lon="-0.38394833">
        <ele>-3.0</ele>
        <time>2022-05-31T19:32:12+02:00</time>
      </trkpt>
      <trkpt lat="39.480014999999995" lon="-0.38388333">
        <ele>-3.0</ele>
        <time>2022-05-31T19:32:13+02:00</time>
      </trkpt>
      <trkpt lat="39.48006334" lon="-0.38379332999999993">
        <ele>-3.0</ele>
        <time>2022-05-31T19:32:14+02:00</time>
      </trkpt>
      <trkpt lat="39.48009867" lon="-0.38373166000000003">
        <ele>-3.0</ele>
        <time>2022-05-31T19:32:15+02:00</time>
      </trkpt>
      <trkpt lat="39.480147" lon="-0.38364333000000006">
        <ele>-3.0</ele>
        <time>2022-05-31T19:32:16+02:00</time>
      </trkpt>
      <trkpt lat="39.48018767" lon="-0.38357166000000004">
        <ele>-3.0</ele>
        <time>2022-05-31T19:32:17+02:00</time>
      </trkpt>
      <trkpt lat="39.48022967" lon="-0.38349833">
        <ele>-3.0</ele>
        <time>2022-05-31T19:32:18+02:00</time>
      </trkpt>
      <trkpt lat="39.480270000000004" lon="-0.38342833">
        <ele>-3.0</ele>
        <time>2022-05-31T19:32:19+02:00</time>
      </trkpt>
      <trkpt lat="39.480309999999996" lon="-0.38336">
        <ele>-3.0</ele>
        <time>2022-05-31T19:32:20+02:00</time>
      </trkpt>
      <trkpt lat="39.48034767" lon="-0.3832966600000001">
        <ele>-3.0</ele>
        <time>2022-05-31T19:32:21+02:00</time>
      </trkpt>
      <trkpt lat="39.480385670000004" lon="-0.38323333">
        <ele>-3.0</ele>
        <time>2022-05-31T19:32:22+02:00</time>
      </trkpt>
      <trkpt lat="39.480462" lon="-0.38310832999999994">
        <ele>-3.0</ele>
        <time>2022-05-31T19:32:24+02:00</time>
      </trkpt>
      <trkpt lat="39.480507339999996" lon="-0.38304499999999997">
        <ele>-3.0</ele>
        <time>2022-05-31T19:32:25+02:00</time>
      </trkpt>
      <trkpt lat="39.48055867" lon="-0.38295666000000006">
        <ele>-3.0</ele>
        <time>2022-05-31T19:32:27+02:00</time>
      </trkpt>
      <trkpt lat="39.480597339999996" lon="-0.382895">
        <ele>-3.0</ele>
        <time>2022-05-31T19:32:28+02:00</time>
      </trkpt>
      <trkpt lat="39.480641000000006" lon="-0.38282333">
        <ele>-3.0</ele>
        <time>2022-05-31T19:32:29+02:00</time>
      </trkpt>
      <trkpt lat="39.480700670000004" lon="-0.38272">
        <ele>-3.0</ele>
        <time>2022-05-31T19:32:30+02:00</time>
      </trkpt>
      <trkpt lat="39.48074967000001" lon="-0.38263832999999997">
        <ele>-3.0</ele>
        <time>2022-05-31T19:32:31+02:00</time>
      </trkpt>
      <trkpt lat="39.480789339999994" lon="-0.38256">
        <ele>-3.0</ele>
        <time>2022-05-31T19:32:32+02:00</time>
      </trkpt>
      <trkpt lat="39.480838000000006" lon="-0.38247833">
        <ele>-3.0</ele>
        <time>2022-05-31T19:32:33+02:00</time>
      </trkpt>
      <trkpt lat="39.480878669999996" lon="-0.38239832999999995">
        <ele>-3.0</ele>
        <time>2022-05-31T19:32:34+02:00</time>
      </trkpt>
      <trkpt lat="39.480921339999995" lon="-0.38231333">
        <ele>-3.0</ele>
        <time>2022-05-31T19:32:35+02:00</time>
      </trkpt>
      <trkpt lat="39.48096334" lon="-0.38222999999999996">
        <ele>-3.0</ele>
        <time>2022-05-31T19:32:36+02:00</time>
      </trkpt>
      <trkpt lat="39.481004999999996" lon="-0.3821466600000001">
        <ele>-3.0</ele>
        <time>2022-05-31T19:32:37+02:00</time>
      </trkpt>
      <trkpt lat="39.48104134" lon="-0.38206">
        <ele>-3.0</ele>
        <time>2022-05-31T19:32:38+02:00</time>
      </trkpt>
      <trkpt lat="39.481084339999995" lon="-0.38197333">
        <ele>-3.0</ele>
        <time>2022-05-31T19:32:39+02:00</time>
      </trkpt>
      <trkpt lat="39.481119" lon="-0.38188833000000005">
        <ele>-3.0</ele>
        <time>2022-05-31T19:32:40+02:00</time>
      </trkpt>
      <trkpt lat="39.48115266999999" lon="-0.38180500000000006">
        <ele>-3.0</ele>
        <time>2022-05-31T19:32:41+02:00</time>
      </trkpt>
      <trkpt lat="39.48117834" lon="-0.38173666000000006">
        <ele>-3.0</ele>
        <time>2022-05-31T19:32:42+02:00</time>
      </trkpt>
      <trkpt lat="39.48122033999999" lon="-0.38163665999999996">
        <ele>-3.0</ele>
        <time>2022-05-31T19:32:43+02:00</time>
      </trkpt>
      <trkpt lat="39.48124467" lon="-0.38156999999999996">
        <ele>-3.0</ele>
        <time>2022-05-31T19:32:44+02:00</time>
      </trkpt>
      <trkpt lat="39.481284" lon="-0.38147332999999994">
        <ele>-3.0</ele>
        <time>2022-05-31T19:32:45+02:00</time>
      </trkpt>
      <trkpt lat="39.481313670000006" lon="-0.381395">
        <ele>-3.0</ele>
        <time>2022-05-31T19:32:46+02:00</time>
      </trkpt>
      <trkpt lat="39.48134" lon="-0.38132333">
        <ele>-3.0</ele>
        <time>2022-05-31T19:32:47+02:00</time>
      </trkpt>
      <trkpt lat="39.481359669999996" lon="-0.381265">
        <ele>-3.0</ele>
        <time>2022-05-31T19:32:48+02:00</time>
      </trkpt>
      <trkpt lat="39.481402" lon="-0.38112833">
        <ele>-3.0</ele>
        <time>2022-05-31T19:32:50+02:00</time>
      </trkpt>
      <trkpt lat="39.481434670000006" lon="-0.38104332999999996">
        <ele>-3.0</ele>
        <time>2022-05-31T19:32:51+02:00</time>
      </trkpt>
      <trkpt lat="39.481454" lon="-0.38098666000000003">
        <ele>-3.0</ele>
        <time>2022-05-31T19:32:52+02:00</time>
      </trkpt>
      <trkpt lat="39.48147967" lon="-0.38091666">
        <ele>-3.0</ele>
        <time>2022-05-31T19:32:53+02:00</time>
      </trkpt>
      <trkpt lat="39.48150467000001" lon="-0.38083166">
        <ele>-3.0</ele>
        <time>2022-05-31T19:32:54+02:00</time>
      </trkpt>
      <trkpt lat="39.481531000000004" lon="-0.38076">
        <ele>-3.0</ele>
        <time>2022-05-31T19:32:55+02:00</time>
      </trkpt>
      <trkpt lat="39.48155799999999" lon="-0.38068666">
        <ele>-4.0</ele>
        <time>2022-05-31T19:32:56+02:00</time>
      </trkpt>
      <trkpt lat="39.48158467" lon="-0.38061333">
        <ele>-4.0</ele>
        <time>2022-05-31T19:32:57+02:00</time>
      </trkpt>
      <trkpt lat="39.481604999999995" lon="-0.38055333">
        <ele>-4.0</ele>
        <time>2022-05-31T19:32:58+02:00</time>
      </trkpt>
      <trkpt lat="39.481632669999996" lon="-0.3804766600000001">
        <ele>-4.0</ele>
        <time>2022-05-31T19:32:59+02:00</time>
      </trkpt>
      <trkpt lat="39.48165767" lon="-0.38038833">
        <ele>-4.0</ele>
        <time>2022-05-31T19:33:00+02:00</time>
      </trkpt>
      <trkpt lat="39.48168234" lon="-0.3803166600000001">
        <ele>-4.0</ele>
        <time>2022-05-31T19:33:01+02:00</time>
      </trkpt>
      <trkpt lat="39.48169767" lon="-0.38024833">
        <ele>-4.0</ele>
        <time>2022-05-31T19:33:02+02:00</time>
      </trkpt>
      <trkpt lat="39.481723339999995" lon="-0.38017166000000013">
        <ele>-4.0</ele>
        <time>2022-05-31T19:33:03+02:00</time>
      </trkpt>
      <trkpt lat="39.48174034" lon="-0.38009666000000003">
        <ele>-4.0</ele>
        <time>2022-05-31T19:33:04+02:00</time>
      </trkpt>
      <trkpt lat="39.481766670000006" lon="-0.380015">
        <ele>-4.0</ele>
        <time>2022-05-31T19:33:05+02:00</time>
      </trkpt>
      <trkpt lat="39.48178467" lon="-0.37993499999999997">
        <ele>-4.0</ele>
        <time>2022-05-31T19:33:06+02:00</time>
      </trkpt>
      <trkpt lat="39.481809999999996" lon="-0.37985166000000004">
        <ele>-4.0</ele>
        <time>2022-05-31T19:33:07+02:00</time>
      </trkpt>
      <trkpt lat="39.48182" lon="-0.37978832999999995">
        <ele>-4.0</ele>
        <time>2022-05-31T19:33:08+02:00</time>
      </trkpt>
      <trkpt lat="39.481835999999994" lon="-0.3797066600000001">
        <ele>-4.0</ele>
        <time>2022-05-31T19:33:09+02:00</time>
      </trkpt>
      <trkpt lat="39.481851670000005" lon="-0.37962333">
        <ele>-4.0</ele>
        <time>2022-05-31T19:33:10+02:00</time>
      </trkpt>
      <trkpt lat="39.481671670000004" lon="-0.37946666000000007">
        <ele>-4.0</ele>
        <time>2022-05-31T19:33:12+02:00</time>
      </trkpt>
      <trkpt lat="39.481651670000005" lon="-0.379395">
        <ele>-4.0</ele>
        <time>2022-05-31T19:33:13+02:00</time>
      </trkpt>
      <trkpt lat="39.481629999999996" lon="-0.37933166000000007">
        <ele>-4.0</ele>
        <time>2022-05-31T19:33:14+02:00</time>
      </trkpt>
      <trkpt lat="39.48160333999999" lon="-0.37927833">
        <ele>-4.0</ele>
        <time>2022-05-31T19:33:15+02:00</time>
      </trkpt>
      <trkpt lat="39.481561670000005" lon="-0.37922666000000005">
        <ele>-4.0</ele>
        <time>2022-05-31T19:33:16+02:00</time>
      </trkpt>
      <trkpt lat="39.48152167" lon="-0.379195">
        <ele>-4.0</ele>
        <time>2022-05-31T19:33:17+02:00</time>
      </trkpt>
      <trkpt lat="39.481440000000006" lon="-0.379135">
        <ele>-4.0</ele>
        <time>2022-05-31T19:33:19+02:00</time>
      </trkpt>
      <trkpt lat="39.481395000000006" lon="-0.379092">
        <ele>-4.0</ele>
        <time>2022-05-31T19:33:20+02:00</time>
      </trkpt>
      <trkpt lat="39.481356670000004" lon="-0.3790403299999999">
        <ele>-4.0</ele>
        <time>2022-05-31T19:33:21+02:00</time>
      </trkpt>
      <trkpt lat="39.481318339999994" lon="-0.37896">
        <ele>-4.0</ele>
        <time>2022-05-31T19:33:22+02:00</time>
      </trkpt>
      <trkpt lat="39.48130167000001" lon="-0.3789">
        <ele>-4.0</ele>
        <time>2022-05-31T19:33:23+02:00</time>
      </trkpt>
      <trkpt lat="39.481286669999996" lon="-0.37882">
        <ele>-4.0</ele>
        <time>2022-05-31T19:33:24+02:00</time>
      </trkpt>
      <trkpt lat="39.481273339999994" lon="-0.37871833">
        <ele>-4.0</ele>
        <time>2022-05-31T19:33:25+02:00</time>
      </trkpt>
      <trkpt lat="39.48126334" lon="-0.37864833">
        <ele>-4.0</ele>
        <time>2022-05-31T19:33:26+02:00</time>
      </trkpt>
      <trkpt lat="39.48125133999999" lon="-0.37854166000000006">
        <ele>-4.0</ele>
        <time>2022-05-31T19:33:27+02:00</time>
      </trkpt>
      <trkpt lat="39.481246" lon="-0.37845">
        <ele>-4.0</ele>
        <time>2022-05-31T19:33:28+02:00</time>
      </trkpt>
      <trkpt lat="39.481243000000006" lon="-0.378375">
        <ele>-4.0</ele>
        <time>2022-05-31T19:33:29+02:00</time>
      </trkpt>
      <trkpt lat="39.48123967" lon="-0.37827332999999996">
        <ele>-4.0</ele>
        <time>2022-05-31T19:33:30+02:00</time>
      </trkpt>
      <trkpt lat="39.48122934" lon="-0.37813333">
        <ele>-4.0</ele>
        <time>2022-05-31T19:33:31+02:00</time>
      </trkpt>
      <trkpt lat="39.48121733999999" lon="-0.37808166000000004">
        <ele>-4.0</ele>
        <time>2022-05-31T19:33:32+02:00</time>
      </trkpt>
      <trkpt lat="39.48117167" lon="-0.37803000000000003">
        <ele>-4.0</ele>
        <time>2022-05-31T19:33:33+02:00</time>
      </trkpt>
      <trkpt lat="39.481111670000004" lon="-0.377915">
        <ele>-4.0</ele>
        <time>2022-05-31T19:33:35+02:00</time>
      </trkpt>
      <trkpt lat="39.48107734" lon="-0.37785166000000003">
        <ele>-4.0</ele>
        <time>2022-05-31T19:33:36+02:00</time>
      </trkpt>
      <trkpt lat="39.481031" lon="-0.37777666000000004">
        <ele>-4.0</ele>
        <time>2022-05-31T19:33:37+02:00</time>
      </trkpt>
      <trkpt lat="39.480990000000006" lon="-0.37771333">
        <ele>-4.0</ele>
        <time>2022-05-31T19:33:38+02:00</time>
      </trkpt>
      <trkpt lat="39.48095133999999" lon="-0.37765332999999995">
        <ele>-4.0</ele>
        <time>2022-05-31T19:33:39+02:00</time>
      </trkpt>
      <trkpt lat="39.480914" lon="-0.37759332999999995">
        <ele>-4.0</ele>
        <time>2022-05-31T19:33:40+02:00</time>
      </trkpt>
      <trkpt lat="39.48088299999999" lon="-0.37754000000000004">
        <ele>-4.0</ele>
        <time>2022-05-31T19:33:41+02:00</time>
      </trkpt>
      <trkpt lat="39.480838340000005" lon="-0.37745999999999996">
        <ele>-4.0</ele>
        <time>2022-05-31T19:33:42+02:00</time>
      </trkpt>
      <trkpt lat="39.48081" lon="-0.37740666">
        <ele>-4.0</ele>
        <time>2022-05-31T19:33:43+02:00</time>
      </trkpt>
      <trkpt lat="39.48076567000001" lon="-0.37733166">
        <ele>-4.0</ele>
        <time>2022-05-31T19:33:44+02:00</time>
      </trkpt>
      <trkpt lat="39.480725670000005" lon="-0.3772666600000001">
        <ele>-4.0</ele>
        <time>2022-05-31T19:33:45+02:00</time>
      </trkpt>
      <trkpt lat="39.48069134" lon="-0.37721166000000006">
        <ele>-4.0</ele>
        <time>2022-05-31T19:33:46+02:00</time>
      </trkpt>
      <trkpt lat="39.48065267" lon="-0.37716166">
        <ele>-4.0</ele>
        <time>2022-05-31T19:33:47+02:00</time>
      </trkpt>
      <trkpt lat="39.48050866999999" lon="-0.37694">
        <ele>-4.0</ele>
        <time>2022-05-31T19:33:49+02:00</time>
      </trkpt>
      <trkpt lat="39.48045467" lon="-0.37685333">
        <ele>-4.0</ele>
        <time>2022-05-31T19:33:50+02:00</time>
      </trkpt>
      <trkpt lat="39.480397669999995" lon="-0.376755">
        <ele>-4.0</ele>
        <time>2022-05-31T19:33:51+02:00</time>
      </trkpt>
      <trkpt lat="39.48035333999999" lon="-0.3766716600000001">
        <ele>-4.0</ele>
        <time>2022-05-31T19:33:52+02:00</time>
      </trkpt>
      <trkpt lat="39.480311670000006" lon="-0.3765900000000001">
        <ele>-4.0</ele>
        <time>2022-05-31T19:33:53+02:00</time>
      </trkpt>
      <trkpt lat="39.48028467" lon="-0.37652666">
        <ele>-4.0</ele>
        <time>2022-05-31T19:33:54+02:00</time>
      </trkpt>
      <trkpt lat="39.48020067" lon="-0.37636000000000003">
        <ele>-4.0</ele>
        <time>2022-05-31T19:33:56+02:00</time>
      </trkpt>
      <trkpt lat="39.48016867" lon="-0.37628833">
        <ele>-4.0</ele>
        <time>2022-05-31T19:33:57+02:00</time>
      </trkpt>
      <trkpt lat="39.480146000000005" lon="-0.3762333299999999">
        <ele>-4.0</ele>
        <time>2022-05-31T19:33:58+02:00</time>
      </trkpt>
      <trkpt lat="39.48010467" lon="-0.37614999999999993">
        <ele>-4.0</ele>
        <time>2022-05-31T19:33:59+02:00</time>
      </trkpt>
      <trkpt lat="39.48007" lon="-0.37607833">
        <ele>-5.0</ele>
        <time>2022-05-31T19:34:00+02:00</time>
      </trkpt>
      <trkpt lat="39.480039999999995" lon="-0.37601500000000004">
        <ele>-5.0</ele>
        <time>2022-05-31T19:34:01+02:00</time>
      </trkpt>
      <trkpt lat="39.48001367" lon="-0.37595666000000005">
        <ele>-5.0</ele>
        <time>2022-05-31T19:34:02+02:00</time>
      </trkpt>
      <trkpt lat="39.47997267" lon="-0.3758616600000001">
        <ele>-5.0</ele>
        <time>2022-05-31T19:34:03+02:00</time>
      </trkpt>
      <trkpt lat="39.47993667" lon="-0.37578166">
        <ele>-5.0</ele>
        <time>2022-05-31T19:34:04+02:00</time>
      </trkpt>
      <trkpt lat="39.479906670000005" lon="-0.37570333">
        <ele>-5.0</ele>
        <time>2022-05-31T19:34:05+02:00</time>
      </trkpt>
      <trkpt lat="39.479879999999994" lon="-0.37562832999999995">
        <ele>-5.0</ele>
        <time>2022-05-31T19:34:06+02:00</time>
      </trkpt>
      <trkpt lat="39.47985799999999" lon="-0.3755616600000001">
        <ele>-5.0</ele>
        <time>2022-05-31T19:34:07+02:00</time>
      </trkpt>
      <trkpt lat="39.47983234" lon="-0.3754966600000001">
        <ele>-5.0</ele>
        <time>2022-05-31T19:34:08+02:00</time>
      </trkpt>
      <trkpt lat="39.47980967" lon="-0.37542833">
        <ele>-5.0</ele>
        <time>2022-05-31T19:34:09+02:00</time>
      </trkpt>
      <trkpt lat="39.479789000000004" lon="-0.37537333000000006">
        <ele>-5.0</ele>
        <time>2022-05-31T19:34:10+02:00</time>
      </trkpt>
      <trkpt lat="39.479753339999995" lon="-0.37529832999999996">
        <ele>-5.0</ele>
        <time>2022-05-31T19:34:11+02:00</time>
      </trkpt>
      <trkpt lat="39.479727999999994" lon="-0.375235">
        <ele>-5.0</ele>
        <time>2022-05-31T19:34:12+02:00</time>
      </trkpt>
      <trkpt lat="39.479703670000006" lon="-0.37518333">
        <ele>-5.0</ele>
        <time>2022-05-31T19:34:13+02:00</time>
      </trkpt>
      <trkpt lat="39.479669" lon="-0.37511166000000007">
        <ele>-5.0</ele>
        <time>2022-05-31T19:34:14+02:00</time>
      </trkpt>
      <trkpt lat="39.47963634" lon="-0.37503333">
        <ele>-5.0</ele>
        <time>2022-05-31T19:34:16+02:00</time>
      </trkpt>
      <trkpt lat="39.479613670000006" lon="-0.37498665999999997">
        <ele>-5.0</ele>
        <time>2022-05-31T19:34:17+02:00</time>
      </trkpt>
      <trkpt lat="39.47957867" lon="-0.374915">
        <ele>-6.0</ele>
        <time>2022-05-31T19:34:20+02:00</time>
      </trkpt>
      <trkpt lat="39.47954134" lon="-0.37484">
        <ele>-6.0</ele>
        <time>2022-05-31T19:34:21+02:00</time>
      </trkpt>
      <trkpt lat="39.47949367" lon="-0.37475666">
        <ele>-6.0</ele>
        <time>2022-05-31T19:34:23+02:00</time>
      </trkpt>
      <trkpt lat="39.479473" lon="-0.3747166600000001">
        <ele>-6.0</ele>
        <time>2022-05-31T19:34:24+02:00</time>
      </trkpt>
      <trkpt lat="39.479395000000004" lon="-0.37468333">
        <ele>-6.0</ele>
        <time>2022-05-31T19:34:25+02:00</time>
      </trkpt>
      <trkpt lat="39.479319999999994" lon="-0.374625">
        <ele>-7.0</ele>
        <time>2022-05-31T19:34:27+02:00</time>
      </trkpt>
      <trkpt lat="39.47926" lon="-0.37458833">
        <ele>-7.0</ele>
        <time>2022-05-31T19:34:28+02:00</time>
      </trkpt>
      <trkpt lat="39.47921834" lon="-0.37453000000000003">
        <ele>-7.0</ele>
        <time>2022-05-31T19:34:29+02:00</time>
      </trkpt>
      <trkpt lat="39.47917167000001" lon="-0.37447366000000004">
        <ele>-7.0</ele>
        <time>2022-05-31T19:34:30+02:00</time>
      </trkpt>
      <trkpt lat="39.47913334" lon="-0.37442666">
        <ele>-7.0</ele>
        <time>2022-05-31T19:34:31+02:00</time>
      </trkpt>
      <trkpt lat="39.479085" lon="-0.37435166000000003">
        <ele>-7.0</ele>
        <time>2022-05-31T19:34:32+02:00</time>
      </trkpt>
      <trkpt lat="39.47904667" lon="-0.374285">
        <ele>-7.0</ele>
        <time>2022-05-31T19:34:33+02:00</time>
      </trkpt>
      <trkpt lat="39.479009669999996" lon="-0.37421833">
        <ele>-7.0</ele>
        <time>2022-05-31T19:34:34+02:00</time>
      </trkpt>
      <trkpt lat="39.478981" lon="-0.3741633299999999">
        <ele>-7.0</ele>
        <time>2022-05-31T19:34:35+02:00</time>
      </trkpt>
      <trkpt lat="39.47893734" lon="-0.37408499999999995">
        <ele>-7.0</ele>
        <time>2022-05-31T19:34:36+02:00</time>
      </trkpt>
      <trkpt lat="39.47890767" lon="-0.3740316600000001">
        <ele>-7.0</ele>
        <time>2022-05-31T19:34:37+02:00</time>
      </trkpt>
      <trkpt lat="39.47886034" lon="-0.37394999999999995">
        <ele>-7.0</ele>
        <time>2022-05-31T19:34:38+02:00</time>
      </trkpt>
      <trkpt lat="39.47882167000001" lon="-0.37388333000000007">
        <ele>-7.0</ele>
        <time>2022-05-31T19:34:39+02:00</time>
      </trkpt>
      <trkpt lat="39.47878334" lon="-0.373815">
        <ele>-7.0</ele>
        <time>2022-05-31T19:34:40+02:00</time>
      </trkpt>
      <trkpt lat="39.478743" lon="-0.37374666">
        <ele>-7.0</ele>
        <time>2022-05-31T19:34:41+02:00</time>
      </trkpt>
      <trkpt lat="39.478703339999996" lon="-0.37367666">
        <ele>-7.0</ele>
        <time>2022-05-31T19:34:42+02:00</time>
      </trkpt>
      <trkpt lat="39.47866067" lon="-0.37360166000000006">
        <ele>-7.0</ele>
        <time>2022-05-31T19:34:43+02:00</time>
      </trkpt>
      <trkpt lat="39.47858467" lon="-0.37345832999999995">
        <ele>-7.0</ele>
        <time>2022-05-31T19:34:45+02:00</time>
      </trkpt>
      <trkpt lat="39.478553999999995" lon="-0.37339833">
        <ele>-7.0</ele>
        <time>2022-05-31T19:34:46+02:00</time>
      </trkpt>
      <trkpt lat="39.47850834" lon="-0.37331166000000005">
        <ele>-7.0</ele>
        <time>2022-05-31T19:34:47+02:00</time>
      </trkpt>
      <trkpt lat="39.47847134" lon="-0.37323333">
        <ele>-7.0</ele>
        <time>2022-05-31T19:34:48+02:00</time>
      </trkpt>
      <trkpt lat="39.47843534" lon="-0.373155">
        <ele>-7.0</ele>
        <time>2022-05-31T19:34:49+02:00</time>
      </trkpt>
      <trkpt lat="39.478409670000005" lon="-0.373095">
        <ele>-7.0</ele>
        <time>2022-05-31T19:34:50+02:00</time>
      </trkpt>
      <trkpt lat="39.478367000000006" lon="-0.37300666000000005">
        <ele>-7.0</ele>
        <time>2022-05-31T19:34:51+02:00</time>
      </trkpt>
      <trkpt lat="39.478341670000006" lon="-0.37295166000000013">
        <ele>-7.0</ele>
        <time>2022-05-31T19:34:52+02:00</time>
      </trkpt>
      <trkpt lat="39.478301" lon="-0.37286666">
        <ele>-7.0</ele>
        <time>2022-05-31T19:34:53+02:00</time>
      </trkpt>
      <trkpt lat="39.478266000000005" lon="-0.37279832999999996">
        <ele>-7.0</ele>
        <time>2022-05-31T19:34:54+02:00</time>
      </trkpt>
      <trkpt lat="39.478231339999994" lon="-0.37273166">
        <ele>-7.0</ele>
        <time>2022-05-31T19:34:55+02:00</time>
      </trkpt>
      <trkpt lat="39.47819667" lon="-0.372665">
        <ele>-7.0</ele>
        <time>2022-05-31T19:34:56+02:00</time>
      </trkpt>
      <trkpt lat="39.478159" lon="-0.37260000000000004">
        <ele>-7.0</ele>
        <time>2022-05-31T19:34:57+02:00</time>
      </trkpt>
      <trkpt lat="39.47812967" lon="-0.37254499999999996">
        <ele>-7.0</ele>
        <time>2022-05-31T19:34:58+02:00</time>
      </trkpt>
      <trkpt lat="39.478083" lon="-0.37246333">
        <ele>-7.0</ele>
        <time>2022-05-31T19:34:59+02:00</time>
      </trkpt>
      <trkpt lat="39.47804734" lon="-0.37239666000000005">
        <ele>-7.0</ele>
        <time>2022-05-31T19:35:00+02:00</time>
      </trkpt>
      <trkpt lat="39.478007999999996" lon="-0.37233000000000005">
        <ele>-7.0</ele>
        <time>2022-05-31T19:35:01+02:00</time>
      </trkpt>
      <trkpt lat="39.477973" lon="-0.372265">
        <ele>-7.0</ele>
        <time>2022-05-31T19:35:02+02:00</time>
      </trkpt>
      <trkpt lat="39.477946" lon="-0.3722150000000001">
        <ele>-7.0</ele>
        <time>2022-05-31T19:35:03+02:00</time>
      </trkpt>
      <trkpt lat="39.47790667" lon="-0.37215">
        <ele>-7.0</ele>
        <time>2022-05-31T19:35:04+02:00</time>
      </trkpt>
      <trkpt lat="39.477827999999995" lon="-0.37201499999999993">
        <ele>-7.0</ele>
        <time>2022-05-31T19:35:06+02:00</time>
      </trkpt>
      <trkpt lat="39.47779" lon="-0.37195500000000004">
        <ele>-7.0</ele>
        <time>2022-05-31T19:35:07+02:00</time>
      </trkpt>
      <trkpt lat="39.47775067" lon="-0.37189332999999997">
        <ele>-7.0</ele>
        <time>2022-05-31T19:35:08+02:00</time>
      </trkpt>
      <trkpt lat="39.47771567000001" lon="-0.37183166000000006">
        <ele>-7.0</ele>
        <time>2022-05-31T19:35:09+02:00</time>
      </trkpt>
      <trkpt lat="39.47767467" lon="-0.37176833">
        <ele>-7.0</ele>
        <time>2022-05-31T19:35:10+02:00</time>
      </trkpt>
      <trkpt lat="39.47763267" lon="-0.37170333">
        <ele>-7.0</ele>
        <time>2022-05-31T19:35:11+02:00</time>
      </trkpt>
      <trkpt lat="39.477592" lon="-0.3716416600000001">
        <ele>-7.0</ele>
        <time>2022-05-31T19:35:12+02:00</time>
      </trkpt>
      <trkpt lat="39.47755567" lon="-0.37157832999999996">
        <ele>-7.0</ele>
        <time>2022-05-31T19:35:13+02:00</time>
      </trkpt>
      <trkpt lat="39.477513339999994" lon="-0.371515">
        <ele>-7.0</ele>
        <time>2022-05-31T19:35:14+02:00</time>
      </trkpt>
      <trkpt lat="39.477469" lon="-0.37144833">
        <ele>-7.0</ele>
        <time>2022-05-31T19:35:15+02:00</time>
      </trkpt>
      <trkpt lat="39.477438" lon="-0.371395">
        <ele>-7.0</ele>
        <time>2022-05-31T19:35:16+02:00</time>
      </trkpt>
      <trkpt lat="39.47738533999999" lon="-0.371315">
        <ele>-7.0</ele>
        <time>2022-05-31T19:35:17+02:00</time>
      </trkpt>
      <trkpt lat="39.47734533999999" lon="-0.37124666000000006">
        <ele>-7.0</ele>
        <time>2022-05-31T19:35:18+02:00</time>
      </trkpt>
      <trkpt lat="39.47729867" lon="-0.37117666">
        <ele>-7.0</ele>
        <time>2022-05-31T19:35:19+02:00</time>
      </trkpt>
      <trkpt lat="39.477252" lon="-0.37110833">
        <ele>-7.0</ele>
        <time>2022-05-31T19:35:20+02:00</time>
      </trkpt>
      <trkpt lat="39.477219" lon="-0.37105333">
        <ele>-7.0</ele>
        <time>2022-05-31T19:35:21+02:00</time>
      </trkpt>
      <trkpt lat="39.477166000000004" lon="-0.37097333">
        <ele>-7.0</ele>
        <time>2022-05-31T19:35:22+02:00</time>
      </trkpt>
      <trkpt lat="39.47711867" lon="-0.37090333000000003">
        <ele>-7.0</ele>
        <time>2022-05-31T19:35:23+02:00</time>
      </trkpt>
      <trkpt lat="39.477069670000006" lon="-0.37083166000000006">
        <ele>-7.0</ele>
        <time>2022-05-31T19:35:24+02:00</time>
      </trkpt>
      <trkpt lat="39.477021670000006" lon="-0.37076166">
        <ele>-7.0</ele>
        <time>2022-05-31T19:35:25+02:00</time>
      </trkpt>
      <trkpt lat="39.47697533999999" lon="-0.370695">
        <ele>-7.0</ele>
        <time>2022-05-31T19:35:26+02:00</time>
      </trkpt>
      <trkpt lat="39.47692834" lon="-0.37062666">
        <ele>-7.0</ele>
        <time>2022-05-31T19:35:27+02:00</time>
      </trkpt>
      <trkpt lat="39.476881000000006" lon="-0.37055832999999994">
        <ele>-7.0</ele>
        <time>2022-05-31T19:35:28+02:00</time>
      </trkpt>
      <trkpt lat="39.47684334" lon="-0.3705066600000001">
        <ele>-7.0</ele>
        <time>2022-05-31T19:35:29+02:00</time>
      </trkpt>
      <trkpt lat="39.47673767" lon="-0.37036333">
        <ele>-7.0</ele>
        <time>2022-05-31T19:35:31+02:00</time>
      </trkpt>
      <trkpt lat="39.476694339999995" lon="-0.37030166000000003">
        <ele>-7.0</ele>
        <time>2022-05-31T19:35:32+02:00</time>
      </trkpt>
      <trkpt lat="39.476652339999994" lon="-0.37024333">
        <ele>-7.0</ele>
        <time>2022-05-31T19:35:33+02:00</time>
      </trkpt>
      <trkpt lat="39.476619" lon="-0.37019832999999996">
        <ele>-7.0</ele>
        <time>2022-05-31T19:35:34+02:00</time>
      </trkpt>
      <trkpt lat="39.47657567" lon="-0.37013832999999996">
        <ele>-7.0</ele>
        <time>2022-05-31T19:35:35+02:00</time>
      </trkpt>
      <trkpt lat="39.47653067" lon="-0.37007500000000004">
        <ele>-7.0</ele>
        <time>2022-05-31T19:35:36+02:00</time>
      </trkpt>
      <trkpt lat="39.476485339999996" lon="-0.37001165999999996">
        <ele>-7.0</ele>
        <time>2022-05-31T19:35:37+02:00</time>
      </trkpt>
      <trkpt lat="39.476443" lon="-0.36994333">
        <ele>-7.0</ele>
        <time>2022-05-31T19:35:38+02:00</time>
      </trkpt>
      <trkpt lat="39.476403" lon="-0.36987833000000003">
        <ele>-7.0</ele>
        <time>2022-05-31T19:35:39+02:00</time>
      </trkpt>
      <trkpt lat="39.47636767" lon="-0.36982166000000005">
        <ele>-7.0</ele>
        <time>2022-05-31T19:35:40+02:00</time>
      </trkpt>
      <trkpt lat="39.47633067" lon="-0.36976166">
        <ele>-7.0</ele>
        <time>2022-05-31T19:35:41+02:00</time>
      </trkpt>
      <trkpt lat="39.47629033999999" lon="-0.36969666000000007">
        <ele>-7.0</ele>
        <time>2022-05-31T19:35:42+02:00</time>
      </trkpt>
      <trkpt lat="39.476262340000005" lon="-0.36965166000000005">
        <ele>-7.0</ele>
        <time>2022-05-31T19:35:43+02:00</time>
      </trkpt>
      <trkpt lat="39.476231" lon="-0.36960166">
        <ele>-7.0</ele>
        <time>2022-05-31T19:35:44+02:00</time>
      </trkpt>
      <trkpt lat="39.47620067000001" lon="-0.36955333">
        <ele>-7.0</ele>
        <time>2022-05-31T19:35:45+02:00</time>
      </trkpt>
      <trkpt lat="39.476151" lon="-0.36946500000000004">
        <ele>-7.0</ele>
        <time>2022-05-31T19:35:47+02:00</time>
      </trkpt>
      <trkpt lat="39.476205" lon="-0.36935666000000006">
        <ele>-7.0</ele>
        <time>2022-05-31T19:35:49+02:00</time>
      </trkpt>
      <trkpt lat="39.47622833999999" lon="-0.36930500000000005">
        <ele>-7.0</ele>
        <time>2022-05-31T19:35:50+02:00</time>
      </trkpt>
      <trkpt lat="39.476256670000005" lon="-0.369255">
        <ele>-8.0</ele>
        <time>2022-05-31T19:35:52+02:00</time>
      </trkpt>
      <trkpt lat="39.476324999999996" lon="-0.36916666000000004">
        <ele>-8.0</ele>
        <time>2022-05-31T19:35:53+02:00</time>
      </trkpt>
      <trkpt lat="39.476391670000005" lon="-0.3690816600000001">
        <ele>-8.0</ele>
        <time>2022-05-31T19:35:55+02:00</time>
      </trkpt>
      <trkpt lat="39.47645834" lon="-0.369005">
        <ele>-8.0</ele>
        <time>2022-05-31T19:35:57+02:00</time>
      </trkpt>
      <trkpt lat="39.476508339999995" lon="-0.36895199999999995">
        <ele>-9.0</ele>
        <time>2022-05-31T19:35:59+02:00</time>
      </trkpt>
      <trkpt lat="39.476546670000005" lon="-0.36888833">
        <ele>-9.0</ele>
        <time>2022-05-31T19:36:01+02:00</time>
      </trkpt>
      <trkpt lat="39.47656" lon="-0.36882333">
        <ele>-9.0</ele>
        <time>2022-05-31T19:36:03+02:00</time>
      </trkpt>
      <trkpt lat="39.47658667" lon="-0.368745">
        <ele>-9.0</ele>
        <time>2022-05-31T19:36:05+02:00</time>
      </trkpt>
      <trkpt lat="39.47638334" lon="-0.36843000000000004">
        <ele>-9.0</ele>
        <time>2022-05-31T19:36:14+02:00</time>
      </trkpt>
      <trkpt lat="39.476440000000004" lon="-0.36833833">
        <ele>-9.0</ele>
        <time>2022-05-31T19:36:16+02:00</time>
      </trkpt>
      <trkpt lat="39.476461670000006" lon="-0.36826">
        <ele>-10.0</ele>
        <time>2022-05-31T19:36:18+02:00</time>
      </trkpt>
      <trkpt lat="39.47647667" lon="-0.36820332999999994">
        <ele>-10.0</ele>
        <time>2022-05-31T19:36:19+02:00</time>
      </trkpt>
      <trkpt lat="39.47647667" lon="-0.36812666">
        <ele>-10.0</ele>
        <time>2022-05-31T19:36:21+02:00</time>
      </trkpt>
      <trkpt lat="39.47647334" lon="-0.36802499999999994">
        <ele>-10.0</ele>
        <time>2022-05-31T19:36:24+02:00</time>
      </trkpt>
      <trkpt lat="39.47646034" lon="-0.36793">
        <ele>-10.0</ele>
        <time>2022-05-31T19:36:25+02:00</time>
      </trkpt>
      <trkpt lat="39.476457669999995" lon="-0.36783666000000004">
        <ele>-10.0</ele>
        <time>2022-05-31T19:36:27+02:00</time>
      </trkpt>
      <trkpt lat="39.476501670000005" lon="-0.3677666600000001">
        <ele>-10.0</ele>
        <time>2022-05-31T19:36:29+02:00</time>
      </trkpt>
      <trkpt lat="39.47655667" lon="-0.3677916600000001">
        <ele>-10.0</ele>
        <time>2022-05-31T19:36:31+02:00</time>
      </trkpt>
      <trkpt lat="39.47660667" lon="-0.36783">
        <ele>-10.0</ele>
        <time>2022-05-31T19:36:33+02:00</time>
      </trkpt>
      <trkpt lat="39.476665000000004" lon="-0.36787000000000003">
        <ele>-10.0</ele>
        <time>2022-05-31T19:36:35+02:00</time>
      </trkpt>
      <trkpt lat="39.47671167" lon="-0.36790533">
        <ele>-10.0</ele>
        <time>2022-05-31T19:36:37+02:00</time>
      </trkpt>
      <trkpt lat="39.47675834" lon="-0.36785832999999996">
        <ele>-10.0</ele>
        <time>2022-05-31T19:36:40+02:00</time>
      </trkpt>
      <trkpt lat="39.47678167" lon="-0.3678">
        <ele>-10.0</ele>
        <time>2022-05-31T19:36:42+02:00</time>
      </trkpt>
      <trkpt lat="39.47681334" lon="-0.367755">
        <ele>-10.0</ele>
        <time>2022-05-31T19:36:44+02:00</time>
      </trkpt>
      <trkpt lat="39.47685333999999" lon="-0.36772">
        <ele>-10.0</ele>
        <time>2022-05-31T19:36:47+02:00</time>
      </trkpt>
      <trkpt lat="39.476913339999996" lon="-0.3676966600000001">
        <ele>-10.0</ele>
        <time>2022-05-31T19:37:17+02:00</time>
      </trkpt>
      <trkpt lat="39.47694833999999" lon="-0.36763333000000004">
        <ele>-10.0</ele>
        <time>2022-05-31T19:37:19+02:00</time>
      </trkpt>
      <trkpt lat="39.476963340000005" lon="-0.36752666000000006">
        <ele>-10.0</ele>
        <time>2022-05-31T19:37:21+02:00</time>
      </trkpt>
      <trkpt lat="39.477013" lon="-0.3674550000000001">
        <ele>-10.0</ele>
        <time>2022-05-31T19:37:23+02:00</time>
      </trkpt>
      <trkpt lat="39.477093339999996" lon="-0.36740500000000004">
        <ele>-10.0</ele>
        <time>2022-05-31T19:37:25+02:00</time>
      </trkpt>
      <trkpt lat="39.47714333999999" lon="-0.36737000000000003">
        <ele>-10.0</ele>
        <time>2022-05-31T19:37:26+02:00</time>
      </trkpt>
      <trkpt lat="39.47718667" lon="-0.36733000000000005">
        <ele>-10.0</ele>
        <time>2022-05-31T19:37:27+02:00</time>
      </trkpt>
      <trkpt lat="39.477225" lon="-0.367287">
        <ele>-10.0</ele>
        <time>2022-05-31T19:37:28+02:00</time>
      </trkpt>
      <trkpt lat="39.477266670000006" lon="-0.3672376600000001">
        <ele>-10.0</ele>
        <time>2022-05-31T19:37:29+02:00</time>
      </trkpt>
      <trkpt lat="39.47730167" lon="-0.36719700000000005">
        <ele>-10.0</ele>
        <time>2022-05-31T19:37:30+02:00</time>
      </trkpt>
      <trkpt lat="39.47742167" lon="-0.36710532999999995">
        <ele>-10.0</ele>
        <time>2022-05-31T19:37:32+02:00</time>
      </trkpt>
      <trkpt lat="39.47748334" lon="-0.36711">
        <ele>-10.0</ele>
        <time>2022-05-31T19:37:33+02:00</time>
      </trkpt>
      <trkpt lat="39.47754334" lon="-0.36709833">
        <ele>-10.0</ele>
        <time>2022-05-31T19:37:34+02:00</time>
      </trkpt>
      <trkpt lat="39.47760667" lon="-0.36708332999999993">
        <ele>-9.0</ele>
        <time>2022-05-31T19:37:35+02:00</time>
      </trkpt>
      <trkpt lat="39.47767" lon="-0.36706966">
        <ele>-9.0</ele>
        <time>2022-05-31T19:37:36+02:00</time>
      </trkpt>
      <trkpt lat="39.477731670000004" lon="-0.36705532999999996">
        <ele>-9.0</ele>
        <time>2022-05-31T19:37:37+02:00</time>
      </trkpt>
      <trkpt lat="39.47779334" lon="-0.3670406600000001">
        <ele>-9.0</ele>
        <time>2022-05-31T19:37:38+02:00</time>
      </trkpt>
      <trkpt lat="39.47785499999999" lon="-0.36702266000000006">
        <ele>-9.0</ele>
        <time>2022-05-31T19:37:39+02:00</time>
      </trkpt>
      <trkpt lat="39.477905" lon="-0.3670053299999999">
        <ele>-8.0</ele>
        <time>2022-05-31T19:37:40+02:00</time>
      </trkpt>
      <trkpt lat="39.47796334" lon="-0.366985">
        <ele>-8.0</ele>
        <time>2022-05-31T19:37:41+02:00</time>
      </trkpt>
      <trkpt lat="39.478021670000004" lon="-0.36696333">
        <ele>-8.0</ele>
        <time>2022-05-31T19:37:42+02:00</time>
      </trkpt>
      <trkpt lat="39.478095" lon="-0.36693400000000004">
        <ele>-8.0</ele>
        <time>2022-05-31T19:37:43+02:00</time>
      </trkpt>
      <trkpt lat="39.478155" lon="-0.36690832999999995">
        <ele>-8.0</ele>
        <time>2022-05-31T19:37:44+02:00</time>
      </trkpt>
      <trkpt lat="39.478215000000006" lon="-0.36688099999999996">
        <ele>-7.0</ele>
        <time>2022-05-31T19:37:45+02:00</time>
      </trkpt>
      <trkpt lat="39.47833167" lon="-0.36682499999999996">
        <ele>-7.0</ele>
        <time>2022-05-31T19:37:46+02:00</time>
      </trkpt>
      <trkpt lat="39.47839167000001" lon="-0.3667956600000001">
        <ele>-7.0</ele>
        <time>2022-05-31T19:37:47+02:00</time>
      </trkpt>
      <trkpt lat="39.478449999999995" lon="-0.3667659999999999">
        <ele>-6.0</ele>
        <time>2022-05-31T19:37:48+02:00</time>
      </trkpt>
      <trkpt lat="39.47850834" lon="-0.3667376600000001">
        <ele>-6.0</ele>
        <time>2022-05-31T19:37:49+02:00</time>
      </trkpt>
      <trkpt lat="39.478565" lon="-0.3667116600000001">
        <ele>-6.0</ele>
        <time>2022-05-31T19:37:50+02:00</time>
      </trkpt>
      <trkpt lat="39.47866834" lon="-0.366663">
        <ele>-6.0</ele>
        <time>2022-05-31T19:37:52+02:00</time>
      </trkpt>
      <trkpt lat="39.47873167" lon="-0.36663033">
        <ele>-6.0</ele>
        <time>2022-05-31T19:37:53+02:00</time>
      </trkpt>
      <trkpt lat="39.478781670000004" lon="-0.3666023299999999">
        <ele>-6.0</ele>
        <time>2022-05-31T19:37:54+02:00</time>
      </trkpt>
      <trkpt lat="39.478826670000004" lon="-0.36657533">
        <ele>-5.0</ele>
        <time>2022-05-31T19:37:55+02:00</time>
      </trkpt>
      <trkpt lat="39.47886667" lon="-0.36654732999999995">
        <ele>-5.0</ele>
        <time>2022-05-31T19:37:56+02:00</time>
      </trkpt>
      <trkpt lat="39.47891" lon="-0.366385">
        <ele>-5.0</ele>
        <time>2022-05-31T19:37:58+02:00</time>
      </trkpt>
      <trkpt lat="39.478896670000005" lon="-0.36628">
        <ele>-5.0</ele>
        <time>2022-05-31T19:38:00+02:00</time>
      </trkpt>
      <trkpt lat="39.47886834" lon="-0.3661716600000001">
        <ele>-5.0</ele>
        <time>2022-05-31T19:38:02+02:00</time>
      </trkpt>
      <trkpt lat="39.47884334" lon="-0.36605166">
        <ele>-5.0</ele>
        <time>2022-05-31T19:38:04+02:00</time>
      </trkpt>
      <trkpt lat="39.478829" lon="-0.36598833">
        <ele>-5.0</ele>
        <time>2022-05-31T19:38:05+02:00</time>
      </trkpt>
      <trkpt lat="39.47881234" lon="-0.365925">
        <ele>-4.0</ele>
        <time>2022-05-31T19:38:06+02:00</time>
      </trkpt>
      <trkpt lat="39.478792999999996" lon="-0.36586333000000004">
        <ele>-4.0</ele>
        <time>2022-05-31T19:38:07+02:00</time>
      </trkpt>
      <trkpt lat="39.47877067" lon="-0.36580333000000004">
        <ele>-4.0</ele>
        <time>2022-05-31T19:38:08+02:00</time>
      </trkpt>
      <trkpt lat="39.47874867" lon="-0.36574666000000006">
        <ele>-4.0</ele>
        <time>2022-05-31T19:38:09+02:00</time>
      </trkpt>
      <trkpt lat="39.478727" lon="-0.36568666">
        <ele>-4.0</ele>
        <time>2022-05-31T19:38:10+02:00</time>
      </trkpt>
      <trkpt lat="39.47870467" lon="-0.365625">
        <ele>-4.0</ele>
        <time>2022-05-31T19:38:11+02:00</time>
      </trkpt>
      <trkpt lat="39.47868433999999" lon="-0.365555">
        <ele>-4.0</ele>
        <time>2022-05-31T19:38:12+02:00</time>
      </trkpt>
      <trkpt lat="39.478649" lon="-0.36542666000000007">
        <ele>-4.0</ele>
        <time>2022-05-31T19:38:14+02:00</time>
      </trkpt>
      <trkpt lat="39.47863334" lon="-0.36536166000000003">
        <ele>-4.0</ele>
        <time>2022-05-31T19:38:15+02:00</time>
      </trkpt>
      <trkpt lat="39.478615000000005" lon="-0.36529166">
        <ele>-4.0</ele>
        <time>2022-05-31T19:38:17+02:00</time>
      </trkpt>
      <trkpt lat="39.47858234" lon="-0.3651716600000001">
        <ele>-4.0</ele>
        <time>2022-05-31T19:38:18+02:00</time>
      </trkpt>
      <trkpt lat="39.478565" lon="-0.36511166000000006">
        <ele>-3.0</ele>
        <time>2022-05-31T19:38:19+02:00</time>
      </trkpt>
      <trkpt lat="39.47854833999999" lon="-0.36505333">
        <ele>-3.0</ele>
        <time>2022-05-31T19:38:20+02:00</time>
      </trkpt>
      <trkpt lat="39.478518339999994" lon="-0.36495166000000007">
        <ele>-3.0</ele>
        <time>2022-05-31T19:38:22+02:00</time>
      </trkpt>
      <trkpt lat="39.47848467" lon="-0.36484666000000004">
        <ele>-3.0</ele>
        <time>2022-05-31T19:38:24+02:00</time>
      </trkpt>
      <trkpt lat="39.478467339999995" lon="-0.36478832999999994">
        <ele>-3.0</ele>
        <time>2022-05-31T19:38:25+02:00</time>
      </trkpt>
      <trkpt lat="39.47845067000001" lon="-0.36473">
        <ele>-3.0</ele>
        <time>2022-05-31T19:38:26+02:00</time>
      </trkpt>
      <trkpt lat="39.47843267" lon="-0.36466832999999993">
        <ele>-3.0</ele>
        <time>2022-05-31T19:38:27+02:00</time>
      </trkpt>
      <trkpt lat="39.478413669999995" lon="-0.36460333000000006">
        <ele>-3.0</ele>
        <time>2022-05-31T19:38:28+02:00</time>
      </trkpt>
      <trkpt lat="39.47839834" lon="-0.36454">
        <ele>-3.0</ele>
        <time>2022-05-31T19:38:29+02:00</time>
      </trkpt>
      <trkpt lat="39.47838267" lon="-0.36448500000000006">
        <ele>-3.0</ele>
        <time>2022-05-31T19:38:30+02:00</time>
      </trkpt>
      <trkpt lat="39.47836134" lon="-0.36440999999999996">
        <ele>-3.0</ele>
        <time>2022-05-31T19:38:31+02:00</time>
      </trkpt>
      <trkpt lat="39.478343" lon="-0.3643466600000001">
        <ele>-3.0</ele>
        <time>2022-05-31T19:38:32+02:00</time>
      </trkpt>
      <trkpt lat="39.478323339999996" lon="-0.36427833">
        <ele>-3.0</ele>
        <time>2022-05-31T19:38:33+02:00</time>
      </trkpt>
      <trkpt lat="39.47830734" lon="-0.36422166">
        <ele>-3.0</ele>
        <time>2022-05-31T19:38:34+02:00</time>
      </trkpt>
      <trkpt lat="39.47827733999999" lon="-0.36410333">
        <ele>-3.0</ele>
        <time>2022-05-31T19:38:36+02:00</time>
      </trkpt>
      <trkpt lat="39.478260670000004" lon="-0.364045">
        <ele>-3.0</ele>
        <time>2022-05-31T19:38:37+02:00</time>
      </trkpt>
      <trkpt lat="39.478242339999994" lon="-0.36398166000000004">
        <ele>-3.0</ele>
        <time>2022-05-31T19:38:38+02:00</time>
      </trkpt>
      <trkpt lat="39.47822533999999" lon="-0.3639216600000001">
        <ele>-3.0</ele>
        <time>2022-05-31T19:38:39+02:00</time>
      </trkpt>
      <trkpt lat="39.478208" lon="-0.36386166000000003">
        <ele>-3.0</ele>
        <time>2022-05-31T19:38:40+02:00</time>
      </trkpt>
      <trkpt lat="39.47817934" lon="-0.36376166">
        <ele>-3.0</ele>
        <time>2022-05-31T19:38:42+02:00</time>
      </trkpt>
      <trkpt lat="39.478153" lon="-0.36368833">
        <ele>-3.0</ele>
        <time>2022-05-31T19:38:44+02:00</time>
      </trkpt>
      <trkpt lat="39.478123" lon="-0.363585">
        <ele>-3.0</ele>
        <time>2022-05-31T19:38:46+02:00</time>
      </trkpt>
      <trkpt lat="39.478091340000006" lon="-0.36347666">
        <ele>-3.0</ele>
        <time>2022-05-31T19:38:48+02:00</time>
      </trkpt>
      <trkpt lat="39.47806367" lon="-0.36338166000000005">
        <ele>-3.0</ele>
        <time>2022-05-31T19:38:50+02:00</time>
      </trkpt>
      <trkpt lat="39.478044999999995" lon="-0.36331832999999997">
        <ele>-3.0</ele>
        <time>2022-05-31T19:38:51+02:00</time>
      </trkpt>
      <trkpt lat="39.47802933999999" lon="-0.36326499999999995">
        <ele>-3.0</ele>
        <time>2022-05-31T19:38:52+02:00</time>
      </trkpt>
      <trkpt lat="39.477999" lon="-0.36316166">
        <ele>-3.0</ele>
        <time>2022-05-31T19:38:54+02:00</time>
      </trkpt>
      <trkpt lat="39.47797467" lon="-0.36310000000000003">
        <ele>-3.0</ele>
        <time>2022-05-31T19:38:55+02:00</time>
      </trkpt>
      <trkpt lat="39.477952339999995" lon="-0.36302666">
        <ele>-3.0</ele>
        <time>2022-05-31T19:38:56+02:00</time>
      </trkpt>
      <trkpt lat="39.47793367" lon="-0.36296333">
        <ele>-3.0</ele>
        <time>2022-05-31T19:38:57+02:00</time>
      </trkpt>
      <trkpt lat="39.47791434" lon="-0.36289833000000005">
        <ele>-3.0</ele>
        <time>2022-05-31T19:38:58+02:00</time>
      </trkpt>
      <trkpt lat="39.477897999999996" lon="-0.36284332999999996">
        <ele>-3.0</ele>
        <time>2022-05-31T19:38:59+02:00</time>
      </trkpt>
      <trkpt lat="39.47786467" lon="-0.36273000000000005">
        <ele>-3.0</ele>
        <time>2022-05-31T19:39:01+02:00</time>
      </trkpt>
      <trkpt lat="39.477837" lon="-0.362635">
        <ele>-3.0</ele>
        <time>2022-05-31T19:39:03+02:00</time>
      </trkpt>
      <trkpt lat="39.47780667000001" lon="-0.36253">
        <ele>-3.0</ele>
        <time>2022-05-31T19:39:05+02:00</time>
      </trkpt>
      <trkpt lat="39.477777339999996" lon="-0.36243000000000003">
        <ele>-3.0</ele>
        <time>2022-05-31T19:39:07+02:00</time>
      </trkpt>
      <trkpt lat="39.477754" lon="-0.36235">
        <ele>-3.0</ele>
        <time>2022-05-31T19:39:09+02:00</time>
      </trkpt>
      <trkpt lat="39.47772167000001" lon="-0.36227833">
        <ele>-3.0</ele>
        <time>2022-05-31T19:39:11+02:00</time>
      </trkpt>
      <trkpt lat="39.477698339999996" lon="-0.36222833000000004">
        <ele>-4.0</ele>
        <time>2022-05-31T19:39:15+02:00</time>
      </trkpt>
      <trkpt lat="39.477705" lon="-0.362165">
        <ele>-4.0</ele>
        <time>2022-05-31T19:39:28+02:00</time>
      </trkpt>
      <trkpt lat="39.47768834" lon="-0.36208333">
        <ele>-5.0</ele>
        <time>2022-05-31T19:39:35+02:00</time>
      </trkpt>
      <trkpt lat="39.47766" lon="-0.36199332999999995">
        <ele>-6.0</ele>
        <time>2022-05-31T19:39:37+02:00</time>
      </trkpt>
      <trkpt lat="39.47764434" lon="-0.36189">
        <ele>-6.0</ele>
        <time>2022-05-31T19:39:39+02:00</time>
      </trkpt>
      <trkpt lat="39.47762733999999" lon="-0.36178000000000005">
        <ele>-6.0</ele>
        <time>2022-05-31T19:39:41+02:00</time>
      </trkpt>
      <trkpt lat="39.47761433999999" lon="-0.3617266600000001">
        <ele>-6.0</ele>
        <time>2022-05-31T19:39:42+02:00</time>
      </trkpt>
      <trkpt lat="39.477596000000005" lon="-0.3616750000000001">
        <ele>-6.0</ele>
        <time>2022-05-31T19:39:43+02:00</time>
      </trkpt>
      <trkpt lat="39.47753667" lon="-0.36156999999999995">
        <ele>-6.0</ele>
        <time>2022-05-31T19:39:45+02:00</time>
      </trkpt>
      <trkpt lat="39.47751667000001" lon="-0.36151333">
        <ele>-6.0</ele>
        <time>2022-05-31T19:39:46+02:00</time>
      </trkpt>
      <trkpt lat="39.47749767" lon="-0.36145166000000006">
        <ele>-6.0</ele>
        <time>2022-05-31T19:39:47+02:00</time>
      </trkpt>
      <trkpt lat="39.477477" lon="-0.36139166000000006">
        <ele>-6.0</ele>
        <time>2022-05-31T19:39:48+02:00</time>
      </trkpt>
      <trkpt lat="39.47745667" lon="-0.36133000000000004">
        <ele>-6.0</ele>
        <time>2022-05-31T19:39:49+02:00</time>
      </trkpt>
      <trkpt lat="39.47741567" lon="-0.3612099999999999">
        <ele>-6.0</ele>
        <time>2022-05-31T19:39:51+02:00</time>
      </trkpt>
      <trkpt lat="39.47739467" lon="-0.36115166000000004">
        <ele>-6.0</ele>
        <time>2022-05-31T19:39:52+02:00</time>
      </trkpt>
      <trkpt lat="39.477373" lon="-0.361095">
        <ele>-6.0</ele>
        <time>2022-05-31T19:39:53+02:00</time>
      </trkpt>
      <trkpt lat="39.477352339999996" lon="-0.36103666">
        <ele>-6.0</ele>
        <time>2022-05-31T19:39:54+02:00</time>
      </trkpt>
      <trkpt lat="39.47733" lon="-0.36097166">
        <ele>-6.0</ele>
        <time>2022-05-31T19:39:55+02:00</time>
      </trkpt>
      <trkpt lat="39.477292999999996" lon="-0.36086">
        <ele>-6.0</ele>
        <time>2022-05-31T19:39:57+02:00</time>
      </trkpt>
      <trkpt lat="39.47726567000001" lon="-0.360775">
        <ele>-6.0</ele>
        <time>2022-05-31T19:39:58+02:00</time>
      </trkpt>
      <trkpt lat="39.47724334" lon="-0.36070166000000004">
        <ele>-6.0</ele>
        <time>2022-05-31T19:39:59+02:00</time>
      </trkpt>
      <trkpt lat="39.477222999999995" lon="-0.36062666">
        <ele>-6.0</ele>
        <time>2022-05-31T19:40:00+02:00</time>
      </trkpt>
      <trkpt lat="39.477204670000006" lon="-0.360555">
        <ele>-6.0</ele>
        <time>2022-05-31T19:40:01+02:00</time>
      </trkpt>
      <trkpt lat="39.47718533999999" lon="-0.36048500000000006">
        <ele>-6.0</ele>
        <time>2022-05-31T19:40:02+02:00</time>
      </trkpt>
      <trkpt lat="39.477165" lon="-0.36041">
        <ele>-6.0</ele>
        <time>2022-05-31T19:40:03+02:00</time>
      </trkpt>
      <trkpt lat="39.47714500000001" lon="-0.36033666000000003">
        <ele>-6.0</ele>
        <time>2022-05-31T19:40:04+02:00</time>
      </trkpt>
      <trkpt lat="39.47712334" lon="-0.36026499999999995">
        <ele>-6.0</ele>
        <time>2022-05-31T19:40:05+02:00</time>
      </trkpt>
      <trkpt lat="39.477106" lon="-0.36019666000000006">
        <ele>-6.0</ele>
        <time>2022-05-31T19:40:06+02:00</time>
      </trkpt>
      <trkpt lat="39.47708633999999" lon="-0.36012">
        <ele>-6.0</ele>
        <time>2022-05-31T19:40:07+02:00</time>
      </trkpt>
      <trkpt lat="39.47706434" lon="-0.360035">
        <ele>-6.0</ele>
        <time>2022-05-31T19:40:08+02:00</time>
      </trkpt>
      <trkpt lat="39.47704367" lon="-0.35996332999999997">
        <ele>-6.0</ele>
        <time>2022-05-31T19:40:09+02:00</time>
      </trkpt>
      <trkpt lat="39.477007" lon="-0.359825">
        <ele>-5.0</ele>
        <time>2022-05-31T19:40:11+02:00</time>
      </trkpt>
      <trkpt lat="39.476989" lon="-0.35976332999999994">
        <ele>-5.0</ele>
        <time>2022-05-31T19:40:12+02:00</time>
      </trkpt>
      <trkpt lat="39.47696934" lon="-0.359695">
        <ele>-5.0</ele>
        <time>2022-05-31T19:40:14+02:00</time>
      </trkpt>
      <trkpt lat="39.47693267" lon="-0.35957">
        <ele>-5.0</ele>
        <time>2022-05-31T19:40:15+02:00</time>
      </trkpt>
      <trkpt lat="39.47691367" lon="-0.35950666000000003">
        <ele>-5.0</ele>
        <time>2022-05-31T19:40:16+02:00</time>
      </trkpt>
      <trkpt lat="39.476893" lon="-0.35943665999999996">
        <ele>-5.0</ele>
        <time>2022-05-31T19:40:17+02:00</time>
      </trkpt>
      <trkpt lat="39.47687634" lon="-0.3593816600000001">
        <ele>-5.0</ele>
        <time>2022-05-31T19:40:18+02:00</time>
      </trkpt>
      <trkpt lat="39.476846339999994" lon="-0.35929666000000016">
        <ele>-5.0</ele>
        <time>2022-05-31T19:40:19+02:00</time>
      </trkpt>
      <trkpt lat="39.47682667" lon="-0.35923166">
        <ele>-5.0</ele>
        <time>2022-05-31T19:40:20+02:00</time>
      </trkpt>
      <trkpt lat="39.476805670000005" lon="-0.35916332999999995">
        <ele>-5.0</ele>
        <time>2022-05-31T19:40:21+02:00</time>
      </trkpt>
      <trkpt lat="39.476783340000004" lon="-0.35908833">
        <ele>-5.0</ele>
        <time>2022-05-31T19:40:22+02:00</time>
      </trkpt>
      <trkpt lat="39.476763" lon="-0.3590216600000001">
        <ele>-5.0</ele>
        <time>2022-05-31T19:40:23+02:00</time>
      </trkpt>
      <trkpt lat="39.476738" lon="-0.35895666000000004">
        <ele>-5.0</ele>
        <time>2022-05-31T19:40:24+02:00</time>
      </trkpt>
      <trkpt lat="39.47672033999999" lon="-0.35889833">
        <ele>-5.0</ele>
        <time>2022-05-31T19:40:25+02:00</time>
      </trkpt>
      <trkpt lat="39.47669567" lon="-0.3588166600000001">
        <ele>-5.0</ele>
        <time>2022-05-31T19:40:26+02:00</time>
      </trkpt>
      <trkpt lat="39.47667700000001" lon="-0.35875333">
        <ele>-5.0</ele>
        <time>2022-05-31T19:40:27+02:00</time>
      </trkpt>
      <trkpt lat="39.47665934" lon="-0.35869500000000004">
        <ele>-5.0</ele>
        <time>2022-05-31T19:40:28+02:00</time>
      </trkpt>
      <trkpt lat="39.47662934" lon="-0.35859499999999994">
        <ele>-6.0</ele>
        <time>2022-05-31T19:40:30+02:00</time>
      </trkpt>
      <trkpt lat="39.47660799999999" lon="-0.358525">
        <ele>-7.0</ele>
        <time>2022-05-31T19:40:32+02:00</time>
      </trkpt>
      <trkpt lat="39.47658967" lon="-0.35846333">
        <ele>-7.0</ele>
        <time>2022-05-31T19:40:34+02:00</time>
      </trkpt>
      <trkpt lat="39.476575" lon="-0.35839332999999995">
        <ele>-8.0</ele>
        <time>2022-05-31T19:40:44+02:00</time>
      </trkpt>
      <trkpt lat="39.476554" lon="-0.3583216600000001">
        <ele>-8.0</ele>
        <time>2022-05-31T19:40:46+02:00</time>
      </trkpt>
      <trkpt lat="39.47652433999998" lon="-0.3582199999999999">
        <ele>-8.0</ele>
        <time>2022-05-31T19:40:48+02:00</time>
      </trkpt>
      <trkpt lat="39.476507999999995" lon="-0.35816500000000007">
        <ele>-8.0</ele>
        <time>2022-05-31T19:40:49+02:00</time>
      </trkpt>
      <trkpt lat="39.476477339999995" lon="-0.35806166000000006">
        <ele>-8.0</ele>
        <time>2022-05-31T19:40:51+02:00</time>
      </trkpt>
      <trkpt lat="39.47645933999999" lon="-0.358">
        <ele>-8.0</ele>
        <time>2022-05-31T19:40:52+02:00</time>
      </trkpt>
      <trkpt lat="39.47643734" lon="-0.35792666000000006">
        <ele>-8.0</ele>
        <time>2022-05-31T19:40:53+02:00</time>
      </trkpt>
      <trkpt lat="39.476417000000005" lon="-0.35785832999999995">
        <ele>-8.0</ele>
        <time>2022-05-31T19:40:54+02:00</time>
      </trkpt>
      <trkpt lat="39.476397000000006" lon="-0.3577933299999999">
        <ele>-8.0</ele>
        <time>2022-05-31T19:40:55+02:00</time>
      </trkpt>
      <trkpt lat="39.47635799999999" lon="-0.35766332999999995">
        <ele>-8.0</ele>
        <time>2022-05-31T19:40:57+02:00</time>
      </trkpt>
      <trkpt lat="39.47634134" lon="-0.35760833">
        <ele>-8.0</ele>
        <time>2022-05-31T19:40:58+02:00</time>
      </trkpt>
      <trkpt lat="39.476324" lon="-0.35752666000000005">
        <ele>-8.0</ele>
        <time>2022-05-31T19:40:59+02:00</time>
      </trkpt>
      <trkpt lat="39.47630399999999" lon="-0.35745999999999994">
        <ele>-8.0</ele>
        <time>2022-05-31T19:41:00+02:00</time>
      </trkpt>
      <trkpt lat="39.47627633999999" lon="-0.35739166000000006">
        <ele>-8.0</ele>
        <time>2022-05-31T19:41:01+02:00</time>
      </trkpt>
      <trkpt lat="39.47625567" lon="-0.3573216600000001">
        <ele>-8.0</ele>
        <time>2022-05-31T19:41:02+02:00</time>
      </trkpt>
      <trkpt lat="39.47623634" lon="-0.357255">
        <ele>-8.0</ele>
        <time>2022-05-31T19:41:03+02:00</time>
      </trkpt>
      <trkpt lat="39.47621667000001" lon="-0.35719">
        <ele>-8.0</ele>
        <time>2022-05-31T19:41:04+02:00</time>
      </trkpt>
      <trkpt lat="39.47619667" lon="-0.3571216600000001">
        <ele>-8.0</ele>
        <time>2022-05-31T19:41:05+02:00</time>
      </trkpt>
      <trkpt lat="39.476157670000006" lon="-0.35698832999999996">
        <ele>-7.0</ele>
        <time>2022-05-31T19:41:07+02:00</time>
      </trkpt>
      <trkpt lat="39.47613867" lon="-0.35692500000000005">
        <ele>-7.0</ele>
        <time>2022-05-31T19:41:08+02:00</time>
      </trkpt>
      <trkpt lat="39.476122339999996" lon="-0.3568683299999999">
        <ele>-7.0</ele>
        <time>2022-05-31T19:41:09+02:00</time>
      </trkpt>
      <trkpt lat="39.47610433999999" lon="-0.35680666000000005">
        <ele>-7.0</ele>
        <time>2022-05-31T19:41:10+02:00</time>
      </trkpt>
      <trkpt lat="39.476085999999995" lon="-0.35674332999999997">
        <ele>-7.0</ele>
        <time>2022-05-31T19:41:11+02:00</time>
      </trkpt>
      <trkpt lat="39.47607467" lon="-0.35668">
        <ele>-7.0</ele>
        <time>2022-05-31T19:41:12+02:00</time>
      </trkpt>
      <trkpt lat="39.476057000000004" lon="-0.35661833">
        <ele>-7.0</ele>
        <time>2022-05-31T19:41:13+02:00</time>
      </trkpt>
      <trkpt lat="39.47602334" lon="-0.35650333000000006">
        <ele>-7.0</ele>
        <time>2022-05-31T19:41:15+02:00</time>
      </trkpt>
      <trkpt lat="39.476005" lon="-0.35644">
        <ele>-7.0</ele>
        <time>2022-05-31T19:41:16+02:00</time>
      </trkpt>
      <trkpt lat="39.475965339999995" lon="-0.356305">
        <ele>-7.0</ele>
        <time>2022-05-31T19:41:18+02:00</time>
      </trkpt>
      <trkpt lat="39.47595067000001" lon="-0.35623000000000005">
        <ele>-7.0</ele>
        <time>2022-05-31T19:41:19+02:00</time>
      </trkpt>
      <trkpt lat="39.47592733999999" lon="-0.35614999999999997">
        <ele>-7.0</ele>
        <time>2022-05-31T19:41:20+02:00</time>
      </trkpt>
      <trkpt lat="39.47588634" lon="-0.355985">
        <ele>-7.0</ele>
        <time>2022-05-31T19:41:22+02:00</time>
      </trkpt>
      <trkpt lat="39.47586034" lon="-0.3558966600000001">
        <ele>-7.0</ele>
        <time>2022-05-31T19:41:23+02:00</time>
      </trkpt>
      <trkpt lat="39.475835" lon="-0.35580833">
        <ele>-7.0</ele>
        <time>2022-05-31T19:41:24+02:00</time>
      </trkpt>
      <trkpt lat="39.475809999999996" lon="-0.35572166000000005">
        <ele>-7.0</ele>
        <time>2022-05-31T19:41:25+02:00</time>
      </trkpt>
      <trkpt lat="39.475793339999996" lon="-0.35563665999999994">
        <ele>-7.0</ele>
        <time>2022-05-31T19:41:26+02:00</time>
      </trkpt>
      <trkpt lat="39.47576967" lon="-0.35555333000000006">
        <ele>-7.0</ele>
        <time>2022-05-31T19:41:27+02:00</time>
      </trkpt>
      <trkpt lat="39.47574767" lon="-0.355475">
        <ele>-7.0</ele>
        <time>2022-05-31T19:41:28+02:00</time>
      </trkpt>
      <trkpt lat="39.47572533999999" lon="-0.35539666000000003">
        <ele>-7.0</ele>
        <time>2022-05-31T19:41:29+02:00</time>
      </trkpt>
      <trkpt lat="39.47570867" lon="-0.35533666">
        <ele>-7.0</ele>
        <time>2022-05-31T19:41:30+02:00</time>
      </trkpt>
      <trkpt lat="39.47568834" lon="-0.355265">
        <ele>-7.0</ele>
        <time>2022-05-31T19:41:31+02:00</time>
      </trkpt>
      <trkpt lat="39.47566400000001" lon="-0.35517666000000003">
        <ele>-7.0</ele>
        <time>2022-05-31T19:41:32+02:00</time>
      </trkpt>
      <trkpt lat="39.47564433999999" lon="-0.35510666">
        <ele>-7.0</ele>
        <time>2022-05-31T19:41:33+02:00</time>
      </trkpt>
      <trkpt lat="39.47563134" lon="-0.35503499999999993">
        <ele>-7.0</ele>
        <time>2022-05-31T19:41:34+02:00</time>
      </trkpt>
      <trkpt lat="39.475614670000006" lon="-0.35497500000000004">
        <ele>-7.0</ele>
        <time>2022-05-31T19:41:35+02:00</time>
      </trkpt>
      <trkpt lat="39.47559834" lon="-0.35491833">
        <ele>-8.0</ele>
        <time>2022-05-31T19:41:37+02:00</time>
      </trkpt>
      <trkpt lat="39.475582" lon="-0.35486000000000006">
        <ele>-9.0</ele>
        <time>2022-05-31T19:41:39+02:00</time>
      </trkpt>
      <trkpt lat="39.47557833999999" lon="-0.35478833">
        <ele>-10.0</ele>
        <time>2022-05-31T19:41:41+02:00</time>
      </trkpt>
      <trkpt lat="39.475559999999994" lon="-0.35472333">
        <ele>-11.0</ele>
        <time>2022-05-31T19:41:43+02:00</time>
      </trkpt>
      <trkpt lat="39.47552834" lon="-0.35463332999999997">
        <ele>-12.0</ele>
        <time>2022-05-31T19:41:45+02:00</time>
      </trkpt>
      <trkpt lat="39.47549834" lon="-0.35456000000000004">
        <ele>-12.0</ele>
        <time>2022-05-31T19:41:47+02:00</time>
      </trkpt>
      <trkpt lat="39.47546367" lon="-0.35447333">
        <ele>-12.0</ele>
        <time>2022-05-31T19:41:49+02:00</time>
      </trkpt>
      <trkpt lat="39.47543" lon="-0.35437666">
        <ele>-13.0</ele>
        <time>2022-05-31T19:41:51+02:00</time>
      </trkpt>
      <trkpt lat="39.475396" lon="-0.35426833">
        <ele>-13.0</ele>
        <time>2022-05-31T19:41:53+02:00</time>
      </trkpt>
      <trkpt lat="39.475379000000004" lon="-0.35421">
        <ele>-13.0</ele>
        <time>2022-05-31T19:41:54+02:00</time>
      </trkpt>
      <trkpt lat="39.47536167" lon="-0.354155">
        <ele>-13.0</ele>
        <time>2022-05-31T19:41:55+02:00</time>
      </trkpt>
      <trkpt lat="39.475322670000004" lon="-0.35404332999999993">
        <ele>-13.0</ele>
        <time>2022-05-31T19:41:57+02:00</time>
      </trkpt>
      <trkpt lat="39.475301" lon="-0.35398166000000003">
        <ele>-12.0</ele>
        <time>2022-05-31T19:41:58+02:00</time>
      </trkpt>
      <trkpt lat="39.475257670000005" lon="-0.35386">
        <ele>-12.0</ele>
        <time>2022-05-31T19:42:00+02:00</time>
      </trkpt>
      <trkpt lat="39.47521667000001" lon="-0.35374666000000005">
        <ele>-11.0</ele>
        <time>2022-05-31T19:42:01+02:00</time>
      </trkpt>
      <trkpt lat="39.475184670000004" lon="-0.35365666000000007">
        <ele>-11.0</ele>
        <time>2022-05-31T19:42:03+02:00</time>
      </trkpt>
      <trkpt lat="39.475165000000004" lon="-0.3536">
        <ele>-10.0</ele>
        <time>2022-05-31T19:42:04+02:00</time>
      </trkpt>
      <trkpt lat="39.475141670000006" lon="-0.35353333">
        <ele>-10.0</ele>
        <time>2022-05-31T19:42:05+02:00</time>
      </trkpt>
      <trkpt lat="39.47512134" lon="-0.35348166000000003">
        <ele>-10.0</ele>
        <time>2022-05-31T19:42:06+02:00</time>
      </trkpt>
      <trkpt lat="39.475081669999994" lon="-0.3533700000000001">
        <ele>-9.0</ele>
        <time>2022-05-31T19:42:08+02:00</time>
      </trkpt>
      <trkpt lat="39.475062339999994" lon="-0.353315">
        <ele>-9.0</ele>
        <time>2022-05-31T19:42:09+02:00</time>
      </trkpt>
      <trkpt lat="39.47504334" lon="-0.35326166">
        <ele>-9.0</ele>
        <time>2022-05-31T19:42:10+02:00</time>
      </trkpt>
      <trkpt lat="39.475007670000004" lon="-0.35314833">
        <ele>-9.0</ele>
        <time>2022-05-31T19:42:12+02:00</time>
      </trkpt>
      <trkpt lat="39.475058340000004" lon="-0.353065">
        <ele>-9.0</ele>
        <time>2022-05-31T19:42:14+02:00</time>
      </trkpt>
      <trkpt lat="39.475098339999995" lon="-0.35302833">
        <ele>-9.0</ele>
        <time>2022-05-31T19:42:15+02:00</time>
      </trkpt>
      <trkpt lat="39.47513334" lon="-0.35296999999999995">
        <ele>-9.0</ele>
        <time>2022-05-31T19:42:17+02:00</time>
      </trkpt>
      <trkpt lat="39.47512834" lon="-0.35290166000000006">
        <ele>-8.0</ele>
        <time>2022-05-31T19:42:19+02:00</time>
      </trkpt>
      <trkpt lat="39.47511" lon="-0.35284166000000006">
        <ele>-8.0</ele>
        <time>2022-05-31T19:42:22+02:00</time>
      </trkpt>
      <trkpt lat="39.47511" lon="-0.35278166000000005">
        <ele>-9.0</ele>
        <time>2022-05-31T19:42:32+02:00</time>
      </trkpt>
      <trkpt lat="39.47511834" lon="-0.352715">
        <ele>-11.0</ele>
        <time>2022-05-31T19:42:55+02:00</time>
      </trkpt>
      <trkpt lat="39.475097" lon="-0.35263999999999995">
        <ele>-12.0</ele>
        <time>2022-05-31T19:42:57+02:00</time>
      </trkpt>
      <trkpt lat="39.475068" lon="-0.35256333">
        <ele>-12.0</ele>
        <time>2022-05-31T19:42:59+02:00</time>
      </trkpt>
      <trkpt lat="39.475045339999994" lon="-0.3525066600000001">
        <ele>-12.0</ele>
        <time>2022-05-31T19:43:00+02:00</time>
      </trkpt>
      <trkpt lat="39.47502433999999" lon="-0.35245333">
        <ele>-12.0</ele>
        <time>2022-05-31T19:43:01+02:00</time>
      </trkpt>
      <trkpt lat="39.47498734" lon="-0.35235">
        <ele>-11.0</ele>
        <time>2022-05-31T19:43:03+02:00</time>
      </trkpt>
      <trkpt lat="39.47497167" lon="-0.35224666000000004">
        <ele>-11.0</ele>
        <time>2022-05-31T19:43:06+02:00</time>
      </trkpt>
      <trkpt lat="39.47496834" lon="-0.35214333">
        <ele>-11.0</ele>
        <time>2022-05-31T19:43:07+02:00</time>
      </trkpt>
      <trkpt lat="39.47495667" lon="-0.35207">
        <ele>-11.0</ele>
        <time>2022-05-31T19:43:08+02:00</time>
      </trkpt>
      <trkpt lat="39.474946339999995" lon="-0.352005">
        <ele>-11.0</ele>
        <time>2022-05-31T19:43:09+02:00</time>
      </trkpt>
      <trkpt lat="39.474937669999996" lon="-0.35193832999999997">
        <ele>-10.0</ele>
        <time>2022-05-31T19:43:10+02:00</time>
      </trkpt>
      <trkpt lat="39.474928" lon="-0.35187">
        <ele>-10.0</ele>
        <time>2022-05-31T19:43:11+02:00</time>
      </trkpt>
      <trkpt lat="39.474916670000006" lon="-0.35180166">
        <ele>-10.0</ele>
        <time>2022-05-31T19:43:12+02:00</time>
      </trkpt>
      <trkpt lat="39.47490266999999" lon="-0.35173166">
        <ele>-10.0</ele>
        <time>2022-05-31T19:43:13+02:00</time>
      </trkpt>
      <trkpt lat="39.474889000000005" lon="-0.35167666000000003">
        <ele>-10.0</ele>
        <time>2022-05-31T19:43:14+02:00</time>
      </trkpt>
      <trkpt lat="39.474867669999995" lon="-0.3516">
        <ele>-10.0</ele>
        <time>2022-05-31T19:43:15+02:00</time>
      </trkpt>
      <trkpt lat="39.474849670000005" lon="-0.35154832999999996">
        <ele>-10.0</ele>
        <time>2022-05-31T19:43:16+02:00</time>
      </trkpt>
      <trkpt lat="39.474825339999995" lon="-0.35147833000000006">
        <ele>-10.0</ele>
        <time>2022-05-31T19:43:17+02:00</time>
      </trkpt>
      <trkpt lat="39.474786" lon="-0.35136333">
        <ele>-10.0</ele>
        <time>2022-05-31T19:43:19+02:00</time>
      </trkpt>
      <trkpt lat="39.474762" lon="-0.35130666000000005">
        <ele>-10.0</ele>
        <time>2022-05-31T19:43:20+02:00</time>
      </trkpt>
      <trkpt lat="39.47472967" lon="-0.351235">
        <ele>-9.0</ele>
        <time>2022-05-31T19:43:22+02:00</time>
      </trkpt>
      <trkpt lat="39.47463499999999" lon="-0.35123332999999995">
        <ele>-9.0</ele>
        <time>2022-05-31T19:43:24+02:00</time>
      </trkpt>
      <trkpt lat="39.47458" lon="-0.35124666000000004">
        <ele>-9.0</ele>
        <time>2022-05-31T19:43:28+02:00</time>
      </trkpt>
      <trkpt lat="39.47453334000001" lon="-0.3512433299999999">
        <ele>-10.0</ele>
        <time>2022-05-31T19:43:32+02:00</time>
      </trkpt>
      <trkpt lat="39.47450667" lon="-0.35117666000000003">
        <ele>-10.0</ele>
        <time>2022-05-31T19:43:35+02:00</time>
      </trkpt>
      <trkpt lat="39.474493339999995" lon="-0.35111499999999995">
        <ele>-10.0</ele>
        <time>2022-05-31T19:43:37+02:00</time>
      </trkpt>
      <trkpt lat="39.47446" lon="-0.3510566600000001">
        <ele>-10.0</ele>
        <time>2022-05-31T19:43:40+02:00</time>
      </trkpt>
      <trkpt lat="39.47427834" lon="-0.3506183299999999">
        <ele>-11.0</ele>
        <time>2022-05-31T19:44:35+02:00</time>
      </trkpt>
      <trkpt lat="39.47428167" lon="-0.35059333">
        <ele>-11.0</ele>
        <time>2022-05-31T19:44:36+02:00</time>
      </trkpt>
      <trkpt lat="39.47430333999999" lon="-0.35053666000000006">
        <ele>-11.0</ele>
        <time>2022-05-31T19:44:41+02:00</time>
      </trkpt>
      <trkpt lat="39.47434500000001" lon="-0.3505066600000001">
        <ele>-11.0</ele>
        <time>2022-05-31T19:44:45+02:00</time>
      </trkpt>
      <trkpt lat="39.47437000000001" lon="-0.35041500000000003">
        <ele>-11.0</ele>
        <time>2022-05-31T19:44:48+02:00</time>
      </trkpt>
      <trkpt lat="39.474354999999996" lon="-0.3503183299999999">
        <ele>-11.0</ele>
        <time>2022-05-31T19:44:50+02:00</time>
      </trkpt>
      <trkpt lat="39.474315000000004" lon="-0.35021">
        <ele>-11.0</ele>
        <time>2022-05-31T19:44:52+02:00</time>
      </trkpt>
      <trkpt lat="39.47430000000001" lon="-0.35014832999999995">
        <ele>-11.0</ele>
        <time>2022-05-31T19:44:53+02:00</time>
      </trkpt>
      <trkpt lat="39.474286670000005" lon="-0.35008832999999995">
        <ele>-11.0</ele>
        <time>2022-05-31T19:44:54+02:00</time>
      </trkpt>
      <trkpt lat="39.47426767" lon="-0.35002666000000004">
        <ele>-11.0</ele>
        <time>2022-05-31T19:44:55+02:00</time>
      </trkpt>
      <trkpt lat="39.47425434" lon="-0.34997">
        <ele>-11.0</ele>
        <time>2022-05-31T19:44:56+02:00</time>
      </trkpt>
      <trkpt lat="39.47424267" lon="-0.34990833">
        <ele>-10.0</ele>
        <time>2022-05-31T19:44:57+02:00</time>
      </trkpt>
      <trkpt lat="39.474228339999996" lon="-0.34984166">
        <ele>-10.0</ele>
        <time>2022-05-31T19:44:58+02:00</time>
      </trkpt>
      <trkpt lat="39.474199" lon="-0.34972333">
        <ele>-10.0</ele>
        <time>2022-05-31T19:45:00+02:00</time>
      </trkpt>
      <trkpt lat="39.47417633999999" lon="-0.34964500000000004">
        <ele>-10.0</ele>
        <time>2022-05-31T19:45:01+02:00</time>
      </trkpt>
      <trkpt lat="39.474155339999996" lon="-0.34958000000000006">
        <ele>-10.0</ele>
        <time>2022-05-31T19:45:02+02:00</time>
      </trkpt>
      <trkpt lat="39.474137" lon="-0.34952332999999997">
        <ele>-10.0</ele>
        <time>2022-05-31T19:45:03+02:00</time>
      </trkpt>
      <trkpt lat="39.474105339999994" lon="-0.34941166">
        <ele>-9.0</ele>
        <time>2022-05-31T19:45:05+02:00</time>
      </trkpt>
      <trkpt lat="39.474085" lon="-0.34933666">
        <ele>-9.0</ele>
        <time>2022-05-31T19:45:06+02:00</time>
      </trkpt>
      <trkpt lat="39.474068" lon="-0.34926333">
        <ele>-9.0</ele>
        <time>2022-05-31T19:45:07+02:00</time>
      </trkpt>
      <trkpt lat="39.47404234" lon="-0.349125">
        <ele>-9.0</ele>
        <time>2022-05-31T19:45:09+02:00</time>
      </trkpt>
      <trkpt lat="39.474027" lon="-0.34904">
        <ele>-9.0</ele>
        <time>2022-05-31T19:45:10+02:00</time>
      </trkpt>
      <trkpt lat="39.47401234" lon="-0.34896666000000004">
        <ele>-9.0</ele>
        <time>2022-05-31T19:45:11+02:00</time>
      </trkpt>
      <trkpt lat="39.47399867" lon="-0.348895">
        <ele>-9.0</ele>
        <time>2022-05-31T19:45:12+02:00</time>
      </trkpt>
      <trkpt lat="39.47398200000001" lon="-0.34882333">
        <ele>-9.0</ele>
        <time>2022-05-31T19:45:13+02:00</time>
      </trkpt>
      <trkpt lat="39.47396667000001" lon="-0.3487566600000001">
        <ele>-9.0</ele>
        <time>2022-05-31T19:45:14+02:00</time>
      </trkpt>
      <trkpt lat="39.473952999999995" lon="-0.34868499999999997">
        <ele>-9.0</ele>
        <time>2022-05-31T19:45:15+02:00</time>
      </trkpt>
      <trkpt lat="39.47393767" lon="-0.34861833">
        <ele>-9.0</ele>
        <time>2022-05-31T19:45:16+02:00</time>
      </trkpt>
      <trkpt lat="39.473922" lon="-0.34855166000000004">
        <ele>-9.0</ele>
        <time>2022-05-31T19:45:17+02:00</time>
      </trkpt>
      <trkpt lat="39.473905" lon="-0.348495">
        <ele>-9.0</ele>
        <time>2022-05-31T19:45:18+02:00</time>
      </trkpt>
      <trkpt lat="39.47388634" lon="-0.34843666">
        <ele>-9.0</ele>
        <time>2022-05-31T19:45:19+02:00</time>
      </trkpt>
      <trkpt lat="39.473818339999994" lon="-0.34839332999999995">
        <ele>-9.0</ele>
        <time>2022-05-31T19:45:20+02:00</time>
      </trkpt>
      <trkpt lat="39.47378334" lon="-0.34835666000000004">
        <ele>-9.0</ele>
        <time>2022-05-31T19:45:21+02:00</time>
      </trkpt>
      <trkpt lat="39.47373167" lon="-0.348315">
        <ele>-9.0</ele>
        <time>2022-05-31T19:45:23+02:00</time>
      </trkpt>
      <trkpt lat="39.47418334" lon="-0.34899333">
        <ele>0.0</ele>
        <time>2022-05-31T08:34:11+02:00</time>
      </trkpt>
      <trkpt lat="39.47419000000001" lon="-0.34905166000000004">
        <ele>0.0</ele>
        <time>2022-05-31T08:34:12+02:00</time>
      </trkpt>
      <trkpt lat="39.474207" lon="-0.34914">
        <ele>1.0</ele>
        <time>2022-05-31T08:34:13+02:00</time>
      </trkpt>
      <trkpt lat="39.474220339999995" lon="-0.3492016600000001">
        <ele>1.0</ele>
        <time>2022-05-31T08:34:14+02:00</time>
      </trkpt>
      <trkpt lat="39.474233999999996" lon="-0.34928166000000005">
        <ele>1.0</ele>
        <time>2022-05-31T08:34:15+02:00</time>
      </trkpt>
      <trkpt lat="39.47425967" lon="-0.34941166">
        <ele>2.0</ele>
        <time>2022-05-31T08:34:17+02:00</time>
      </trkpt>
      <trkpt lat="39.47427733999999" lon="-0.34948166">
        <ele>3.0</ele>
        <time>2022-05-31T08:34:18+02:00</time>
      </trkpt>
      <trkpt lat="39.474295670000004" lon="-0.34954999999999997">
        <ele>3.0</ele>
        <time>2022-05-31T08:34:19+02:00</time>
      </trkpt>
      <trkpt lat="39.47431567" lon="-0.34961666">
        <ele>3.0</ele>
        <time>2022-05-31T08:34:20+02:00</time>
      </trkpt>
      <trkpt lat="39.474332999999994" lon="-0.34967">
        <ele>4.0</ele>
        <time>2022-05-31T08:34:21+02:00</time>
      </trkpt>
      <trkpt lat="39.47438167" lon="-0.34981">
        <ele>4.0</ele>
        <time>2022-05-31T08:34:23+02:00</time>
      </trkpt>
      <trkpt lat="39.474405669999996" lon="-0.34987333">
        <ele>5.0</ele>
        <time>2022-05-31T08:34:24+02:00</time>
      </trkpt>
      <trkpt lat="39.474431339999995" lon="-0.34994000000000003">
        <ele>5.0</ele>
        <time>2022-05-31T08:34:25+02:00</time>
      </trkpt>
      <trkpt lat="39.474455999999996" lon="-0.35000666000000014">
        <ele>5.0</ele>
        <time>2022-05-31T08:34:26+02:00</time>
      </trkpt>
      <trkpt lat="39.47448167" lon="-0.350075">
        <ele>5.0</ele>
        <time>2022-05-31T08:34:27+02:00</time>
      </trkpt>
      <trkpt lat="39.47450567" lon="-0.350145">
        <ele>6.0</ele>
        <time>2022-05-31T08:34:28+02:00</time>
      </trkpt>
      <trkpt lat="39.47452767" lon="-0.35021500000000005">
        <ele>6.0</ele>
        <time>2022-05-31T08:34:29+02:00</time>
      </trkpt>
      <trkpt lat="39.474552" lon="-0.35028499999999996">
        <ele>6.0</ele>
        <time>2022-05-31T08:34:30+02:00</time>
      </trkpt>
      <trkpt lat="39.47457433999999" lon="-0.35035666000000004">
        <ele>6.0</ele>
        <time>2022-05-31T08:34:31+02:00</time>
      </trkpt>
      <trkpt lat="39.474596670000004" lon="-0.35042999999999996">
        <ele>7.0</ele>
        <time>2022-05-31T08:34:32+02:00</time>
      </trkpt>
      <trkpt lat="39.47461500000001" lon="-0.35050166000000005">
        <ele>7.0</ele>
        <time>2022-05-31T08:34:33+02:00</time>
      </trkpt>
      <trkpt lat="39.474633" lon="-0.35057499999999997">
        <ele>7.0</ele>
        <time>2022-05-31T08:34:34+02:00</time>
      </trkpt>
      <trkpt lat="39.47464734" lon="-0.35064833">
        <ele>7.0</ele>
        <time>2022-05-31T08:34:35+02:00</time>
      </trkpt>
      <trkpt lat="39.47466333999999" lon="-0.35072">
        <ele>7.0</ele>
        <time>2022-05-31T08:34:36+02:00</time>
      </trkpt>
      <trkpt lat="39.474678999999995" lon="-0.35079166">
        <ele>7.0</ele>
        <time>2022-05-31T08:34:37+02:00</time>
      </trkpt>
      <trkpt lat="39.47469400000001" lon="-0.35086">
        <ele>7.0</ele>
        <time>2022-05-31T08:34:38+02:00</time>
      </trkpt>
      <trkpt lat="39.47470667" lon="-0.3509216600000001">
        <ele>7.0</ele>
        <time>2022-05-31T08:34:39+02:00</time>
      </trkpt>
      <trkpt lat="39.47472167000001" lon="-0.350985">
        <ele>7.0</ele>
        <time>2022-05-31T08:34:40+02:00</time>
      </trkpt>
      <trkpt lat="39.474745" lon="-0.351035">
        <ele>7.0</ele>
        <time>2022-05-31T08:34:41+02:00</time>
      </trkpt>
      <trkpt lat="39.47477867" lon="-0.35111166000000005">
        <ele>7.0</ele>
        <time>2022-05-31T08:34:42+02:00</time>
      </trkpt>
      <trkpt lat="39.47480367" lon="-0.35118">
        <ele>7.0</ele>
        <time>2022-05-31T08:34:43+02:00</time>
      </trkpt>
      <trkpt lat="39.47482567000001" lon="-0.35125">
        <ele>7.0</ele>
        <time>2022-05-31T08:34:44+02:00</time>
      </trkpt>
      <trkpt lat="39.47484567" lon="-0.35131999999999997">
        <ele>7.0</ele>
        <time>2022-05-31T08:34:45+02:00</time>
      </trkpt>
      <trkpt lat="39.474864339999996" lon="-0.35139">
        <ele>7.0</ele>
        <time>2022-05-31T08:34:46+02:00</time>
      </trkpt>
      <trkpt lat="39.47488167" lon="-0.35145832999999993">
        <ele>7.0</ele>
        <time>2022-05-31T08:34:47+02:00</time>
      </trkpt>
      <trkpt lat="39.474916670000006" lon="-0.35159666">
        <ele>7.0</ele>
        <time>2022-05-31T08:34:49+02:00</time>
      </trkpt>
      <trkpt lat="39.474934999999995" lon="-0.351665">
        <ele>7.0</ele>
        <time>2022-05-31T08:34:50+02:00</time>
      </trkpt>
      <trkpt lat="39.474953670000005" lon="-0.35173332999999996">
        <ele>7.0</ele>
        <time>2022-05-31T08:34:51+02:00</time>
      </trkpt>
      <trkpt lat="39.474972339999994" lon="-0.3518">
        <ele>7.0</ele>
        <time>2022-05-31T08:34:52+02:00</time>
      </trkpt>
      <trkpt lat="39.47498967" lon="-0.35186832999999995">
        <ele>7.0</ele>
        <time>2022-05-31T08:34:53+02:00</time>
      </trkpt>
      <trkpt lat="39.475004" lon="-0.351935">
        <ele>7.0</ele>
        <time>2022-05-31T08:34:54+02:00</time>
      </trkpt>
      <trkpt lat="39.47501834" lon="-0.35199832999999997">
        <ele>7.0</ele>
        <time>2022-05-31T08:34:55+02:00</time>
      </trkpt>
      <trkpt lat="39.47503134" lon="-0.352055">
        <ele>7.0</ele>
        <time>2022-05-31T08:34:56+02:00</time>
      </trkpt>
      <trkpt lat="39.47504467" lon="-0.352115">
        <ele>7.0</ele>
        <time>2022-05-31T08:34:57+02:00</time>
      </trkpt>
      <trkpt lat="39.47506634" lon="-0.35222333">
        <ele>7.0</ele>
        <time>2022-05-31T08:34:59+02:00</time>
      </trkpt>
      <trkpt lat="39.475078999999994" lon="-0.35231166">
        <ele>6.0</ele>
        <time>2022-05-31T08:35:01+02:00</time>
      </trkpt>
      <trkpt lat="39.475092669999995" lon="-0.35239833">
        <ele>6.0</ele>
        <time>2022-05-31T08:35:03+02:00</time>
      </trkpt>
      <trkpt lat="39.47510167" lon="-0.352485">
        <ele>6.0</ele>
        <time>2022-05-31T08:35:05+02:00</time>
      </trkpt>
      <trkpt lat="39.47513299999999" lon="-0.3525766600000001">
        <ele>5.0</ele>
        <time>2022-05-31T08:35:07+02:00</time>
      </trkpt>
      <trkpt lat="39.47516033999999" lon="-0.352665">
        <ele>5.0</ele>
        <time>2022-05-31T08:35:09+02:00</time>
      </trkpt>
      <trkpt lat="39.47517934" lon="-0.35272166000000005">
        <ele>5.0</ele>
        <time>2022-05-31T08:35:10+02:00</time>
      </trkpt>
      <trkpt lat="39.475207669999996" lon="-0.352815">
        <ele>4.0</ele>
        <time>2022-05-31T08:35:12+02:00</time>
      </trkpt>
      <trkpt lat="39.475213339999996" lon="-0.3529">
        <ele>4.0</ele>
        <time>2022-05-31T08:35:14+02:00</time>
      </trkpt>
      <trkpt lat="39.475156670000004" lon="-0.35298500000000005">
        <ele>4.0</ele>
        <time>2022-05-31T08:35:16+02:00</time>
      </trkpt>
      <trkpt lat="39.475139999999996" lon="-0.3530666600000001">
        <ele>3.0</ele>
        <time>2022-05-31T08:35:18+02:00</time>
      </trkpt>
      <trkpt lat="39.47515" lon="-0.35315666000000007">
        <ele>3.0</ele>
        <time>2022-05-31T08:35:20+02:00</time>
      </trkpt>
      <trkpt lat="39.47516167" lon="-0.35322">
        <ele>3.0</ele>
        <time>2022-05-31T08:35:21+02:00</time>
      </trkpt>
      <trkpt lat="39.475190000000005" lon="-0.35331999999999997">
        <ele>3.0</ele>
        <time>2022-05-31T08:35:23+02:00</time>
      </trkpt>
      <trkpt lat="39.47520667" lon="-0.35338833000000003">
        <ele>3.0</ele>
        <time>2022-05-31T08:35:24+02:00</time>
      </trkpt>
      <trkpt lat="39.475224000000004" lon="-0.35344666">
        <ele>3.0</ele>
        <time>2022-05-31T08:35:25+02:00</time>
      </trkpt>
      <trkpt lat="39.47524200000001" lon="-0.35350499999999996">
        <ele>3.0</ele>
        <time>2022-05-31T08:35:26+02:00</time>
      </trkpt>
      <trkpt lat="39.47526267" lon="-0.35356499999999996">
        <ele>3.0</ele>
        <time>2022-05-31T08:35:27+02:00</time>
      </trkpt>
      <trkpt lat="39.47528034" lon="-0.35362166000000006">
        <ele>3.0</ele>
        <time>2022-05-31T08:35:28+02:00</time>
      </trkpt>
      <trkpt lat="39.47529933999999" lon="-0.35367833000000004">
        <ele>3.0</ele>
        <time>2022-05-31T08:35:29+02:00</time>
      </trkpt>
      <trkpt lat="39.475316670000005" lon="-0.35373332999999996">
        <ele>3.0</ele>
        <time>2022-05-31T08:35:30+02:00</time>
      </trkpt>
      <trkpt lat="39.47533399999999" lon="-0.35379332999999996">
        <ele>3.0</ele>
        <time>2022-05-31T08:35:31+02:00</time>
      </trkpt>
      <trkpt lat="39.475364" lon="-0.3539">
        <ele>3.0</ele>
        <time>2022-05-31T08:35:33+02:00</time>
      </trkpt>
      <trkpt lat="39.47538767" lon="-0.353985">
        <ele>3.0</ele>
        <time>2022-05-31T08:35:35+02:00</time>
      </trkpt>
      <trkpt lat="39.47541167000001" lon="-0.35407">
        <ele>3.0</ele>
        <time>2022-05-31T08:35:38+02:00</time>
      </trkpt>
      <trkpt lat="39.475435" lon="-0.35416833">
        <ele>3.0</ele>
        <time>2022-05-31T08:35:39+02:00</time>
      </trkpt>
      <trkpt lat="39.47547134" lon="-0.35427499999999995">
        <ele>3.0</ele>
        <time>2022-05-31T08:35:41+02:00</time>
      </trkpt>
      <trkpt lat="39.475493670000006" lon="-0.35432833">
        <ele>3.0</ele>
        <time>2022-05-31T08:35:42+02:00</time>
      </trkpt>
      <trkpt lat="39.47551567000001" lon="-0.3543816600000001">
        <ele>3.0</ele>
        <time>2022-05-31T08:35:43+02:00</time>
      </trkpt>
      <trkpt lat="39.475547000000006" lon="-0.35448666">
        <ele>3.0</ele>
        <time>2022-05-31T08:35:45+02:00</time>
      </trkpt>
      <trkpt lat="39.475572" lon="-0.35457833">
        <ele>3.0</ele>
        <time>2022-05-31T08:35:47+02:00</time>
      </trkpt>
      <trkpt lat="39.475596339999996" lon="-0.3546599999999999">
        <ele>3.0</ele>
        <time>2022-05-31T08:35:49+02:00</time>
      </trkpt>
      <trkpt lat="39.47561967" lon="-0.35474000000000006">
        <ele>3.0</ele>
        <time>2022-05-31T08:35:51+02:00</time>
      </trkpt>
      <trkpt lat="39.47562334" lon="-0.35482666000000007">
        <ele>3.0</ele>
        <time>2022-05-31T08:35:53+02:00</time>
      </trkpt>
      <trkpt lat="39.47564834" lon="-0.35492666">
        <ele>3.0</ele>
        <time>2022-05-31T08:35:55+02:00</time>
      </trkpt>
      <trkpt lat="39.475677669999996" lon="-0.35503499999999993">
        <ele>3.0</ele>
        <time>2022-05-31T08:35:57+02:00</time>
      </trkpt>
      <trkpt lat="39.47569267" lon="-0.35509">
        <ele>3.0</ele>
        <time>2022-05-31T08:35:58+02:00</time>
      </trkpt>
      <trkpt lat="39.475722000000005" lon="-0.35519500000000004">
        <ele>3.0</ele>
        <time>2022-05-31T08:36:00+02:00</time>
      </trkpt>
      <trkpt lat="39.475747" lon="-0.35527833000000003">
        <ele>3.0</ele>
        <time>2022-05-31T08:36:02+02:00</time>
      </trkpt>
      <trkpt lat="39.47577700000001" lon="-0.35537666">
        <ele>3.0</ele>
        <time>2022-05-31T08:36:04+02:00</time>
      </trkpt>
      <trkpt lat="39.47579867" lon="-0.35544666">
        <ele>3.0</ele>
        <time>2022-05-31T08:36:06+02:00</time>
      </trkpt>
      <trkpt lat="39.475813" lon="-0.35550833">
        <ele>3.0</ele>
        <time>2022-05-31T08:36:10+02:00</time>
      </trkpt>
      <trkpt lat="39.47579667000001" lon="-0.35561">
        <ele>0.0</ele>
        <time>2022-05-31T08:37:13+02:00</time>
      </trkpt>
      <trkpt lat="39.47582" lon="-0.35568332999999996">
        <ele>0.0</ele>
        <time>2022-05-31T08:37:15+02:00</time>
      </trkpt>
      <trkpt lat="39.475845" lon="-0.35577166000000005">
        <ele>0.0</ele>
        <time>2022-05-31T08:37:17+02:00</time>
      </trkpt>
      <trkpt lat="39.47586967" lon="-0.35585666000000005">
        <ele>0.0</ele>
        <time>2022-05-31T08:37:19+02:00</time>
      </trkpt>
      <trkpt lat="39.475889339999995" lon="-0.35591999999999996">
        <ele>0.0</ele>
        <time>2022-05-31T08:37:20+02:00</time>
      </trkpt>
      <trkpt lat="39.47590567" lon="-0.35597500000000004">
        <ele>0.0</ele>
        <time>2022-05-31T08:37:21+02:00</time>
      </trkpt>
      <trkpt lat="39.475923339999994" lon="-0.35603">
        <ele>0.0</ele>
        <time>2022-05-31T08:37:22+02:00</time>
      </trkpt>
      <trkpt lat="39.47594067000001" lon="-0.35608333000000003">
        <ele>0.0</ele>
        <time>2022-05-31T08:37:23+02:00</time>
      </trkpt>
      <trkpt lat="39.475976" lon="-0.35619">
        <ele>0.0</ele>
        <time>2022-05-31T08:37:25+02:00</time>
      </trkpt>
      <trkpt lat="39.475994339999986" lon="-0.35624666000000005">
        <ele>0.0</ele>
        <time>2022-05-31T08:37:26+02:00</time>
      </trkpt>
      <trkpt lat="39.476013339999994" lon="-0.35630166">
        <ele>0.0</ele>
        <time>2022-05-31T08:37:27+02:00</time>
      </trkpt>
      <trkpt lat="39.47603267" lon="-0.35635666">
        <ele>0.0</ele>
        <time>2022-05-31T08:37:28+02:00</time>
      </trkpt>
      <trkpt lat="39.476051" lon="-0.35641333">
        <ele>0.0</ele>
        <time>2022-05-31T08:37:29+02:00</time>
      </trkpt>
      <trkpt lat="39.47607067" lon="-0.35646833">
        <ele>0.0</ele>
        <time>2022-05-31T08:37:30+02:00</time>
      </trkpt>
      <trkpt lat="39.476088340000004" lon="-0.35652333">
        <ele>1.0</ele>
        <time>2022-05-31T08:37:31+02:00</time>
      </trkpt>
      <trkpt lat="39.47610667" lon="-0.35657832999999994">
        <ele>1.0</ele>
        <time>2022-05-31T08:37:32+02:00</time>
      </trkpt>
      <trkpt lat="39.47612567" lon="-0.35663666">
        <ele>1.0</ele>
        <time>2022-05-31T08:37:33+02:00</time>
      </trkpt>
      <trkpt lat="39.476169" lon="-0.35676166">
        <ele>2.0</ele>
        <time>2022-05-31T08:37:35+02:00</time>
      </trkpt>
      <trkpt lat="39.47622867" lon="-0.35695332999999996">
        <ele>2.0</ele>
        <time>2022-05-31T08:37:38+02:00</time>
      </trkpt>
      <trkpt lat="39.476245000000006" lon="-0.35701499999999997">
        <ele>3.0</ele>
        <time>2022-05-31T08:37:39+02:00</time>
      </trkpt>
      <trkpt lat="39.476262340000005" lon="-0.35708000000000006">
        <ele>3.0</ele>
        <time>2022-05-31T08:37:40+02:00</time>
      </trkpt>
      <trkpt lat="39.476283339999995" lon="-0.35714832999999996">
        <ele>3.0</ele>
        <time>2022-05-31T08:37:41+02:00</time>
      </trkpt>
      <trkpt lat="39.47630133999999" lon="-0.3572166600000001">
        <ele>3.0</ele>
        <time>2022-05-31T08:37:42+02:00</time>
      </trkpt>
      <trkpt lat="39.47632267" lon="-0.35728666000000003">
        <ele>3.0</ele>
        <time>2022-05-31T08:37:43+02:00</time>
      </trkpt>
      <trkpt lat="39.476342339999995" lon="-0.35736166">
        <ele>3.0</ele>
        <time>2022-05-31T08:37:44+02:00</time>
      </trkpt>
      <trkpt lat="39.476365" lon="-0.357435">
        <ele>3.0</ele>
        <time>2022-05-31T08:37:45+02:00</time>
      </trkpt>
      <trkpt lat="39.47638734" lon="-0.35750833000000004">
        <ele>3.0</ele>
        <time>2022-05-31T08:37:46+02:00</time>
      </trkpt>
      <trkpt lat="39.47640967" lon="-0.35758166">
        <ele>4.0</ele>
        <time>2022-05-31T08:37:47+02:00</time>
      </trkpt>
      <trkpt lat="39.476429339999996" lon="-0.35764333000000004">
        <ele>4.0</ele>
        <time>2022-05-31T08:37:48+02:00</time>
      </trkpt>
      <trkpt lat="39.47645734" lon="-0.35773332999999996">
        <ele>4.0</ele>
        <time>2022-05-31T08:37:49+02:00</time>
      </trkpt>
      <trkpt lat="39.476481" lon="-0.35781">
        <ele>4.0</ele>
        <time>2022-05-31T08:37:50+02:00</time>
      </trkpt>
      <trkpt lat="39.47650634" lon="-0.35787500000000005">
        <ele>4.0</ele>
        <time>2022-05-31T08:37:51+02:00</time>
      </trkpt>
      <trkpt lat="39.47653034" lon="-0.35795166000000006">
        <ele>4.0</ele>
        <time>2022-05-31T08:37:52+02:00</time>
      </trkpt>
      <trkpt lat="39.47655367" lon="-0.35802666000000005">
        <ele>4.0</ele>
        <time>2022-05-31T08:37:53+02:00</time>
      </trkpt>
      <trkpt lat="39.476582" lon="-0.35811666000000003">
        <ele>4.0</ele>
        <time>2022-05-31T08:37:54+02:00</time>
      </trkpt>
      <trkpt lat="39.47660434" lon="-0.35818833">
        <ele>4.0</ele>
        <time>2022-05-31T08:37:55+02:00</time>
      </trkpt>
      <trkpt lat="39.47662167000001" lon="-0.35826166000000004">
        <ele>4.0</ele>
        <time>2022-05-31T08:37:56+02:00</time>
      </trkpt>
      <trkpt lat="39.476643339999995" lon="-0.35833166000000005">
        <ele>4.0</ele>
        <time>2022-05-31T08:37:58+02:00</time>
      </trkpt>
      <trkpt lat="39.47667500000001" lon="-0.35843499999999995">
        <ele>4.0</ele>
        <time>2022-05-31T08:37:59+02:00</time>
      </trkpt>
      <trkpt lat="39.476698999999996" lon="-0.35851332999999996">
        <ele>4.0</ele>
        <time>2022-05-31T08:38:01+02:00</time>
      </trkpt>
      <trkpt lat="39.47672533999999" lon="-0.3586">
        <ele>4.0</ele>
        <time>2022-05-31T08:38:03+02:00</time>
      </trkpt>
      <trkpt lat="39.476756" lon="-0.35869833">
        <ele>4.0</ele>
        <time>2022-05-31T08:38:05+02:00</time>
      </trkpt>
      <trkpt lat="39.476786000000004" lon="-0.3587949999999999">
        <ele>5.0</ele>
        <time>2022-05-31T08:38:07+02:00</time>
      </trkpt>
      <trkpt lat="39.47681933999999" lon="-0.35890332999999996">
        <ele>5.0</ele>
        <time>2022-05-31T08:38:09+02:00</time>
      </trkpt>
      <trkpt lat="39.47685233999999" lon="-0.35901166000000007">
        <ele>5.0</ele>
        <time>2022-05-31T08:38:11+02:00</time>
      </trkpt>
      <trkpt lat="39.47687834" lon="-0.35912166000000006">
        <ele>5.0</ele>
        <time>2022-05-31T08:38:13+02:00</time>
      </trkpt>
      <trkpt lat="39.476912670000004" lon="-0.35923666000000004">
        <ele>5.0</ele>
        <time>2022-05-31T08:38:15+02:00</time>
      </trkpt>
      <trkpt lat="39.476948" lon="-0.35935500000000004">
        <ele>6.0</ele>
        <time>2022-05-31T08:38:17+02:00</time>
      </trkpt>
      <trkpt lat="39.476973" lon="-0.3594666600000001">
        <ele>6.0</ele>
        <time>2022-05-31T08:38:19+02:00</time>
      </trkpt>
      <trkpt lat="39.47700233999999" lon="-0.35956666000000004">
        <ele>6.0</ele>
        <time>2022-05-31T08:38:21+02:00</time>
      </trkpt>
      <trkpt lat="39.477011" lon="-0.359625">
        <ele>6.0</ele>
        <time>2022-05-31T08:38:22+02:00</time>
      </trkpt>
      <trkpt lat="39.477031" lon="-0.3596933299999999">
        <ele>6.0</ele>
        <time>2022-05-31T08:38:24+02:00</time>
      </trkpt>
      <trkpt lat="39.477048339999996" lon="-0.35978000000000004">
        <ele>6.0</ele>
        <time>2022-05-31T08:38:25+02:00</time>
      </trkpt>
      <trkpt lat="39.477073" lon="-0.359865">
        <ele>6.0</ele>
        <time>2022-05-31T08:38:27+02:00</time>
      </trkpt>
      <trkpt lat="39.47709367" lon="-0.35996500000000003">
        <ele>6.0</ele>
        <time>2022-05-31T08:38:29+02:00</time>
      </trkpt>
      <trkpt lat="39.477122" lon="-0.36006332999999996">
        <ele>6.0</ele>
        <time>2022-05-31T08:38:31+02:00</time>
      </trkpt>
      <trkpt lat="39.477143670000004" lon="-0.36016666">
        <ele>6.0</ele>
        <time>2022-05-31T08:38:33+02:00</time>
      </trkpt>
      <trkpt lat="39.47715999999999" lon="-0.36022166000000005">
        <ele>6.0</ele>
        <time>2022-05-31T08:38:34+02:00</time>
      </trkpt>
      <trkpt lat="39.47717567000001" lon="-0.36027499999999996">
        <ele>6.0</ele>
        <time>2022-05-31T08:38:35+02:00</time>
      </trkpt>
      <trkpt lat="39.477184339999994" lon="-0.36033333">
        <ele>6.0</ele>
        <time>2022-05-31T08:38:36+02:00</time>
      </trkpt>
      <trkpt lat="39.47720133999999" lon="-0.36039166000000006">
        <ele>6.0</ele>
        <time>2022-05-31T08:38:37+02:00</time>
      </trkpt>
      <trkpt lat="39.477219" lon="-0.3604516600000001">
        <ele>6.0</ele>
        <time>2022-05-31T08:38:38+02:00</time>
      </trkpt>
      <trkpt lat="39.47723734" lon="-0.360515">
        <ele>6.0</ele>
        <time>2022-05-31T08:38:39+02:00</time>
      </trkpt>
      <trkpt lat="39.47725534" lon="-0.36057666000000005">
        <ele>6.0</ele>
        <time>2022-05-31T08:38:40+02:00</time>
      </trkpt>
      <trkpt lat="39.477273000000004" lon="-0.36063666">
        <ele>6.0</ele>
        <time>2022-05-31T08:38:41+02:00</time>
      </trkpt>
      <trkpt lat="39.47729167000001" lon="-0.36070166000000004">
        <ele>6.0</ele>
        <time>2022-05-31T08:38:42+02:00</time>
      </trkpt>
      <trkpt lat="39.47732834" lon="-0.3608300000000001">
        <ele>6.0</ele>
        <time>2022-05-31T08:38:44+02:00</time>
      </trkpt>
      <trkpt lat="39.47734634" lon="-0.36089332999999996">
        <ele>6.0</ele>
        <time>2022-05-31T08:38:45+02:00</time>
      </trkpt>
      <trkpt lat="39.47736367" lon="-0.36095332999999996">
        <ele>6.0</ele>
        <time>2022-05-31T08:38:46+02:00</time>
      </trkpt>
      <trkpt lat="39.477372669999994" lon="-0.36101166">
        <ele>6.0</ele>
        <time>2022-05-31T08:38:47+02:00</time>
      </trkpt>
      <trkpt lat="39.477402999999995" lon="-0.36112">
        <ele>6.0</ele>
        <time>2022-05-31T08:38:50+02:00</time>
      </trkpt>
      <trkpt lat="39.47743433999999" lon="-0.36123166000000007">
        <ele>6.0</ele>
        <time>2022-05-31T08:38:51+02:00</time>
      </trkpt>
      <trkpt lat="39.477451" lon="-0.36129000000000006">
        <ele>6.0</ele>
        <time>2022-05-31T08:38:52+02:00</time>
      </trkpt>
      <trkpt lat="39.477459669999995" lon="-0.36134666000000004">
        <ele>6.0</ele>
        <time>2022-05-31T08:38:53+02:00</time>
      </trkpt>
      <trkpt lat="39.47747667" lon="-0.36140666">
        <ele>6.0</ele>
        <time>2022-05-31T08:38:54+02:00</time>
      </trkpt>
      <trkpt lat="39.47749334" lon="-0.36146500000000004">
        <ele>6.0</ele>
        <time>2022-05-31T08:38:55+02:00</time>
      </trkpt>
      <trkpt lat="39.477509999999995" lon="-0.3615216600000001">
        <ele>6.0</ele>
        <time>2022-05-31T08:38:56+02:00</time>
      </trkpt>
      <trkpt lat="39.47752634" lon="-0.36157832999999995">
        <ele>6.0</ele>
        <time>2022-05-31T08:38:57+02:00</time>
      </trkpt>
      <trkpt lat="39.477544" lon="-0.36163833">
        <ele>6.0</ele>
        <time>2022-05-31T08:38:58+02:00</time>
      </trkpt>
      <trkpt lat="39.47756134" lon="-0.36169832999999996">
        <ele>6.0</ele>
        <time>2022-05-31T08:38:59+02:00</time>
      </trkpt>
      <trkpt lat="39.47761834" lon="-0.361795">
        <ele>6.0</ele>
        <time>2022-05-31T08:39:01+02:00</time>
      </trkpt>
      <trkpt lat="39.47762967" lon="-0.36186166000000003">
        <ele>6.0</ele>
        <time>2022-05-31T08:39:03+02:00</time>
      </trkpt>
      <trkpt lat="39.47764267" lon="-0.36193166000000004">
        <ele>6.0</ele>
        <time>2022-05-31T08:39:06+02:00</time>
      </trkpt>
      <trkpt lat="39.477683340000006" lon="-0.3619666600000001">
        <ele>4.0</ele>
        <time>2022-05-31T08:39:12+02:00</time>
      </trkpt>
      <trkpt lat="39.477725" lon="-0.36201666">
        <ele>3.0</ele>
        <time>2022-05-31T08:39:27+02:00</time>
      </trkpt>
      <trkpt lat="39.477754999999995" lon="-0.3621">
        <ele>1.0</ele>
        <time>2022-05-31T08:39:43+02:00</time>
      </trkpt>
      <trkpt lat="39.477796670000004" lon="-0.36217332999999996">
        <ele>1.0</ele>
        <time>2022-05-31T08:39:45+02:00</time>
      </trkpt>
      <trkpt lat="39.477846670000005" lon="-0.362265">
        <ele>1.0</ele>
        <time>2022-05-31T08:39:47+02:00</time>
      </trkpt>
      <trkpt lat="39.477869670000004" lon="-0.36231666">
        <ele>1.0</ele>
        <time>2022-05-31T08:39:48+02:00</time>
      </trkpt>
      <trkpt lat="39.47790167000001" lon="-0.36242166000000015">
        <ele>1.0</ele>
        <time>2022-05-31T08:39:50+02:00</time>
      </trkpt>
      <trkpt lat="39.47790334" lon="-0.36253333">
        <ele>1.0</ele>
        <time>2022-05-31T08:39:52+02:00</time>
      </trkpt>
      <trkpt lat="39.477914670000004" lon="-0.36262833">
        <ele>1.0</ele>
        <time>2022-05-31T08:39:54+02:00</time>
      </trkpt>
      <trkpt lat="39.47793067" lon="-0.362695">
        <ele>1.0</ele>
        <time>2022-05-31T08:39:55+02:00</time>
      </trkpt>
      <trkpt lat="39.47798167" lon="-0.36286">
        <ele>2.0</ele>
        <time>2022-05-31T08:39:58+02:00</time>
      </trkpt>
      <trkpt lat="39.478004999999996" lon="-0.36291999999999996">
        <ele>2.0</ele>
        <time>2022-05-31T08:39:59+02:00</time>
      </trkpt>
      <trkpt lat="39.478026" lon="-0.36298">
        <ele>2.0</ele>
        <time>2022-05-31T08:40:00+02:00</time>
      </trkpt>
      <trkpt lat="39.478047999999994" lon="-0.36303832999999996">
        <ele>2.0</ele>
        <time>2022-05-31T08:40:01+02:00</time>
      </trkpt>
      <trkpt lat="39.478080670000004" lon="-0.36314833">
        <ele>2.0</ele>
        <time>2022-05-31T08:40:03+02:00</time>
      </trkpt>
      <trkpt lat="39.478106" lon="-0.363255">
        <ele>2.0</ele>
        <time>2022-05-31T08:40:05+02:00</time>
      </trkpt>
      <trkpt lat="39.47813267" lon="-0.3633616600000001">
        <ele>2.0</ele>
        <time>2022-05-31T08:40:07+02:00</time>
      </trkpt>
      <trkpt lat="39.47816067" lon="-0.36346833">
        <ele>2.0</ele>
        <time>2022-05-31T08:40:09+02:00</time>
      </trkpt>
      <trkpt lat="39.478174" lon="-0.36352333000000003">
        <ele>2.0</ele>
        <time>2022-05-31T08:40:10+02:00</time>
      </trkpt>
      <trkpt lat="39.478191" lon="-0.3635766600000001">
        <ele>2.0</ele>
        <time>2022-05-31T08:40:11+02:00</time>
      </trkpt>
      <trkpt lat="39.47820634" lon="-0.3636316600000001">
        <ele>2.0</ele>
        <time>2022-05-31T08:40:12+02:00</time>
      </trkpt>
      <trkpt lat="39.478235" lon="-0.36373332999999997">
        <ele>3.0</ele>
        <time>2022-05-31T08:40:14+02:00</time>
      </trkpt>
      <trkpt lat="39.478263" lon="-0.36384166000000007">
        <ele>3.0</ele>
        <time>2022-05-31T08:40:16+02:00</time>
      </trkpt>
      <trkpt lat="39.478281" lon="-0.3638966600000001">
        <ele>3.0</ele>
        <time>2022-05-31T08:40:17+02:00</time>
      </trkpt>
      <trkpt lat="39.478308999999996" lon="-0.363995">
        <ele>3.0</ele>
        <time>2022-05-31T08:40:19+02:00</time>
      </trkpt>
      <trkpt lat="39.478337339999996" lon="-0.36409499999999995">
        <ele>3.0</ele>
        <time>2022-05-31T08:40:21+02:00</time>
      </trkpt>
      <trkpt lat="39.478381" lon="-0.36425166000000003">
        <ele>3.0</ele>
        <time>2022-05-31T08:40:24+02:00</time>
      </trkpt>
      <trkpt lat="39.47839700000001" lon="-0.36430832999999996">
        <ele>3.0</ele>
        <time>2022-05-31T08:40:25+02:00</time>
      </trkpt>
      <trkpt lat="39.478412" lon="-0.36436166000000003">
        <ele>3.0</ele>
        <time>2022-05-31T08:40:26+02:00</time>
      </trkpt>
      <trkpt lat="39.478427669999995" lon="-0.36441666000000006">
        <ele>3.0</ele>
        <time>2022-05-31T08:40:27+02:00</time>
      </trkpt>
      <trkpt lat="39.478457000000006" lon="-0.36452">
        <ele>3.0</ele>
        <time>2022-05-31T08:40:29+02:00</time>
      </trkpt>
      <trkpt lat="39.478483" lon="-0.36461333">
        <ele>3.0</ele>
        <time>2022-05-31T08:40:31+02:00</time>
      </trkpt>
      <trkpt lat="39.478435000000005" lon="-0.36467499999999997">
        <ele>3.0</ele>
        <time>2022-05-31T08:40:33+02:00</time>
      </trkpt>
      <trkpt lat="39.478365000000004" lon="-0.36472166">
        <ele>3.0</ele>
        <time>2022-05-31T08:40:35+02:00</time>
      </trkpt>
      <trkpt lat="39.478294999999996" lon="-0.36475833">
        <ele>3.0</ele>
        <time>2022-05-31T08:40:37+02:00</time>
      </trkpt>
      <trkpt lat="39.47822167" lon="-0.36479632999999995">
        <ele>3.0</ele>
        <time>2022-05-31T08:40:39+02:00</time>
      </trkpt>
      <trkpt lat="39.47818667" lon="-0.36482766000000005">
        <ele>3.0</ele>
        <time>2022-05-31T08:40:40+02:00</time>
      </trkpt>
      <trkpt lat="39.47813167" lon="-0.36489833">
        <ele>3.0</ele>
        <time>2022-05-31T08:40:42+02:00</time>
      </trkpt>
      <trkpt lat="39.47809667" lon="-0.36496333000000003">
        <ele>3.0</ele>
        <time>2022-05-31T08:40:44+02:00</time>
      </trkpt>
      <trkpt lat="39.47809667" lon="-0.36503666">
        <ele>3.0</ele>
        <time>2022-05-31T08:40:46+02:00</time>
      </trkpt>
      <trkpt lat="39.47813667" lon="-0.36518666000000005">
        <ele>3.0</ele>
        <time>2022-05-31T08:40:49+02:00</time>
      </trkpt>
      <trkpt lat="39.478173" lon="-0.36529">
        <ele>3.0</ele>
        <time>2022-05-31T08:40:51+02:00</time>
      </trkpt>
      <trkpt lat="39.47820067000001" lon="-0.36537833">
        <ele>3.0</ele>
        <time>2022-05-31T08:40:53+02:00</time>
      </trkpt>
      <trkpt lat="39.47822233999999" lon="-0.36546999999999996">
        <ele>3.0</ele>
        <time>2022-05-31T08:40:55+02:00</time>
      </trkpt>
      <trkpt lat="39.478235340000005" lon="-0.36553666000000007">
        <ele>3.0</ele>
        <time>2022-05-31T08:40:57+02:00</time>
      </trkpt>
      <trkpt lat="39.478237670000006" lon="-0.3655966600000001">
        <ele>3.0</ele>
        <time>2022-05-31T08:41:00+02:00</time>
      </trkpt>
      <trkpt lat="39.47817334" lon="-0.365655">
        <ele>3.0</ele>
        <time>2022-05-31T08:41:03+02:00</time>
      </trkpt>
      <trkpt lat="39.478123339999996" lon="-0.3656933299999999">
        <ele>3.0</ele>
        <time>2022-05-31T08:41:05+02:00</time>
      </trkpt>
      <trkpt lat="39.478071670000006" lon="-0.36573">
        <ele>3.0</ele>
        <time>2022-05-31T08:41:07+02:00</time>
      </trkpt>
      <trkpt lat="39.47801667" lon="-0.36576">
        <ele>3.0</ele>
        <time>2022-05-31T08:41:10+02:00</time>
      </trkpt>
      <trkpt lat="39.477959999999996" lon="-0.36579965999999997">
        <ele>3.0</ele>
        <time>2022-05-31T08:41:11+02:00</time>
      </trkpt>
      <trkpt lat="39.477893339999994" lon="-0.36584633">
        <ele>3.0</ele>
        <time>2022-05-31T08:41:13+02:00</time>
      </trkpt>
      <trkpt lat="39.477824999999996" lon="-0.36589">
        <ele>3.0</ele>
        <time>2022-05-31T08:41:15+02:00</time>
      </trkpt>
      <trkpt lat="39.477763339999996" lon="-0.36592666">
        <ele>3.0</ele>
        <time>2022-05-31T08:41:17+02:00</time>
      </trkpt>
      <trkpt lat="39.47769667000001" lon="-0.36596500000000004">
        <ele>3.0</ele>
        <time>2022-05-31T08:41:19+02:00</time>
      </trkpt>
      <trkpt lat="39.477650000000004" lon="-0.36600166">
        <ele>3.0</ele>
        <time>2022-05-31T08:41:21+02:00</time>
      </trkpt>
      <trkpt lat="39.47763334" lon="-0.3660766600000001">
        <ele>3.0</ele>
        <time>2022-05-31T08:41:23+02:00</time>
      </trkpt>
      <trkpt lat="39.47759334" lon="-0.366115">
        <ele>3.0</ele>
        <time>2022-05-31T08:41:25+02:00</time>
      </trkpt>
      <trkpt lat="39.477545" lon="-0.36615666">
        <ele>3.0</ele>
        <time>2022-05-31T08:41:27+02:00</time>
      </trkpt>
      <trkpt lat="39.47752334" lon="-0.36621333">
        <ele>3.0</ele>
        <time>2022-05-31T08:41:29+02:00</time>
      </trkpt>
      <trkpt lat="39.47750333999999" lon="-0.36628666">
        <ele>3.0</ele>
        <time>2022-05-31T08:41:31+02:00</time>
      </trkpt>
      <trkpt lat="39.47747833999999" lon="-0.36637332999999994">
        <ele>3.0</ele>
        <time>2022-05-31T08:41:33+02:00</time>
      </trkpt>
      <trkpt lat="39.47746334" lon="-0.3664466600000001">
        <ele>3.0</ele>
        <time>2022-05-31T08:41:34+02:00</time>
      </trkpt>
      <trkpt lat="39.477438670000005" lon="-0.36655832999999993">
        <ele>3.0</ele>
        <time>2022-05-31T08:41:36+02:00</time>
      </trkpt>
      <trkpt lat="39.477400339999996" lon="-0.36666999999999994">
        <ele>3.0</ele>
        <time>2022-05-31T08:41:38+02:00</time>
      </trkpt>
      <trkpt lat="39.47732834" lon="-0.36673500000000003">
        <ele>3.0</ele>
        <time>2022-05-31T08:41:40+02:00</time>
      </trkpt>
      <trkpt lat="39.477275" lon="-0.36677499999999996">
        <ele>3.0</ele>
        <time>2022-05-31T08:41:42+02:00</time>
      </trkpt>
      <trkpt lat="39.47724000000001" lon="-0.36683833">
        <ele>3.0</ele>
        <time>2022-05-31T08:41:45+02:00</time>
      </trkpt>
      <trkpt lat="39.477265" lon="-0.36693">
        <ele>3.0</ele>
        <time>2022-05-31T08:41:48+02:00</time>
      </trkpt>
      <trkpt lat="39.477305" lon="-0.36697333">
        <ele>3.0</ele>
        <time>2022-05-31T08:41:50+02:00</time>
      </trkpt>
      <trkpt lat="39.47734667000001" lon="-0.36701">
        <ele>3.0</ele>
        <time>2022-05-31T08:41:52+02:00</time>
      </trkpt>
      <trkpt lat="39.47738" lon="-0.36705">
        <ele>3.0</ele>
        <time>2022-05-31T08:41:55+02:00</time>
      </trkpt>
      <trkpt lat="39.477340000000005" lon="-0.36712833">
        <ele>0.0</ele>
        <time>2022-05-31T08:42:54+02:00</time>
      </trkpt>
      <trkpt lat="39.47732499999999" lon="-0.3671833299999999">
        <ele>0.0</ele>
        <time>2022-05-31T08:42:56+02:00</time>
      </trkpt>
      <trkpt lat="39.47729667" lon="-0.36724166">
        <ele>0.0</ele>
        <time>2022-05-31T08:42:58+02:00</time>
      </trkpt>
      <trkpt lat="39.47726334" lon="-0.36729">
        <ele>0.0</ele>
        <time>2022-05-31T08:43:00+02:00</time>
      </trkpt>
      <trkpt lat="39.47723334" lon="-0.36733666000000004">
        <ele>0.0</ele>
        <time>2022-05-31T08:43:02+02:00</time>
      </trkpt>
      <trkpt lat="39.477202000000005" lon="-0.36738166000000005">
        <ele>0.0</ele>
        <time>2022-05-31T08:43:05+02:00</time>
      </trkpt>
      <trkpt lat="39.47715" lon="-0.36741333">
        <ele>0.0</ele>
        <time>2022-05-31T08:43:10+02:00</time>
      </trkpt>
      <trkpt lat="39.47709834" lon="-0.36743332999999995">
        <ele>0.0</ele>
        <time>2022-05-31T08:43:12+02:00</time>
      </trkpt>
      <trkpt lat="39.47704667000001" lon="-0.36744833">
        <ele>0.0</ele>
        <time>2022-05-31T08:43:14+02:00</time>
      </trkpt>
      <trkpt lat="39.47699834" lon="-0.36747966000000004">
        <ele>0.0</ele>
        <time>2022-05-31T08:43:16+02:00</time>
      </trkpt>
      <trkpt lat="39.47698167" lon="-0.3675400000000001">
        <ele>0.0</ele>
        <time>2022-05-31T08:43:18+02:00</time>
      </trkpt>
      <trkpt lat="39.476974999999996" lon="-0.36761832999999994">
        <ele>0.0</ele>
        <time>2022-05-31T08:43:20+02:00</time>
      </trkpt>
      <trkpt lat="39.476935" lon="-0.3676916600000001">
        <ele>0.0</ele>
        <time>2022-05-31T08:43:22+02:00</time>
      </trkpt>
      <trkpt lat="39.476870000000005" lon="-0.36773">
        <ele>0.0</ele>
        <time>2022-05-31T08:43:24+02:00</time>
      </trkpt>
      <trkpt lat="39.47682833999999" lon="-0.36775333000000004">
        <ele>1.0</ele>
        <time>2022-05-31T08:43:26+02:00</time>
      </trkpt>
      <trkpt lat="39.47680999999999" lon="-0.36780832999999996">
        <ele>1.0</ele>
        <time>2022-05-31T08:43:29+02:00</time>
      </trkpt>
      <trkpt lat="39.47680167" lon="-0.36787333">
        <ele>2.0</ele>
        <time>2022-05-31T08:43:31+02:00</time>
      </trkpt>
      <trkpt lat="39.476771670000005" lon="-0.36792666000000007">
        <ele>2.0</ele>
        <time>2022-05-31T08:43:34+02:00</time>
      </trkpt>
      <trkpt lat="39.476726670000005" lon="-0.36790666">
        <ele>2.0</ele>
        <time>2022-05-31T08:43:35+02:00</time>
      </trkpt>
      <trkpt lat="39.476659999999995" lon="-0.36786">
        <ele>2.0</ele>
        <time>2022-05-31T08:43:37+02:00</time>
      </trkpt>
      <trkpt lat="39.476620000000004" lon="-0.3678283299999999">
        <ele>2.0</ele>
        <time>2022-05-31T08:43:38+02:00</time>
      </trkpt>
      <trkpt lat="39.476545" lon="-0.3678">
        <ele>3.0</ele>
        <time>2022-05-31T08:43:40+02:00</time>
      </trkpt>
      <trkpt lat="39.476481670000005" lon="-0.36782499999999996">
        <ele>3.0</ele>
        <time>2022-05-31T08:43:42+02:00</time>
      </trkpt>
      <trkpt lat="39.476468340000004" lon="-0.36791666000000006">
        <ele>3.0</ele>
        <time>2022-05-31T08:43:44+02:00</time>
      </trkpt>
      <trkpt lat="39.476475" lon="-0.36798000000000003">
        <ele>3.0</ele>
        <time>2022-05-31T08:43:45+02:00</time>
      </trkpt>
      <trkpt lat="39.47647833999999" lon="-0.36804333">
        <ele>3.0</ele>
        <time>2022-05-31T08:43:46+02:00</time>
      </trkpt>
      <trkpt lat="39.476485000000004" lon="-0.36810666000000003">
        <ele>3.0</ele>
        <time>2022-05-31T08:43:47+02:00</time>
      </trkpt>
      <trkpt lat="39.47649167000001" lon="-0.36816999999999994">
        <ele>3.0</ele>
        <time>2022-05-31T08:43:48+02:00</time>
      </trkpt>
      <trkpt lat="39.47652867" lon="-0.3682766600000001">
        <ele>3.0</ele>
        <time>2022-05-31T08:43:50+02:00</time>
      </trkpt>
      <trkpt lat="39.47656334" lon="-0.36832166000000005">
        <ele>3.0</ele>
        <time>2022-05-31T08:43:51+02:00</time>
      </trkpt>
      <trkpt lat="39.47698334" lon="-0.36880166000000003">
        <ele>3.0</ele>
        <time>2022-05-31T08:44:01+02:00</time>
      </trkpt>
      <trkpt lat="39.47707334" lon="-0.36886666">
        <ele>3.0</ele>
        <time>2022-05-31T08:44:03+02:00</time>
      </trkpt>
      <trkpt lat="39.47712334" lon="-0.36889166">
        <ele>3.0</ele>
        <time>2022-05-31T08:44:04+02:00</time>
      </trkpt>
      <trkpt lat="39.47717667" lon="-0.3689116600000001">
        <ele>3.0</ele>
        <time>2022-05-31T08:44:05+02:00</time>
      </trkpt>
      <trkpt lat="39.47723334" lon="-0.3689266600000001">
        <ele>3.0</ele>
        <time>2022-05-31T08:44:06+02:00</time>
      </trkpt>
      <trkpt lat="39.47728" lon="-0.36893466">
        <ele>3.0</ele>
        <time>2022-05-31T08:44:07+02:00</time>
      </trkpt>
      <trkpt lat="39.47732834" lon="-0.36894866">
        <ele>3.0</ele>
        <time>2022-05-31T08:44:08+02:00</time>
      </trkpt>
      <trkpt lat="39.47737167000001" lon="-0.36897199999999997">
        <ele>3.0</ele>
        <time>2022-05-31T08:44:09+02:00</time>
      </trkpt>
      <trkpt lat="39.47741334" lon="-0.369005">
        <ele>3.0</ele>
        <time>2022-05-31T08:44:10+02:00</time>
      </trkpt>
      <trkpt lat="39.47746834" lon="-0.36904499999999996">
        <ele>3.0</ele>
        <time>2022-05-31T08:44:11+02:00</time>
      </trkpt>
      <trkpt lat="39.477518339999996" lon="-0.36908">
        <ele>3.0</ele>
        <time>2022-05-31T08:44:12+02:00</time>
      </trkpt>
      <trkpt lat="39.47756334" lon="-0.36911632999999994">
        <ele>3.0</ele>
        <time>2022-05-31T08:44:13+02:00</time>
      </trkpt>
      <trkpt lat="39.47761" lon="-0.369159">
        <ele>4.0</ele>
        <time>2022-05-31T08:44:14+02:00</time>
      </trkpt>
      <trkpt lat="39.47765167000001" lon="-0.36920266000000007">
        <ele>4.0</ele>
        <time>2022-05-31T08:44:15+02:00</time>
      </trkpt>
      <trkpt lat="39.477683340000006" lon="-0.36926499999999995">
        <ele>4.0</ele>
        <time>2022-05-31T08:44:16+02:00</time>
      </trkpt>
      <trkpt lat="39.477729999999994" lon="-0.36934000000000006">
        <ele>4.0</ele>
        <time>2022-05-31T08:44:17+02:00</time>
      </trkpt>
      <trkpt lat="39.47776667000001" lon="-0.3694">
        <ele>4.0</ele>
        <time>2022-05-31T08:44:18+02:00</time>
      </trkpt>
      <trkpt lat="39.47779167" lon="-0.36946">
        <ele>4.0</ele>
        <time>2022-05-31T08:44:19+02:00</time>
      </trkpt>
      <trkpt lat="39.477849670000005" lon="-0.36955166000000006">
        <ele>4.0</ele>
        <time>2022-05-31T08:44:21+02:00</time>
      </trkpt>
      <trkpt lat="39.47788667" lon="-0.36962">
        <ele>4.0</ele>
        <time>2022-05-31T08:44:22+02:00</time>
      </trkpt>
      <trkpt lat="39.47791933999999" lon="-0.36968000000000006">
        <ele>4.0</ele>
        <time>2022-05-31T08:44:23+02:00</time>
      </trkpt>
      <trkpt lat="39.47795167" lon="-0.36973666">
        <ele>4.0</ele>
        <time>2022-05-31T08:44:24+02:00</time>
      </trkpt>
      <trkpt lat="39.477990000000005" lon="-0.3698">
        <ele>4.0</ele>
        <time>2022-05-31T08:44:25+02:00</time>
      </trkpt>
      <trkpt lat="39.47802867" lon="-0.36986166000000004">
        <ele>4.0</ele>
        <time>2022-05-31T08:44:26+02:00</time>
      </trkpt>
      <trkpt lat="39.478068670000006" lon="-0.369925">
        <ele>4.0</ele>
        <time>2022-05-31T08:44:27+02:00</time>
      </trkpt>
      <trkpt lat="39.47810234" lon="-0.36997833">
        <ele>4.0</ele>
        <time>2022-05-31T08:44:28+02:00</time>
      </trkpt>
      <trkpt lat="39.47818099999999" lon="-0.37010666">
        <ele>4.0</ele>
        <time>2022-05-31T08:44:30+02:00</time>
      </trkpt>
      <trkpt lat="39.47822567" lon="-0.37018333">
        <ele>4.0</ele>
        <time>2022-05-31T08:44:31+02:00</time>
      </trkpt>
      <trkpt lat="39.478263" lon="-0.37024500000000005">
        <ele>4.0</ele>
        <time>2022-05-31T08:44:32+02:00</time>
      </trkpt>
      <trkpt lat="39.47829333999999" lon="-0.370295">
        <ele>4.0</ele>
        <time>2022-05-31T08:44:33+02:00</time>
      </trkpt>
      <trkpt lat="39.478337339999996" lon="-0.3703683299999999">
        <ele>4.0</ele>
        <time>2022-05-31T08:44:34+02:00</time>
      </trkpt>
      <trkpt lat="39.47837767" lon="-0.370435">
        <ele>4.0</ele>
        <time>2022-05-31T08:44:35+02:00</time>
      </trkpt>
      <trkpt lat="39.47841734" lon="-0.370505">
        <ele>4.0</ele>
        <time>2022-05-31T08:44:36+02:00</time>
      </trkpt>
      <trkpt lat="39.478455999999994" lon="-0.370575">
        <ele>4.0</ele>
        <time>2022-05-31T08:44:37+02:00</time>
      </trkpt>
      <trkpt lat="39.47849634" lon="-0.37064832999999997">
        <ele>4.0</ele>
        <time>2022-05-31T08:44:38+02:00</time>
      </trkpt>
      <trkpt lat="39.478533" lon="-0.3707166600000001">
        <ele>4.0</ele>
        <time>2022-05-31T08:44:39+02:00</time>
      </trkpt>
      <trkpt lat="39.47856867" lon="-0.37078332999999997">
        <ele>4.0</ele>
        <time>2022-05-31T08:44:40+02:00</time>
      </trkpt>
      <trkpt lat="39.478597" lon="-0.37084333">
        <ele>4.0</ele>
        <time>2022-05-31T08:44:41+02:00</time>
      </trkpt>
      <trkpt lat="39.478629" lon="-0.37089999999999995">
        <ele>3.0</ele>
        <time>2022-05-31T08:44:42+02:00</time>
      </trkpt>
      <trkpt lat="39.478654670000005" lon="-0.37095166000000007">
        <ele>3.0</ele>
        <time>2022-05-31T08:44:43+02:00</time>
      </trkpt>
      <trkpt lat="39.47867867" lon="-0.371">
        <ele>3.0</ele>
        <time>2022-05-31T08:44:44+02:00</time>
      </trkpt>
      <trkpt lat="39.47872733999999" lon="-0.37109333">
        <ele>3.0</ele>
        <time>2022-05-31T08:44:46+02:00</time>
      </trkpt>
      <trkpt lat="39.47877533999999" lon="-0.37118666000000006">
        <ele>3.0</ele>
        <time>2022-05-31T08:44:48+02:00</time>
      </trkpt>
      <trkpt lat="39.47882234" lon="-0.37128">
        <ele>3.0</ele>
        <time>2022-05-31T08:44:50+02:00</time>
      </trkpt>
      <trkpt lat="39.47886534" lon="-0.37136666000000007">
        <ele>2.0</ele>
        <time>2022-05-31T08:44:52+02:00</time>
      </trkpt>
      <trkpt lat="39.47890067" lon="-0.37144833">
        <ele>2.0</ele>
        <time>2022-05-31T08:44:55+02:00</time>
      </trkpt>
      <trkpt lat="39.478938670000005" lon="-0.37152833">
        <ele>1.0</ele>
        <time>2022-05-31T08:44:56+02:00</time>
      </trkpt>
      <trkpt lat="39.47897767" lon="-0.37160166000000006">
        <ele>1.0</ele>
        <time>2022-05-31T08:44:58+02:00</time>
      </trkpt>
      <trkpt lat="39.479018339999996" lon="-0.37168">
        <ele>1.0</ele>
        <time>2022-05-31T08:45:00+02:00</time>
      </trkpt>
      <trkpt lat="39.479056670000006" lon="-0.37172166000000006">
        <ele>1.0</ele>
        <time>2022-05-31T08:45:01+02:00</time>
      </trkpt>
      <trkpt lat="39.479096670000004" lon="-0.37176833">
        <ele>1.0</ele>
        <time>2022-05-31T08:45:02+02:00</time>
      </trkpt>
      <trkpt lat="39.47917167000001" lon="-0.37186699999999995">
        <ele>1.0</ele>
        <time>2022-05-31T08:45:04+02:00</time>
      </trkpt>
      <trkpt lat="39.47921334" lon="-0.37191933">
        <ele>1.0</ele>
        <time>2022-05-31T08:45:05+02:00</time>
      </trkpt>
      <trkpt lat="39.47925334" lon="-0.371969">
        <ele>1.0</ele>
        <time>2022-05-31T08:45:06+02:00</time>
      </trkpt>
      <trkpt lat="39.47929834" lon="-0.37201933">
        <ele>1.0</ele>
        <time>2022-05-31T08:45:07+02:00</time>
      </trkpt>
      <trkpt lat="39.479348339999994" lon="-0.37206766">
        <ele>1.0</ele>
        <time>2022-05-31T08:45:08+02:00</time>
      </trkpt>
      <trkpt lat="39.47944667" lon="-0.37212833000000006">
        <ele>1.0</ele>
        <time>2022-05-31T08:45:10+02:00</time>
      </trkpt>
      <trkpt lat="39.47949667000001" lon="-0.37216966">
        <ele>1.0</ele>
        <time>2022-05-31T08:45:11+02:00</time>
      </trkpt>
      <trkpt lat="39.479595" lon="-0.37223866">
        <ele>1.0</ele>
        <time>2022-05-31T08:45:12+02:00</time>
      </trkpt>
      <trkpt lat="39.479634999999995" lon="-0.3722756600000001">
        <ele>1.0</ele>
        <time>2022-05-31T08:45:13+02:00</time>
      </trkpt>
      <trkpt lat="39.47967167" lon="-0.37232">
        <ele>1.0</ele>
        <time>2022-05-31T08:45:14+02:00</time>
      </trkpt>
      <trkpt lat="39.47973834" lon="-0.37246666000000006">
        <ele>1.0</ele>
        <time>2022-05-31T08:45:16+02:00</time>
      </trkpt>
      <trkpt lat="39.47976834" lon="-0.37252166000000003">
        <ele>1.0</ele>
        <time>2022-05-31T08:45:17+02:00</time>
      </trkpt>
      <trkpt lat="39.47980967" lon="-0.37260166000000006">
        <ele>1.0</ele>
        <time>2022-05-31T08:45:18+02:00</time>
      </trkpt>
      <trkpt lat="39.479844" lon="-0.37266833">
        <ele>1.0</ele>
        <time>2022-05-31T08:45:19+02:00</time>
      </trkpt>
      <trkpt lat="39.47987767" lon="-0.3727333299999999">
        <ele>1.0</ele>
        <time>2022-05-31T08:45:20+02:00</time>
      </trkpt>
      <trkpt lat="39.47990467000001" lon="-0.3727849999999999">
        <ele>1.0</ele>
        <time>2022-05-31T08:45:21+02:00</time>
      </trkpt>
      <trkpt lat="39.47994567" lon="-0.3728683299999999">
        <ele>1.0</ele>
        <time>2022-05-31T08:45:22+02:00</time>
      </trkpt>
      <trkpt lat="39.47997733999999" lon="-0.37293833">
        <ele>1.0</ele>
        <time>2022-05-31T08:45:23+02:00</time>
      </trkpt>
      <trkpt lat="39.48000667" lon="-0.373005">
        <ele>2.0</ele>
        <time>2022-05-31T08:45:24+02:00</time>
      </trkpt>
      <trkpt lat="39.480031000000004" lon="-0.37305832999999994">
        <ele>2.0</ele>
        <time>2022-05-31T08:45:25+02:00</time>
      </trkpt>
      <trkpt lat="39.480061670000005" lon="-0.3731216600000001">
        <ele>2.0</ele>
        <time>2022-05-31T08:45:26+02:00</time>
      </trkpt>
      <trkpt lat="39.48010067" lon="-0.37319833">
        <ele>2.0</ele>
        <time>2022-05-31T08:45:27+02:00</time>
      </trkpt>
      <trkpt lat="39.480129670000004" lon="-0.37325333">
        <ele>2.0</ele>
        <time>2022-05-31T08:45:28+02:00</time>
      </trkpt>
      <trkpt lat="39.480171" lon="-0.37333166000000007">
        <ele>2.0</ele>
        <time>2022-05-31T08:45:29+02:00</time>
      </trkpt>
      <trkpt lat="39.480205340000005" lon="-0.37339166000000007">
        <ele>2.0</ele>
        <time>2022-05-31T08:45:30+02:00</time>
      </trkpt>
      <trkpt lat="39.48023967" lon="-0.37345333">
        <ele>2.0</ele>
        <time>2022-05-31T08:45:31+02:00</time>
      </trkpt>
      <trkpt lat="39.48026700000001" lon="-0.37350166">
        <ele>2.0</ele>
        <time>2022-05-31T08:45:32+02:00</time>
      </trkpt>
      <trkpt lat="39.48030834" lon="-0.3735716600000001">
        <ele>2.0</ele>
        <time>2022-05-31T08:45:33+02:00</time>
      </trkpt>
      <trkpt lat="39.48037000000001" lon="-0.37360833">
        <ele>2.0</ele>
        <time>2022-05-31T08:45:34+02:00</time>
      </trkpt>
      <trkpt lat="39.480435" lon="-0.37367666">
        <ele>2.0</ele>
        <time>2022-05-31T08:45:36+02:00</time>
      </trkpt>
      <trkpt lat="39.480470000000004" lon="-0.3737316600000001">
        <ele>2.0</ele>
        <time>2022-05-31T08:45:38+02:00</time>
      </trkpt>
      <trkpt lat="39.480505" lon="-0.37377499999999997">
        <ele>2.0</ele>
        <time>2022-05-31T08:45:40+02:00</time>
      </trkpt>
      <trkpt lat="39.480538339999995" lon="-0.37382499999999996">
        <ele>2.0</ele>
        <time>2022-05-31T08:45:42+02:00</time>
      </trkpt>
      <trkpt lat="39.48058167000001" lon="-0.3739">
        <ele>2.0</ele>
        <time>2022-05-31T08:45:44+02:00</time>
      </trkpt>
      <trkpt lat="39.480611669999995" lon="-0.373945">
        <ele>2.0</ele>
        <time>2022-05-31T08:45:45+02:00</time>
      </trkpt>
      <trkpt lat="39.480670339999996" lon="-0.37404332999999995">
        <ele>2.0</ele>
        <time>2022-05-31T08:45:48+02:00</time>
      </trkpt>
      <trkpt lat="39.480721" lon="-0.37412999999999996">
        <ele>2.0</ele>
        <time>2022-05-31T08:45:49+02:00</time>
      </trkpt>
      <trkpt lat="39.480752339999995" lon="-0.3741816600000001">
        <ele>2.0</ele>
        <time>2022-05-31T08:45:50+02:00</time>
      </trkpt>
      <trkpt lat="39.48080567" lon="-0.37427332999999996">
        <ele>2.0</ele>
        <time>2022-05-31T08:45:52+02:00</time>
      </trkpt>
      <trkpt lat="39.480844" lon="-0.374335">
        <ele>2.0</ele>
        <time>2022-05-31T08:45:54+02:00</time>
      </trkpt>
      <trkpt lat="39.480879" lon="-0.37439332999999997">
        <ele>1.0</ele>
        <time>2022-05-31T08:45:55+02:00</time>
      </trkpt>
      <trkpt lat="39.48092333999999" lon="-0.37446166000000003">
        <ele>1.0</ele>
        <time>2022-05-31T08:45:57+02:00</time>
      </trkpt>
      <trkpt lat="39.48098167" lon="-0.37455166000000006">
        <ele>1.0</ele>
        <time>2022-05-31T08:45:59+02:00</time>
      </trkpt>
      <trkpt lat="39.48103567" lon="-0.3746316600000001">
        <ele>0.0</ele>
        <time>2022-05-31T08:46:01+02:00</time>
      </trkpt>
      <trkpt lat="39.48108234" lon="-0.3747">
        <ele>0.0</ele>
        <time>2022-05-31T08:46:03+02:00</time>
      </trkpt>
      <trkpt lat="39.48114433999999" lon="-0.37479">
        <ele>0.0</ele>
        <time>2022-05-31T08:46:05+02:00</time>
      </trkpt>
      <trkpt lat="39.48117667" lon="-0.37483666000000004">
        <ele>0.0</ele>
        <time>2022-05-31T08:46:06+02:00</time>
      </trkpt>
      <trkpt lat="39.48122633999999" lon="-0.37491332999999993">
        <ele>0.0</ele>
        <time>2022-05-31T08:46:08+02:00</time>
      </trkpt>
      <trkpt lat="39.481299" lon="-0.37502666000000007">
        <ele>0.0</ele>
        <time>2022-05-31T08:46:10+02:00</time>
      </trkpt>
      <trkpt lat="39.481331" lon="-0.37508166000000004">
        <ele>0.0</ele>
        <time>2022-05-31T08:46:11+02:00</time>
      </trkpt>
      <trkpt lat="39.48136867" lon="-0.3751516600000001">
        <ele>0.0</ele>
        <time>2022-05-31T08:46:12+02:00</time>
      </trkpt>
      <trkpt lat="39.48135834" lon="-0.37522833000000005">
        <ele>0.0</ele>
        <time>2022-05-31T08:46:13+02:00</time>
      </trkpt>
      <trkpt lat="39.48139167000001" lon="-0.37536666">
        <ele>0.0</ele>
        <time>2022-05-31T08:46:15+02:00</time>
      </trkpt>
      <trkpt lat="39.48142" lon="-0.37549">
        <ele>0.0</ele>
        <time>2022-05-31T08:46:17+02:00</time>
      </trkpt>
      <trkpt lat="39.48143967000001" lon="-0.375555">
        <ele>0.0</ele>
        <time>2022-05-31T08:46:18+02:00</time>
      </trkpt>
      <trkpt lat="39.481468340000006" lon="-0.375625">
        <ele>1.0</ele>
        <time>2022-05-31T08:46:19+02:00</time>
      </trkpt>
      <trkpt lat="39.48151334" lon="-0.37567833">
        <ele>1.0</ele>
        <time>2022-05-31T08:46:20+02:00</time>
      </trkpt>
      <trkpt lat="39.481548339999996" lon="-0.37572666000000005">
        <ele>1.0</ele>
        <time>2022-05-31T08:46:21+02:00</time>
      </trkpt>
      <trkpt lat="39.48159967" lon="-0.37580333">
        <ele>1.0</ele>
        <time>2022-05-31T08:46:23+02:00</time>
      </trkpt>
      <trkpt lat="39.481652000000004" lon="-0.3758716600000001">
        <ele>1.0</ele>
        <time>2022-05-31T08:46:25+02:00</time>
      </trkpt>
      <trkpt lat="39.48170967" lon="-0.37595833">
        <ele>1.0</ele>
        <time>2022-05-31T08:46:27+02:00</time>
      </trkpt>
      <trkpt lat="39.48174034" lon="-0.37600332999999997">
        <ele>1.0</ele>
        <time>2022-05-31T08:46:28+02:00</time>
      </trkpt>
      <trkpt lat="39.48177467" lon="-0.37605166">
        <ele>1.0</ele>
        <time>2022-05-31T08:46:29+02:00</time>
      </trkpt>
      <trkpt lat="39.481807999999994" lon="-0.3760983299999999">
        <ele>1.0</ele>
        <time>2022-05-31T08:46:30+02:00</time>
      </trkpt>
      <trkpt lat="39.481844339999995" lon="-0.3761466600000001">
        <ele>1.0</ele>
        <time>2022-05-31T08:46:31+02:00</time>
      </trkpt>
      <trkpt lat="39.48191433999999" lon="-0.37625000000000003">
        <ele>1.0</ele>
        <time>2022-05-31T08:46:33+02:00</time>
      </trkpt>
      <trkpt lat="39.48195" lon="-0.376305">
        <ele>1.0</ele>
        <time>2022-05-31T08:46:35+02:00</time>
      </trkpt>
      <trkpt lat="39.482012999999995" lon="-0.37641166000000004">
        <ele>1.0</ele>
        <time>2022-05-31T08:46:36+02:00</time>
      </trkpt>
      <trkpt lat="39.482038" lon="-0.3764550000000001">
        <ele>1.0</ele>
        <time>2022-05-31T08:46:37+02:00</time>
      </trkpt>
      <trkpt lat="39.48206367" lon="-0.3764966600000001">
        <ele>1.0</ele>
        <time>2022-05-31T08:46:38+02:00</time>
      </trkpt>
      <trkpt lat="39.48209834" lon="-0.37654000000000004">
        <ele>1.0</ele>
        <time>2022-05-31T08:46:39+02:00</time>
      </trkpt>
      <trkpt lat="39.48213667" lon="-0.37658833">
        <ele>1.0</ele>
        <time>2022-05-31T08:46:40+02:00</time>
      </trkpt>
      <trkpt lat="39.482193339999995" lon="-0.37669166000000004">
        <ele>2.0</ele>
        <time>2022-05-31T08:46:42+02:00</time>
      </trkpt>
      <trkpt lat="39.482229999999994" lon="-0.37676666000000003">
        <ele>2.0</ele>
        <time>2022-05-31T08:46:43+02:00</time>
      </trkpt>
      <trkpt lat="39.48226367" lon="-0.37682833000000004">
        <ele>2.0</ele>
        <time>2022-05-31T08:46:44+02:00</time>
      </trkpt>
      <trkpt lat="39.482291339999996" lon="-0.37687499999999996">
        <ele>2.0</ele>
        <time>2022-05-31T08:46:45+02:00</time>
      </trkpt>
      <trkpt lat="39.48233466999999" lon="-0.376945">
        <ele>2.0</ele>
        <time>2022-05-31T08:46:46+02:00</time>
      </trkpt>
      <trkpt lat="39.48236834000001" lon="-0.37699833">
        <ele>2.0</ele>
        <time>2022-05-31T08:46:47+02:00</time>
      </trkpt>
      <trkpt lat="39.48240267" lon="-0.37705500000000003">
        <ele>2.0</ele>
        <time>2022-05-31T08:46:48+02:00</time>
      </trkpt>
      <trkpt lat="39.482472" lon="-0.3771816600000001">
        <ele>2.0</ele>
        <time>2022-05-31T08:46:50+02:00</time>
      </trkpt>
      <trkpt lat="39.482499" lon="-0.37724">
        <ele>2.0</ele>
        <time>2022-05-31T08:46:51+02:00</time>
      </trkpt>
      <trkpt lat="39.48253167" lon="-0.37731000000000003">
        <ele>2.0</ele>
        <time>2022-05-31T08:46:52+02:00</time>
      </trkpt>
      <trkpt lat="39.482561340000004" lon="-0.37738166000000006">
        <ele>2.0</ele>
        <time>2022-05-31T08:46:53+02:00</time>
      </trkpt>
      <trkpt lat="39.482591" lon="-0.37745500000000004">
        <ele>2.0</ele>
        <time>2022-05-31T08:46:54+02:00</time>
      </trkpt>
      <trkpt lat="39.48259334" lon="-0.3776216600000001">
        <ele>2.0</ele>
        <time>2022-05-31T08:46:56+02:00</time>
      </trkpt>
      <trkpt lat="39.48260133999999" lon="-0.3777">
        <ele>2.0</ele>
        <time>2022-05-31T08:46:57+02:00</time>
      </trkpt>
      <trkpt lat="39.482607" lon="-0.37778000000000006">
        <ele>2.0</ele>
        <time>2022-05-31T08:46:58+02:00</time>
      </trkpt>
      <trkpt lat="39.48261334" lon="-0.37785832999999996">
        <ele>2.0</ele>
        <time>2022-05-31T08:46:59+02:00</time>
      </trkpt>
      <trkpt lat="39.48261834" lon="-0.37793833">
        <ele>2.0</ele>
        <time>2022-05-31T08:47:00+02:00</time>
      </trkpt>
      <trkpt lat="39.482624339999994" lon="-0.37801833">
        <ele>2.0</ele>
        <time>2022-05-31T08:47:01+02:00</time>
      </trkpt>
      <trkpt lat="39.482632" lon="-0.37810166">
        <ele>2.0</ele>
        <time>2022-05-31T08:47:02+02:00</time>
      </trkpt>
      <trkpt lat="39.48263834" lon="-0.37818166000000003">
        <ele>2.0</ele>
        <time>2022-05-31T08:47:03+02:00</time>
      </trkpt>
      <trkpt lat="39.482643339999996" lon="-0.378245">
        <ele>2.0</ele>
        <time>2022-05-31T08:47:04+02:00</time>
      </trkpt>
      <trkpt lat="39.482650670000005" lon="-0.37833832999999994">
        <ele>2.0</ele>
        <time>2022-05-31T08:47:05+02:00</time>
      </trkpt>
      <trkpt lat="39.482656670000004" lon="-0.37841666">
        <ele>2.0</ele>
        <time>2022-05-31T08:47:06+02:00</time>
      </trkpt>
      <trkpt lat="39.48266199999999" lon="-0.37848">
        <ele>2.0</ele>
        <time>2022-05-31T08:47:07+02:00</time>
      </trkpt>
      <trkpt lat="39.482669339999994" lon="-0.37857332999999993">
        <ele>2.0</ele>
        <time>2022-05-31T08:47:08+02:00</time>
      </trkpt>
      <trkpt lat="39.482675670000006" lon="-0.37864999999999993">
        <ele>2.0</ele>
        <time>2022-05-31T08:47:09+02:00</time>
      </trkpt>
      <trkpt lat="39.482680339999995" lon="-0.37871166">
        <ele>2.0</ele>
        <time>2022-05-31T08:47:10+02:00</time>
      </trkpt>
      <trkpt lat="39.482688" lon="-0.37880499999999995">
        <ele>2.0</ele>
        <time>2022-05-31T08:47:11+02:00</time>
      </trkpt>
      <trkpt lat="39.482694" lon="-0.37888666">
        <ele>2.0</ele>
        <time>2022-05-31T08:47:12+02:00</time>
      </trkpt>
      <trkpt lat="39.482699000000004" lon="-0.37895166">
        <ele>2.0</ele>
        <time>2022-05-31T08:47:13+02:00</time>
      </trkpt>
      <trkpt lat="39.482702" lon="-0.3790300000000001">
        <ele>2.0</ele>
        <time>2022-05-31T08:47:14+02:00</time>
      </trkpt>
      <trkpt lat="39.48270867" lon="-0.37912833">
        <ele>2.0</ele>
        <time>2022-05-31T08:47:15+02:00</time>
      </trkpt>
      <trkpt lat="39.482711339999994" lon="-0.37921332999999996">
        <ele>2.0</ele>
        <time>2022-05-31T08:47:16+02:00</time>
      </trkpt>
      <trkpt lat="39.48271667000001" lon="-0.37929333">
        <ele>2.0</ele>
        <time>2022-05-31T08:47:17+02:00</time>
      </trkpt>
      <trkpt lat="39.482717339999994" lon="-0.37935832999999997">
        <ele>2.0</ele>
        <time>2022-05-31T08:47:18+02:00</time>
      </trkpt>
      <trkpt lat="39.482722339999995" lon="-0.37943666">
        <ele>2.0</ele>
        <time>2022-05-31T08:47:19+02:00</time>
      </trkpt>
      <trkpt lat="39.48272734" lon="-0.37951666000000006">
        <ele>2.0</ele>
        <time>2022-05-31T08:47:20+02:00</time>
      </trkpt>
      <trkpt lat="39.48273834" lon="-0.37968833">
        <ele>2.0</ele>
        <time>2022-05-31T08:47:22+02:00</time>
      </trkpt>
      <trkpt lat="39.48273867000001" lon="-0.37976332999999995">
        <ele>2.0</ele>
        <time>2022-05-31T08:47:23+02:00</time>
      </trkpt>
      <trkpt lat="39.482743670000005" lon="-0.37984">
        <ele>2.0</ele>
        <time>2022-05-31T08:47:24+02:00</time>
      </trkpt>
      <trkpt lat="39.48274834" lon="-0.37991666">
        <ele>2.0</ele>
        <time>2022-05-31T08:47:25+02:00</time>
      </trkpt>
      <trkpt lat="39.482757" lon="-0.38005666000000005">
        <ele>2.0</ele>
        <time>2022-05-31T08:47:27+02:00</time>
      </trkpt>
      <trkpt lat="39.482755669999996" lon="-0.38012999999999997">
        <ele>2.0</ele>
        <time>2022-05-31T08:47:28+02:00</time>
      </trkpt>
      <trkpt lat="39.48273" lon="-0.380205">
        <ele>2.0</ele>
        <time>2022-05-31T08:47:29+02:00</time>
      </trkpt>
      <trkpt lat="39.482721670000004" lon="-0.38028000000000006">
        <ele>2.0</ele>
        <time>2022-05-31T08:47:30+02:00</time>
      </trkpt>
      <trkpt lat="39.48270333999999" lon="-0.38035832999999997">
        <ele>2.0</ele>
        <time>2022-05-31T08:47:31+02:00</time>
      </trkpt>
      <trkpt lat="39.48269334" lon="-0.380435">
        <ele>2.0</ele>
        <time>2022-05-31T08:47:32+02:00</time>
      </trkpt>
      <trkpt lat="39.48268567" lon="-0.38050832999999995">
        <ele>2.0</ele>
        <time>2022-05-31T08:47:33+02:00</time>
      </trkpt>
      <trkpt lat="39.48267867" lon="-0.38058333">
        <ele>2.0</ele>
        <time>2022-05-31T08:47:34+02:00</time>
      </trkpt>
      <trkpt lat="39.482670999999996" lon="-0.38065999999999994">
        <ele>2.0</ele>
        <time>2022-05-31T08:47:35+02:00</time>
      </trkpt>
      <trkpt lat="39.482665000000004" lon="-0.38072166">
        <ele>2.0</ele>
        <time>2022-05-31T08:47:36+02:00</time>
      </trkpt>
      <trkpt lat="39.482656000000006" lon="-0.38081333">
        <ele>2.0</ele>
        <time>2022-05-31T08:47:37+02:00</time>
      </trkpt>
      <trkpt lat="39.48264733999999" lon="-0.38088833">
        <ele>2.0</ele>
        <time>2022-05-31T08:47:38+02:00</time>
      </trkpt>
      <trkpt lat="39.48264067000001" lon="-0.38094666000000005">
        <ele>2.0</ele>
        <time>2022-05-31T08:47:39+02:00</time>
      </trkpt>
      <trkpt lat="39.48262834" lon="-0.38103166">
        <ele>2.0</ele>
        <time>2022-05-31T08:47:40+02:00</time>
      </trkpt>
      <trkpt lat="39.482615339999995" lon="-0.3811033300000001">
        <ele>2.0</ele>
        <time>2022-05-31T08:47:41+02:00</time>
      </trkpt>
      <trkpt lat="39.482603669999996" lon="-0.3811733299999999">
        <ele>2.0</ele>
        <time>2022-05-31T08:47:42+02:00</time>
      </trkpt>
      <trkpt lat="39.482592000000004" lon="-0.38124166000000004">
        <ele>2.0</ele>
        <time>2022-05-31T08:47:43+02:00</time>
      </trkpt>
      <trkpt lat="39.48257767" lon="-0.38131">
        <ele>2.0</ele>
        <time>2022-05-31T08:47:44+02:00</time>
      </trkpt>
      <trkpt lat="39.48256500000001" lon="-0.38137666000000003">
        <ele>2.0</ele>
        <time>2022-05-31T08:47:45+02:00</time>
      </trkpt>
      <trkpt lat="39.48255467" lon="-0.381445">
        <ele>2.0</ele>
        <time>2022-05-31T08:47:46+02:00</time>
      </trkpt>
      <trkpt lat="39.482529670000005" lon="-0.38158833000000003">
        <ele>2.0</ele>
        <time>2022-05-31T08:47:48+02:00</time>
      </trkpt>
      <trkpt lat="39.48251567000001" lon="-0.38166">
        <ele>2.0</ele>
        <time>2022-05-31T08:47:49+02:00</time>
      </trkpt>
      <trkpt lat="39.48250634" lon="-0.38171833">
        <ele>2.0</ele>
        <time>2022-05-31T08:47:50+02:00</time>
      </trkpt>
      <trkpt lat="39.482488339999996" lon="-0.3818066600000001">
        <ele>2.0</ele>
        <time>2022-05-31T08:47:51+02:00</time>
      </trkpt>
      <trkpt lat="39.482473" lon="-0.38187833">
        <ele>2.0</ele>
        <time>2022-05-31T08:47:52+02:00</time>
      </trkpt>
      <trkpt lat="39.48245834" lon="-0.38193833">
        <ele>2.0</ele>
        <time>2022-05-31T08:47:53+02:00</time>
      </trkpt>
      <trkpt lat="39.482435339999995" lon="-0.382025">
        <ele>2.0</ele>
        <time>2022-05-31T08:47:54+02:00</time>
      </trkpt>
      <trkpt lat="39.482417670000004" lon="-0.3820966600000001">
        <ele>2.0</ele>
        <time>2022-05-31T08:47:55+02:00</time>
      </trkpt>
      <trkpt lat="39.482399339999986" lon="-0.38216666000000005">
        <ele>2.0</ele>
        <time>2022-05-31T08:47:56+02:00</time>
      </trkpt>
      <trkpt lat="39.48237667" lon="-0.38223832999999996">
        <ele>2.0</ele>
        <time>2022-05-31T08:47:57+02:00</time>
      </trkpt>
      <trkpt lat="39.48235267" lon="-0.38230833">
        <ele>2.0</ele>
        <time>2022-05-31T08:47:58+02:00</time>
      </trkpt>
      <trkpt lat="39.482332" lon="-0.38238">
        <ele>2.0</ele>
        <time>2022-05-31T08:47:59+02:00</time>
      </trkpt>
      <trkpt lat="39.48230767" lon="-0.38244833">
        <ele>2.0</ele>
        <time>2022-05-31T08:48:00+02:00</time>
      </trkpt>
      <trkpt lat="39.482287670000005" lon="-0.38251">
        <ele>2.0</ele>
        <time>2022-05-31T08:48:01+02:00</time>
      </trkpt>
      <trkpt lat="39.482263339999996" lon="-0.38256999999999997">
        <ele>2.0</ele>
        <time>2022-05-31T08:48:02+02:00</time>
      </trkpt>
      <trkpt lat="39.48224367" lon="-0.38262833">
        <ele>2.0</ele>
        <time>2022-05-31T08:48:03+02:00</time>
      </trkpt>
      <trkpt lat="39.482223669999996" lon="-0.38268500000000005">
        <ele>2.0</ele>
        <time>2022-05-31T08:48:04+02:00</time>
      </trkpt>
      <trkpt lat="39.48219834" lon="-0.38274333">
        <ele>2.0</ele>
        <time>2022-05-31T08:48:05+02:00</time>
      </trkpt>
      <trkpt lat="39.48217667" lon="-0.382805">
        <ele>2.0</ele>
        <time>2022-05-31T08:48:06+02:00</time>
      </trkpt>
      <trkpt lat="39.48215534" lon="-0.38286333">
        <ele>2.0</ele>
        <time>2022-05-31T08:48:07+02:00</time>
      </trkpt>
      <trkpt lat="39.482133340000004" lon="-0.38292333">
        <ele>2.0</ele>
        <time>2022-05-31T08:48:08+02:00</time>
      </trkpt>
      <trkpt lat="39.48208267" lon="-0.38304333">
        <ele>2.0</ele>
        <time>2022-05-31T08:48:10+02:00</time>
      </trkpt>
      <trkpt lat="39.48205899999999" lon="-0.38310500000000003">
        <ele>2.0</ele>
        <time>2022-05-31T08:48:11+02:00</time>
      </trkpt>
      <trkpt lat="39.48203434" lon="-0.38316832999999995">
        <ele>2.0</ele>
        <time>2022-05-31T08:48:12+02:00</time>
      </trkpt>
      <trkpt lat="39.48199667000001" lon="-0.38327833">
        <ele>2.0</ele>
        <time>2022-05-31T08:48:14+02:00</time>
      </trkpt>
      <trkpt lat="39.48197167000001" lon="-0.38334">
        <ele>2.0</ele>
        <time>2022-05-31T08:48:15+02:00</time>
      </trkpt>
      <trkpt lat="39.481948669999994" lon="-0.38339333">
        <ele>2.0</ele>
        <time>2022-05-31T08:48:16+02:00</time>
      </trkpt>
      <trkpt lat="39.481922999999995" lon="-0.383455">
        <ele>2.0</ele>
        <time>2022-05-31T08:48:17+02:00</time>
      </trkpt>
      <trkpt lat="39.48189633999999" lon="-0.38351832999999996">
        <ele>2.0</ele>
        <time>2022-05-31T08:48:18+02:00</time>
      </trkpt>
      <trkpt lat="39.48185734" lon="-0.383625">
        <ele>2.0</ele>
        <time>2022-05-31T08:48:20+02:00</time>
      </trkpt>
      <trkpt lat="39.481806670000005" lon="-0.383755">
        <ele>2.0</ele>
        <time>2022-05-31T08:48:22+02:00</time>
      </trkpt>
      <trkpt lat="39.48177534" lon="-0.3838166600000001">
        <ele>2.0</ele>
        <time>2022-05-31T08:48:23+02:00</time>
      </trkpt>
      <trkpt lat="39.481744" lon="-0.38387833000000005">
        <ele>2.0</ele>
        <time>2022-05-31T08:48:24+02:00</time>
      </trkpt>
      <trkpt lat="39.481712" lon="-0.3839416600000001">
        <ele>2.0</ele>
        <time>2022-05-31T08:48:25+02:00</time>
      </trkpt>
      <trkpt lat="39.481677000000005" lon="-0.38401166000000003">
        <ele>2.0</ele>
        <time>2022-05-31T08:48:26+02:00</time>
      </trkpt>
      <trkpt lat="39.48164233999999" lon="-0.38407832999999997">
        <ele>2.0</ele>
        <time>2022-05-31T08:48:27+02:00</time>
      </trkpt>
      <trkpt lat="39.481615000000005" lon="-0.3841416600000001">
        <ele>2.0</ele>
        <time>2022-05-31T08:48:28+02:00</time>
      </trkpt>
      <trkpt lat="39.481575670000005" lon="-0.38421999999999995">
        <ele>2.0</ele>
        <time>2022-05-31T08:48:29+02:00</time>
      </trkpt>
      <trkpt lat="39.481529339999994" lon="-0.384315">
        <ele>2.0</ele>
        <time>2022-05-31T08:48:30+02:00</time>
      </trkpt>
      <trkpt lat="39.48148967" lon="-0.38438833000000006">
        <ele>2.0</ele>
        <time>2022-05-31T08:48:31+02:00</time>
      </trkpt>
      <trkpt lat="39.48144834" lon="-0.384465">
        <ele>2.0</ele>
        <time>2022-05-31T08:48:32+02:00</time>
      </trkpt>
      <trkpt lat="39.481413" lon="-0.38454332999999996">
        <ele>2.0</ele>
        <time>2022-05-31T08:48:33+02:00</time>
      </trkpt>
      <trkpt lat="39.481370000000005" lon="-0.3846216600000001">
        <ele>2.0</ele>
        <time>2022-05-31T08:48:34+02:00</time>
      </trkpt>
      <trkpt lat="39.48129667" lon="-0.38475833000000004">
        <ele>2.0</ele>
        <time>2022-05-31T08:48:36+02:00</time>
      </trkpt>
      <trkpt lat="39.48125" lon="-0.38484333">
        <ele>2.0</ele>
        <time>2022-05-31T08:48:37+02:00</time>
      </trkpt>
      <trkpt lat="39.481215000000006" lon="-0.38491332999999994">
        <ele>2.0</ele>
        <time>2022-05-31T08:48:38+02:00</time>
      </trkpt>
      <trkpt lat="39.481173670000004" lon="-0.38498166000000006">
        <ele>2.0</ele>
        <time>2022-05-31T08:48:39+02:00</time>
      </trkpt>
      <trkpt lat="39.481138339999994" lon="-0.38505166">
        <ele>2.0</ele>
        <time>2022-05-31T08:48:40+02:00</time>
      </trkpt>
      <trkpt lat="39.481100670000004" lon="-0.38512500000000005">
        <ele>2.0</ele>
        <time>2022-05-31T08:48:41+02:00</time>
      </trkpt>
      <trkpt lat="39.48106167" lon="-0.38520166">
        <ele>2.0</ele>
        <time>2022-05-31T08:48:42+02:00</time>
      </trkpt>
      <trkpt lat="39.48102267" lon="-0.38527666000000005">
        <ele>3.0</ele>
        <time>2022-05-31T08:48:43+02:00</time>
      </trkpt>
      <trkpt lat="39.48099133999999" lon="-0.38533333000000003">
        <ele>3.0</ele>
        <time>2022-05-31T08:48:44+02:00</time>
      </trkpt>
      <trkpt lat="39.48095534" lon="-0.3854166600000001">
        <ele>3.0</ele>
        <time>2022-05-31T08:48:45+02:00</time>
      </trkpt>
      <trkpt lat="39.48091933999999" lon="-0.38548333">
        <ele>3.0</ele>
        <time>2022-05-31T08:48:46+02:00</time>
      </trkpt>
      <trkpt lat="39.48088167" lon="-0.38555333">
        <ele>3.0</ele>
        <time>2022-05-31T08:48:47+02:00</time>
      </trkpt>
      <trkpt lat="39.48085" lon="-0.385625">
        <ele>3.0</ele>
        <time>2022-05-31T08:48:48+02:00</time>
      </trkpt>
      <trkpt lat="39.480812" lon="-0.385695">
        <ele>3.0</ele>
        <time>2022-05-31T08:48:49+02:00</time>
      </trkpt>
      <trkpt lat="39.480781" lon="-0.38576499999999997">
        <ele>3.0</ele>
        <time>2022-05-31T08:48:50+02:00</time>
      </trkpt>
      <trkpt lat="39.48074367" lon="-0.38583333">
        <ele>3.0</ele>
        <time>2022-05-31T08:48:51+02:00</time>
      </trkpt>
      <trkpt lat="39.48071334" lon="-0.38590166000000004">
        <ele>3.0</ele>
        <time>2022-05-31T08:48:52+02:00</time>
      </trkpt>
      <trkpt lat="39.480673339999996" lon="-0.38597500000000007">
        <ele>3.0</ele>
        <time>2022-05-31T08:48:53+02:00</time>
      </trkpt>
      <trkpt lat="39.48064333999999" lon="-0.38604166000000006">
        <ele>3.0</ele>
        <time>2022-05-31T08:48:54+02:00</time>
      </trkpt>
      <trkpt lat="39.48061234" lon="-0.38611166">
        <ele>3.0</ele>
        <time>2022-05-31T08:48:55+02:00</time>
      </trkpt>
      <trkpt lat="39.480574669999996" lon="-0.38618">
        <ele>3.0</ele>
        <time>2022-05-31T08:48:56+02:00</time>
      </trkpt>
      <trkpt lat="39.480549" lon="-0.38623666">
        <ele>3.0</ele>
        <time>2022-05-31T08:48:57+02:00</time>
      </trkpt>
      <trkpt lat="39.480512000000004" lon="-0.38631832999999993">
        <ele>3.0</ele>
        <time>2022-05-31T08:48:58+02:00</time>
      </trkpt>
      <trkpt lat="39.480474" lon="-0.38638666">
        <ele>3.0</ele>
        <time>2022-05-31T08:48:59+02:00</time>
      </trkpt>
      <trkpt lat="39.48044367" lon="-0.38645333000000004">
        <ele>3.0</ele>
        <time>2022-05-31T08:49:00+02:00</time>
      </trkpt>
      <trkpt lat="39.480406" lon="-0.38652000000000003">
        <ele>3.0</ele>
        <time>2022-05-31T08:49:01+02:00</time>
      </trkpt>
      <trkpt lat="39.480374" lon="-0.38658833000000004">
        <ele>2.0</ele>
        <time>2022-05-31T08:49:02+02:00</time>
      </trkpt>
      <trkpt lat="39.480333" lon="-0.38666166">
        <ele>2.0</ele>
        <time>2022-05-31T08:49:03+02:00</time>
      </trkpt>
      <trkpt lat="39.480301" lon="-0.38673">
        <ele>2.0</ele>
        <time>2022-05-31T08:49:04+02:00</time>
      </trkpt>
      <trkpt lat="39.48026267" lon="-0.3867966600000001">
        <ele>2.0</ele>
        <time>2022-05-31T08:49:05+02:00</time>
      </trkpt>
      <trkpt lat="39.480230999999996" lon="-0.38685">
        <ele>2.0</ele>
        <time>2022-05-31T08:49:06+02:00</time>
      </trkpt>
      <trkpt lat="39.48019367" lon="-0.38692833000000004">
        <ele>2.0</ele>
        <time>2022-05-31T08:49:07+02:00</time>
      </trkpt>
      <trkpt lat="39.48015434" lon="-0.38699666000000005">
        <ele>2.0</ele>
        <time>2022-05-31T08:49:08+02:00</time>
      </trkpt>
      <trkpt lat="39.48012134" lon="-0.38706666000000006">
        <ele>2.0</ele>
        <time>2022-05-31T08:49:09+02:00</time>
      </trkpt>
      <trkpt lat="39.480081" lon="-0.38713833000000003">
        <ele>2.0</ele>
        <time>2022-05-31T08:49:10+02:00</time>
      </trkpt>
      <trkpt lat="39.48004534" lon="-0.38721333">
        <ele>2.0</ele>
        <time>2022-05-31T08:49:11+02:00</time>
      </trkpt>
      <trkpt lat="39.480009339999995" lon="-0.38728832999999996">
        <ele>2.0</ele>
        <time>2022-05-31T08:49:12+02:00</time>
      </trkpt>
      <trkpt lat="39.479985" lon="-0.38735333000000005">
        <ele>2.0</ele>
        <time>2022-05-31T08:49:13+02:00</time>
      </trkpt>
      <trkpt lat="39.479958339999996" lon="-0.38740832999999997">
        <ele>2.0</ele>
        <time>2022-05-31T08:49:14+02:00</time>
      </trkpt>
      <trkpt lat="39.479927" lon="-0.38747333">
        <ele>2.0</ele>
        <time>2022-05-31T08:49:15+02:00</time>
      </trkpt>
      <trkpt lat="39.47990167000001" lon="-0.38754000000000005">
        <ele>2.0</ele>
        <time>2022-05-31T08:49:16+02:00</time>
      </trkpt>
      <trkpt lat="39.479863339999994" lon="-0.38761999999999996">
        <ele>2.0</ele>
        <time>2022-05-31T08:49:17+02:00</time>
      </trkpt>
      <trkpt lat="39.47983134" lon="-0.38768666000000007">
        <ele>2.0</ele>
        <time>2022-05-31T08:49:18+02:00</time>
      </trkpt>
      <trkpt lat="39.479800999999995" lon="-0.38775">
        <ele>2.0</ele>
        <time>2022-05-31T08:49:19+02:00</time>
      </trkpt>
      <trkpt lat="39.47974133999999" lon="-0.38789">
        <ele>2.0</ele>
        <time>2022-05-31T08:49:21+02:00</time>
      </trkpt>
      <trkpt lat="39.47970734" lon="-0.3879616600000001">
        <ele>2.0</ele>
        <time>2022-05-31T08:49:22+02:00</time>
      </trkpt>
      <trkpt lat="39.47967333999999" lon="-0.38803332999999995">
        <ele>2.0</ele>
        <time>2022-05-31T08:49:23+02:00</time>
      </trkpt>
      <trkpt lat="39.479640339999996" lon="-0.38810332999999997">
        <ele>3.0</ele>
        <time>2022-05-31T08:49:24+02:00</time>
      </trkpt>
      <trkpt lat="39.479606000000004" lon="-0.38817666">
        <ele>3.0</ele>
        <time>2022-05-31T08:49:25+02:00</time>
      </trkpt>
      <trkpt lat="39.47957234" lon="-0.3882466600000001">
        <ele>3.0</ele>
        <time>2022-05-31T08:49:26+02:00</time>
      </trkpt>
      <trkpt lat="39.47950967" lon="-0.38838">
        <ele>3.0</ele>
        <time>2022-05-31T08:49:27+02:00</time>
      </trkpt>
      <trkpt lat="39.47947567" lon="-0.38845166000000003">
        <ele>3.0</ele>
        <time>2022-05-31T08:49:28+02:00</time>
      </trkpt>
      <trkpt lat="39.47944167000001" lon="-0.388525">
        <ele>3.0</ele>
        <time>2022-05-31T08:49:29+02:00</time>
      </trkpt>
      <trkpt lat="39.47942167" lon="-0.38858166000000005">
        <ele>3.0</ele>
        <time>2022-05-31T08:49:30+02:00</time>
      </trkpt>
      <trkpt lat="39.47938267" lon="-0.38866666000000005">
        <ele>3.0</ele>
        <time>2022-05-31T08:49:31+02:00</time>
      </trkpt>
      <trkpt lat="39.47935033999999" lon="-0.38873666">
        <ele>3.0</ele>
        <time>2022-05-31T08:49:32+02:00</time>
      </trkpt>
      <trkpt lat="39.47932567000001" lon="-0.38880499999999996">
        <ele>3.0</ele>
        <time>2022-05-31T08:49:33+02:00</time>
      </trkpt>
      <trkpt lat="39.479293" lon="-0.38887666000000004">
        <ele>3.0</ele>
        <time>2022-05-31T08:49:34+02:00</time>
      </trkpt>
      <trkpt lat="39.479266339999995" lon="-0.38894999999999996">
        <ele>3.0</ele>
        <time>2022-05-31T08:49:35+02:00</time>
      </trkpt>
      <trkpt lat="39.47924267" lon="-0.38901832999999997">
        <ele>3.0</ele>
        <time>2022-05-31T08:49:36+02:00</time>
      </trkpt>
      <trkpt lat="39.47921267" lon="-0.38908499999999996">
        <ele>3.0</ele>
        <time>2022-05-31T08:49:37+02:00</time>
      </trkpt>
      <trkpt lat="39.47918634" lon="-0.38915999999999995">
        <ele>3.0</ele>
        <time>2022-05-31T08:49:38+02:00</time>
      </trkpt>
      <trkpt lat="39.47916767" lon="-0.38921833">
        <ele>3.0</ele>
        <time>2022-05-31T08:49:39+02:00</time>
      </trkpt>
      <trkpt lat="39.47913734" lon="-0.38930333000000006">
        <ele>3.0</ele>
        <time>2022-05-31T08:49:40+02:00</time>
      </trkpt>
      <trkpt lat="39.479111669999995" lon="-0.38937833">
        <ele>3.0</ele>
        <time>2022-05-31T08:49:41+02:00</time>
      </trkpt>
      <trkpt lat="39.47909833999999" lon="-0.38944">
        <ele>3.0</ele>
        <time>2022-05-31T08:49:42+02:00</time>
      </trkpt>
      <trkpt lat="39.47907367" lon="-0.38951333">
        <ele>3.0</ele>
        <time>2022-05-31T08:49:43+02:00</time>
      </trkpt>
      <trkpt lat="39.479043669999996" lon="-0.3896">
        <ele>3.0</ele>
        <time>2022-05-31T08:49:44+02:00</time>
      </trkpt>
      <trkpt lat="39.47900467000001" lon="-0.38974000000000003">
        <ele>3.0</ele>
        <time>2022-05-31T08:49:46+02:00</time>
      </trkpt>
      <trkpt lat="39.478983670000005" lon="-0.3898066600000001">
        <ele>3.0</ele>
        <time>2022-05-31T08:49:47+02:00</time>
      </trkpt>
      <trkpt lat="39.47896433999999" lon="-0.38987000000000005">
        <ele>3.0</ele>
        <time>2022-05-31T08:49:48+02:00</time>
      </trkpt>
      <trkpt lat="39.47894600000001" lon="-0.38993">
        <ele>3.0</ele>
        <time>2022-05-31T08:49:49+02:00</time>
      </trkpt>
      <trkpt lat="39.478928339999996" lon="-0.38998833000000005">
        <ele>3.0</ele>
        <time>2022-05-31T08:49:50+02:00</time>
      </trkpt>
      <trkpt lat="39.47890334" lon="-0.39004833">
        <ele>3.0</ele>
        <time>2022-05-31T08:49:51+02:00</time>
      </trkpt>
      <trkpt lat="39.478886339999995" lon="-0.39010500000000004">
        <ele>3.0</ele>
        <time>2022-05-31T08:49:52+02:00</time>
      </trkpt>
      <trkpt lat="39.47886" lon="-0.39016832999999995">
        <ele>3.0</ele>
        <time>2022-05-31T08:49:53+02:00</time>
      </trkpt>
      <trkpt lat="39.478835" lon="-0.39022833000000007">
        <ele>3.0</ele>
        <time>2022-05-31T08:49:54+02:00</time>
      </trkpt>
      <trkpt lat="39.478805339999994" lon="-0.3903">
        <ele>3.0</ele>
        <time>2022-05-31T08:49:55+02:00</time>
      </trkpt>
      <trkpt lat="39.47877667000001" lon="-0.39037">
        <ele>3.0</ele>
        <time>2022-05-31T08:49:56+02:00</time>
      </trkpt>
      <trkpt lat="39.47874767" lon="-0.39044">
        <ele>3.0</ele>
        <time>2022-05-31T08:49:57+02:00</time>
      </trkpt>
      <trkpt lat="39.47872033999999" lon="-0.39050666000000006">
        <ele>3.0</ele>
        <time>2022-05-31T08:49:58+02:00</time>
      </trkpt>
      <trkpt lat="39.478693" lon="-0.3905716600000001">
        <ele>3.0</ele>
        <time>2022-05-31T08:49:59+02:00</time>
      </trkpt>
      <trkpt lat="39.478666000000004" lon="-0.39063665999999997">
        <ele>3.0</ele>
        <time>2022-05-31T08:50:00+02:00</time>
      </trkpt>
      <trkpt lat="39.478638669999995" lon="-0.39070166000000006">
        <ele>3.0</ele>
        <time>2022-05-31T08:50:01+02:00</time>
      </trkpt>
      <trkpt lat="39.478607999999994" lon="-0.3907766600000001">
        <ele>3.0</ele>
        <time>2022-05-31T08:50:02+02:00</time>
      </trkpt>
      <trkpt lat="39.47857967" lon="-0.390845">
        <ele>3.0</ele>
        <time>2022-05-31T08:50:03+02:00</time>
      </trkpt>
      <trkpt lat="39.478558340000006" lon="-0.39091332999999995">
        <ele>3.0</ele>
        <time>2022-05-31T08:50:04+02:00</time>
      </trkpt>
      <trkpt lat="39.47853034" lon="-0.39098166000000006">
        <ele>3.0</ele>
        <time>2022-05-31T08:50:05+02:00</time>
      </trkpt>
      <trkpt lat="39.47847633999999" lon="-0.391115">
        <ele>3.0</ele>
        <time>2022-05-31T08:50:07+02:00</time>
      </trkpt>
      <trkpt lat="39.47843234" lon="-0.39122666">
        <ele>3.0</ele>
        <time>2022-05-31T08:50:09+02:00</time>
      </trkpt>
      <trkpt lat="39.47839700000001" lon="-0.3913166600000001">
        <ele>3.0</ele>
        <time>2022-05-31T08:50:10+02:00</time>
      </trkpt>
      <trkpt lat="39.47837367" lon="-0.391395">
        <ele>3.0</ele>
        <time>2022-05-31T08:50:11+02:00</time>
      </trkpt>
      <trkpt lat="39.47834234" lon="-0.39147666000000003">
        <ele>3.0</ele>
        <time>2022-05-31T08:50:12+02:00</time>
      </trkpt>
      <trkpt lat="39.478319670000005" lon="-0.39155500000000004">
        <ele>3.0</ele>
        <time>2022-05-31T08:50:13+02:00</time>
      </trkpt>
      <trkpt lat="39.47829267" lon="-0.39162832999999997">
        <ele>3.0</ele>
        <time>2022-05-31T08:50:14+02:00</time>
      </trkpt>
      <trkpt lat="39.47827133999999" lon="-0.39170666000000004">
        <ele>3.0</ele>
        <time>2022-05-31T08:50:15+02:00</time>
      </trkpt>
      <trkpt lat="39.47824899999999" lon="-0.39177">
        <ele>3.0</ele>
        <time>2022-05-31T08:50:16+02:00</time>
      </trkpt>
      <trkpt lat="39.478224" lon="-0.39186">
        <ele>3.0</ele>
        <time>2022-05-31T08:50:17+02:00</time>
      </trkpt>
      <trkpt lat="39.47820567" lon="-0.39193332999999997">
        <ele>3.0</ele>
        <time>2022-05-31T08:50:18+02:00</time>
      </trkpt>
      <trkpt lat="39.47818099999999" lon="-0.39200666000000006">
        <ele>3.0</ele>
        <time>2022-05-31T08:50:19+02:00</time>
      </trkpt>
      <trkpt lat="39.47816234" lon="-0.39208332999999995">
        <ele>3.0</ele>
        <time>2022-05-31T08:50:20+02:00</time>
      </trkpt>
      <trkpt lat="39.478152339999994" lon="-0.3921550000000001">
        <ele>3.0</ele>
        <time>2022-05-31T08:50:21+02:00</time>
      </trkpt>
      <trkpt lat="39.478134999999995" lon="-0.39222999999999997">
        <ele>3.0</ele>
        <time>2022-05-31T08:50:22+02:00</time>
      </trkpt>
      <trkpt lat="39.47811800000001" lon="-0.392305">
        <ele>3.0</ele>
        <time>2022-05-31T08:50:23+02:00</time>
      </trkpt>
      <trkpt lat="39.478109669999995" lon="-0.39237666000000004">
        <ele>3.0</ele>
        <time>2022-05-31T08:50:24+02:00</time>
      </trkpt>
      <trkpt lat="39.47809334" lon="-0.39244999999999997">
        <ele>3.0</ele>
        <time>2022-05-31T08:50:25+02:00</time>
      </trkpt>
      <trkpt lat="39.478181670000005" lon="-0.39252333">
        <ele>3.0</ele>
        <time>2022-05-31T08:50:26+02:00</time>
      </trkpt>
      <trkpt lat="39.47815167" lon="-0.3925949999999999">
        <ele>3.0</ele>
        <time>2022-05-31T08:50:27+02:00</time>
      </trkpt>
      <trkpt lat="39.478113670000006" lon="-0.39267833">
        <ele>3.0</ele>
        <time>2022-05-31T08:50:28+02:00</time>
      </trkpt>
      <trkpt lat="39.478086" lon="-0.39273666000000007">
        <ele>3.0</ele>
        <time>2022-05-31T08:50:29+02:00</time>
      </trkpt>
      <trkpt lat="39.47805133999999" lon="-0.39281">
        <ele>3.0</ele>
        <time>2022-05-31T08:50:30+02:00</time>
      </trkpt>
      <trkpt lat="39.47801667" lon="-0.39288166">
        <ele>3.0</ele>
        <time>2022-05-31T08:50:31+02:00</time>
      </trkpt>
      <trkpt lat="39.47795133999999" lon="-0.39302499999999996">
        <ele>3.0</ele>
        <time>2022-05-31T08:50:33+02:00</time>
      </trkpt>
      <trkpt lat="39.477917000000005" lon="-0.39309666000000004">
        <ele>3.0</ele>
        <time>2022-05-31T08:50:34+02:00</time>
      </trkpt>
      <trkpt lat="39.47788334" lon="-0.39316832999999995">
        <ele>3.0</ele>
        <time>2022-05-31T08:50:35+02:00</time>
      </trkpt>
      <trkpt lat="39.47784933999999" lon="-0.39323666">
        <ele>3.0</ele>
        <time>2022-05-31T08:50:36+02:00</time>
      </trkpt>
      <trkpt lat="39.477815670000005" lon="-0.39330833">
        <ele>3.0</ele>
        <time>2022-05-31T08:50:37+02:00</time>
      </trkpt>
      <trkpt lat="39.47778100000001" lon="-0.39337833000000005">
        <ele>3.0</ele>
        <time>2022-05-31T08:50:38+02:00</time>
      </trkpt>
      <trkpt lat="39.47774767" lon="-0.39344833">
        <ele>3.0</ele>
        <time>2022-05-31T08:50:39+02:00</time>
      </trkpt>
      <trkpt lat="39.47771467" lon="-0.39351832999999997">
        <ele>3.0</ele>
        <time>2022-05-31T08:50:40+02:00</time>
      </trkpt>
      <trkpt lat="39.47767967" lon="-0.39359166">
        <ele>3.0</ele>
        <time>2022-05-31T08:50:41+02:00</time>
      </trkpt>
      <trkpt lat="39.477645339999995" lon="-0.39366500000000004">
        <ele>3.0</ele>
        <time>2022-05-31T08:50:42+02:00</time>
      </trkpt>
      <trkpt lat="39.477612" lon="-0.393735">
        <ele>3.0</ele>
        <time>2022-05-31T08:50:43+02:00</time>
      </trkpt>
      <trkpt lat="39.477577339999996" lon="-0.39380833">
        <ele>3.0</ele>
        <time>2022-05-31T08:50:44+02:00</time>
      </trkpt>
      <trkpt lat="39.477542670000005" lon="-0.39388166">
        <ele>3.0</ele>
        <time>2022-05-31T08:50:45+02:00</time>
      </trkpt>
      <trkpt lat="39.477511" lon="-0.39395500000000006">
        <ele>3.0</ele>
        <time>2022-05-31T08:50:46+02:00</time>
      </trkpt>
      <trkpt lat="39.47747767" lon="-0.39402666000000003">
        <ele>3.0</ele>
        <time>2022-05-31T08:50:47+02:00</time>
      </trkpt>
      <trkpt lat="39.477445" lon="-0.39409666000000004">
        <ele>3.0</ele>
        <time>2022-05-31T08:50:48+02:00</time>
      </trkpt>
      <trkpt lat="39.477413" lon="-0.394165">
        <ele>3.0</ele>
        <time>2022-05-31T08:50:49+02:00</time>
      </trkpt>
      <trkpt lat="39.477383999999994" lon="-0.394235">
        <ele>3.0</ele>
        <time>2022-05-31T08:50:50+02:00</time>
      </trkpt>
      <trkpt lat="39.47735333999999" lon="-0.39430166">
        <ele>3.0</ele>
        <time>2022-05-31T08:50:51+02:00</time>
      </trkpt>
      <trkpt lat="39.47732367" lon="-0.39436666000000004">
        <ele>3.0</ele>
        <time>2022-05-31T08:50:52+02:00</time>
      </trkpt>
      <trkpt lat="39.47724067" lon="-0.39455666000000006">
        <ele>3.0</ele>
        <time>2022-05-31T08:50:55+02:00</time>
      </trkpt>
      <trkpt lat="39.47722133999999" lon="-0.39460832999999995">
        <ele>3.0</ele>
        <time>2022-05-31T08:50:56+02:00</time>
      </trkpt>
      <trkpt lat="39.477191000000005" lon="-0.394675">
        <ele>3.0</ele>
        <time>2022-05-31T08:50:57+02:00</time>
      </trkpt>
      <trkpt lat="39.477154" lon="-0.39475666000000004">
        <ele>3.0</ele>
        <time>2022-05-31T08:50:58+02:00</time>
      </trkpt>
      <trkpt lat="39.47712399999999" lon="-0.39482333">
        <ele>3.0</ele>
        <time>2022-05-31T08:50:59+02:00</time>
      </trkpt>
      <trkpt lat="39.47709834" lon="-0.39488999999999996">
        <ele>3.0</ele>
        <time>2022-05-31T08:51:00+02:00</time>
      </trkpt>
      <trkpt lat="39.477068339999995" lon="-0.39495666000000007">
        <ele>3.0</ele>
        <time>2022-05-31T08:51:01+02:00</time>
      </trkpt>
      <trkpt lat="39.477037339999995" lon="-0.39502499999999996">
        <ele>3.0</ele>
        <time>2022-05-31T08:51:02+02:00</time>
      </trkpt>
      <trkpt lat="39.47700733999999" lon="-0.39509166000000007">
        <ele>3.0</ele>
        <time>2022-05-31T08:51:03+02:00</time>
      </trkpt>
      <trkpt lat="39.476977" lon="-0.39515833">
        <ele>3.0</ele>
        <time>2022-05-31T08:51:04+02:00</time>
      </trkpt>
      <trkpt lat="39.476946000000005" lon="-0.39522666">
        <ele>3.0</ele>
        <time>2022-05-31T08:51:05+02:00</time>
      </trkpt>
      <trkpt lat="39.476916339999995" lon="-0.39529332999999994">
        <ele>3.0</ele>
        <time>2022-05-31T08:51:06+02:00</time>
      </trkpt>
      <trkpt lat="39.476891339999995" lon="-0.39534832999999997">
        <ele>3.0</ele>
        <time>2022-05-31T08:51:07+02:00</time>
      </trkpt>
      <trkpt lat="39.47685533999999" lon="-0.39542833">
        <ele>3.0</ele>
        <time>2022-05-31T08:51:08+02:00</time>
      </trkpt>
      <trkpt lat="39.47682467" lon="-0.39549500000000004">
        <ele>3.0</ele>
        <time>2022-05-31T08:51:09+02:00</time>
      </trkpt>
      <trkpt lat="39.47679534" lon="-0.39555999999999997">
        <ele>3.0</ele>
        <time>2022-05-31T08:51:10+02:00</time>
      </trkpt>
      <trkpt lat="39.47676267000001" lon="-0.3956316600000001">
        <ele>3.0</ele>
        <time>2022-05-31T08:51:11+02:00</time>
      </trkpt>
      <trkpt lat="39.476729999999996" lon="-0.39570333">
        <ele>3.0</ele>
        <time>2022-05-31T08:51:12+02:00</time>
      </trkpt>
      <trkpt lat="39.47670299999999" lon="-0.39576332999999997">
        <ele>3.0</ele>
        <time>2022-05-31T08:51:13+02:00</time>
      </trkpt>
      <trkpt lat="39.47666367000001" lon="-0.39585">
        <ele>3.0</ele>
        <time>2022-05-31T08:51:14+02:00</time>
      </trkpt>
      <trkpt lat="39.47663034" lon="-0.39592332999999996">
        <ele>3.0</ele>
        <time>2022-05-31T08:51:15+02:00</time>
      </trkpt>
      <trkpt lat="39.476597670000004" lon="-0.395995">
        <ele>3.0</ele>
        <time>2022-05-31T08:51:16+02:00</time>
      </trkpt>
      <trkpt lat="39.47656567" lon="-0.396065">
        <ele>3.0</ele>
        <time>2022-05-31T08:51:17+02:00</time>
      </trkpt>
      <trkpt lat="39.47650967" lon="-0.39618666">
        <ele>3.0</ele>
        <time>2022-05-31T08:51:19+02:00</time>
      </trkpt>
      <trkpt lat="39.476457669999995" lon="-0.39630166000000006">
        <ele>3.0</ele>
        <time>2022-05-31T08:51:21+02:00</time>
      </trkpt>
      <trkpt lat="39.476436" lon="-0.39636333">
        <ele>3.0</ele>
        <time>2022-05-31T08:51:22+02:00</time>
      </trkpt>
      <trkpt lat="39.47641066999999" lon="-0.39641833">
        <ele>3.0</ele>
        <time>2022-05-31T08:51:23+02:00</time>
      </trkpt>
      <trkpt lat="39.476384339999996" lon="-0.39647666">
        <ele>3.0</ele>
        <time>2022-05-31T08:51:24+02:00</time>
      </trkpt>
      <trkpt lat="39.47633967" lon="-0.396575">
        <ele>3.0</ele>
        <time>2022-05-31T08:51:26+02:00</time>
      </trkpt>
      <trkpt lat="39.47630667" lon="-0.39664833">
        <ele>3.0</ele>
        <time>2022-05-31T08:51:27+02:00</time>
      </trkpt>
      <trkpt lat="39.476264" lon="-0.39674332999999995">
        <ele>3.0</ele>
        <time>2022-05-31T08:51:29+02:00</time>
      </trkpt>
      <trkpt lat="39.47623567" lon="-0.3968066600000001">
        <ele>3.0</ele>
        <time>2022-05-31T08:51:30+02:00</time>
      </trkpt>
      <trkpt lat="39.47621067" lon="-0.39686333000000007">
        <ele>3.0</ele>
        <time>2022-05-31T08:51:31+02:00</time>
      </trkpt>
      <trkpt lat="39.476186670000004" lon="-0.39693166">
        <ele>3.0</ele>
        <time>2022-05-31T08:51:32+02:00</time>
      </trkpt>
      <trkpt lat="39.476153339999996" lon="-0.39700499999999994">
        <ele>3.0</ele>
        <time>2022-05-31T08:51:33+02:00</time>
      </trkpt>
      <trkpt lat="39.476122000000004" lon="-0.39707499999999996">
        <ele>3.0</ele>
        <time>2022-05-31T08:51:34+02:00</time>
      </trkpt>
      <trkpt lat="39.476093000000006" lon="-0.39714">
        <ele>3.0</ele>
        <time>2022-05-31T08:51:35+02:00</time>
      </trkpt>
      <trkpt lat="39.47606" lon="-0.39721500000000004">
        <ele>3.0</ele>
        <time>2022-05-31T08:51:36+02:00</time>
      </trkpt>
      <trkpt lat="39.47603434" lon="-0.39727333000000004">
        <ele>3.0</ele>
        <time>2022-05-31T08:51:37+02:00</time>
      </trkpt>
      <trkpt lat="39.47599867" lon="-0.397355">
        <ele>3.0</ele>
        <time>2022-05-31T08:51:38+02:00</time>
      </trkpt>
      <trkpt lat="39.475972999999996" lon="-0.39743000000000006">
        <ele>3.0</ele>
        <time>2022-05-31T08:51:39+02:00</time>
      </trkpt>
      <trkpt lat="39.475940339999994" lon="-0.39750666000000007">
        <ele>3.0</ele>
        <time>2022-05-31T08:51:40+02:00</time>
      </trkpt>
      <trkpt lat="39.475914" lon="-0.39758499999999997">
        <ele>3.0</ele>
        <time>2022-05-31T08:51:41+02:00</time>
      </trkpt>
      <trkpt lat="39.47585967" lon="-0.39773166000000004">
        <ele>3.0</ele>
        <time>2022-05-31T08:51:43+02:00</time>
      </trkpt>
      <trkpt lat="39.475843" lon="-0.3978066600000001">
        <ele>3.0</ele>
        <time>2022-05-31T08:51:44+02:00</time>
      </trkpt>
      <trkpt lat="39.475809670000004" lon="-0.397905">
        <ele>3.0</ele>
        <time>2022-05-31T08:51:45+02:00</time>
      </trkpt>
      <trkpt lat="39.47579033999999" lon="-0.39797166000000006">
        <ele>4.0</ele>
        <time>2022-05-31T08:51:46+02:00</time>
      </trkpt>
      <trkpt lat="39.47576867000001" lon="-0.39806166000000004">
        <ele>4.0</ele>
        <time>2022-05-31T08:51:47+02:00</time>
      </trkpt>
      <trkpt lat="39.475746" lon="-0.39813833">
        <ele>4.0</ele>
        <time>2022-05-31T08:51:48+02:00</time>
      </trkpt>
      <trkpt lat="39.47572999999999" lon="-0.39821833">
        <ele>4.0</ele>
        <time>2022-05-31T08:51:49+02:00</time>
      </trkpt>
      <trkpt lat="39.475713999999996" lon="-0.3982983299999999">
        <ele>4.0</ele>
        <time>2022-05-31T08:51:50+02:00</time>
      </trkpt>
      <trkpt lat="39.475699670000004" lon="-0.39837666">
        <ele>4.0</ele>
        <time>2022-05-31T08:51:51+02:00</time>
      </trkpt>
      <trkpt lat="39.475684339999994" lon="-0.3984599999999999">
        <ele>4.0</ele>
        <time>2022-05-31T08:51:52+02:00</time>
      </trkpt>
      <trkpt lat="39.475674670000004" lon="-0.39852666000000003">
        <ele>4.0</ele>
        <time>2022-05-31T08:51:53+02:00</time>
      </trkpt>
      <trkpt lat="39.47565433999999" lon="-0.39862499999999995">
        <ele>4.0</ele>
        <time>2022-05-31T08:51:54+02:00</time>
      </trkpt>
      <trkpt lat="39.47563967000001" lon="-0.39870999999999995">
        <ele>4.0</ele>
        <time>2022-05-31T08:51:55+02:00</time>
      </trkpt>
      <trkpt lat="39.47562667000001" lon="-0.39879166000000005">
        <ele>4.0</ele>
        <time>2022-05-31T08:51:56+02:00</time>
      </trkpt>
      <trkpt lat="39.475613339999995" lon="-0.39887500000000004">
        <ele>5.0</ele>
        <time>2022-05-31T08:51:57+02:00</time>
      </trkpt>
      <trkpt lat="39.475606" lon="-0.3989416600000001">
        <ele>5.0</ele>
        <time>2022-05-31T08:51:58+02:00</time>
      </trkpt>
      <trkpt lat="39.47558834" lon="-0.3990416600000001">
        <ele>5.0</ele>
        <time>2022-05-31T08:51:59+02:00</time>
      </trkpt>
      <trkpt lat="39.47557633999999" lon="-0.399125">
        <ele>5.0</ele>
        <time>2022-05-31T08:52:00+02:00</time>
      </trkpt>
      <trkpt lat="39.475565" lon="-0.39920999999999995">
        <ele>5.0</ele>
        <time>2022-05-31T08:52:01+02:00</time>
      </trkpt>
      <trkpt lat="39.475554" lon="-0.39929499999999996">
        <ele>5.0</ele>
        <time>2022-05-31T08:52:02+02:00</time>
      </trkpt>
      <trkpt lat="39.475543339999994" lon="-0.39938">
        <ele>5.0</ele>
        <time>2022-05-31T08:52:03+02:00</time>
      </trkpt>
      <trkpt lat="39.47552534" lon="-0.3995466600000001">
        <ele>5.0</ele>
        <time>2022-05-31T08:52:05+02:00</time>
      </trkpt>
      <trkpt lat="39.47551334" lon="-0.39961333000000004">
        <ele>5.0</ele>
        <time>2022-05-31T08:52:06+02:00</time>
      </trkpt>
      <trkpt lat="39.475501" lon="-0.39971166">
        <ele>5.0</ele>
        <time>2022-05-31T08:52:07+02:00</time>
      </trkpt>
      <trkpt lat="39.475493670000006" lon="-0.39979332999999995">
        <ele>5.0</ele>
        <time>2022-05-31T08:52:08+02:00</time>
      </trkpt>
      <trkpt lat="39.47547967" lon="-0.39987333">
        <ele>5.0</ele>
        <time>2022-05-31T08:52:09+02:00</time>
      </trkpt>
      <trkpt lat="39.475473" lon="-0.39995500000000006">
        <ele>5.0</ele>
        <time>2022-05-31T08:52:10+02:00</time>
      </trkpt>
      <trkpt lat="39.475463000000005" lon="-0.40001999999999993">
        <ele>5.0</ele>
        <time>2022-05-31T08:52:11+02:00</time>
      </trkpt>
      <trkpt lat="39.47545434" lon="-0.400115">
        <ele>5.0</ele>
        <time>2022-05-31T08:52:12+02:00</time>
      </trkpt>
      <trkpt lat="39.47544634" lon="-0.40017499999999995">
        <ele>5.0</ele>
        <time>2022-05-31T08:52:13+02:00</time>
      </trkpt>
      <trkpt lat="39.475432" lon="-0.400265">
        <ele>5.0</ele>
        <time>2022-05-31T08:52:14+02:00</time>
      </trkpt>
      <trkpt lat="39.47542133999999" lon="-0.4003400000000001">
        <ele>5.0</ele>
        <time>2022-05-31T08:52:15+02:00</time>
      </trkpt>
      <trkpt lat="39.47541167000001" lon="-0.40041166000000006">
        <ele>5.0</ele>
        <time>2022-05-31T08:52:16+02:00</time>
      </trkpt>
      <trkpt lat="39.47540134" lon="-0.40048666000000005">
        <ele>5.0</ele>
        <time>2022-05-31T08:52:17+02:00</time>
      </trkpt>
      <trkpt lat="39.47539167000001" lon="-0.4005599999999999">
        <ele>5.0</ele>
        <time>2022-05-31T08:52:18+02:00</time>
      </trkpt>
      <trkpt lat="39.47538433999999" lon="-0.40062333">
        <ele>5.0</ele>
        <time>2022-05-31T08:52:19+02:00</time>
      </trkpt>
      <trkpt lat="39.47536734" lon="-0.40069999999999995">
        <ele>5.0</ele>
        <time>2022-05-31T08:52:20+02:00</time>
      </trkpt>
      <trkpt lat="39.475355670000006" lon="-0.40078832999999997">
        <ele>5.0</ele>
        <time>2022-05-31T08:52:21+02:00</time>
      </trkpt>
      <trkpt lat="39.475348" lon="-0.40085999999999994">
        <ele>5.0</ele>
        <time>2022-05-31T08:52:22+02:00</time>
      </trkpt>
      <trkpt lat="39.47533399999999" lon="-0.40092666">
        <ele>5.0</ele>
        <time>2022-05-31T08:52:23+02:00</time>
      </trkpt>
      <trkpt lat="39.47532167000001" lon="-0.40098500000000004">
        <ele>5.0</ele>
        <time>2022-05-31T08:52:24+02:00</time>
      </trkpt>
      <trkpt lat="39.475307" lon="-0.40105832999999996">
        <ele>5.0</ele>
        <time>2022-05-31T08:52:25+02:00</time>
      </trkpt>
      <trkpt lat="39.475289339999996" lon="-0.40114666000000004">
        <ele>5.0</ele>
        <time>2022-05-31T08:52:26+02:00</time>
      </trkpt>
      <trkpt lat="39.475283669999996" lon="-0.401215">
        <ele>5.0</ele>
        <time>2022-05-31T08:52:27+02:00</time>
      </trkpt>
      <trkpt lat="39.475270339999994" lon="-0.40128332999999994">
        <ele>5.0</ele>
        <time>2022-05-31T08:52:28+02:00</time>
      </trkpt>
      <trkpt lat="39.47525734" lon="-0.40135000000000004">
        <ele>5.0</ele>
        <time>2022-05-31T08:52:29+02:00</time>
      </trkpt>
      <trkpt lat="39.47523399999999" lon="-0.40147166000000006">
        <ele>5.0</ele>
        <time>2022-05-31T08:52:31+02:00</time>
      </trkpt>
      <trkpt lat="39.475213339999996" lon="-0.40153833">
        <ele>5.0</ele>
        <time>2022-05-31T08:52:32+02:00</time>
      </trkpt>
      <trkpt lat="39.47519967" lon="-0.40160833">
        <ele>5.0</ele>
        <time>2022-05-31T08:52:33+02:00</time>
      </trkpt>
      <trkpt lat="39.47518667000001" lon="-0.40167333000000005">
        <ele>5.0</ele>
        <time>2022-05-31T08:52:34+02:00</time>
      </trkpt>
      <trkpt lat="39.47517333999999" lon="-0.40174166">
        <ele>5.0</ele>
        <time>2022-05-31T08:52:35+02:00</time>
      </trkpt>
      <trkpt lat="39.475159670000004" lon="-0.40180999999999994">
        <ele>5.0</ele>
        <time>2022-05-31T08:52:36+02:00</time>
      </trkpt>
      <trkpt lat="39.475141" lon="-0.40186832999999994">
        <ele>5.0</ele>
        <time>2022-05-31T08:52:37+02:00</time>
      </trkpt>
      <trkpt lat="39.475123999999994" lon="-0.40195333">
        <ele>5.0</ele>
        <time>2022-05-31T08:52:38+02:00</time>
      </trkpt>
      <trkpt lat="39.47510834" lon="-0.40202833">
        <ele>5.0</ele>
        <time>2022-05-31T08:52:39+02:00</time>
      </trkpt>
      <trkpt lat="39.47509334" lon="-0.40210166">
        <ele>5.0</ele>
        <time>2022-05-31T08:52:40+02:00</time>
      </trkpt>
      <trkpt lat="39.47507734" lon="-0.4021800000000001">
        <ele>5.0</ele>
        <time>2022-05-31T08:52:41+02:00</time>
      </trkpt>
      <trkpt lat="39.47505334" lon="-0.40225833">
        <ele>5.0</ele>
        <time>2022-05-31T08:52:42+02:00</time>
      </trkpt>
      <trkpt lat="39.475038" lon="-0.40233333">
        <ele>5.0</ele>
        <time>2022-05-31T08:52:43+02:00</time>
      </trkpt>
      <trkpt lat="39.475022" lon="-0.40241">
        <ele>5.0</ele>
        <time>2022-05-31T08:52:44+02:00</time>
      </trkpt>
      <trkpt lat="39.47500634" lon="-0.402485">
        <ele>5.0</ele>
        <time>2022-05-31T08:52:45+02:00</time>
      </trkpt>
      <trkpt lat="39.474990670000004" lon="-0.4025583299999999">
        <ele>5.0</ele>
        <time>2022-05-31T08:52:46+02:00</time>
      </trkpt>
      <trkpt lat="39.47497533999999" lon="-0.40263166000000006">
        <ele>5.0</ele>
        <time>2022-05-31T08:52:47+02:00</time>
      </trkpt>
      <trkpt lat="39.47495567" lon="-0.40269166000000006">
        <ele>5.0</ele>
        <time>2022-05-31T08:52:48+02:00</time>
      </trkpt>
      <trkpt lat="39.474938" lon="-0.40277833">
        <ele>5.0</ele>
        <time>2022-05-31T08:52:49+02:00</time>
      </trkpt>
      <trkpt lat="39.47492367" lon="-0.40284665999999997">
        <ele>5.0</ele>
        <time>2022-05-31T08:52:50+02:00</time>
      </trkpt>
      <trkpt lat="39.47490233999999" lon="-0.4029516600000001">
        <ele>5.0</ele>
        <time>2022-05-31T08:52:52+02:00</time>
      </trkpt>
      <trkpt lat="39.474885670000006" lon="-0.40303166000000007">
        <ele>5.0</ele>
        <time>2022-05-31T08:52:55+02:00</time>
      </trkpt>
      <trkpt lat="39.474872669999996" lon="-0.403095">
        <ele>5.0</ele>
        <time>2022-05-31T08:52:56+02:00</time>
      </trkpt>
      <trkpt lat="39.47483667" lon="-0.40315832999999995">
        <ele>5.0</ele>
        <time>2022-05-31T08:52:59+02:00</time>
      </trkpt>
      <trkpt lat="39.47483667" lon="-0.4032433299999999">
        <ele>5.0</ele>
        <time>2022-05-31T08:53:02+02:00</time>
      </trkpt>
      <trkpt lat="39.474826670000006" lon="-0.40331">
        <ele>5.0</ele>
        <time>2022-05-31T08:53:04+02:00</time>
      </trkpt>
      <trkpt lat="39.47480367" lon="-0.40338666000000006">
        <ele>5.0</ele>
        <time>2022-05-31T08:53:06+02:00</time>
      </trkpt>
      <trkpt lat="39.47477467" lon="-0.4034816600000001">
        <ele>6.0</ele>
        <time>2022-05-31T08:53:08+02:00</time>
      </trkpt>
      <trkpt lat="39.47474000000001" lon="-0.40357332999999995">
        <ele>6.0</ele>
        <time>2022-05-31T08:53:10+02:00</time>
      </trkpt>
      <trkpt lat="39.474703670000004" lon="-0.403665">
        <ele>6.0</ele>
        <time>2022-05-31T08:53:12+02:00</time>
      </trkpt>
      <trkpt lat="39.47468134" lon="-0.40373000000000003">
        <ele>6.0</ele>
        <time>2022-05-31T08:53:13+02:00</time>
      </trkpt>
      <trkpt lat="39.474676669999994" lon="-0.40384666">
        <ele>7.0</ele>
        <time>2022-05-31T08:53:15+02:00</time>
      </trkpt>
      <trkpt lat="39.474673339999995" lon="-0.40396">
        <ele>7.0</ele>
        <time>2022-05-31T08:53:17+02:00</time>
      </trkpt>
      <trkpt lat="39.47465999999999" lon="-0.40402166000000006">
        <ele>7.0</ele>
        <time>2022-05-31T08:53:18+02:00</time>
      </trkpt>
      <trkpt lat="39.474641000000005" lon="-0.4040816600000001">
        <ele>7.0</ele>
        <time>2022-05-31T08:53:19+02:00</time>
      </trkpt>
      <trkpt lat="39.47461834" lon="-0.40414000000000005">
        <ele>7.0</ele>
        <time>2022-05-31T08:53:20+02:00</time>
      </trkpt>
      <trkpt lat="39.47459167000001" lon="-0.4042116600000001">
        <ele>7.0</ele>
        <time>2022-05-31T08:53:21+02:00</time>
      </trkpt>
      <trkpt lat="39.47456667000001" lon="-0.40427333">
        <ele>7.0</ele>
        <time>2022-05-31T08:53:22+02:00</time>
      </trkpt>
      <trkpt lat="39.47451867000001" lon="-0.40438333000000004">
        <ele>7.0</ele>
        <time>2022-05-31T08:53:24+02:00</time>
      </trkpt>
      <trkpt lat="39.47449667000001" lon="-0.4044416600000001">
        <ele>7.0</ele>
        <time>2022-05-31T08:53:25+02:00</time>
      </trkpt>
      <trkpt lat="39.47447633999999" lon="-0.40452166000000006">
        <ele>7.0</ele>
        <time>2022-05-31T08:53:26+02:00</time>
      </trkpt>
      <trkpt lat="39.474493339999995" lon="-0.40464833">
        <ele>7.0</ele>
        <time>2022-05-31T08:53:28+02:00</time>
      </trkpt>
      <trkpt lat="39.474493339999995" lon="-0.4047199999999999">
        <ele>7.0</ele>
        <time>2022-05-31T08:53:29+02:00</time>
      </trkpt>
      <trkpt lat="39.47448333999999" lon="-0.40480333">
        <ele>7.0</ele>
        <time>2022-05-31T08:53:30+02:00</time>
      </trkpt>
      <trkpt lat="39.47446934" lon="-0.40487333000000003">
        <ele>7.0</ele>
        <time>2022-05-31T08:53:31+02:00</time>
      </trkpt>
      <trkpt lat="39.47444334" lon="-0.40494">
        <ele>7.0</ele>
        <time>2022-05-31T08:53:32+02:00</time>
      </trkpt>
      <trkpt lat="39.474419999999995" lon="-0.4050066600000001">
        <ele>7.0</ele>
        <time>2022-05-31T08:53:33+02:00</time>
      </trkpt>
      <trkpt lat="39.4744" lon="-0.40506000000000003">
        <ele>7.0</ele>
        <time>2022-05-31T08:53:34+02:00</time>
      </trkpt>
      <trkpt lat="39.47437367" lon="-0.40512665999999997">
        <ele>7.0</ele>
        <time>2022-05-31T08:53:35+02:00</time>
      </trkpt>
      <trkpt lat="39.474351670000004" lon="-0.4051966600000001">
        <ele>7.0</ele>
        <time>2022-05-31T08:53:36+02:00</time>
      </trkpt>
      <trkpt lat="39.474335339999996" lon="-0.40527832999999996">
        <ele>7.0</ele>
        <time>2022-05-31T08:53:37+02:00</time>
      </trkpt>
      <trkpt lat="39.47433034" lon="-0.40534833">
        <ele>7.0</ele>
        <time>2022-05-31T08:53:38+02:00</time>
      </trkpt>
      <trkpt lat="39.474351670000004" lon="-0.40541666000000004">
        <ele>8.0</ele>
        <time>2022-05-31T08:53:39+02:00</time>
      </trkpt>
      <trkpt lat="39.474358339999995" lon="-0.40548833">
        <ele>8.0</ele>
        <time>2022-05-31T08:53:40+02:00</time>
      </trkpt>
      <trkpt lat="39.474360000000004" lon="-0.40568666000000003">
        <ele>8.0</ele>
        <time>2022-05-31T08:53:41+02:00</time>
      </trkpt>
      <trkpt lat="39.47435" lon="-0.40574832999999993">
        <ele>8.0</ele>
        <time>2022-05-31T08:53:42+02:00</time>
      </trkpt>
      <trkpt lat="39.474346000000004" lon="-0.40581666000000005">
        <ele>8.0</ele>
        <time>2022-05-31T08:53:43+02:00</time>
      </trkpt>
      <trkpt lat="39.47434500000001" lon="-0.40587833">
        <ele>8.0</ele>
        <time>2022-05-31T08:53:44+02:00</time>
      </trkpt>
      <trkpt lat="39.474348" lon="-0.40594">
        <ele>8.0</ele>
        <time>2022-05-31T08:53:45+02:00</time>
      </trkpt>
      <trkpt lat="39.47436166999999" lon="-0.40600166">
        <ele>8.0</ele>
        <time>2022-05-31T08:53:46+02:00</time>
      </trkpt>
      <trkpt lat="39.47436834" lon="-0.40606">
        <ele>8.0</ele>
        <time>2022-05-31T08:53:47+02:00</time>
      </trkpt>
      <trkpt lat="39.474379670000005" lon="-0.406175">
        <ele>8.0</ele>
        <time>2022-05-31T08:53:49+02:00</time>
      </trkpt>
      <trkpt lat="39.474372339999995" lon="-0.4062316600000001">
        <ele>8.0</ele>
        <time>2022-05-31T08:53:50+02:00</time>
      </trkpt>
      <trkpt lat="39.47432167000001" lon="-0.40631165999999996">
        <ele>8.0</ele>
        <time>2022-05-31T08:53:52+02:00</time>
      </trkpt>
      <trkpt lat="39.474295" lon="-0.40636">
        <ele>8.0</ele>
        <time>2022-05-31T08:53:53+02:00</time>
      </trkpt>
      <trkpt lat="39.47425834" lon="-0.40644833">
        <ele>8.0</ele>
        <time>2022-05-31T08:53:55+02:00</time>
      </trkpt>
      <trkpt lat="39.474216" lon="-0.40656333">
        <ele>8.0</ele>
        <time>2022-05-31T08:53:57+02:00</time>
      </trkpt>
      <trkpt lat="39.474181" lon="-0.4066699999999999">
        <ele>8.0</ele>
        <time>2022-05-31T08:53:59+02:00</time>
      </trkpt>
      <trkpt lat="39.474152999999994" lon="-0.40678166000000004">
        <ele>8.0</ele>
        <time>2022-05-31T08:54:02+02:00</time>
      </trkpt>
      <trkpt lat="39.474155" lon="-0.40688333">
        <ele>8.0</ele>
        <time>2022-05-31T08:54:03+02:00</time>
      </trkpt>
      <trkpt lat="39.474155" lon="-0.4069516600000001">
        <ele>9.0</ele>
        <time>2022-05-31T08:54:04+02:00</time>
      </trkpt>
      <trkpt lat="39.47416" lon="-0.40701166000000005">
        <ele>9.0</ele>
        <time>2022-05-31T08:54:05+02:00</time>
      </trkpt>
      <trkpt lat="39.474171670000004" lon="-0.40707000000000004">
        <ele>9.0</ele>
        <time>2022-05-31T08:54:06+02:00</time>
      </trkpt>
      <trkpt lat="39.474185" lon="-0.40712666">
        <ele>9.0</ele>
        <time>2022-05-31T08:54:07+02:00</time>
      </trkpt>
      <trkpt lat="39.474221670000006" lon="-0.407235">
        <ele>9.0</ele>
        <time>2022-05-31T08:54:09+02:00</time>
      </trkpt>
      <trkpt lat="39.47424334" lon="-0.40729">
        <ele>9.0</ele>
        <time>2022-05-31T08:54:10+02:00</time>
      </trkpt>
      <trkpt lat="39.474270000000004" lon="-0.40734332999999995">
        <ele>9.0</ele>
        <time>2022-05-31T08:54:11+02:00</time>
      </trkpt>
      <trkpt lat="39.47430167" lon="-0.40739333">
        <ele>9.0</ele>
        <time>2022-05-31T08:54:12+02:00</time>
      </trkpt>
      <trkpt lat="39.474335" lon="-0.4074416600000001">
        <ele>9.0</ele>
        <time>2022-05-31T08:54:13+02:00</time>
      </trkpt>
      <trkpt lat="39.47439333999999" lon="-0.40753666000000005">
        <ele>9.0</ele>
        <time>2022-05-31T08:54:15+02:00</time>
      </trkpt>
      <trkpt lat="39.474427000000006" lon="-0.40759333">
        <ele>9.0</ele>
        <time>2022-05-31T08:54:16+02:00</time>
      </trkpt>
      <trkpt lat="39.47446634" lon="-0.40765833">
        <ele>9.0</ele>
        <time>2022-05-31T08:54:17+02:00</time>
      </trkpt>
      <trkpt lat="39.47449467" lon="-0.4077050000000001">
        <ele>9.0</ele>
        <time>2022-05-31T08:54:18+02:00</time>
      </trkpt>
      <trkpt lat="39.474534999999996" lon="-0.40777">
        <ele>9.0</ele>
        <time>2022-05-31T08:54:19+02:00</time>
      </trkpt>
      <trkpt lat="39.474570670000006" lon="-0.40782333">
        <ele>9.0</ele>
        <time>2022-05-31T08:54:20+02:00</time>
      </trkpt>
      <trkpt lat="39.474633999999995" lon="-0.407915">
        <ele>9.0</ele>
        <time>2022-05-31T08:54:22+02:00</time>
      </trkpt>
      <trkpt lat="39.47468334" lon="-0.4079566600000001">
        <ele>9.0</ele>
        <time>2022-05-31T08:54:23+02:00</time>
      </trkpt>
      <trkpt lat="39.474734999999995" lon="-0.40799666000000007">
        <ele>9.0</ele>
        <time>2022-05-31T08:54:24+02:00</time>
      </trkpt>
      <trkpt lat="39.474826670000006" lon="-0.4080533300000001">
        <ele>9.0</ele>
        <time>2022-05-31T08:54:26+02:00</time>
      </trkpt>
      <trkpt lat="39.47487667" lon="-0.4080800000000001">
        <ele>9.0</ele>
        <time>2022-05-31T08:54:27+02:00</time>
      </trkpt>
      <trkpt lat="39.474925" lon="-0.40810066">
        <ele>9.0</ele>
        <time>2022-05-31T08:54:28+02:00</time>
      </trkpt>
      <trkpt lat="39.474976670000004" lon="-0.4081180000000001">
        <ele>10.0</ele>
        <time>2022-05-31T08:54:29+02:00</time>
      </trkpt>
      <trkpt lat="39.47503" lon="-0.40812833">
        <ele>10.0</ele>
        <time>2022-05-31T08:54:30+02:00</time>
      </trkpt>
      <trkpt lat="39.47508334" lon="-0.40813965999999996">
        <ele>10.0</ele>
        <time>2022-05-31T08:54:31+02:00</time>
      </trkpt>
      <trkpt lat="39.475184999999996" lon="-0.4081523299999999">
        <ele>10.0</ele>
        <time>2022-05-31T08:54:33+02:00</time>
      </trkpt>
      <trkpt lat="39.475235000000005" lon="-0.40815433">
        <ele>10.0</ele>
        <time>2022-05-31T08:54:34+02:00</time>
      </trkpt>
      <trkpt lat="39.47528667" lon="-0.40815433">
        <ele>10.0</ele>
        <time>2022-05-31T08:54:35+02:00</time>
      </trkpt>
      <trkpt lat="39.47534" lon="-0.4081523299999999">
        <ele>10.0</ele>
        <time>2022-05-31T08:54:36+02:00</time>
      </trkpt>
      <trkpt lat="39.47539167000001" lon="-0.40814632999999995">
        <ele>10.0</ele>
        <time>2022-05-31T08:54:37+02:00</time>
      </trkpt>
      <trkpt lat="39.475445" lon="-0.40813866">
        <ele>10.0</ele>
        <time>2022-05-31T08:54:38+02:00</time>
      </trkpt>
      <trkpt lat="39.47548834" lon="-0.40812766">
        <ele>10.0</ele>
        <time>2022-05-31T08:54:39+02:00</time>
      </trkpt>
      <trkpt lat="39.475541670000005" lon="-0.40811166">
        <ele>10.0</ele>
        <time>2022-05-31T08:54:40+02:00</time>
      </trkpt>
      <trkpt lat="39.47560167" lon="-0.4080466600000001">
        <ele>9.0</ele>
        <time>2022-05-31T08:54:41+02:00</time>
      </trkpt>
      <trkpt lat="39.475645" lon="-0.40800000000000003">
        <ele>9.0</ele>
        <time>2022-05-31T08:54:42+02:00</time>
      </trkpt>
      <trkpt lat="39.47570333999999" lon="-0.40788333000000004">
        <ele>8.0</ele>
        <time>2022-05-31T08:54:44+02:00</time>
      </trkpt>
      <trkpt lat="39.475723339999995" lon="-0.40782166000000003">
        <ele>7.0</ele>
        <time>2022-05-31T08:54:45+02:00</time>
      </trkpt>
      <trkpt lat="39.47574667000001" lon="-0.40776333000000003">
        <ele>7.0</ele>
        <time>2022-05-31T08:54:46+02:00</time>
      </trkpt>
      <trkpt lat="39.47579867" lon="-0.40768166000000006">
        <ele>7.0</ele>
        <time>2022-05-31T08:54:48+02:00</time>
      </trkpt>
      <trkpt lat="39.47584834" lon="-0.4076449999999999">
        <ele>7.0</ele>
        <time>2022-05-31T08:54:49+02:00</time>
      </trkpt>
      <trkpt lat="39.475985" lon="-0.4076449999999999">
        <ele>7.0</ele>
        <time>2022-05-31T08:54:52+02:00</time>
      </trkpt>
      <trkpt lat="39.476034999999996" lon="-0.407655">
        <ele>7.0</ele>
        <time>2022-05-31T08:54:53+02:00</time>
      </trkpt>
      <trkpt lat="39.476085" lon="-0.407665">
        <ele>7.0</ele>
        <time>2022-05-31T08:54:54+02:00</time>
      </trkpt>
      <trkpt lat="39.47614" lon="-0.4076706600000001">
        <ele>7.0</ele>
        <time>2022-05-31T08:54:55+02:00</time>
      </trkpt>
      <trkpt lat="39.47619667" lon="-0.40767566000000005">
        <ele>7.0</ele>
        <time>2022-05-31T08:54:56+02:00</time>
      </trkpt>
      <trkpt lat="39.47624167" lon="-0.40768066000000014">
        <ele>7.0</ele>
        <time>2022-05-31T08:54:57+02:00</time>
      </trkpt>
      <trkpt lat="39.47630834" lon="-0.407687">
        <ele>7.0</ele>
        <time>2022-05-31T08:54:58+02:00</time>
      </trkpt>
      <trkpt lat="39.47636" lon="-0.40769299999999997">
        <ele>7.0</ele>
        <time>2022-05-31T08:54:59+02:00</time>
      </trkpt>
      <trkpt lat="39.47641" lon="-0.40769833">
        <ele>7.0</ele>
        <time>2022-05-31T08:55:00+02:00</time>
      </trkpt>
      <trkpt lat="39.476455" lon="-0.40770432999999995">
        <ele>7.0</ele>
        <time>2022-05-31T08:55:01+02:00</time>
      </trkpt>
      <trkpt lat="39.47653667" lon="-0.40771666">
        <ele>8.0</ele>
        <time>2022-05-31T08:55:03+02:00</time>
      </trkpt>
      <trkpt lat="39.476623339999996" lon="-0.40773533000000006">
        <ele>8.0</ele>
        <time>2022-05-31T08:55:05+02:00</time>
      </trkpt>
      <trkpt lat="39.47671167" lon="-0.40775766">
        <ele>8.0</ele>
        <time>2022-05-31T08:55:07+02:00</time>
      </trkpt>
      <trkpt lat="39.47680334" lon="-0.40778333">
        <ele>8.0</ele>
        <time>2022-05-31T08:55:09+02:00</time>
      </trkpt>
      <trkpt lat="39.47685333999999" lon="-0.40780099999999997">
        <ele>8.0</ele>
        <time>2022-05-31T08:55:10+02:00</time>
      </trkpt>
      <trkpt lat="39.476901670000004" lon="-0.40781566000000014">
        <ele>8.0</ele>
        <time>2022-05-31T08:55:11+02:00</time>
      </trkpt>
      <trkpt lat="39.476991670000004" lon="-0.4078423299999999">
        <ele>9.0</ele>
        <time>2022-05-31T08:55:13+02:00</time>
      </trkpt>
      <trkpt lat="39.477036670000004" lon="-0.407857">
        <ele>9.0</ele>
        <time>2022-05-31T08:55:14+02:00</time>
      </trkpt>
      <trkpt lat="39.47708" lon="-0.4078703299999999">
        <ele>9.0</ele>
        <time>2022-05-31T08:55:15+02:00</time>
      </trkpt>
      <trkpt lat="39.477125" lon="-0.4078863299999999">
        <ele>9.0</ele>
        <time>2022-05-31T08:55:16+02:00</time>
      </trkpt>
      <trkpt lat="39.477171670000004" lon="-0.407903">
        <ele>9.0</ele>
        <time>2022-05-31T08:55:17+02:00</time>
      </trkpt>
      <trkpt lat="39.47721834" lon="-0.407918">
        <ele>9.0</ele>
        <time>2022-05-31T08:55:18+02:00</time>
      </trkpt>
      <trkpt lat="39.477266670000006" lon="-0.40793366000000003">
        <ele>9.0</ele>
        <time>2022-05-31T08:55:19+02:00</time>
      </trkpt>
      <trkpt lat="39.47731834" lon="-0.40795266">
        <ele>9.0</ele>
        <time>2022-05-31T08:55:20+02:00</time>
      </trkpt>
      <trkpt lat="39.47737" lon="-0.40797">
        <ele>9.0</ele>
        <time>2022-05-31T08:55:21+02:00</time>
      </trkpt>
      <trkpt lat="39.47741834" lon="-0.40798666000000006">
        <ele>9.0</ele>
        <time>2022-05-31T08:55:22+02:00</time>
      </trkpt>
      <trkpt lat="39.477465" lon="-0.4080063299999999">
        <ele>9.0</ele>
        <time>2022-05-31T08:55:23+02:00</time>
      </trkpt>
      <trkpt lat="39.47751167" lon="-0.40802633000000005">
        <ele>9.0</ele>
        <time>2022-05-31T08:55:24+02:00</time>
      </trkpt>
      <trkpt lat="39.477555" lon="-0.4080466600000001">
        <ele>9.0</ele>
        <time>2022-05-31T08:55:25+02:00</time>
      </trkpt>
      <trkpt lat="39.47759667000001" lon="-0.40814666000000005">
        <ele>9.0</ele>
        <time>2022-05-31T08:55:26+02:00</time>
      </trkpt>
      <trkpt lat="39.47763834" lon="-0.40818832999999993">
        <ele>9.0</ele>
        <time>2022-05-31T08:55:27+02:00</time>
      </trkpt>
      <trkpt lat="39.477683340000006" lon="-0.40823">
        <ele>9.0</ele>
        <time>2022-05-31T08:55:28+02:00</time>
      </trkpt>
      <trkpt lat="39.477725" lon="-0.40827232999999996">
        <ele>9.0</ele>
        <time>2022-05-31T08:55:29+02:00</time>
      </trkpt>
      <trkpt lat="39.477763339999996" lon="-0.4083153299999999">
        <ele>9.0</ele>
        <time>2022-05-31T08:55:30+02:00</time>
      </trkpt>
      <trkpt lat="39.4778" lon="-0.408362">
        <ele>9.0</ele>
        <time>2022-05-31T08:55:31+02:00</time>
      </trkpt>
      <trkpt lat="39.47783667" lon="-0.40840699999999996">
        <ele>9.0</ele>
        <time>2022-05-31T08:55:32+02:00</time>
      </trkpt>
      <trkpt lat="39.477875" lon="-0.40844933">
        <ele>9.0</ele>
        <time>2022-05-31T08:55:33+02:00</time>
      </trkpt>
      <trkpt lat="39.47791334" lon="-0.40848733">
        <ele>9.0</ele>
        <time>2022-05-31T08:55:34+02:00</time>
      </trkpt>
      <trkpt lat="39.47795667" lon="-0.4085203299999999">
        <ele>10.0</ele>
        <time>2022-05-31T08:55:35+02:00</time>
      </trkpt>
      <trkpt lat="39.47804834" lon="-0.40851333">
        <ele>10.0</ele>
        <time>2022-05-31T08:55:37+02:00</time>
      </trkpt>
      <trkpt lat="39.478095" lon="-0.408528">
        <ele>10.0</ele>
        <time>2022-05-31T08:55:39+02:00</time>
      </trkpt>
      <trkpt lat="39.47819167000001" lon="-0.40855366000000004">
        <ele>10.0</ele>
        <time>2022-05-31T08:55:40+02:00</time>
      </trkpt>
      <trkpt lat="39.47824000000001" lon="-0.408563">
        <ele>10.0</ele>
        <time>2022-05-31T08:55:41+02:00</time>
      </trkpt>
      <trkpt lat="39.47828667" lon="-0.40857200000000005">
        <ele>10.0</ele>
        <time>2022-05-31T08:55:42+02:00</time>
      </trkpt>
      <trkpt lat="39.47833167" lon="-0.40858000000000005">
        <ele>10.0</ele>
        <time>2022-05-31T08:55:43+02:00</time>
      </trkpt>
      <trkpt lat="39.478413339999996" lon="-0.40859232999999995">
        <ele>10.0</ele>
        <time>2022-05-31T08:55:45+02:00</time>
      </trkpt>
      <trkpt lat="39.47848834" lon="-0.40859632999999995">
        <ele>10.0</ele>
        <time>2022-05-31T08:55:47+02:00</time>
      </trkpt>
      <trkpt lat="39.47858333999999" lon="-0.40859533">
        <ele>10.0</ele>
        <time>2022-05-31T08:55:49+02:00</time>
      </trkpt>
      <trkpt lat="39.47865667000001" lon="-0.40859433">
        <ele>10.0</ele>
        <time>2022-05-31T08:55:51+02:00</time>
      </trkpt>
      <trkpt lat="39.47871167" lon="-0.408596">
        <ele>10.0</ele>
        <time>2022-05-31T08:55:52+02:00</time>
      </trkpt>
      <trkpt lat="39.47875834" lon="-0.40859966">
        <ele>10.0</ele>
        <time>2022-05-31T08:55:53+02:00</time>
      </trkpt>
      <trkpt lat="39.478806670000004" lon="-0.40860466000000006">
        <ele>10.0</ele>
        <time>2022-05-31T08:55:54+02:00</time>
      </trkpt>
      <trkpt lat="39.47885834" lon="-0.40861099999999995">
        <ele>10.0</ele>
        <time>2022-05-31T08:55:55+02:00</time>
      </trkpt>
      <trkpt lat="39.47890667" lon="-0.40861632999999997">
        <ele>10.0</ele>
        <time>2022-05-31T08:55:56+02:00</time>
      </trkpt>
      <trkpt lat="39.47895834" lon="-0.40862300000000007">
        <ele>10.0</ele>
        <time>2022-05-31T08:55:57+02:00</time>
      </trkpt>
      <trkpt lat="39.47900834" lon="-0.40862800000000005">
        <ele>10.0</ele>
        <time>2022-05-31T08:55:58+02:00</time>
      </trkpt>
      <trkpt lat="39.479111669999995" lon="-0.4086409999999999">
        <ele>11.0</ele>
        <time>2022-05-31T08:56:00+02:00</time>
      </trkpt>
      <trkpt lat="39.47915999999999" lon="-0.40864632999999995">
        <ele>11.0</ele>
        <time>2022-05-31T08:56:01+02:00</time>
      </trkpt>
      <trkpt lat="39.479211670000005" lon="-0.4086519999999999">
        <ele>11.0</ele>
        <time>2022-05-31T08:56:02+02:00</time>
      </trkpt>
      <trkpt lat="39.479265" lon="-0.40865999999999997">
        <ele>11.0</ele>
        <time>2022-05-31T08:56:03+02:00</time>
      </trkpt>
      <trkpt lat="39.47931834" lon="-0.40866632999999997">
        <ele>12.0</ele>
        <time>2022-05-31T08:56:04+02:00</time>
      </trkpt>
      <trkpt lat="39.47937" lon="-0.408675">
        <ele>12.0</ele>
        <time>2022-05-31T08:56:05+02:00</time>
      </trkpt>
      <trkpt lat="39.47942" lon="-0.40868099999999996">
        <ele>12.0</ele>
        <time>2022-05-31T08:56:06+02:00</time>
      </trkpt>
      <trkpt lat="39.47947333999999" lon="-0.40869032999999994">
        <ele>12.0</ele>
        <time>2022-05-31T08:56:07+02:00</time>
      </trkpt>
      <trkpt lat="39.479526670000006" lon="-0.40869966">
        <ele>12.0</ele>
        <time>2022-05-31T08:56:08+02:00</time>
      </trkpt>
      <trkpt lat="39.479578339999996" lon="-0.4087066600000001">
        <ele>12.0</ele>
        <time>2022-05-31T08:56:09+02:00</time>
      </trkpt>
      <trkpt lat="39.47968667" lon="-0.40872332999999994">
        <ele>12.0</ele>
        <time>2022-05-31T08:56:11+02:00</time>
      </trkpt>
      <trkpt lat="39.47974000000001" lon="-0.40873400000000004">
        <ele>12.0</ele>
        <time>2022-05-31T08:56:12+02:00</time>
      </trkpt>
      <trkpt lat="39.479791670000004" lon="-0.40874499999999997">
        <ele>13.0</ele>
        <time>2022-05-31T08:56:13+02:00</time>
      </trkpt>
      <trkpt lat="39.47988667" lon="-0.40876199999999996">
        <ele>13.0</ele>
        <time>2022-05-31T08:56:15+02:00</time>
      </trkpt>
      <trkpt lat="39.479938340000004" lon="-0.40877333">
        <ele>13.0</ele>
        <time>2022-05-31T08:56:16+02:00</time>
      </trkpt>
      <trkpt lat="39.48000167000001" lon="-0.408783">
        <ele>13.0</ele>
        <time>2022-05-31T08:56:17+02:00</time>
      </trkpt>
      <trkpt lat="39.48005500000001" lon="-0.40879566">
        <ele>13.0</ele>
        <time>2022-05-31T08:56:18+02:00</time>
      </trkpt>
      <trkpt lat="39.48010667" lon="-0.40880800000000006">
        <ele>13.0</ele>
        <time>2022-05-31T08:56:19+02:00</time>
      </trkpt>
      <trkpt lat="39.48015834" lon="-0.40882066000000006">
        <ele>13.0</ele>
        <time>2022-05-31T08:56:20+02:00</time>
      </trkpt>
      <trkpt lat="39.480208340000004" lon="-0.40883400000000003">
        <ele>13.0</ele>
        <time>2022-05-31T08:56:21+02:00</time>
      </trkpt>
      <trkpt lat="39.48025667" lon="-0.40885232999999993">
        <ele>13.0</ele>
        <time>2022-05-31T08:56:22+02:00</time>
      </trkpt>
      <trkpt lat="39.48030334" lon="-0.4089650000000001">
        <ele>13.0</ele>
        <time>2022-05-31T08:56:23+02:00</time>
      </trkpt>
      <trkpt lat="39.48039167" lon="-0.409045">
        <ele>13.0</ele>
        <time>2022-05-31T08:56:25+02:00</time>
      </trkpt>
      <trkpt lat="39.48048167" lon="-0.40912800000000005">
        <ele>13.0</ele>
        <time>2022-05-31T08:56:27+02:00</time>
      </trkpt>
      <trkpt lat="39.480525" lon="-0.40917032999999997">
        <ele>13.0</ele>
        <time>2022-05-31T08:56:28+02:00</time>
      </trkpt>
      <trkpt lat="39.480603339999995" lon="-0.40924132999999996">
        <ele>13.0</ele>
        <time>2022-05-31T08:56:30+02:00</time>
      </trkpt>
      <trkpt lat="39.480653339999996" lon="-0.409288">
        <ele>13.0</ele>
        <time>2022-05-31T08:56:31+02:00</time>
      </trkpt>
      <trkpt lat="39.48069667000001" lon="-0.409328">
        <ele>13.0</ele>
        <time>2022-05-31T08:56:32+02:00</time>
      </trkpt>
      <trkpt lat="39.48073834" lon="-0.40936766">
        <ele>13.0</ele>
        <time>2022-05-31T08:56:33+02:00</time>
      </trkpt>
      <trkpt lat="39.480779999999996" lon="-0.409407">
        <ele>13.0</ele>
        <time>2022-05-31T08:56:34+02:00</time>
      </trkpt>
      <trkpt lat="39.48081834" lon="-0.40944366">
        <ele>13.0</ele>
        <time>2022-05-31T08:56:35+02:00</time>
      </trkpt>
      <trkpt lat="39.48085834" lon="-0.40948233">
        <ele>13.0</ele>
        <time>2022-05-31T08:56:36+02:00</time>
      </trkpt>
      <trkpt lat="39.480898339999996" lon="-0.4095213299999999">
        <ele>13.0</ele>
        <time>2022-05-31T08:56:37+02:00</time>
      </trkpt>
      <trkpt lat="39.480935" lon="-0.40955766000000005">
        <ele>13.0</ele>
        <time>2022-05-31T08:56:38+02:00</time>
      </trkpt>
      <trkpt lat="39.48097167000001" lon="-0.40959666000000006">
        <ele>13.0</ele>
        <time>2022-05-31T08:56:39+02:00</time>
      </trkpt>
      <trkpt lat="39.48101" lon="-0.40963700000000003">
        <ele>13.0</ele>
        <time>2022-05-31T08:56:40+02:00</time>
      </trkpt>
      <trkpt lat="39.481048339999994" lon="-0.40967600000000004">
        <ele>13.0</ele>
        <time>2022-05-31T08:56:41+02:00</time>
      </trkpt>
      <trkpt lat="39.48109000000001" lon="-0.4097163299999999">
        <ele>13.0</ele>
        <time>2022-05-31T08:56:42+02:00</time>
      </trkpt>
      <trkpt lat="39.48113167" lon="-0.40975633">
        <ele>13.0</ele>
        <time>2022-05-31T08:56:43+02:00</time>
      </trkpt>
      <trkpt lat="39.48117167" lon="-0.4097913299999999">
        <ele>13.0</ele>
        <time>2022-05-31T08:56:44+02:00</time>
      </trkpt>
      <trkpt lat="39.481215000000006" lon="-0.40983066000000007">
        <ele>13.0</ele>
        <time>2022-05-31T08:56:45+02:00</time>
      </trkpt>
      <trkpt lat="39.48125667000001" lon="-0.40986599999999995">
        <ele>13.0</ele>
        <time>2022-05-31T08:56:46+02:00</time>
      </trkpt>
      <trkpt lat="39.48129667" lon="-0.40989966000000005">
        <ele>13.0</ele>
        <time>2022-05-31T08:56:47+02:00</time>
      </trkpt>
      <trkpt lat="39.481336670000005" lon="-0.4099343299999999">
        <ele>13.0</ele>
        <time>2022-05-31T08:56:48+02:00</time>
      </trkpt>
      <trkpt lat="39.481375" lon="-0.40996566">
        <ele>13.0</ele>
        <time>2022-05-31T08:56:49+02:00</time>
      </trkpt>
      <trkpt lat="39.481449999999995" lon="-0.41003232999999983">
        <ele>13.0</ele>
        <time>2022-05-31T08:56:51+02:00</time>
      </trkpt>
      <trkpt lat="39.48152167" lon="-0.410093">
        <ele>13.0</ele>
        <time>2022-05-31T08:56:53+02:00</time>
      </trkpt>
      <trkpt lat="39.481586670000006" lon="-0.41014300000000004">
        <ele>13.0</ele>
        <time>2022-05-31T08:56:55+02:00</time>
      </trkpt>
      <trkpt lat="39.48165834" lon="-0.4100566600000001">
        <ele>13.0</ele>
        <time>2022-05-31T08:56:57+02:00</time>
      </trkpt>
      <trkpt lat="39.48170834" lon="-0.409995">
        <ele>13.0</ele>
        <time>2022-05-31T08:56:59+02:00</time>
      </trkpt>
      <trkpt lat="39.48176334" lon="-0.409915">
        <ele>13.0</ele>
        <time>2022-05-31T08:57:01+02:00</time>
      </trkpt>
      <trkpt lat="39.48181167" lon="-0.40984499999999996">
        <ele>13.0</ele>
        <time>2022-05-31T08:57:03+02:00</time>
      </trkpt>
      <trkpt lat="39.48185667" lon="-0.409785">
        <ele>13.0</ele>
        <time>2022-05-31T08:57:05+02:00</time>
      </trkpt>
      <trkpt lat="39.48191834" lon="-0.40974166000000006">
        <ele>13.0</ele>
        <time>2022-05-31T08:57:07+02:00</time>
      </trkpt>
      <trkpt lat="39.481973339999996" lon="-0.4097199999999999">
        <ele>13.0</ele>
        <time>2022-05-31T08:57:09+02:00</time>
      </trkpt>
      <trkpt lat="39.48205334" lon="-0.409695">
        <ele>12.0</ele>
        <time>2022-05-31T08:57:11+02:00</time>
      </trkpt>
      <trkpt lat="39.48212667000001" lon="-0.40965833000000007">
        <ele>12.0</ele>
        <time>2022-05-31T08:57:13+02:00</time>
      </trkpt>
      <trkpt lat="39.48220333999999" lon="-0.40962265999999997">
        <ele>11.0</ele>
        <time>2022-05-31T08:57:15+02:00</time>
      </trkpt>
      <trkpt lat="39.482285" lon="-0.40958866">
        <ele>10.0</ele>
        <time>2022-05-31T08:57:17+02:00</time>
      </trkpt>
      <trkpt lat="39.48237" lon="-0.40955733">
        <ele>9.0</ele>
        <time>2022-05-31T08:57:19+02:00</time>
      </trkpt>
      <trkpt lat="39.48245667" lon="-0.40952833">
        <ele>9.0</ele>
        <time>2022-05-31T08:57:21+02:00</time>
      </trkpt>
      <trkpt lat="39.482501670000005" lon="-0.4095143299999999">
        <ele>9.0</ele>
        <time>2022-05-31T08:57:22+02:00</time>
      </trkpt>
      <trkpt lat="39.482548339999994" lon="-0.40949933000000005">
        <ele>9.0</ele>
        <time>2022-05-31T08:57:23+02:00</time>
      </trkpt>
      <trkpt lat="39.482595" lon="-0.409483">
        <ele>9.0</ele>
        <time>2022-05-31T08:57:24+02:00</time>
      </trkpt>
      <trkpt lat="39.48264667" lon="-0.40946432999999993">
        <ele>9.0</ele>
        <time>2022-05-31T08:57:25+02:00</time>
      </trkpt>
      <trkpt lat="39.48269667000001" lon="-0.40944699999999995">
        <ele>9.0</ele>
        <time>2022-05-31T08:57:26+02:00</time>
      </trkpt>
      <trkpt lat="39.482755" lon="-0.40942899999999993">
        <ele>9.0</ele>
        <time>2022-05-31T08:57:27+02:00</time>
      </trkpt>
      <trkpt lat="39.48284834" lon="-0.40939999999999993">
        <ele>9.0</ele>
        <time>2022-05-31T08:57:29+02:00</time>
      </trkpt>
      <trkpt lat="39.482901670000004" lon="-0.40938732999999994">
        <ele>9.0</ele>
        <time>2022-05-31T08:57:30+02:00</time>
      </trkpt>
      <trkpt lat="39.48300999999999" lon="-0.40935833">
        <ele>10.0</ele>
        <time>2022-05-31T08:57:32+02:00</time>
      </trkpt>
      <trkpt lat="39.48306167" lon="-0.40934966">
        <ele>10.0</ele>
        <time>2022-05-31T08:57:33+02:00</time>
      </trkpt>
      <trkpt lat="39.48311500000001" lon="-0.4093406600000001">
        <ele>10.0</ele>
        <time>2022-05-31T08:57:34+02:00</time>
      </trkpt>
      <trkpt lat="39.48316834" lon="-0.40933266">
        <ele>10.0</ele>
        <time>2022-05-31T08:57:36+02:00</time>
      </trkpt>
      <trkpt lat="39.48327667" lon="-0.4093076600000001">
        <ele>11.0</ele>
        <time>2022-05-31T08:57:37+02:00</time>
      </trkpt>
      <trkpt lat="39.48332334" lon="-0.40930099999999997">
        <ele>11.0</ele>
        <time>2022-05-31T08:57:38+02:00</time>
      </trkpt>
      <trkpt lat="39.483405" lon="-0.40929233">
        <ele>11.0</ele>
        <time>2022-05-31T08:57:40+02:00</time>
      </trkpt>
      <trkpt lat="39.48346834" lon="-0.40941666000000004">
        <ele>12.0</ele>
        <time>2022-05-31T08:57:42+02:00</time>
      </trkpt>
      <trkpt lat="39.48351667000001" lon="-0.4095166600000001">
        <ele>12.0</ele>
        <time>2022-05-31T08:57:44+02:00</time>
      </trkpt>
      <trkpt lat="39.483540000000005" lon="-0.4095716600000001">
        <ele>13.0</ele>
        <time>2022-05-31T08:57:45+02:00</time>
      </trkpt>
      <trkpt lat="39.48356334" lon="-0.4096266600000001">
        <ele>13.0</ele>
        <time>2022-05-31T08:57:46+02:00</time>
      </trkpt>
      <trkpt lat="39.483587" lon="-0.4096850000000001">
        <ele>13.0</ele>
        <time>2022-05-31T08:57:47+02:00</time>
      </trkpt>
      <trkpt lat="39.48361034" lon="-0.409745">
        <ele>14.0</ele>
        <time>2022-05-31T08:57:48+02:00</time>
      </trkpt>
      <trkpt lat="39.48363334" lon="-0.4098016600000001">
        <ele>14.0</ele>
        <time>2022-05-31T08:57:49+02:00</time>
      </trkpt>
      <trkpt lat="39.483655" lon="-0.40986">
        <ele>14.0</ele>
        <time>2022-05-31T08:57:50+02:00</time>
      </trkpt>
      <trkpt lat="39.483675670000004" lon="-0.40991666000000004">
        <ele>14.0</ele>
        <time>2022-05-31T08:57:51+02:00</time>
      </trkpt>
      <trkpt lat="39.48369734" lon="-0.40997666000000005">
        <ele>14.0</ele>
        <time>2022-05-31T08:57:52+02:00</time>
      </trkpt>
      <trkpt lat="39.483716" lon="-0.41003500000000004">
        <ele>14.0</ele>
        <time>2022-05-31T08:57:53+02:00</time>
      </trkpt>
      <trkpt lat="39.483735339999996" lon="-0.41009499999999993">
        <ele>15.0</ele>
        <time>2022-05-31T08:57:54+02:00</time>
      </trkpt>
      <trkpt lat="39.48378867" lon="-0.41027499999999995">
        <ele>15.0</ele>
        <time>2022-05-31T08:57:55+02:00</time>
      </trkpt>
      <trkpt lat="39.483806339999994" lon="-0.41033166000000004">
        <ele>15.0</ele>
        <time>2022-05-31T08:57:56+02:00</time>
      </trkpt>
      <trkpt lat="39.48382433999999" lon="-0.41039166000000005">
        <ele>15.0</ele>
        <time>2022-05-31T08:57:57+02:00</time>
      </trkpt>
      <trkpt lat="39.483845" lon="-0.41045500000000007">
        <ele>15.0</ele>
        <time>2022-05-31T08:57:58+02:00</time>
      </trkpt>
      <trkpt lat="39.483864000000004" lon="-0.41051833000000004">
        <ele>15.0</ele>
        <time>2022-05-31T08:57:59+02:00</time>
      </trkpt>
      <trkpt lat="39.483884" lon="-0.41058000000000006">
        <ele>15.0</ele>
        <time>2022-05-31T08:58:00+02:00</time>
      </trkpt>
      <trkpt lat="39.483904339999995" lon="-0.41064166000000013">
        <ele>15.0</ele>
        <time>2022-05-31T08:58:01+02:00</time>
      </trkpt>
      <trkpt lat="39.48392433999999" lon="-0.4107033299999999">
        <ele>15.0</ele>
        <time>2022-05-31T08:58:02+02:00</time>
      </trkpt>
      <trkpt lat="39.483945" lon="-0.41076499999999994">
        <ele>15.0</ele>
        <time>2022-05-31T08:58:03+02:00</time>
      </trkpt>
      <trkpt lat="39.48396433999999" lon="-0.41082333000000004">
        <ele>15.0</ele>
        <time>2022-05-31T08:58:04+02:00</time>
      </trkpt>
      <trkpt lat="39.483985999999994" lon="-0.41088">
        <ele>15.0</ele>
        <time>2022-05-31T08:58:05+02:00</time>
      </trkpt>
      <trkpt lat="39.484007999999996" lon="-0.4109350000000001">
        <ele>15.0</ele>
        <time>2022-05-31T08:58:06+02:00</time>
      </trkpt>
      <trkpt lat="39.48403034" lon="-0.41098999999999997">
        <ele>15.0</ele>
        <time>2022-05-31T08:58:07+02:00</time>
      </trkpt>
      <trkpt lat="39.484053" lon="-0.41104332999999993">
        <ele>16.0</ele>
        <time>2022-05-31T08:58:08+02:00</time>
      </trkpt>
      <trkpt lat="39.48407967" lon="-0.4110983299999999">
        <ele>16.0</ele>
        <time>2022-05-31T08:58:09+02:00</time>
      </trkpt>
      <trkpt lat="39.48410299999999" lon="-0.4111516600000001">
        <ele>16.0</ele>
        <time>2022-05-31T08:58:10+02:00</time>
      </trkpt>
      <trkpt lat="39.48413033999999" lon="-0.4112050000000001">
        <ele>16.0</ele>
        <time>2022-05-31T08:58:11+02:00</time>
      </trkpt>
      <trkpt lat="39.48415834000001" lon="-0.41125833">
        <ele>16.0</ele>
        <time>2022-05-31T08:58:12+02:00</time>
      </trkpt>
      <trkpt lat="39.48418367" lon="-0.4113100000000001">
        <ele>16.0</ele>
        <time>2022-05-31T08:58:13+02:00</time>
      </trkpt>
      <trkpt lat="39.48423667" lon="-0.41141666">
        <ele>16.0</ele>
        <time>2022-05-31T08:58:15+02:00</time>
      </trkpt>
      <trkpt lat="39.48426467" lon="-0.41147166">
        <ele>17.0</ele>
        <time>2022-05-31T08:58:16+02:00</time>
      </trkpt>
      <trkpt lat="39.484296670000006" lon="-0.41152833">
        <ele>17.0</ele>
        <time>2022-05-31T08:58:17+02:00</time>
      </trkpt>
      <trkpt lat="39.484328999999995" lon="-0.41158333">
        <ele>17.0</ele>
        <time>2022-05-31T08:58:18+02:00</time>
      </trkpt>
      <trkpt lat="39.484416" lon="-0.41175333">
        <ele>17.0</ele>
        <time>2022-05-31T08:58:21+02:00</time>
      </trkpt>
      <trkpt lat="39.484446670000004" lon="-0.41181166">
        <ele>17.0</ele>
        <time>2022-05-31T08:58:22+02:00</time>
      </trkpt>
      <trkpt lat="39.48448267" lon="-0.41186999999999996">
        <ele>17.0</ele>
        <time>2022-05-31T08:58:23+02:00</time>
      </trkpt>
      <trkpt lat="39.484513" lon="-0.4119266600000001">
        <ele>18.0</ele>
        <time>2022-05-31T08:58:24+02:00</time>
      </trkpt>
      <trkpt lat="39.48454567" lon="-0.41198666">
        <ele>18.0</ele>
        <time>2022-05-31T08:58:25+02:00</time>
      </trkpt>
      <trkpt lat="39.48457834" lon="-0.4120466600000001">
        <ele>18.0</ele>
        <time>2022-05-31T08:58:26+02:00</time>
      </trkpt>
      <trkpt lat="39.48460567000001" lon="-0.41210500000000005">
        <ele>18.0</ele>
        <time>2022-05-31T08:58:27+02:00</time>
      </trkpt>
      <trkpt lat="39.484639" lon="-0.41216666">
        <ele>18.0</ele>
        <time>2022-05-31T08:58:28+02:00</time>
      </trkpt>
      <trkpt lat="39.484672999999994" lon="-0.41222833000000003">
        <ele>18.0</ele>
        <time>2022-05-31T08:58:29+02:00</time>
      </trkpt>
      <trkpt lat="39.484701" lon="-0.41228833">
        <ele>18.0</ele>
        <time>2022-05-31T08:58:30+02:00</time>
      </trkpt>
      <trkpt lat="39.48473634" lon="-0.41235166">
        <ele>18.0</ele>
        <time>2022-05-31T08:58:31+02:00</time>
      </trkpt>
      <trkpt lat="39.484764999999996" lon="-0.41241332999999997">
        <ele>18.0</ele>
        <time>2022-05-31T08:58:32+02:00</time>
      </trkpt>
      <trkpt lat="39.48479833999999" lon="-0.41247332999999997">
        <ele>18.0</ele>
        <time>2022-05-31T08:58:33+02:00</time>
      </trkpt>
      <trkpt lat="39.484824999999994" lon="-0.41253">
        <ele>18.0</ele>
        <time>2022-05-31T08:58:34+02:00</time>
      </trkpt>
      <trkpt lat="39.48488533999999" lon="-0.41265166000000003">
        <ele>19.0</ele>
        <time>2022-05-31T08:58:36+02:00</time>
      </trkpt>
      <trkpt lat="39.48491167" lon="-0.4127116600000001">
        <ele>19.0</ele>
        <time>2022-05-31T08:58:37+02:00</time>
      </trkpt>
      <trkpt lat="39.484944670000004" lon="-0.41277333">
        <ele>19.0</ele>
        <time>2022-05-31T08:58:38+02:00</time>
      </trkpt>
      <trkpt lat="39.48497833999999" lon="-0.4128366600000001">
        <ele>19.0</ele>
        <time>2022-05-31T08:58:39+02:00</time>
      </trkpt>
      <trkpt lat="39.48500534" lon="-0.41289833">
        <ele>19.0</ele>
        <time>2022-05-31T08:58:40+02:00</time>
      </trkpt>
      <trkpt lat="39.48503900000001" lon="-0.41296166">
        <ele>19.0</ele>
        <time>2022-05-31T08:58:41+02:00</time>
      </trkpt>
      <trkpt lat="39.48506733999999" lon="-0.41302666000000005">
        <ele>19.0</ele>
        <time>2022-05-31T08:58:42+02:00</time>
      </trkpt>
      <trkpt lat="39.48509567" lon="-0.4130916600000001">
        <ele>19.0</ele>
        <time>2022-05-31T08:58:43+02:00</time>
      </trkpt>
      <trkpt lat="39.48512367" lon="-0.41315666">
        <ele>19.0</ele>
        <time>2022-05-31T08:58:44+02:00</time>
      </trkpt>
      <trkpt lat="39.485173339999996" lon="-0.4132866600000001">
        <ele>19.0</ele>
        <time>2022-05-31T08:58:46+02:00</time>
      </trkpt>
      <trkpt lat="39.48519567" lon="-0.4133533300000001">
        <ele>19.0</ele>
        <time>2022-05-31T08:58:47+02:00</time>
      </trkpt>
      <trkpt lat="39.485216670000014" lon="-0.41341832999999995">
        <ele>19.0</ele>
        <time>2022-05-31T08:58:48+02:00</time>
      </trkpt>
      <trkpt lat="39.48523667" lon="-0.41348">
        <ele>19.0</ele>
        <time>2022-05-31T08:58:49+02:00</time>
      </trkpt>
      <trkpt lat="39.485257" lon="-0.41354333">
        <ele>19.0</ele>
        <time>2022-05-31T08:58:50+02:00</time>
      </trkpt>
      <trkpt lat="39.485272339999995" lon="-0.41360833">
        <ele>19.0</ele>
        <time>2022-05-31T08:58:51+02:00</time>
      </trkpt>
      <trkpt lat="39.485292" lon="-0.4136699999999999">
        <ele>19.0</ele>
        <time>2022-05-31T08:58:52+02:00</time>
      </trkpt>
      <trkpt lat="39.48530466999999" lon="-0.41373000000000004">
        <ele>19.0</ele>
        <time>2022-05-31T08:58:53+02:00</time>
      </trkpt>
      <trkpt lat="39.48532433999999" lon="-0.41379166000000006">
        <ele>19.0</ele>
        <time>2022-05-31T08:58:54+02:00</time>
      </trkpt>
      <trkpt lat="39.48533767" lon="-0.4138533300000001">
        <ele>19.0</ele>
        <time>2022-05-31T08:58:55+02:00</time>
      </trkpt>
      <trkpt lat="39.485352670000005" lon="-0.41391833">
        <ele>19.0</ele>
        <time>2022-05-31T08:58:56+02:00</time>
      </trkpt>
      <trkpt lat="39.48536633999999" lon="-0.41398166000000003">
        <ele>19.0</ele>
        <time>2022-05-31T08:58:57+02:00</time>
      </trkpt>
      <trkpt lat="39.48538" lon="-0.41404499999999994">
        <ele>19.0</ele>
        <time>2022-05-31T08:58:58+02:00</time>
      </trkpt>
      <trkpt lat="39.48539467" lon="-0.41411166">
        <ele>19.0</ele>
        <time>2022-05-31T08:58:59+02:00</time>
      </trkpt>
      <trkpt lat="39.48540799999999" lon="-0.41417666000000014">
        <ele>19.0</ele>
        <time>2022-05-31T08:59:00+02:00</time>
      </trkpt>
      <trkpt lat="39.48542167000001" lon="-0.41424332999999997">
        <ele>19.0</ele>
        <time>2022-05-31T08:59:01+02:00</time>
      </trkpt>
      <trkpt lat="39.485434" lon="-0.41430833">
        <ele>19.0</ele>
        <time>2022-05-31T08:59:02+02:00</time>
      </trkpt>
      <trkpt lat="39.485446339999996" lon="-0.41437333">
        <ele>19.0</ele>
        <time>2022-05-31T08:59:03+02:00</time>
      </trkpt>
      <trkpt lat="39.485457669999995" lon="-0.41443832999999997">
        <ele>19.0</ele>
        <time>2022-05-31T08:59:04+02:00</time>
      </trkpt>
      <trkpt lat="39.485469" lon="-0.41450332999999995">
        <ele>19.0</ele>
        <time>2022-05-31T08:59:05+02:00</time>
      </trkpt>
      <trkpt lat="39.48548967000001" lon="-0.41463">
        <ele>19.0</ele>
        <time>2022-05-31T08:59:07+02:00</time>
      </trkpt>
      <trkpt lat="39.4855" lon="-0.41469666000000005">
        <ele>19.0</ele>
        <time>2022-05-31T08:59:08+02:00</time>
      </trkpt>
      <trkpt lat="39.48551667" lon="-0.41476500000000005">
        <ele>19.0</ele>
        <time>2022-05-31T08:59:09+02:00</time>
      </trkpt>
      <trkpt lat="39.485526" lon="-0.41483165999999994">
        <ele>19.0</ele>
        <time>2022-05-31T08:59:10+02:00</time>
      </trkpt>
      <trkpt lat="39.48553467000001" lon="-0.4148983299999999">
        <ele>19.0</ele>
        <time>2022-05-31T08:59:11+02:00</time>
      </trkpt>
      <trkpt lat="39.48554933999999" lon="-0.4149649999999999">
        <ele>19.0</ele>
        <time>2022-05-31T08:59:12+02:00</time>
      </trkpt>
      <trkpt lat="39.485557" lon="-0.41503166">
        <ele>19.0</ele>
        <time>2022-05-31T08:59:13+02:00</time>
      </trkpt>
      <trkpt lat="39.48557100000001" lon="-0.41509833">
        <ele>19.0</ele>
        <time>2022-05-31T08:59:14+02:00</time>
      </trkpt>
      <trkpt lat="39.485577" lon="-0.41516166000000004">
        <ele>19.0</ele>
        <time>2022-05-31T08:59:15+02:00</time>
      </trkpt>
      <trkpt lat="39.485589" lon="-0.41522333">
        <ele>19.0</ele>
        <time>2022-05-31T08:59:16+02:00</time>
      </trkpt>
      <trkpt lat="39.48560067" lon="-0.415285">
        <ele>19.0</ele>
        <time>2022-05-31T08:59:17+02:00</time>
      </trkpt>
      <trkpt lat="39.48561134" lon="-0.41534499999999996">
        <ele>19.0</ele>
        <time>2022-05-31T08:59:18+02:00</time>
      </trkpt>
      <trkpt lat="39.48562234" lon="-0.41540499999999997">
        <ele>19.0</ele>
        <time>2022-05-31T08:59:19+02:00</time>
      </trkpt>
      <trkpt lat="39.48563334" lon="-0.41546666000000004">
        <ele>19.0</ele>
        <time>2022-05-31T08:59:20+02:00</time>
      </trkpt>
      <trkpt lat="39.485644" lon="-0.41552833">
        <ele>19.0</ele>
        <time>2022-05-31T08:59:21+02:00</time>
      </trkpt>
      <trkpt lat="39.48566133999999" lon="-0.41559166000000003">
        <ele>19.0</ele>
        <time>2022-05-31T08:59:22+02:00</time>
      </trkpt>
      <trkpt lat="39.48567267" lon="-0.41565665999999996">
        <ele>19.0</ele>
        <time>2022-05-31T08:59:23+02:00</time>
      </trkpt>
      <trkpt lat="39.48568399999999" lon="-0.41572332999999995">
        <ele>19.0</ele>
        <time>2022-05-31T08:59:24+02:00</time>
      </trkpt>
      <trkpt lat="39.485701" lon="-0.41579166">
        <ele>19.0</ele>
        <time>2022-05-31T08:59:25+02:00</time>
      </trkpt>
      <trkpt lat="39.48567834" lon="-0.41585833">
        <ele>19.0</ele>
        <time>2022-05-31T08:59:26+02:00</time>
      </trkpt>
      <trkpt lat="39.485676670000004" lon="-0.4159233299999999">
        <ele>19.0</ele>
        <time>2022-05-31T08:59:27+02:00</time>
      </trkpt>
      <trkpt lat="39.485675" lon="-0.41598999999999997">
        <ele>19.0</ele>
        <time>2022-05-31T08:59:28+02:00</time>
      </trkpt>
      <trkpt lat="39.485672339999994" lon="-0.41605666">
        <ele>19.0</ele>
        <time>2022-05-31T08:59:29+02:00</time>
      </trkpt>
      <trkpt lat="39.485669339999994" lon="-0.41612">
        <ele>19.0</ele>
        <time>2022-05-31T08:59:30+02:00</time>
      </trkpt>
      <trkpt lat="39.48566533999999" lon="-0.416265">
        <ele>19.0</ele>
        <time>2022-05-31T08:59:32+02:00</time>
      </trkpt>
      <trkpt lat="39.485670670000005" lon="-0.41637">
        <ele>19.0</ele>
        <time>2022-05-31T08:59:34+02:00</time>
      </trkpt>
      <trkpt lat="39.48568034" lon="-0.4164416600000001">
        <ele>19.0</ele>
        <time>2022-05-31T08:59:35+02:00</time>
      </trkpt>
      <trkpt lat="39.485728339999994" lon="-0.41649332999999994">
        <ele>19.0</ele>
        <time>2022-05-31T08:59:36+02:00</time>
      </trkpt>
      <trkpt lat="39.48577" lon="-0.4165516600000001">
        <ele>19.0</ele>
        <time>2022-05-31T08:59:37+02:00</time>
      </trkpt>
      <trkpt lat="39.48584334" lon="-0.41663166">
        <ele>19.0</ele>
        <time>2022-05-31T08:59:39+02:00</time>
      </trkpt>
      <trkpt lat="39.485881670000005" lon="-0.4166766600000001">
        <ele>19.0</ele>
        <time>2022-05-31T08:59:40+02:00</time>
      </trkpt>
      <trkpt lat="39.48591834" lon="-0.4167223299999999">
        <ele>19.0</ele>
        <time>2022-05-31T08:59:41+02:00</time>
      </trkpt>
      <trkpt lat="39.48596167000001" lon="-0.41678166">
        <ele>19.0</ele>
        <time>2022-05-31T08:59:42+02:00</time>
      </trkpt>
      <trkpt lat="39.486025" lon="-0.416875">
        <ele>19.0</ele>
        <time>2022-05-31T08:59:44+02:00</time>
      </trkpt>
      <trkpt lat="39.48606567" lon="-0.41693333">
        <ele>19.0</ele>
        <time>2022-05-31T08:59:45+02:00</time>
      </trkpt>
      <trkpt lat="39.486099" lon="-0.41698333000000004">
        <ele>19.0</ele>
        <time>2022-05-31T08:59:46+02:00</time>
      </trkpt>
      <trkpt lat="39.486131" lon="-0.41703333000000004">
        <ele>19.0</ele>
        <time>2022-05-31T08:59:47+02:00</time>
      </trkpt>
      <trkpt lat="39.486164" lon="-0.417085">
        <ele>19.0</ele>
        <time>2022-05-31T08:59:48+02:00</time>
      </trkpt>
      <trkpt lat="39.48622533999999" lon="-0.417195">
        <ele>19.0</ele>
        <time>2022-05-31T08:59:50+02:00</time>
      </trkpt>
      <trkpt lat="39.486251339999995" lon="-0.41725333">
        <ele>19.0</ele>
        <time>2022-05-31T08:59:51+02:00</time>
      </trkpt>
      <trkpt lat="39.48629667" lon="-0.41735666">
        <ele>19.0</ele>
        <time>2022-05-31T08:59:53+02:00</time>
      </trkpt>
      <trkpt lat="39.48632367" lon="-0.417425">
        <ele>19.0</ele>
        <time>2022-05-31T08:59:54+02:00</time>
      </trkpt>
      <trkpt lat="39.486345" lon="-0.41748">
        <ele>19.0</ele>
        <time>2022-05-31T08:59:55+02:00</time>
      </trkpt>
      <trkpt lat="39.48639034" lon="-0.41758166">
        <ele>19.0</ele>
        <time>2022-05-31T08:59:57+02:00</time>
      </trkpt>
      <trkpt lat="39.48641267000001" lon="-0.4176399999999999">
        <ele>19.0</ele>
        <time>2022-05-31T08:59:58+02:00</time>
      </trkpt>
      <trkpt lat="39.48643667" lon="-0.41769833">
        <ele>19.0</ele>
        <time>2022-05-31T08:59:59+02:00</time>
      </trkpt>
      <trkpt lat="39.48646067" lon="-0.417755">
        <ele>19.0</ele>
        <time>2022-05-31T09:00:00+02:00</time>
      </trkpt>
      <trkpt lat="39.48648867000001" lon="-0.417825">
        <ele>19.0</ele>
        <time>2022-05-31T09:00:01+02:00</time>
      </trkpt>
      <trkpt lat="39.486534" lon="-0.41792832999999996">
        <ele>19.0</ele>
        <time>2022-05-31T09:00:03+02:00</time>
      </trkpt>
      <trkpt lat="39.48656167" lon="-0.41800166">
        <ele>19.0</ele>
        <time>2022-05-31T09:00:04+02:00</time>
      </trkpt>
      <trkpt lat="39.486611339999996" lon="-0.41811832999999987">
        <ele>19.0</ele>
        <time>2022-05-31T09:00:06+02:00</time>
      </trkpt>
      <trkpt lat="39.486656" lon="-0.41823333000000007">
        <ele>19.0</ele>
        <time>2022-05-31T09:00:08+02:00</time>
      </trkpt>
      <trkpt lat="39.48670534" lon="-0.4183533300000001">
        <ele>19.0</ele>
        <time>2022-05-31T09:00:10+02:00</time>
      </trkpt>
      <trkpt lat="39.486749339999996" lon="-0.41846332999999997">
        <ele>19.0</ele>
        <time>2022-05-31T09:00:12+02:00</time>
      </trkpt>
      <trkpt lat="39.48677633999999" lon="-0.4185266600000001">
        <ele>19.0</ele>
        <time>2022-05-31T09:00:13+02:00</time>
      </trkpt>
      <trkpt lat="39.48680399999999" lon="-0.41859999999999997">
        <ele>19.0</ele>
        <time>2022-05-31T09:00:14+02:00</time>
      </trkpt>
      <trkpt lat="39.486825339999996" lon="-0.41866000000000003">
        <ele>19.0</ele>
        <time>2022-05-31T09:00:15+02:00</time>
      </trkpt>
      <trkpt lat="39.486871" lon="-0.41876666000000007">
        <ele>19.0</ele>
        <time>2022-05-31T09:00:17+02:00</time>
      </trkpt>
      <trkpt lat="39.486901339999996" lon="-0.41883833">
        <ele>19.0</ele>
        <time>2022-05-31T09:00:18+02:00</time>
      </trkpt>
      <trkpt lat="39.48694733999999" lon="-0.418945">
        <ele>19.0</ele>
        <time>2022-05-31T09:00:20+02:00</time>
      </trkpt>
      <trkpt lat="39.486997669999994" lon="-0.41906333">
        <ele>19.0</ele>
        <time>2022-05-31T09:00:22+02:00</time>
      </trkpt>
      <trkpt lat="39.48702433999999" lon="-0.41913666000000005">
        <ele>19.0</ele>
        <time>2022-05-31T09:00:23+02:00</time>
      </trkpt>
      <trkpt lat="39.48704967" lon="-0.41919666000000005">
        <ele>19.0</ele>
        <time>2022-05-31T09:00:24+02:00</time>
      </trkpt>
      <trkpt lat="39.48707534" lon="-0.41925666">
        <ele>19.0</ele>
        <time>2022-05-31T09:00:25+02:00</time>
      </trkpt>
      <trkpt lat="39.48712767" lon="-0.41938000000000003">
        <ele>19.0</ele>
        <time>2022-05-31T09:00:27+02:00</time>
      </trkpt>
      <trkpt lat="39.48718" lon="-0.41950333000000006">
        <ele>20.0</ele>
        <time>2022-05-31T09:00:29+02:00</time>
      </trkpt>
      <trkpt lat="39.487258669999996" lon="-0.41968832999999994">
        <ele>20.0</ele>
        <time>2022-05-31T09:00:32+02:00</time>
      </trkpt>
      <trkpt lat="39.48728566999999" lon="-0.41975166">
        <ele>20.0</ele>
        <time>2022-05-31T09:00:33+02:00</time>
      </trkpt>
      <trkpt lat="39.48732767" lon="-0.41986666">
        <ele>20.0</ele>
        <time>2022-05-31T09:00:35+02:00</time>
      </trkpt>
      <trkpt lat="39.48735367" lon="-0.41993">
        <ele>20.0</ele>
        <time>2022-05-31T09:00:36+02:00</time>
      </trkpt>
      <trkpt lat="39.48738533999999" lon="-0.42000666000000003">
        <ele>20.0</ele>
        <time>2022-05-31T09:00:37+02:00</time>
      </trkpt>
      <trkpt lat="39.487426670000005" lon="-0.42012333">
        <ele>20.0</ele>
        <time>2022-05-31T09:00:39+02:00</time>
      </trkpt>
      <trkpt lat="39.487452000000005" lon="-0.42018666">
        <ele>20.0</ele>
        <time>2022-05-31T09:00:40+02:00</time>
      </trkpt>
      <trkpt lat="39.48747" lon="-0.42024833">
        <ele>20.0</ele>
        <time>2022-05-31T09:00:41+02:00</time>
      </trkpt>
      <trkpt lat="39.487496" lon="-0.42031332999999993">
        <ele>20.0</ele>
        <time>2022-05-31T09:00:42+02:00</time>
      </trkpt>
      <trkpt lat="39.48751334" lon="-0.42037500000000005">
        <ele>20.0</ele>
        <time>2022-05-31T09:00:43+02:00</time>
      </trkpt>
      <trkpt lat="39.487538" lon="-0.4204383299999999">
        <ele>20.0</ele>
        <time>2022-05-31T09:00:44+02:00</time>
      </trkpt>
      <trkpt lat="39.48756234" lon="-0.4205">
        <ele>20.0</ele>
        <time>2022-05-31T09:00:45+02:00</time>
      </trkpt>
      <trkpt lat="39.48757967" lon="-0.42056332999999996">
        <ele>20.0</ele>
        <time>2022-05-31T09:00:46+02:00</time>
      </trkpt>
      <trkpt lat="39.487626670000004" lon="-0.42070333">
        <ele>20.0</ele>
        <time>2022-05-31T09:00:48+02:00</time>
      </trkpt>
      <trkpt lat="39.48766567" lon="-0.42081833">
        <ele>20.0</ele>
        <time>2022-05-31T09:00:50+02:00</time>
      </trkpt>
      <trkpt lat="39.48768767" lon="-0.42089333">
        <ele>20.0</ele>
        <time>2022-05-31T09:00:51+02:00</time>
      </trkpt>
      <trkpt lat="39.487738" lon="-0.42101999999999995">
        <ele>20.0</ele>
        <time>2022-05-31T09:00:53+02:00</time>
      </trkpt>
      <trkpt lat="39.48777467" lon="-0.42113500000000004">
        <ele>20.0</ele>
        <time>2022-05-31T09:00:55+02:00</time>
      </trkpt>
      <trkpt lat="39.487791" lon="-0.42119833">
        <ele>20.0</ele>
        <time>2022-05-31T09:00:56+02:00</time>
      </trkpt>
      <trkpt lat="39.487811" lon="-0.42127333">
        <ele>21.0</ele>
        <time>2022-05-31T09:00:57+02:00</time>
      </trkpt>
      <trkpt lat="39.48785366999999" lon="-0.42138500000000007">
        <ele>21.0</ele>
        <time>2022-05-31T09:00:59+02:00</time>
      </trkpt>
      <trkpt lat="39.48786767" lon="-0.421445">
        <ele>21.0</ele>
        <time>2022-05-31T09:01:00+02:00</time>
      </trkpt>
      <trkpt lat="39.487885999999996" lon="-0.421515">
        <ele>21.0</ele>
        <time>2022-05-31T09:01:01+02:00</time>
      </trkpt>
      <trkpt lat="39.487927" lon="-0.4216233300000001">
        <ele>21.0</ele>
        <time>2022-05-31T09:01:03+02:00</time>
      </trkpt>
      <trkpt lat="39.487942000000004" lon="-0.4216850000000001">
        <ele>21.0</ele>
        <time>2022-05-31T09:01:04+02:00</time>
      </trkpt>
      <trkpt lat="39.487958" lon="-0.42174999999999996">
        <ele>21.0</ele>
        <time>2022-05-31T09:01:05+02:00</time>
      </trkpt>
      <trkpt lat="39.48797834" lon="-0.42182665999999996">
        <ele>21.0</ele>
        <time>2022-05-31T09:01:06+02:00</time>
      </trkpt>
      <trkpt lat="39.488002339999994" lon="-0.4218916599999999">
        <ele>21.0</ele>
        <time>2022-05-31T09:01:07+02:00</time>
      </trkpt>
      <trkpt lat="39.48803667" lon="-0.42200833000000004">
        <ele>22.0</ele>
        <time>2022-05-31T09:01:09+02:00</time>
      </trkpt>
      <trkpt lat="39.488052669999995" lon="-0.42207333">
        <ele>22.0</ele>
        <time>2022-05-31T09:01:10+02:00</time>
      </trkpt>
      <trkpt lat="39.488081339999994" lon="-0.42215333">
        <ele>22.0</ele>
        <time>2022-05-31T09:01:11+02:00</time>
      </trkpt>
      <trkpt lat="39.488097339999996" lon="-0.42221999999999993">
        <ele>22.0</ele>
        <time>2022-05-31T09:01:12+02:00</time>
      </trkpt>
      <trkpt lat="39.48813267" lon="-0.42234165999999995">
        <ele>22.0</ele>
        <time>2022-05-31T09:01:14+02:00</time>
      </trkpt>
      <trkpt lat="39.488153" lon="-0.42242166000000003">
        <ele>22.0</ele>
        <time>2022-05-31T09:01:15+02:00</time>
      </trkpt>
      <trkpt lat="39.48818967000001" lon="-0.42255166">
        <ele>22.0</ele>
        <time>2022-05-31T09:01:17+02:00</time>
      </trkpt>
      <trkpt lat="39.48822233999999" lon="-0.42267165999999995">
        <ele>22.0</ele>
        <time>2022-05-31T09:01:19+02:00</time>
      </trkpt>
      <trkpt lat="39.48823599999999" lon="-0.4227366599999999">
        <ele>22.0</ele>
        <time>2022-05-31T09:01:20+02:00</time>
      </trkpt>
      <trkpt lat="39.48825467" lon="-0.42281665999999996">
        <ele>22.0</ele>
        <time>2022-05-31T09:01:21+02:00</time>
      </trkpt>
      <trkpt lat="39.48826767" lon="-0.42288">
        <ele>22.0</ele>
        <time>2022-05-31T09:01:22+02:00</time>
      </trkpt>
      <trkpt lat="39.48829833999999" lon="-0.42299833">
        <ele>22.0</ele>
        <time>2022-05-31T09:01:24+02:00</time>
      </trkpt>
      <trkpt lat="39.48831234" lon="-0.42306665999999993">
        <ele>22.0</ele>
        <time>2022-05-31T09:01:25+02:00</time>
      </trkpt>
      <trkpt lat="39.48832567000001" lon="-0.42313333000000003">
        <ele>22.0</ele>
        <time>2022-05-31T09:01:26+02:00</time>
      </trkpt>
      <trkpt lat="39.488343" lon="-0.42321332999999994">
        <ele>22.0</ele>
        <time>2022-05-31T09:01:27+02:00</time>
      </trkpt>
      <trkpt lat="39.488372670000004" lon="-0.42333499999999996">
        <ele>22.0</ele>
        <time>2022-05-31T09:01:29+02:00</time>
      </trkpt>
      <trkpt lat="39.48839667" lon="-0.4234116599999999">
        <ele>22.0</ele>
        <time>2022-05-31T09:01:30+02:00</time>
      </trkpt>
      <trkpt lat="39.48842367" lon="-0.42352833">
        <ele>22.0</ele>
        <time>2022-05-31T09:01:32+02:00</time>
      </trkpt>
      <trkpt lat="39.488454" lon="-0.42365665999999996">
        <ele>22.0</ele>
        <time>2022-05-31T09:01:34+02:00</time>
      </trkpt>
      <trkpt lat="39.488467" lon="-0.42372833">
        <ele>22.0</ele>
        <time>2022-05-31T09:01:35+02:00</time>
      </trkpt>
      <trkpt lat="39.48849167" lon="-0.42381000000000013">
        <ele>22.0</ele>
        <time>2022-05-31T09:01:37+02:00</time>
      </trkpt>
      <trkpt lat="39.488535" lon="-0.42383833">
        <ele>21.0</ele>
        <time>2022-05-31T09:01:38+02:00</time>
      </trkpt>
      <trkpt lat="39.48862167000001" lon="-0.423825">
        <ele>20.0</ele>
        <time>2022-05-31T09:01:40+02:00</time>
      </trkpt>
      <trkpt lat="39.48866833999999" lon="-0.42380499999999993">
        <ele>20.0</ele>
        <time>2022-05-31T09:01:41+02:00</time>
      </trkpt>
      <trkpt lat="39.488715" lon="-0.42378">
        <ele>19.0</ele>
        <time>2022-05-31T09:01:42+02:00</time>
      </trkpt>
      <trkpt lat="39.48876334" lon="-0.42375166000000003">
        <ele>19.0</ele>
        <time>2022-05-31T09:01:43+02:00</time>
      </trkpt>
      <trkpt lat="39.488823339999996" lon="-0.42371833">
        <ele>19.0</ele>
        <time>2022-05-31T09:01:44+02:00</time>
      </trkpt>
      <trkpt lat="39.488913339999996" lon="-0.42366833000000004">
        <ele>18.0</ele>
        <time>2022-05-31T09:01:46+02:00</time>
      </trkpt>
      <trkpt lat="39.48896334" lon="-0.42363999999999996">
        <ele>17.0</ele>
        <time>2022-05-31T09:01:47+02:00</time>
      </trkpt>
      <trkpt lat="39.48902667000001" lon="-0.4236059999999999">
        <ele>17.0</ele>
        <time>2022-05-31T09:01:48+02:00</time>
      </trkpt>
      <trkpt lat="39.489070000000005" lon="-0.42358400000000007">
        <ele>16.0</ele>
        <time>2022-05-31T09:01:49+02:00</time>
      </trkpt>
      <trkpt lat="39.48913167" lon="-0.42355100000000007">
        <ele>16.0</ele>
        <time>2022-05-31T09:01:50+02:00</time>
      </trkpt>
      <trkpt lat="39.48922334" lon="-0.42350432999999993">
        <ele>15.0</ele>
        <time>2022-05-31T09:01:52+02:00</time>
      </trkpt>
      <trkpt lat="39.489275000000006" lon="-0.42347699999999994">
        <ele>15.0</ele>
        <time>2022-05-31T09:01:53+02:00</time>
      </trkpt>
      <trkpt lat="39.48933667" lon="-0.42344565999999995">
        <ele>15.0</ele>
        <time>2022-05-31T09:01:55+02:00</time>
      </trkpt>
      <trkpt lat="39.489430000000006" lon="-0.42339800000000005">
        <ele>14.0</ele>
        <time>2022-05-31T09:01:56+02:00</time>
      </trkpt>
      <trkpt lat="39.489481669999996" lon="-0.42337300000000005">
        <ele>14.0</ele>
        <time>2022-05-31T09:01:57+02:00</time>
      </trkpt>
      <trkpt lat="39.489535" lon="-0.42334699999999986">
        <ele>14.0</ele>
        <time>2022-05-31T09:01:58+02:00</time>
      </trkpt>
      <trkpt lat="39.48963" lon="-0.4232983299999999">
        <ele>14.0</ele>
        <time>2022-05-31T09:02:00+02:00</time>
      </trkpt>
      <trkpt lat="39.489691670000006" lon="-0.4232686599999999">
        <ele>13.0</ele>
        <time>2022-05-31T09:02:01+02:00</time>
      </trkpt>
      <trkpt lat="39.48974167" lon="-0.4232430000000001">
        <ele>13.0</ele>
        <time>2022-05-31T09:02:02+02:00</time>
      </trkpt>
      <trkpt lat="39.48979333999999" lon="-0.423217">
        <ele>13.0</ele>
        <time>2022-05-31T09:02:03+02:00</time>
      </trkpt>
      <trkpt lat="39.489845" lon="-0.42319300000000004">
        <ele>13.0</ele>
        <time>2022-05-31T09:02:04+02:00</time>
      </trkpt>
      <trkpt lat="39.48989834" lon="-0.423166">
        <ele>13.0</ele>
        <time>2022-05-31T09:02:05+02:00</time>
      </trkpt>
      <trkpt lat="39.48999167000001" lon="-0.4231186599999999">
        <ele>13.0</ele>
        <time>2022-05-31T09:02:07+02:00</time>
      </trkpt>
      <trkpt lat="39.490041670000004" lon="-0.42309332999999993">
        <ele>13.0</ele>
        <time>2022-05-31T09:02:08+02:00</time>
      </trkpt>
      <trkpt lat="39.49009334" lon="-0.42306732999999996">
        <ele>13.0</ele>
        <time>2022-05-31T09:02:09+02:00</time>
      </trkpt>
      <trkpt lat="39.49021" lon="-0.42301900000000003">
        <ele>13.0</ele>
        <time>2022-05-31T09:02:10+02:00</time>
      </trkpt>
      <trkpt lat="39.49026167" lon="-0.42307332999999997">
        <ele>13.0</ele>
        <time>2022-05-31T09:02:11+02:00</time>
      </trkpt>
      <trkpt lat="39.49030834" lon="-0.42310333">
        <ele>13.0</ele>
        <time>2022-05-31T09:02:12+02:00</time>
      </trkpt>
      <trkpt lat="39.49035167000001" lon="-0.42313999999999996">
        <ele>13.0</ele>
        <time>2022-05-31T09:02:13+02:00</time>
      </trkpt>
      <trkpt lat="39.49044" lon="-0.42323000000000005">
        <ele>14.0</ele>
        <time>2022-05-31T09:02:15+02:00</time>
      </trkpt>
      <trkpt lat="39.490518339999994" lon="-0.42331499999999994">
        <ele>14.0</ele>
        <time>2022-05-31T09:02:17+02:00</time>
      </trkpt>
      <trkpt lat="39.49063667" lon="-0.42340633">
        <ele>15.0</ele>
        <time>2022-05-31T09:02:20+02:00</time>
      </trkpt>
      <trkpt lat="39.490683340000004" lon="-0.42342166">
        <ele>15.0</ele>
        <time>2022-05-31T09:02:21+02:00</time>
      </trkpt>
      <trkpt lat="39.49073167" lon="-0.42343333000000005">
        <ele>15.0</ele>
        <time>2022-05-31T09:02:22+02:00</time>
      </trkpt>
      <trkpt lat="39.490781670000004" lon="-0.42344165999999994">
        <ele>16.0</ele>
        <time>2022-05-31T09:02:23+02:00</time>
      </trkpt>
      <trkpt lat="39.49083" lon="-0.4234466599999999">
        <ele>16.0</ele>
        <time>2022-05-31T09:02:24+02:00</time>
      </trkpt>
      <trkpt lat="39.49092167" lon="-0.42345332999999996">
        <ele>16.0</ele>
        <time>2022-05-31T09:02:26+02:00</time>
      </trkpt>
      <trkpt lat="39.490981670000004" lon="-0.42345799999999995">
        <ele>16.0</ele>
        <time>2022-05-31T09:02:27+02:00</time>
      </trkpt>
      <trkpt lat="39.49103167" lon="-0.42346332999999997">
        <ele>16.0</ele>
        <time>2022-05-31T09:02:28+02:00</time>
      </trkpt>
      <trkpt lat="39.49108167" lon="-0.4234686599999999">
        <ele>16.0</ele>
        <time>2022-05-31T09:02:29+02:00</time>
      </trkpt>
      <trkpt lat="39.49113" lon="-0.4234730000000001">
        <ele>16.0</ele>
        <time>2022-05-31T09:02:30+02:00</time>
      </trkpt>
      <trkpt lat="39.49117834" lon="-0.4234773299999999">
        <ele>16.0</ele>
        <time>2022-05-31T09:02:31+02:00</time>
      </trkpt>
      <trkpt lat="39.49122334" lon="-0.42348266">
        <ele>16.0</ele>
        <time>2022-05-31T09:02:32+02:00</time>
      </trkpt>
      <trkpt lat="39.491305" lon="-0.423489">
        <ele>16.0</ele>
        <time>2022-05-31T09:02:34+02:00</time>
      </trkpt>
      <trkpt lat="39.49135499999999" lon="-0.42349365999999994">
        <ele>16.0</ele>
        <time>2022-05-31T09:02:35+02:00</time>
      </trkpt>
      <trkpt lat="39.49143334" lon="-0.42350199999999993">
        <ele>16.0</ele>
        <time>2022-05-31T09:02:37+02:00</time>
      </trkpt>
      <trkpt lat="39.49148667" lon="-0.42355666000000003">
        <ele>16.0</ele>
        <time>2022-05-31T09:02:39+02:00</time>
      </trkpt>
      <trkpt lat="39.49149834" lon="-0.423655">
        <ele>16.0</ele>
        <time>2022-05-31T09:02:41+02:00</time>
      </trkpt>
      <trkpt lat="39.49146834" lon="-0.42376">
        <ele>17.0</ele>
        <time>2022-05-31T09:02:43+02:00</time>
      </trkpt>
      <trkpt lat="39.49144667" lon="-0.42381499999999994">
        <ele>18.0</ele>
        <time>2022-05-31T09:02:45+02:00</time>
      </trkpt>
      <trkpt lat="39.491405" lon="-0.42393000000000003">
        <ele>18.0</ele>
        <time>2022-05-31T09:02:46+02:00</time>
      </trkpt>
      <trkpt lat="39.491383340000006" lon="-0.42399332999999995">
        <ele>19.0</ele>
        <time>2022-05-31T09:02:47+02:00</time>
      </trkpt>
      <trkpt lat="39.49136034" lon="-0.42405833">
        <ele>19.0</ele>
        <time>2022-05-31T09:02:48+02:00</time>
      </trkpt>
      <trkpt lat="39.491338340000006" lon="-0.424125">
        <ele>19.0</ele>
        <time>2022-05-31T09:02:49+02:00</time>
      </trkpt>
      <trkpt lat="39.491313670000004" lon="-0.42420665999999996">
        <ele>20.0</ele>
        <time>2022-05-31T09:02:50+02:00</time>
      </trkpt>
      <trkpt lat="39.491297" lon="-0.42426332999999994">
        <ele>20.0</ele>
        <time>2022-05-31T09:02:51+02:00</time>
      </trkpt>
      <trkpt lat="39.491277339999996" lon="-0.42433333000000006">
        <ele>20.0</ele>
        <time>2022-05-31T09:02:52+02:00</time>
      </trkpt>
      <trkpt lat="39.491251999999996" lon="-0.42441499999999993">
        <ele>21.0</ele>
        <time>2022-05-31T09:02:53+02:00</time>
      </trkpt>
      <trkpt lat="39.49122967" lon="-0.42448166">
        <ele>21.0</ele>
        <time>2022-05-31T09:02:54+02:00</time>
      </trkpt>
      <trkpt lat="39.491208670000006" lon="-0.42453333000000004">
        <ele>21.0</ele>
        <time>2022-05-31T09:02:55+02:00</time>
      </trkpt>
      <trkpt lat="39.49118133999999" lon="-0.42459499999999994">
        <ele>22.0</ele>
        <time>2022-05-31T09:02:56+02:00</time>
      </trkpt>
      <trkpt lat="39.491128339999996" lon="-0.42465665999999996">
        <ele>22.0</ele>
        <time>2022-05-31T09:02:57+02:00</time>
      </trkpt>
      <trkpt lat="39.491082999999996" lon="-0.42473166000000007">
        <ele>22.0</ele>
        <time>2022-05-31T09:02:58+02:00</time>
      </trkpt>
      <trkpt lat="39.491052339999996" lon="-0.42478">
        <ele>22.0</ele>
        <time>2022-05-31T09:02:59+02:00</time>
      </trkpt>
      <trkpt lat="39.491014670000006" lon="-0.42484165999999995">
        <ele>22.0</ele>
        <time>2022-05-31T09:03:00+02:00</time>
      </trkpt>
      <trkpt lat="39.490978" lon="-0.42490666">
        <ele>22.0</ele>
        <time>2022-05-31T09:03:01+02:00</time>
      </trkpt>
      <trkpt lat="39.490942000000004" lon="-0.42497500000000005">
        <ele>22.0</ele>
        <time>2022-05-31T09:03:02+02:00</time>
      </trkpt>
      <trkpt lat="39.490909339999995" lon="-0.42504332999999994">
        <ele>22.0</ele>
        <time>2022-05-31T09:03:03+02:00</time>
      </trkpt>
      <trkpt lat="39.49087134" lon="-0.42512666">
        <ele>22.0</ele>
        <time>2022-05-31T09:03:04+02:00</time>
      </trkpt>
      <trkpt lat="39.490847339999995" lon="-0.42518500000000004">
        <ele>22.0</ele>
        <time>2022-05-31T09:03:05+02:00</time>
      </trkpt>
      <trkpt lat="39.49082467" lon="-0.42524333">
        <ele>22.0</ele>
        <time>2022-05-31T09:03:06+02:00</time>
      </trkpt>
      <trkpt lat="39.49079067" lon="-0.42533000000000004">
        <ele>22.0</ele>
        <time>2022-05-31T09:03:07+02:00</time>
      </trkpt>
      <trkpt lat="39.490759999999995" lon="-0.4254133299999999">
        <ele>22.0</ele>
        <time>2022-05-31T09:03:08+02:00</time>
      </trkpt>
      <trkpt lat="39.490733999999996" lon="-0.425485">
        <ele>23.0</ele>
        <time>2022-05-31T09:03:09+02:00</time>
      </trkpt>
      <trkpt lat="39.490708" lon="-0.425555">
        <ele>23.0</ele>
        <time>2022-05-31T09:03:10+02:00</time>
      </trkpt>
      <trkpt lat="39.490688670000004" lon="-0.42561165999999995">
        <ele>23.0</ele>
        <time>2022-05-31T09:03:11+02:00</time>
      </trkpt>
      <trkpt lat="39.490657999999996" lon="-0.425695">
        <ele>23.0</ele>
        <time>2022-05-31T09:03:12+02:00</time>
      </trkpt>
      <trkpt lat="39.49063534" lon="-0.42576332999999994">
        <ele>24.0</ele>
        <time>2022-05-31T09:03:13+02:00</time>
      </trkpt>
      <trkpt lat="39.490611" lon="-0.42583000000000004">
        <ele>24.0</ele>
        <time>2022-05-31T09:03:14+02:00</time>
      </trkpt>
      <trkpt lat="39.490587670000004" lon="-0.425895">
        <ele>24.0</ele>
        <time>2022-05-31T09:03:15+02:00</time>
      </trkpt>
      <trkpt lat="39.49054534" lon="-0.42600666">
        <ele>24.0</ele>
        <time>2022-05-31T09:03:17+02:00</time>
      </trkpt>
      <trkpt lat="39.49052167000001" lon="-0.42606665999999993">
        <ele>24.0</ele>
        <time>2022-05-31T09:03:18+02:00</time>
      </trkpt>
      <trkpt lat="39.490494999999996" lon="-0.42614166">
        <ele>25.0</ele>
        <time>2022-05-31T09:03:19+02:00</time>
      </trkpt>
      <trkpt lat="39.490516670000005" lon="-0.42625166">
        <ele>25.0</ele>
        <time>2022-05-31T09:03:21+02:00</time>
      </trkpt>
      <trkpt lat="39.49053834" lon="-0.4263100000000001">
        <ele>25.0</ele>
        <time>2022-05-31T09:03:22+02:00</time>
      </trkpt>
      <trkpt lat="39.490568339999996" lon="-0.42637333">
        <ele>25.0</ele>
        <time>2022-05-31T09:03:23+02:00</time>
      </trkpt>
      <trkpt lat="39.49063499999999" lon="-0.42647833">
        <ele>25.0</ele>
        <time>2022-05-31T09:03:25+02:00</time>
      </trkpt>
      <trkpt lat="39.490699670000005" lon="-0.426575">
        <ele>25.0</ele>
        <time>2022-05-31T09:03:27+02:00</time>
      </trkpt>
      <trkpt lat="39.490742669999996" lon="-0.426645">
        <ele>25.0</ele>
        <time>2022-05-31T09:03:28+02:00</time>
      </trkpt>
      <trkpt lat="39.490807669999995" lon="-0.42675833">
        <ele>25.0</ele>
        <time>2022-05-31T09:03:30+02:00</time>
      </trkpt>
      <trkpt lat="39.49084233999999" lon="-0.42682333000000006">
        <ele>25.0</ele>
        <time>2022-05-31T09:03:31+02:00</time>
      </trkpt>
      <trkpt lat="39.490883339999996" lon="-0.426905">
        <ele>25.0</ele>
        <time>2022-05-31T09:03:32+02:00</time>
      </trkpt>
      <trkpt lat="39.49091067" lon="-0.42696000000000006">
        <ele>25.0</ele>
        <time>2022-05-31T09:03:33+02:00</time>
      </trkpt>
      <trkpt lat="39.49095167" lon="-0.42704">
        <ele>25.0</ele>
        <time>2022-05-31T09:03:34+02:00</time>
      </trkpt>
      <trkpt lat="39.49097734" lon="-0.4270899999999999">
        <ele>25.0</ele>
        <time>2022-05-31T09:03:35+02:00</time>
      </trkpt>
      <trkpt lat="39.49101133999999" lon="-0.42715333">
        <ele>25.0</ele>
        <time>2022-05-31T09:03:36+02:00</time>
      </trkpt>
      <trkpt lat="39.49104633999999" lon="-0.427215">
        <ele>25.0</ele>
        <time>2022-05-31T09:03:37+02:00</time>
      </trkpt>
      <trkpt lat="39.491081339999994" lon="-0.427275">
        <ele>25.0</ele>
        <time>2022-05-31T09:03:38+02:00</time>
      </trkpt>
      <trkpt lat="39.49111634" lon="-0.4273350000000001">
        <ele>25.0</ele>
        <time>2022-05-31T09:03:39+02:00</time>
      </trkpt>
      <trkpt lat="39.49115334" lon="-0.42739666">
        <ele>25.0</ele>
        <time>2022-05-31T09:03:40+02:00</time>
      </trkpt>
      <trkpt lat="39.491189" lon="-0.42745666">
        <ele>25.0</ele>
        <time>2022-05-31T09:03:41+02:00</time>
      </trkpt>
      <trkpt lat="39.491232999999994" lon="-0.42752999999999997">
        <ele>25.0</ele>
        <time>2022-05-31T09:03:42+02:00</time>
      </trkpt>
      <trkpt lat="39.491262" lon="-0.42757666">
        <ele>25.0</ele>
        <time>2022-05-31T09:03:43+02:00</time>
      </trkpt>
      <trkpt lat="39.491299" lon="-0.42763665999999995">
        <ele>25.0</ele>
        <time>2022-05-31T09:03:44+02:00</time>
      </trkpt>
      <trkpt lat="39.49133267" lon="-0.42769500000000005">
        <ele>25.0</ele>
        <time>2022-05-31T09:03:45+02:00</time>
      </trkpt>
      <trkpt lat="39.491375670000004" lon="-0.42776499999999995">
        <ele>25.0</ele>
        <time>2022-05-31T09:03:46+02:00</time>
      </trkpt>
      <trkpt lat="39.49140533999999" lon="-0.42781166">
        <ele>25.0</ele>
        <time>2022-05-31T09:03:47+02:00</time>
      </trkpt>
      <trkpt lat="39.49144467000001" lon="-0.42787833">
        <ele>25.0</ele>
        <time>2022-05-31T09:03:48+02:00</time>
      </trkpt>
      <trkpt lat="39.491474339999996" lon="-0.42792332999999994">
        <ele>25.0</ele>
        <time>2022-05-31T09:03:49+02:00</time>
      </trkpt>
      <trkpt lat="39.491536339999996" lon="-0.42802166">
        <ele>25.0</ele>
        <time>2022-05-31T09:03:51+02:00</time>
      </trkpt>
      <trkpt lat="39.49157033999999" lon="-0.42807333">
        <ele>25.0</ele>
        <time>2022-05-31T09:03:52+02:00</time>
      </trkpt>
      <trkpt lat="39.491609" lon="-0.42813166">
        <ele>25.0</ele>
        <time>2022-05-31T09:03:53+02:00</time>
      </trkpt>
      <trkpt lat="39.491639000000006" lon="-0.4281750000000001">
        <ele>25.0</ele>
        <time>2022-05-31T09:03:54+02:00</time>
      </trkpt>
      <trkpt lat="39.491708339999995" lon="-0.4282166599999999">
        <ele>25.0</ele>
        <time>2022-05-31T09:03:55+02:00</time>
      </trkpt>
      <trkpt lat="39.49175167" lon="-0.4282633299999999">
        <ele>25.0</ele>
        <time>2022-05-31T09:03:56+02:00</time>
      </trkpt>
      <trkpt lat="39.49182167" lon="-0.42833533">
        <ele>25.0</ele>
        <time>2022-05-31T09:03:58+02:00</time>
      </trkpt>
      <trkpt lat="39.49187667" lon="-0.42839532999999996">
        <ele>25.0</ele>
        <time>2022-05-31T09:04:00+02:00</time>
      </trkpt>
      <trkpt lat="39.49191334" lon="-0.4284363299999999">
        <ele>25.0</ele>
        <time>2022-05-31T09:04:01+02:00</time>
      </trkpt>
      <trkpt lat="39.49196667000001" lon="-0.42849666">
        <ele>25.0</ele>
        <time>2022-05-31T09:04:03+02:00</time>
      </trkpt>
      <trkpt lat="39.49202667000001" lon="-0.4285629999999999">
        <ele>25.0</ele>
        <time>2022-05-31T09:04:05+02:00</time>
      </trkpt>
      <trkpt lat="39.49206334" lon="-0.428604">
        <ele>25.0</ele>
        <time>2022-05-31T09:04:06+02:00</time>
      </trkpt>
      <trkpt lat="39.492125" lon="-0.42867066">
        <ele>25.0</ele>
        <time>2022-05-31T09:04:08+02:00</time>
      </trkpt>
      <trkpt lat="39.49218" lon="-0.42872965999999996">
        <ele>25.0</ele>
        <time>2022-05-31T09:04:10+02:00</time>
      </trkpt>
      <trkpt lat="39.49223833999999" lon="-0.42879166">
        <ele>26.0</ele>
        <time>2022-05-31T09:04:12+02:00</time>
      </trkpt>
      <trkpt lat="39.492293339999996" lon="-0.42885133">
        <ele>27.0</ele>
        <time>2022-05-31T09:04:14+02:00</time>
      </trkpt>
      <trkpt lat="39.492353339999994" lon="-0.42891665999999995">
        <ele>27.0</ele>
        <time>2022-05-31T09:04:16+02:00</time>
      </trkpt>
      <trkpt lat="39.492415" lon="-0.428982">
        <ele>28.0</ele>
        <time>2022-05-31T09:04:18+02:00</time>
      </trkpt>
      <trkpt lat="39.49247833999999" lon="-0.42905066">
        <ele>28.0</ele>
        <time>2022-05-31T09:04:20+02:00</time>
      </trkpt>
      <trkpt lat="39.49251834" lon="-0.42909165999999993">
        <ele>28.0</ele>
        <time>2022-05-31T09:04:21+02:00</time>
      </trkpt>
      <trkpt lat="39.492588340000005" lon="-0.42916499999999996">
        <ele>29.0</ele>
        <time>2022-05-31T09:04:23+02:00</time>
      </trkpt>
      <trkpt lat="39.492655" lon="-0.4292363299999999">
        <ele>29.0</ele>
        <time>2022-05-31T09:04:25+02:00</time>
      </trkpt>
      <trkpt lat="39.492695" lon="-0.4292769999999999">
        <ele>29.0</ele>
        <time>2022-05-31T09:04:26+02:00</time>
      </trkpt>
      <trkpt lat="39.49274167" lon="-0.42932665999999997">
        <ele>30.0</ele>
        <time>2022-05-31T09:04:27+02:00</time>
      </trkpt>
      <trkpt lat="39.49278499999999" lon="-0.4293706599999999">
        <ele>30.0</ele>
        <time>2022-05-31T09:04:28+02:00</time>
      </trkpt>
      <trkpt lat="39.49283167" lon="-0.42942066">
        <ele>30.0</ele>
        <time>2022-05-31T09:04:29+02:00</time>
      </trkpt>
      <trkpt lat="39.49287" lon="-0.4294613299999999">
        <ele>30.0</ele>
        <time>2022-05-31T09:04:30+02:00</time>
      </trkpt>
      <trkpt lat="39.49292667" lon="-0.4295223299999999">
        <ele>30.0</ele>
        <time>2022-05-31T09:04:31+02:00</time>
      </trkpt>
      <trkpt lat="39.49297" lon="-0.42957066">
        <ele>30.0</ele>
        <time>2022-05-31T09:04:32+02:00</time>
      </trkpt>
      <trkpt lat="39.493028339999995" lon="-0.42963299999999993">
        <ele>30.0</ele>
        <time>2022-05-31T09:04:33+02:00</time>
      </trkpt>
      <trkpt lat="39.49309" lon="-0.429696">
        <ele>30.0</ele>
        <time>2022-05-31T09:04:34+02:00</time>
      </trkpt>
      <trkpt lat="39.49315334" lon="-0.42975599999999997">
        <ele>30.0</ele>
        <time>2022-05-31T09:04:35+02:00</time>
      </trkpt>
      <trkpt lat="39.49321834" lon="-0.42973833">
        <ele>30.0</ele>
        <time>2022-05-31T09:04:36+02:00</time>
      </trkpt>
      <trkpt lat="39.49328167" lon="-0.42975499999999994">
        <ele>30.0</ele>
        <time>2022-05-31T09:04:37+02:00</time>
      </trkpt>
      <trkpt lat="39.493345" lon="-0.42976332999999994">
        <ele>30.0</ele>
        <time>2022-05-31T09:04:38+02:00</time>
      </trkpt>
      <trkpt lat="39.49340834" lon="-0.429765">
        <ele>30.0</ele>
        <time>2022-05-31T09:04:39+02:00</time>
      </trkpt>
      <trkpt lat="39.49346834" lon="-0.429765">
        <ele>30.0</ele>
        <time>2022-05-31T09:04:40+02:00</time>
      </trkpt>
      <trkpt lat="39.493601670000004" lon="-0.4297690000000001">
        <ele>30.0</ele>
        <time>2022-05-31T09:04:42+02:00</time>
      </trkpt>
      <trkpt lat="39.49364834" lon="-0.4297723299999999">
        <ele>29.0</ele>
        <time>2022-05-31T09:04:43+02:00</time>
      </trkpt>
      <trkpt lat="39.493705" lon="-0.4297776599999999">
        <ele>29.0</ele>
        <time>2022-05-31T09:04:44+02:00</time>
      </trkpt>
      <trkpt lat="39.49377167" lon="-0.4297859999999999">
        <ele>29.0</ele>
        <time>2022-05-31T09:04:45+02:00</time>
      </trkpt>
      <trkpt lat="39.49381667000001" lon="-0.42979265999999994">
        <ele>29.0</ele>
        <time>2022-05-31T09:04:46+02:00</time>
      </trkpt>
      <trkpt lat="39.493883340000004" lon="-0.4298026599999999">
        <ele>29.0</ele>
        <time>2022-05-31T09:04:47+02:00</time>
      </trkpt>
      <trkpt lat="39.493975" lon="-0.42981932999999994">
        <ele>29.0</ele>
        <time>2022-05-31T09:04:49+02:00</time>
      </trkpt>
      <trkpt lat="39.49402167" lon="-0.429833">
        <ele>29.0</ele>
        <time>2022-05-31T09:04:50+02:00</time>
      </trkpt>
      <trkpt lat="39.494065" lon="-0.42985032999999995">
        <ele>29.0</ele>
        <time>2022-05-31T09:04:51+02:00</time>
      </trkpt>
      <trkpt lat="39.49411" lon="-0.42991665999999995">
        <ele>29.0</ele>
        <time>2022-05-31T09:04:52+02:00</time>
      </trkpt>
      <trkpt lat="39.494150000000005" lon="-0.43000166">
        <ele>29.0</ele>
        <time>2022-05-31T09:04:54+02:00</time>
      </trkpt>
      <trkpt lat="39.49418167" lon="-0.43010333">
        <ele>30.0</ele>
        <time>2022-05-31T09:04:56+02:00</time>
      </trkpt>
      <trkpt lat="39.494211670000006" lon="-0.4302149999999999">
        <ele>31.0</ele>
        <time>2022-05-31T09:04:58+02:00</time>
      </trkpt>
      <trkpt lat="39.494240000000005" lon="-0.43030333">
        <ele>31.0</ele>
        <time>2022-05-31T09:05:00+02:00</time>
      </trkpt>
      <trkpt lat="39.49428534" lon="-0.4303850000000001">
        <ele>32.0</ele>
        <time>2022-05-31T09:05:02+02:00</time>
      </trkpt>
      <trkpt lat="39.49435667" lon="-0.43044832999999993">
        <ele>32.0</ele>
        <time>2022-05-31T09:05:04+02:00</time>
      </trkpt>
      <trkpt lat="39.49443334000001" lon="-0.43049499999999996">
        <ele>32.0</ele>
        <time>2022-05-31T09:05:06+02:00</time>
      </trkpt>
      <trkpt lat="39.49451334" lon="-0.43053832999999997">
        <ele>32.0</ele>
        <time>2022-05-31T09:05:08+02:00</time>
      </trkpt>
      <trkpt lat="39.49460499999999" lon="-0.43058500000000005">
        <ele>32.0</ele>
        <time>2022-05-31T09:05:10+02:00</time>
      </trkpt>
      <trkpt lat="39.49468834" lon="-0.43063199999999996">
        <ele>32.0</ele>
        <time>2022-05-31T09:05:12+02:00</time>
      </trkpt>
      <trkpt lat="39.49476334" lon="-0.43067632999999994">
        <ele>32.0</ele>
        <time>2022-05-31T09:05:14+02:00</time>
      </trkpt>
      <trkpt lat="39.494805" lon="-0.43070132999999994">
        <ele>32.0</ele>
        <time>2022-05-31T09:05:15+02:00</time>
      </trkpt>
      <trkpt lat="39.494885" lon="-0.4307486599999999">
        <ele>32.0</ele>
        <time>2022-05-31T09:05:17+02:00</time>
      </trkpt>
      <trkpt lat="39.494963340000005" lon="-0.43079365999999997">
        <ele>32.0</ele>
        <time>2022-05-31T09:05:19+02:00</time>
      </trkpt>
      <trkpt lat="39.49500667" lon="-0.43082132999999995">
        <ele>32.0</ele>
        <time>2022-05-31T09:05:20+02:00</time>
      </trkpt>
      <trkpt lat="39.49506667000001" lon="-0.43086366">
        <ele>32.0</ele>
        <time>2022-05-31T09:05:22+02:00</time>
      </trkpt>
      <trkpt lat="39.495108339999994" lon="-0.43089500000000003">
        <ele>32.0</ele>
        <time>2022-05-31T09:05:23+02:00</time>
      </trkpt>
      <trkpt lat="39.495183340000004" lon="-0.43094332999999996">
        <ele>32.0</ele>
        <time>2022-05-31T09:05:25+02:00</time>
      </trkpt>
      <trkpt lat="39.49525" lon="-0.43096832999999996">
        <ele>32.0</ele>
        <time>2022-05-31T09:05:28+02:00</time>
      </trkpt>
      <trkpt lat="39.49531" lon="-0.43096333">
        <ele>32.0</ele>
        <time>2022-05-31T09:05:29+02:00</time>
      </trkpt>
      <trkpt lat="39.49537167000001" lon="-0.430935">
        <ele>32.0</ele>
        <time>2022-05-31T09:05:31+02:00</time>
      </trkpt>
      <trkpt lat="39.49542333999999" lon="-0.4308850000000001">
        <ele>32.0</ele>
        <time>2022-05-31T09:05:33+02:00</time>
      </trkpt>
      <trkpt lat="39.495504999999994" lon="-0.43085666000000006">
        <ele>32.0</ele>
        <time>2022-05-31T09:05:35+02:00</time>
      </trkpt>
      <trkpt lat="39.495555" lon="-0.43085833000000007">
        <ele>32.0</ele>
        <time>2022-05-31T09:05:36+02:00</time>
      </trkpt>
      <trkpt lat="39.495608340000004" lon="-0.43085833000000007">
        <ele>32.0</ele>
        <time>2022-05-31T09:05:37+02:00</time>
      </trkpt>
      <trkpt lat="39.49566" lon="-0.43085966">
        <ele>32.0</ele>
        <time>2022-05-31T09:05:38+02:00</time>
      </trkpt>
      <trkpt lat="39.495715000000004" lon="-0.430863">
        <ele>32.0</ele>
        <time>2022-05-31T09:05:39+02:00</time>
      </trkpt>
      <trkpt lat="39.49578" lon="-0.43086766">
        <ele>32.0</ele>
        <time>2022-05-31T09:05:40+02:00</time>
      </trkpt>
      <trkpt lat="39.49583667" lon="-0.43087333">
        <ele>32.0</ele>
        <time>2022-05-31T09:05:41+02:00</time>
      </trkpt>
      <trkpt lat="39.495889999999996" lon="-0.43087932999999995">
        <ele>32.0</ele>
        <time>2022-05-31T09:05:42+02:00</time>
      </trkpt>
      <trkpt lat="39.49598666999999" lon="-0.43089066000000004">
        <ele>32.0</ele>
        <time>2022-05-31T09:05:44+02:00</time>
      </trkpt>
      <trkpt lat="39.496050000000004" lon="-0.43090165999999996">
        <ele>32.0</ele>
        <time>2022-05-31T09:05:45+02:00</time>
      </trkpt>
      <trkpt lat="39.49610167" lon="-0.43091">
        <ele>33.0</ele>
        <time>2022-05-31T09:05:46+02:00</time>
      </trkpt>
      <trkpt lat="39.49619833999999" lon="-0.43092333">
        <ele>33.0</ele>
        <time>2022-05-31T09:05:48+02:00</time>
      </trkpt>
      <trkpt lat="39.49631834" lon="-0.43093400000000004">
        <ele>34.0</ele>
        <time>2022-05-31T09:05:50+02:00</time>
      </trkpt>
      <trkpt lat="39.49637167000001" lon="-0.430938">
        <ele>34.0</ele>
        <time>2022-05-31T09:05:51+02:00</time>
      </trkpt>
      <trkpt lat="39.496425" lon="-0.4309413299999999">
        <ele>34.0</ele>
        <time>2022-05-31T09:05:52+02:00</time>
      </trkpt>
      <trkpt lat="39.49648" lon="-0.43094266000000003">
        <ele>34.0</ele>
        <time>2022-05-31T09:05:53+02:00</time>
      </trkpt>
      <trkpt lat="39.49653334" lon="-0.430945">
        <ele>34.0</ele>
        <time>2022-05-31T09:05:54+02:00</time>
      </trkpt>
      <trkpt lat="39.49659167000001" lon="-0.43094566">
        <ele>34.0</ele>
        <time>2022-05-31T09:05:55+02:00</time>
      </trkpt>
      <trkpt lat="39.49664834" lon="-0.43094766">
        <ele>34.0</ele>
        <time>2022-05-31T09:05:56+02:00</time>
      </trkpt>
      <trkpt lat="39.49675499999999" lon="-0.43095599999999995">
        <ele>34.0</ele>
        <time>2022-05-31T09:05:58+02:00</time>
      </trkpt>
      <trkpt lat="39.496805" lon="-0.430957">
        <ele>34.0</ele>
        <time>2022-05-31T09:05:59+02:00</time>
      </trkpt>
      <trkpt lat="39.49685667" lon="-0.430955">
        <ele>34.0</ele>
        <time>2022-05-31T09:06:00+02:00</time>
      </trkpt>
      <trkpt lat="39.49690667" lon="-0.430955">
        <ele>34.0</ele>
        <time>2022-05-31T09:06:01+02:00</time>
      </trkpt>
      <trkpt lat="39.49696" lon="-0.430955">
        <ele>34.0</ele>
        <time>2022-05-31T09:06:02+02:00</time>
      </trkpt>
      <trkpt lat="39.49701167" lon="-0.43095432999999994">
        <ele>34.0</ele>
        <time>2022-05-31T09:06:03+02:00</time>
      </trkpt>
      <trkpt lat="39.497105" lon="-0.43095599999999995">
        <ele>34.0</ele>
        <time>2022-05-31T09:06:05+02:00</time>
      </trkpt>
      <trkpt lat="39.497166670000006" lon="-0.43095565999999996">
        <ele>34.0</ele>
        <time>2022-05-31T09:06:06+02:00</time>
      </trkpt>
      <trkpt lat="39.497271669999996" lon="-0.43096066000000005">
        <ele>35.0</ele>
        <time>2022-05-31T09:06:08+02:00</time>
      </trkpt>
      <trkpt lat="39.497325" lon="-0.43096265999999994">
        <ele>35.0</ele>
        <time>2022-05-31T09:06:09+02:00</time>
      </trkpt>
      <trkpt lat="39.49737834" lon="-0.43096166">
        <ele>36.0</ele>
        <time>2022-05-31T09:06:10+02:00</time>
      </trkpt>
      <trkpt lat="39.497429999999994" lon="-0.43096432999999995">
        <ele>36.0</ele>
        <time>2022-05-31T09:06:11+02:00</time>
      </trkpt>
      <trkpt lat="39.497533340000004" lon="-0.43097332999999993">
        <ele>37.0</ele>
        <time>2022-05-31T09:06:13+02:00</time>
      </trkpt>
      <trkpt lat="39.497586670000004" lon="-0.4309763299999999">
        <ele>37.0</ele>
        <time>2022-05-31T09:06:14+02:00</time>
      </trkpt>
      <trkpt lat="39.49769167000001" lon="-0.43098232999999997">
        <ele>37.0</ele>
        <time>2022-05-31T09:06:16+02:00</time>
      </trkpt>
      <trkpt lat="39.497789999999995" lon="-0.43099265999999997">
        <ele>38.0</ele>
        <time>2022-05-31T09:06:18+02:00</time>
      </trkpt>
      <trkpt lat="39.497875" lon="-0.43099733">
        <ele>38.0</ele>
        <time>2022-05-31T09:06:20+02:00</time>
      </trkpt>
      <trkpt lat="39.49793667" lon="-0.431001">
        <ele>39.0</ele>
        <time>2022-05-31T09:06:22+02:00</time>
      </trkpt>
      <trkpt lat="39.49798667" lon="-0.43100432999999994">
        <ele>39.0</ele>
        <time>2022-05-31T09:06:24+02:00</time>
      </trkpt>
      <trkpt lat="39.49802667000001" lon="-0.43110166000000005">
        <ele>40.0</ele>
        <time>2022-05-31T09:06:25+02:00</time>
      </trkpt>
      <trkpt lat="39.49807334" lon="-0.43112833000000006">
        <ele>40.0</ele>
        <time>2022-05-31T09:06:27+02:00</time>
      </trkpt>
      <trkpt lat="39.498101670000004" lon="-0.43118500000000004">
        <ele>40.0</ele>
        <time>2022-05-31T09:06:29+02:00</time>
      </trkpt>
      <trkpt lat="39.49812167000001" lon="-0.43125666">
        <ele>40.0</ele>
        <time>2022-05-31T09:06:31+02:00</time>
      </trkpt>
      <trkpt lat="39.49814633999999" lon="-0.43134332999999997">
        <ele>40.0</ele>
        <time>2022-05-31T09:06:33+02:00</time>
      </trkpt>
      <trkpt lat="39.498169000000004" lon="-0.43141333">
        <ele>41.0</ele>
        <time>2022-05-31T09:06:36+02:00</time>
      </trkpt>
      <trkpt lat="39.49819734" lon="-0.43149999999999994">
        <ele>41.0</ele>
        <time>2022-05-31T09:06:37+02:00</time>
      </trkpt>
      <trkpt lat="39.49822234" lon="-0.43158665999999996">
        <ele>41.0</ele>
        <time>2022-05-31T09:06:39+02:00</time>
      </trkpt>
      <trkpt lat="39.498246339999994" lon="-0.43167333">
        <ele>42.0</ele>
        <time>2022-05-31T09:06:41+02:00</time>
      </trkpt>
      <trkpt lat="39.49827200000001" lon="-0.4317633299999999">
        <ele>42.0</ele>
        <time>2022-05-31T09:06:43+02:00</time>
      </trkpt>
      <trkpt lat="39.49829167000001" lon="-0.4318416599999999">
        <ele>43.0</ele>
        <time>2022-05-31T09:06:45+02:00</time>
      </trkpt>
      <trkpt lat="39.49831433999999" lon="-0.43193333">
        <ele>43.0</ele>
        <time>2022-05-31T09:06:47+02:00</time>
      </trkpt>
      <trkpt lat="39.49833867" lon="-0.43203">
        <ele>43.0</ele>
        <time>2022-05-31T09:06:49+02:00</time>
      </trkpt>
      <trkpt lat="39.49836034" lon="-0.43210833">
        <ele>44.0</ele>
        <time>2022-05-31T09:06:51+02:00</time>
      </trkpt>
      <trkpt lat="39.49838334" lon="-0.43219332999999993">
        <ele>44.0</ele>
        <time>2022-05-31T09:06:53+02:00</time>
      </trkpt>
      <trkpt lat="39.498406" lon="-0.43227666">
        <ele>44.0</ele>
        <time>2022-05-31T09:06:55+02:00</time>
      </trkpt>
      <trkpt lat="39.49843" lon="-0.43236332999999993">
        <ele>45.0</ele>
        <time>2022-05-31T09:06:57+02:00</time>
      </trkpt>
      <trkpt lat="39.49845333999999" lon="-0.4324466599999999">
        <ele>45.0</ele>
        <time>2022-05-31T09:06:59+02:00</time>
      </trkpt>
      <trkpt lat="39.49847833999999" lon="-0.43253833">
        <ele>45.0</ele>
        <time>2022-05-31T09:07:01+02:00</time>
      </trkpt>
      <trkpt lat="39.498507000000004" lon="-0.43262999999999996">
        <ele>45.0</ele>
        <time>2022-05-31T09:07:03+02:00</time>
      </trkpt>
      <trkpt lat="39.49853667000001" lon="-0.43272332999999996">
        <ele>46.0</ele>
        <time>2022-05-31T09:07:05+02:00</time>
      </trkpt>
      <trkpt lat="39.498563000000004" lon="-0.4328149999999999">
        <ele>46.0</ele>
        <time>2022-05-31T09:07:07+02:00</time>
      </trkpt>
      <trkpt lat="39.49857934" lon="-0.43287166">
        <ele>46.0</ele>
        <time>2022-05-31T09:07:08+02:00</time>
      </trkpt>
      <trkpt lat="39.49860767" lon="-0.43295833000000006">
        <ele>47.0</ele>
        <time>2022-05-31T09:07:10+02:00</time>
      </trkpt>
      <trkpt lat="39.498638" lon="-0.43306332999999997">
        <ele>47.0</ele>
        <time>2022-05-31T09:07:12+02:00</time>
      </trkpt>
      <trkpt lat="39.49866433999999" lon="-0.43315332999999995">
        <ele>47.0</ele>
        <time>2022-05-31T09:07:14+02:00</time>
      </trkpt>
      <trkpt lat="39.49869067000001" lon="-0.433245">
        <ele>47.0</ele>
        <time>2022-05-31T09:07:16+02:00</time>
      </trkpt>
      <trkpt lat="39.49871133999999" lon="-0.43330166">
        <ele>47.0</ele>
        <time>2022-05-31T09:07:17+02:00</time>
      </trkpt>
      <trkpt lat="39.49873867000001" lon="-0.43339333">
        <ele>48.0</ele>
        <time>2022-05-31T09:07:19+02:00</time>
      </trkpt>
      <trkpt lat="39.49876734" lon="-0.43349165999999995">
        <ele>48.0</ele>
        <time>2022-05-31T09:07:21+02:00</time>
      </trkpt>
      <trkpt lat="39.498801" lon="-0.4335883299999999">
        <ele>48.0</ele>
        <time>2022-05-31T09:07:23+02:00</time>
      </trkpt>
      <trkpt lat="39.49882934" lon="-0.43368333000000003">
        <ele>49.0</ele>
        <time>2022-05-31T09:07:25+02:00</time>
      </trkpt>
      <trkpt lat="39.498864000000005" lon="-0.43378166">
        <ele>49.0</ele>
        <time>2022-05-31T09:07:27+02:00</time>
      </trkpt>
      <trkpt lat="39.49889534" lon="-0.4338850000000001">
        <ele>49.0</ele>
        <time>2022-05-31T09:07:29+02:00</time>
      </trkpt>
      <trkpt lat="39.498927" lon="-0.43398999999999993">
        <ele>49.0</ele>
        <time>2022-05-31T09:07:31+02:00</time>
      </trkpt>
      <trkpt lat="39.498961339999994" lon="-0.43408500000000005">
        <ele>49.0</ele>
        <time>2022-05-31T09:07:33+02:00</time>
      </trkpt>
      <trkpt lat="39.498993999999996" lon="-0.4341916599999999">
        <ele>49.0</ele>
        <time>2022-05-31T09:07:35+02:00</time>
      </trkpt>
      <trkpt lat="39.49902533999999" lon="-0.43429333000000003">
        <ele>49.0</ele>
        <time>2022-05-31T09:07:37+02:00</time>
      </trkpt>
      <trkpt lat="39.49905834" lon="-0.43439999999999995">
        <ele>49.0</ele>
        <time>2022-05-31T09:07:39+02:00</time>
      </trkpt>
      <trkpt lat="39.499084669999995" lon="-0.434465">
        <ele>49.0</ele>
        <time>2022-05-31T09:07:40+02:00</time>
      </trkpt>
      <trkpt lat="39.499120000000005" lon="-0.43457833">
        <ele>49.0</ele>
        <time>2022-05-31T09:07:42+02:00</time>
      </trkpt>
      <trkpt lat="39.499137000000005" lon="-0.43463332999999993">
        <ele>49.0</ele>
        <time>2022-05-31T09:07:43+02:00</time>
      </trkpt>
      <trkpt lat="39.49917200000001" lon="-0.43474665999999995">
        <ele>49.0</ele>
        <time>2022-05-31T09:07:46+02:00</time>
      </trkpt>
      <trkpt lat="39.49920567" lon="-0.43485500000000005">
        <ele>49.0</ele>
        <time>2022-05-31T09:07:47+02:00</time>
      </trkpt>
      <trkpt lat="39.499238670000004" lon="-0.4349616599999999">
        <ele>49.0</ele>
        <time>2022-05-31T09:07:49+02:00</time>
      </trkpt>
      <trkpt lat="39.49927767" lon="-0.43506333">
        <ele>49.0</ele>
        <time>2022-05-31T09:07:51+02:00</time>
      </trkpt>
      <trkpt lat="39.499309" lon="-0.4351649999999999">
        <ele>49.0</ele>
        <time>2022-05-31T09:07:53+02:00</time>
      </trkpt>
      <trkpt lat="39.49934134" lon="-0.43526833">
        <ele>49.0</ele>
        <time>2022-05-31T09:07:55+02:00</time>
      </trkpt>
      <trkpt lat="39.49937034" lon="-0.43536166">
        <ele>49.0</ele>
        <time>2022-05-31T09:07:57+02:00</time>
      </trkpt>
      <trkpt lat="39.49940067000001" lon="-0.43545833">
        <ele>49.0</ele>
        <time>2022-05-31T09:07:59+02:00</time>
      </trkpt>
      <trkpt lat="39.49942133999999" lon="-0.43552333">
        <ele>49.0</ele>
        <time>2022-05-31T09:08:00+02:00</time>
      </trkpt>
      <trkpt lat="39.49945267" lon="-0.43562333000000003">
        <ele>49.0</ele>
        <time>2022-05-31T09:08:02+02:00</time>
      </trkpt>
      <trkpt lat="39.499482" lon="-0.4357166599999999">
        <ele>50.0</ele>
        <time>2022-05-31T09:08:04+02:00</time>
      </trkpt>
      <trkpt lat="39.499509339999996" lon="-0.43577666">
        <ele>50.0</ele>
        <time>2022-05-31T09:08:05+02:00</time>
      </trkpt>
      <trkpt lat="39.49954234" lon="-0.43588166">
        <ele>50.0</ele>
        <time>2022-05-31T09:08:07+02:00</time>
      </trkpt>
      <trkpt lat="39.49957533999999" lon="-0.43598833">
        <ele>50.0</ele>
        <time>2022-05-31T09:08:09+02:00</time>
      </trkpt>
      <trkpt lat="39.49960867" lon="-0.436095">
        <ele>50.0</ele>
        <time>2022-05-31T09:08:11+02:00</time>
      </trkpt>
      <trkpt lat="39.499635999999995" lon="-0.436155">
        <ele>50.0</ele>
        <time>2022-05-31T09:08:12+02:00</time>
      </trkpt>
      <trkpt lat="39.499664339999995" lon="-0.43624665999999995">
        <ele>50.0</ele>
        <time>2022-05-31T09:08:14+02:00</time>
      </trkpt>
      <trkpt lat="39.499684339999995" lon="-0.4363100000000001">
        <ele>50.0</ele>
        <time>2022-05-31T09:08:15+02:00</time>
      </trkpt>
      <trkpt lat="39.499702000000006" lon="-0.43636666">
        <ele>50.0</ele>
        <time>2022-05-31T09:08:16+02:00</time>
      </trkpt>
      <trkpt lat="39.49971867000001" lon="-0.43641832999999997">
        <ele>50.0</ele>
        <time>2022-05-31T09:08:17+02:00</time>
      </trkpt>
      <trkpt lat="39.499757" lon="-0.43651165999999997">
        <ele>50.0</ele>
        <time>2022-05-31T09:08:19+02:00</time>
      </trkpt>
      <trkpt lat="39.499788339999995" lon="-0.43660833000000004">
        <ele>50.0</ele>
        <time>2022-05-31T09:08:21+02:00</time>
      </trkpt>
      <trkpt lat="39.499807" lon="-0.43666499999999997">
        <ele>50.0</ele>
        <time>2022-05-31T09:08:22+02:00</time>
      </trkpt>
      <trkpt lat="39.49983967" lon="-0.43676499999999996">
        <ele>50.0</ele>
        <time>2022-05-31T09:08:24+02:00</time>
      </trkpt>
      <trkpt lat="39.499872999999994" lon="-0.4368416599999999">
        <ele>50.0</ele>
        <time>2022-05-31T09:08:26+02:00</time>
      </trkpt>
      <trkpt lat="39.499898" lon="-0.43691832999999997">
        <ele>49.0</ele>
        <time>2022-05-31T09:08:28+02:00</time>
      </trkpt>
      <trkpt lat="39.499919670000004" lon="-0.43698333000000006">
        <ele>49.0</ele>
        <time>2022-05-31T09:08:32+02:00</time>
      </trkpt>
      <trkpt lat="39.499948339999996" lon="-0.43707">
        <ele>48.0</ele>
        <time>2022-05-31T09:08:34+02:00</time>
      </trkpt>
      <trkpt lat="39.49997867" lon="-0.43713666">
        <ele>48.0</ele>
        <time>2022-05-31T09:08:36+02:00</time>
      </trkpt>
      <trkpt lat="39.500009" lon="-0.43722833000000005">
        <ele>48.0</ele>
        <time>2022-05-31T09:08:38+02:00</time>
      </trkpt>
      <trkpt lat="39.50003367" lon="-0.43730166">
        <ele>48.0</ele>
        <time>2022-05-31T09:08:40+02:00</time>
      </trkpt>
      <trkpt lat="39.50012" lon="-0.43738332999999996">
        <ele>48.0</ele>
        <time>2022-05-31T09:08:42+02:00</time>
      </trkpt>
      <trkpt lat="39.50015667000001" lon="-0.43746665999999995">
        <ele>48.0</ele>
        <time>2022-05-31T09:08:44+02:00</time>
      </trkpt>
      <trkpt lat="39.50017834" lon="-0.43757333000000004">
        <ele>48.0</ele>
        <time>2022-05-31T09:08:46+02:00</time>
      </trkpt>
      <trkpt lat="39.500193339999996" lon="-0.43762999999999996">
        <ele>48.0</ele>
        <time>2022-05-31T09:08:48+02:00</time>
      </trkpt>
      <trkpt lat="39.500218000000004" lon="-0.43773166">
        <ele>48.0</ele>
        <time>2022-05-31T09:08:49+02:00</time>
      </trkpt>
      <trkpt lat="39.500240000000005" lon="-0.43782499999999996">
        <ele>48.0</ele>
        <time>2022-05-31T09:08:51+02:00</time>
      </trkpt>
      <trkpt lat="39.50026034" lon="-0.43792165999999993">
        <ele>48.0</ele>
        <time>2022-05-31T09:08:53+02:00</time>
      </trkpt>
      <trkpt lat="39.50028167000001" lon="-0.43801499999999993">
        <ele>48.0</ele>
        <time>2022-05-31T09:08:55+02:00</time>
      </trkpt>
      <trkpt lat="39.50030367000001" lon="-0.43809833">
        <ele>48.0</ele>
        <time>2022-05-31T09:08:57+02:00</time>
      </trkpt>
      <trkpt lat="39.500325339999996" lon="-0.43817833000000006">
        <ele>49.0</ele>
        <time>2022-05-31T09:08:59+02:00</time>
      </trkpt>
      <trkpt lat="39.500344670000004" lon="-0.43825000000000003">
        <ele>49.0</ele>
        <time>2022-05-31T09:09:01+02:00</time>
      </trkpt>
      <trkpt lat="39.50036333999999" lon="-0.4383100000000001">
        <ele>49.0</ele>
        <time>2022-05-31T09:09:03+02:00</time>
      </trkpt>
      <trkpt lat="39.500384" lon="-0.4383850000000001">
        <ele>49.0</ele>
        <time>2022-05-31T09:09:05+02:00</time>
      </trkpt>
      <trkpt lat="39.500409669999996" lon="-0.43847500000000006">
        <ele>49.0</ele>
        <time>2022-05-31T09:09:07+02:00</time>
      </trkpt>
      <trkpt lat="39.500436670000006" lon="-0.43857">
        <ele>50.0</ele>
        <time>2022-05-31T09:09:09+02:00</time>
      </trkpt>
      <trkpt lat="39.500465000000005" lon="-0.43866499999999997">
        <ele>50.0</ele>
        <time>2022-05-31T09:09:11+02:00</time>
      </trkpt>
      <trkpt lat="39.500492339999994" lon="-0.438755">
        <ele>50.0</ele>
        <time>2022-05-31T09:09:13+02:00</time>
      </trkpt>
      <trkpt lat="39.50051700000001" lon="-0.43883333000000013">
        <ele>51.0</ele>
        <time>2022-05-31T09:09:15+02:00</time>
      </trkpt>
      <trkpt lat="39.50054567000001" lon="-0.4389116599999999">
        <ele>51.0</ele>
        <time>2022-05-31T09:09:18+02:00</time>
      </trkpt>
      <trkpt lat="39.500634999999996" lon="-0.43895833">
        <ele>51.0</ele>
        <time>2022-05-31T09:09:19+02:00</time>
      </trkpt>
      <trkpt lat="39.500695" lon="-0.43896499999999994">
        <ele>51.0</ele>
        <time>2022-05-31T09:09:21+02:00</time>
      </trkpt>
      <trkpt lat="39.50077" lon="-0.43894833">
        <ele>52.0</ele>
        <time>2022-05-31T09:09:23+02:00</time>
      </trkpt>
      <trkpt lat="39.500834999999995" lon="-0.43894165999999996">
        <ele>52.0</ele>
        <time>2022-05-31T09:09:25+02:00</time>
      </trkpt>
      <trkpt lat="39.50091667" lon="-0.438929">
        <ele>52.0</ele>
        <time>2022-05-31T09:09:27+02:00</time>
      </trkpt>
      <trkpt lat="39.50098833999999" lon="-0.43891966">
        <ele>52.0</ele>
        <time>2022-05-31T09:09:29+02:00</time>
      </trkpt>
      <trkpt lat="39.50106167" lon="-0.43890833">
        <ele>52.0</ele>
        <time>2022-05-31T09:09:31+02:00</time>
      </trkpt>
      <trkpt lat="39.50114" lon="-0.43889933000000003">
        <ele>52.0</ele>
        <time>2022-05-31T09:09:33+02:00</time>
      </trkpt>
      <trkpt lat="39.50121334000001" lon="-0.43888665999999993">
        <ele>52.0</ele>
        <time>2022-05-31T09:09:35+02:00</time>
      </trkpt>
      <trkpt lat="39.50128667" lon="-0.4388500000000001">
        <ele>52.0</ele>
        <time>2022-05-31T09:09:37+02:00</time>
      </trkpt>
      <trkpt lat="39.501361669999994" lon="-0.43882166">
        <ele>53.0</ele>
        <time>2022-05-31T09:09:39+02:00</time>
      </trkpt>
      <trkpt lat="39.50143834" lon="-0.4387933299999999">
        <ele>53.0</ele>
        <time>2022-05-31T09:09:42+02:00</time>
      </trkpt>
      <trkpt lat="39.50151834" lon="-0.43876533">
        <ele>52.0</ele>
        <time>2022-05-31T09:09:43+02:00</time>
      </trkpt>
      <trkpt lat="39.50159000000001" lon="-0.4387443299999999">
        <ele>52.0</ele>
        <time>2022-05-31T09:09:45+02:00</time>
      </trkpt>
      <trkpt lat="39.50168167" lon="-0.43871966">
        <ele>52.0</ele>
        <time>2022-05-31T09:09:47+02:00</time>
      </trkpt>
      <trkpt lat="39.50177000000001" lon="-0.43869832999999997">
        <ele>52.0</ele>
        <time>2022-05-31T09:09:49+02:00</time>
      </trkpt>
      <trkpt lat="39.501815" lon="-0.43868966">
        <ele>52.0</ele>
        <time>2022-05-31T09:09:50+02:00</time>
      </trkpt>
      <trkpt lat="39.50190167000001" lon="-0.438668">
        <ele>52.0</ele>
        <time>2022-05-31T09:09:52+02:00</time>
      </trkpt>
      <trkpt lat="39.50194667000001" lon="-0.43865765999999995">
        <ele>51.0</ele>
        <time>2022-05-31T09:09:53+02:00</time>
      </trkpt>
      <trkpt lat="39.502015" lon="-0.43864066">
        <ele>51.0</ele>
        <time>2022-05-31T09:09:55+02:00</time>
      </trkpt>
      <trkpt lat="39.50207833999999" lon="-0.4386236599999999">
        <ele>51.0</ele>
        <time>2022-05-31T09:09:56+02:00</time>
      </trkpt>
      <trkpt lat="39.50212334" lon="-0.43861365999999996">
        <ele>51.0</ele>
        <time>2022-05-31T09:09:57+02:00</time>
      </trkpt>
      <trkpt lat="39.50216834" lon="-0.43860165999999995">
        <ele>51.0</ele>
        <time>2022-05-31T09:09:58+02:00</time>
      </trkpt>
      <trkpt lat="39.50225834" lon="-0.4385800000000001">
        <ele>51.0</ele>
        <time>2022-05-31T09:10:00+02:00</time>
      </trkpt>
      <trkpt lat="39.50232" lon="-0.43856400000000006">
        <ele>51.0</ele>
        <time>2022-05-31T09:10:01+02:00</time>
      </trkpt>
      <trkpt lat="39.50237167000001" lon="-0.4385530000000001">
        <ele>51.0</ele>
        <time>2022-05-31T09:10:03+02:00</time>
      </trkpt>
      <trkpt lat="39.50247" lon="-0.43853099999999995">
        <ele>51.0</ele>
        <time>2022-05-31T09:10:04+02:00</time>
      </trkpt>
      <trkpt lat="39.502525000000006" lon="-0.43851966000000003">
        <ele>51.0</ele>
        <time>2022-05-31T09:10:05+02:00</time>
      </trkpt>
      <trkpt lat="39.50258" lon="-0.43850666">
        <ele>51.0</ele>
        <time>2022-05-31T09:10:06+02:00</time>
      </trkpt>
      <trkpt lat="39.50264334" lon="-0.4384936599999999">
        <ele>51.0</ele>
        <time>2022-05-31T09:10:07+02:00</time>
      </trkpt>
      <trkpt lat="39.502698339999995" lon="-0.43848000000000004">
        <ele>51.0</ele>
        <time>2022-05-31T09:10:08+02:00</time>
      </trkpt>
      <trkpt lat="39.502750000000006" lon="-0.43846732999999993">
        <ele>51.0</ele>
        <time>2022-05-31T09:10:09+02:00</time>
      </trkpt>
      <trkpt lat="39.50284334" lon="-0.43844465999999993">
        <ele>51.0</ele>
        <time>2022-05-31T09:10:11+02:00</time>
      </trkpt>
      <trkpt lat="39.502895" lon="-0.43843133000000006">
        <ele>51.0</ele>
        <time>2022-05-31T09:10:12+02:00</time>
      </trkpt>
      <trkpt lat="39.502956669999996" lon="-0.438416">
        <ele>51.0</ele>
        <time>2022-05-31T09:10:13+02:00</time>
      </trkpt>
      <trkpt lat="39.50305" lon="-0.43839300000000003">
        <ele>51.0</ele>
        <time>2022-05-31T09:10:15+02:00</time>
      </trkpt>
      <trkpt lat="39.5031" lon="-0.43838032999999993">
        <ele>51.0</ele>
        <time>2022-05-31T09:10:16+02:00</time>
      </trkpt>
      <trkpt lat="39.50315667" lon="-0.4383623299999999">
        <ele>51.0</ele>
        <time>2022-05-31T09:10:17+02:00</time>
      </trkpt>
      <trkpt lat="39.50320167" lon="-0.43835099999999994">
        <ele>51.0</ele>
        <time>2022-05-31T09:10:18+02:00</time>
      </trkpt>
      <trkpt lat="39.503249999999994" lon="-0.43833866">
        <ele>51.0</ele>
        <time>2022-05-31T09:10:19+02:00</time>
      </trkpt>
      <trkpt lat="39.50335" lon="-0.43831365999999994">
        <ele>51.0</ele>
        <time>2022-05-31T09:10:21+02:00</time>
      </trkpt>
      <trkpt lat="39.50340333999999" lon="-0.43830066">
        <ele>51.0</ele>
        <time>2022-05-31T09:10:22+02:00</time>
      </trkpt>
      <trkpt lat="39.50346167000001" lon="-0.43833165999999996">
        <ele>52.0</ele>
        <time>2022-05-31T09:10:23+02:00</time>
      </trkpt>
      <trkpt lat="39.50351833999999" lon="-0.438345">
        <ele>52.0</ele>
        <time>2022-05-31T09:10:24+02:00</time>
      </trkpt>
      <trkpt lat="39.50356334" lon="-0.43835766">
        <ele>52.0</ele>
        <time>2022-05-31T09:10:25+02:00</time>
      </trkpt>
      <trkpt lat="39.50363" lon="-0.43837600000000004">
        <ele>54.0</ele>
        <time>2022-05-31T09:10:26+02:00</time>
      </trkpt>
      <trkpt lat="39.50373834" lon="-0.43840065999999994">
        <ele>54.0</ele>
        <time>2022-05-31T09:10:28+02:00</time>
      </trkpt>
      <trkpt lat="39.503789999999995" lon="-0.43841132999999993">
        <ele>55.0</ele>
        <time>2022-05-31T09:10:29+02:00</time>
      </trkpt>
      <trkpt lat="39.50383834" lon="-0.4384219999999999">
        <ele>55.0</ele>
        <time>2022-05-31T09:10:30+02:00</time>
      </trkpt>
      <trkpt lat="39.50394333999999" lon="-0.438449">
        <ele>56.0</ele>
        <time>2022-05-31T09:10:32+02:00</time>
      </trkpt>
      <trkpt lat="39.503998339999995" lon="-0.43846299999999994">
        <ele>56.0</ele>
        <time>2022-05-31T09:10:33+02:00</time>
      </trkpt>
      <trkpt lat="39.50405167" lon="-0.4384773299999999">
        <ele>56.0</ele>
        <time>2022-05-31T09:10:34+02:00</time>
      </trkpt>
      <trkpt lat="39.50414500000001" lon="-0.43850232999999983">
        <ele>57.0</ele>
        <time>2022-05-31T09:10:36+02:00</time>
      </trkpt>
      <trkpt lat="39.504205" lon="-0.43851733">
        <ele>58.0</ele>
        <time>2022-05-31T09:10:37+02:00</time>
      </trkpt>
      <trkpt lat="39.504255" lon="-0.43852765999999993">
        <ele>58.0</ele>
        <time>2022-05-31T09:10:38+02:00</time>
      </trkpt>
      <trkpt lat="39.50435667000001" lon="-0.43854499999999996">
        <ele>59.0</ele>
        <time>2022-05-31T09:10:39+02:00</time>
      </trkpt>
      <trkpt lat="39.50441334" lon="-0.43855132999999996">
        <ele>59.0</ele>
        <time>2022-05-31T09:10:40+02:00</time>
      </trkpt>
      <trkpt lat="39.504470000000005" lon="-0.438558">
        <ele>60.0</ele>
        <time>2022-05-31T09:10:41+02:00</time>
      </trkpt>
      <trkpt lat="39.50452833999999" lon="-0.43856465999999994">
        <ele>60.0</ele>
        <time>2022-05-31T09:10:42+02:00</time>
      </trkpt>
      <trkpt lat="39.50459" lon="-0.43856800000000007">
        <ele>60.0</ele>
        <time>2022-05-31T09:10:43+02:00</time>
      </trkpt>
      <trkpt lat="39.50465167000001" lon="-0.43857066">
        <ele>61.0</ele>
        <time>2022-05-31T09:10:44+02:00</time>
      </trkpt>
      <trkpt lat="39.50471334" lon="-0.43857232999999995">
        <ele>61.0</ele>
        <time>2022-05-31T09:10:45+02:00</time>
      </trkpt>
      <trkpt lat="39.504776670000005" lon="-0.43857566">
        <ele>61.0</ele>
        <time>2022-05-31T09:10:46+02:00</time>
      </trkpt>
      <trkpt lat="39.504886670000005" lon="-0.43857466">
        <ele>62.0</ele>
        <time>2022-05-31T09:10:48+02:00</time>
      </trkpt>
      <trkpt lat="39.504958339999995" lon="-0.43857666">
        <ele>62.0</ele>
        <time>2022-05-31T09:10:49+02:00</time>
      </trkpt>
      <trkpt lat="39.50500999999999" lon="-0.4385716599999999">
        <ele>62.0</ele>
        <time>2022-05-31T09:10:50+02:00</time>
      </trkpt>
      <trkpt lat="39.50505" lon="-0.43855966">
        <ele>62.0</ele>
        <time>2022-05-31T09:10:51+02:00</time>
      </trkpt>
      <trkpt lat="39.50507667000001" lon="-0.43839999999999996">
        <ele>62.0</ele>
        <time>2022-05-31T09:10:52+02:00</time>
      </trkpt>
      <trkpt lat="39.50511667" lon="-0.438345">
        <ele>62.0</ele>
        <time>2022-05-31T09:10:53+02:00</time>
      </trkpt>
      <trkpt lat="39.50517" lon="-0.43829832999999996">
        <ele>62.0</ele>
        <time>2022-05-31T09:10:54+02:00</time>
      </trkpt>
      <trkpt lat="39.50526334" lon="-0.43829665999999995">
        <ele>62.0</ele>
        <time>2022-05-31T09:10:56+02:00</time>
      </trkpt>
      <trkpt lat="39.505311670000005" lon="-0.43833165999999996">
        <ele>62.0</ele>
        <time>2022-05-31T09:10:57+02:00</time>
      </trkpt>
      <trkpt lat="39.505335" lon="-0.43838999999999995">
        <ele>62.0</ele>
        <time>2022-05-31T09:10:58+02:00</time>
      </trkpt>
      <trkpt lat="39.50535167" lon="-0.438455">
        <ele>62.0</ele>
        <time>2022-05-31T09:10:59+02:00</time>
      </trkpt>
      <trkpt lat="39.50539167000001" lon="-0.43856165999999996">
        <ele>62.0</ele>
        <time>2022-05-31T09:11:01+02:00</time>
      </trkpt>
      <trkpt lat="39.505435" lon="-0.43861165999999996">
        <ele>62.0</ele>
        <time>2022-05-31T09:11:02+02:00</time>
      </trkpt>
      <trkpt lat="39.50552667000001" lon="-0.43866499999999997">
        <ele>62.0</ele>
        <time>2022-05-31T09:11:04+02:00</time>
      </trkpt>
      <trkpt lat="39.505575" lon="-0.4386850000000001">
        <ele>62.0</ele>
        <time>2022-05-31T09:11:05+02:00</time>
      </trkpt>
      <trkpt lat="39.505624999999995" lon="-0.438705">
        <ele>62.0</ele>
        <time>2022-05-31T09:11:06+02:00</time>
      </trkpt>
      <trkpt lat="39.505675000000004" lon="-0.4387230000000001">
        <ele>62.0</ele>
        <time>2022-05-31T09:11:07+02:00</time>
      </trkpt>
      <trkpt lat="39.505720000000004" lon="-0.4387396600000001">
        <ele>62.0</ele>
        <time>2022-05-31T09:11:08+02:00</time>
      </trkpt>
      <trkpt lat="39.505765000000004" lon="-0.43875532999999994">
        <ele>62.0</ele>
        <time>2022-05-31T09:11:09+02:00</time>
      </trkpt>
      <trkpt lat="39.50584167000001" lon="-0.43877933">
        <ele>62.0</ele>
        <time>2022-05-31T09:11:11+02:00</time>
      </trkpt>
      <trkpt lat="39.50589" lon="-0.438794">
        <ele>62.0</ele>
        <time>2022-05-31T09:11:13+02:00</time>
      </trkpt>
      <trkpt lat="39.505935" lon="-0.43880800000000003">
        <ele>62.0</ele>
        <time>2022-05-31T09:11:17+02:00</time>
      </trkpt>
      <trkpt lat="39.505993339999996" lon="-0.43882899999999997">
        <ele>62.0</ele>
        <time>2022-05-31T09:11:21+02:00</time>
      </trkpt>
      <trkpt lat="39.506029999999996" lon="-0.43889666">
        <ele>62.0</ele>
        <time>2022-05-31T09:11:23+02:00</time>
      </trkpt>
      <trkpt lat="39.50605" lon="-0.4389950000000001">
        <ele>62.0</ele>
        <time>2022-05-31T09:11:25+02:00</time>
      </trkpt>
      <trkpt lat="39.50605834" lon="-0.4391116599999999">
        <ele>62.0</ele>
        <time>2022-05-31T09:11:27+02:00</time>
      </trkpt>
      <trkpt lat="39.50605667000001" lon="-0.439175">
        <ele>62.0</ele>
        <time>2022-05-31T09:11:28+02:00</time>
      </trkpt>
      <trkpt lat="39.506055" lon="-0.43923832999999995">
        <ele>62.0</ele>
        <time>2022-05-31T09:11:29+02:00</time>
      </trkpt>
      <trkpt lat="39.50605" lon="-0.43937499999999996">
        <ele>63.0</ele>
        <time>2022-05-31T09:11:31+02:00</time>
      </trkpt>
      <trkpt lat="39.50604933999999" lon="-0.43944833">
        <ele>63.0</ele>
        <time>2022-05-31T09:11:32+02:00</time>
      </trkpt>
      <trkpt lat="39.506048" lon="-0.439525">
        <ele>63.0</ele>
        <time>2022-05-31T09:11:33+02:00</time>
      </trkpt>
      <trkpt lat="39.506047339999995" lon="-0.4396050000000001">
        <ele>63.0</ele>
        <time>2022-05-31T09:11:34+02:00</time>
      </trkpt>
      <trkpt lat="39.50604667" lon="-0.43968333">
        <ele>63.0</ele>
        <time>2022-05-31T09:11:35+02:00</time>
      </trkpt>
      <trkpt lat="39.506047339999995" lon="-0.43976333">
        <ele>63.0</ele>
        <time>2022-05-31T09:11:36+02:00</time>
      </trkpt>
      <trkpt lat="39.50605167" lon="-0.439925">
        <ele>63.0</ele>
        <time>2022-05-31T09:11:38+02:00</time>
      </trkpt>
      <trkpt lat="39.50605234" lon="-0.44000666000000005">
        <ele>63.0</ele>
        <time>2022-05-31T09:11:39+02:00</time>
      </trkpt>
      <trkpt lat="39.50605467" lon="-0.44008665999999985">
        <ele>64.0</ele>
        <time>2022-05-31T09:11:40+02:00</time>
      </trkpt>
      <trkpt lat="39.50605734" lon="-0.4401649999999999">
        <ele>64.0</ele>
        <time>2022-05-31T09:11:41+02:00</time>
      </trkpt>
      <trkpt lat="39.50605834" lon="-0.4402366599999999">
        <ele>64.0</ele>
        <time>2022-05-31T09:11:42+02:00</time>
      </trkpt>
      <trkpt lat="39.50605967" lon="-0.44035166">
        <ele>64.0</ele>
        <time>2022-05-31T09:11:44+02:00</time>
      </trkpt>
      <trkpt lat="39.506063000000005" lon="-0.44041499999999995">
        <ele>64.0</ele>
        <time>2022-05-31T09:11:45+02:00</time>
      </trkpt>
      <trkpt lat="39.506061" lon="-0.4404866599999999">
        <ele>64.0</ele>
        <time>2022-05-31T09:11:47+02:00</time>
      </trkpt>
      <trkpt lat="39.50606134" lon="-0.44056000000000006">
        <ele>63.0</ele>
        <time>2022-05-31T09:11:50+02:00</time>
      </trkpt>
      <trkpt lat="39.50606167" lon="-0.44062666000000006">
        <ele>63.0</ele>
        <time>2022-05-31T09:11:52+02:00</time>
      </trkpt>
      <trkpt lat="39.50606234" lon="-0.44071165999999995">
        <ele>63.0</ele>
        <time>2022-05-31T09:11:54+02:00</time>
      </trkpt>
      <trkpt lat="39.506063000000005" lon="-0.44077165999999995">
        <ele>63.0</ele>
        <time>2022-05-31T09:11:55+02:00</time>
      </trkpt>
      <trkpt lat="39.506078339999995" lon="-0.44087499999999996">
        <ele>63.0</ele>
        <time>2022-05-31T09:11:57+02:00</time>
      </trkpt>
      <trkpt lat="39.506083000000004" lon="-0.44095333">
        <ele>63.0</ele>
        <time>2022-05-31T09:11:59+02:00</time>
      </trkpt>
      <trkpt lat="39.50608667" lon="-0.44102832999999997">
        <ele>63.0</ele>
        <time>2022-05-31T09:12:02+02:00</time>
      </trkpt>
      <trkpt lat="39.506088000000005" lon="-0.44111332999999997">
        <ele>62.0</ele>
        <time>2022-05-31T09:12:05+02:00</time>
      </trkpt>
      <trkpt lat="39.506090670000006" lon="-0.44118166">
        <ele>62.0</ele>
        <time>2022-05-31T09:12:08+02:00</time>
      </trkpt>
      <trkpt lat="39.50609333999999" lon="-0.44125333">
        <ele>62.0</ele>
        <time>2022-05-31T09:12:11+02:00</time>
      </trkpt>
      <trkpt lat="39.506096670000005" lon="-0.44132">
        <ele>62.0</ele>
        <time>2022-05-31T09:12:13+02:00</time>
      </trkpt>
      <trkpt lat="39.50610134" lon="-0.44139333000000003">
        <ele>62.0</ele>
        <time>2022-05-31T09:12:15+02:00</time>
      </trkpt>
      <trkpt lat="39.506111" lon="-0.44149332999999996">
        <ele>62.0</ele>
        <time>2022-05-31T09:12:17+02:00</time>
      </trkpt>
      <trkpt lat="39.506122999999995" lon="-0.44157166">
        <ele>62.0</ele>
        <time>2022-05-31T09:12:19+02:00</time>
      </trkpt>
      <trkpt lat="39.50617" lon="-0.44164665999999997">
        <ele>61.0</ele>
        <time>2022-05-31T09:12:21+02:00</time>
      </trkpt>
      <trkpt lat="39.506209999999996" lon="-0.44171832999999994">
        <ele>61.0</ele>
        <time>2022-05-31T09:12:24+02:00</time>
      </trkpt>
      <trkpt lat="39.50624834" lon="-0.44178333">
        <ele>61.0</ele>
        <time>2022-05-31T09:12:25+02:00</time>
      </trkpt>
      <trkpt lat="39.506283339999996" lon="-0.44183500000000003">
        <ele>61.0</ele>
        <time>2022-05-31T09:12:27+02:00</time>
      </trkpt>
      <trkpt lat="39.506311" lon="-0.44188333">
        <ele>60.0</ele>
        <time>2022-05-31T09:12:29+02:00</time>
      </trkpt>
      <trkpt lat="39.506343" lon="-0.4419350000000001">
        <ele>60.0</ele>
        <time>2022-05-31T09:12:34+02:00</time>
      </trkpt>
      <trkpt lat="39.506378" lon="-0.44199165999999995">
        <ele>59.0</ele>
        <time>2022-05-31T09:12:39+02:00</time>
      </trkpt>
      <trkpt lat="39.50641033999999" lon="-0.44205500000000003">
        <ele>59.0</ele>
        <time>2022-05-31T09:12:43+02:00</time>
      </trkpt>
      <trkpt lat="39.506431670000005" lon="-0.44211165999999996">
        <ele>58.0</ele>
        <time>2022-05-31T09:12:46+02:00</time>
      </trkpt>
      <trkpt lat="39.506445" lon="-0.4421899999999999">
        <ele>58.0</ele>
        <time>2022-05-31T09:12:49+02:00</time>
      </trkpt>
      <trkpt lat="39.50649167" lon="-0.442275">
        <ele>58.0</ele>
        <time>2022-05-31T09:12:51+02:00</time>
      </trkpt>
      <trkpt lat="39.50654333999999" lon="-0.44234999999999997">
        <ele>58.0</ele>
        <time>2022-05-31T09:12:53+02:00</time>
      </trkpt>
      <trkpt lat="39.50658834" lon="-0.44240833">
        <ele>59.0</ele>
        <time>2022-05-31T09:12:55+02:00</time>
      </trkpt>
      <trkpt lat="39.506632999999994" lon="-0.44248166000000005">
        <ele>59.0</ele>
        <time>2022-05-31T09:12:57+02:00</time>
      </trkpt>
      <trkpt lat="39.50666167000001" lon="-0.44253">
        <ele>60.0</ele>
        <time>2022-05-31T09:12:59+02:00</time>
      </trkpt>
      <trkpt lat="39.50669267" lon="-0.44257">
        <ele>60.0</ele>
        <time>2022-05-31T09:13:01+02:00</time>
      </trkpt>
      <trkpt lat="39.50672767" lon="-0.44262999999999997">
        <ele>60.0</ele>
        <time>2022-05-31T09:13:03+02:00</time>
      </trkpt>
      <trkpt lat="39.50677867" lon="-0.44271833000000005">
        <ele>60.0</ele>
        <time>2022-05-31T09:13:05+02:00</time>
      </trkpt>
      <trkpt lat="39.50681900000001" lon="-0.44279665999999995">
        <ele>61.0</ele>
        <time>2022-05-31T09:13:07+02:00</time>
      </trkpt>
      <trkpt lat="39.50685133999999" lon="-0.44285666000000007">
        <ele>61.0</ele>
        <time>2022-05-31T09:13:10+02:00</time>
      </trkpt>
      <trkpt lat="39.506882" lon="-0.442915">
        <ele>61.0</ele>
        <time>2022-05-31T09:13:11+02:00</time>
      </trkpt>
      <trkpt lat="39.50690934" lon="-0.44296832999999997">
        <ele>61.0</ele>
        <time>2022-05-31T09:13:13+02:00</time>
      </trkpt>
      <trkpt lat="39.50692" lon="-0.44304">
        <ele>62.0</ele>
        <time>2022-05-31T09:13:17+02:00</time>
      </trkpt>
      <trkpt lat="39.50695667" lon="-0.44307666">
        <ele>62.0</ele>
        <time>2022-05-31T09:13:20+02:00</time>
      </trkpt>
      <trkpt lat="39.506986669999996" lon="-0.44312166">
        <ele>62.0</ele>
        <time>2022-05-31T09:13:26+02:00</time>
      </trkpt>
      <trkpt lat="39.507019" lon="-0.44318166000000003">
        <ele>62.0</ele>
        <time>2022-05-31T09:13:29+02:00</time>
      </trkpt>
      <trkpt lat="39.507065" lon="-0.44322666">
        <ele>62.0</ele>
        <time>2022-05-31T09:13:32+02:00</time>
      </trkpt>
      <trkpt lat="39.50712334" lon="-0.44323832999999996">
        <ele>62.0</ele>
        <time>2022-05-31T09:13:35+02:00</time>
      </trkpt>
      <trkpt lat="39.507195" lon="-0.44322833">
        <ele>63.0</ele>
        <time>2022-05-31T09:13:36+02:00</time>
      </trkpt>
      <trkpt lat="39.50727334" lon="-0.44321332999999996">
        <ele>63.0</ele>
        <time>2022-05-31T09:13:38+02:00</time>
      </trkpt>
      <trkpt lat="39.507345" lon="-0.44320332999999995">
        <ele>63.0</ele>
        <time>2022-05-31T09:13:40+02:00</time>
      </trkpt>
      <trkpt lat="39.507391670000004" lon="-0.44319432999999997">
        <ele>63.0</ele>
        <time>2022-05-31T09:13:41+02:00</time>
      </trkpt>
      <trkpt lat="39.50747" lon="-0.44318166000000003">
        <ele>63.0</ele>
        <time>2022-05-31T09:13:43+02:00</time>
      </trkpt>
      <trkpt lat="39.50756" lon="-0.44316933000000003">
        <ele>63.0</ele>
        <time>2022-05-31T09:13:45+02:00</time>
      </trkpt>
      <trkpt lat="39.507615" lon="-0.44316033">
        <ele>63.0</ele>
        <time>2022-05-31T09:13:46+02:00</time>
      </trkpt>
      <trkpt lat="39.50766" lon="-0.4431523299999999">
        <ele>63.0</ele>
        <time>2022-05-31T09:13:47+02:00</time>
      </trkpt>
      <trkpt lat="39.50773667" lon="-0.44313665999999996">
        <ele>63.0</ele>
        <time>2022-05-31T09:13:49+02:00</time>
      </trkpt>
      <trkpt lat="39.50778667" lon="-0.44312433">
        <ele>63.0</ele>
        <time>2022-05-31T09:13:50+02:00</time>
      </trkpt>
      <trkpt lat="39.507873339999996" lon="-0.44310633">
        <ele>64.0</ele>
        <time>2022-05-31T09:13:52+02:00</time>
      </trkpt>
      <trkpt lat="39.507918339999996" lon="-0.44309633000000004">
        <ele>64.0</ele>
        <time>2022-05-31T09:13:54+02:00</time>
      </trkpt>
      <trkpt lat="39.507995" lon="-0.44308000000000003">
        <ele>65.0</ele>
        <time>2022-05-31T09:13:55+02:00</time>
      </trkpt>
      <trkpt lat="39.50806334" lon="-0.44306499999999993">
        <ele>66.0</ele>
        <time>2022-05-31T09:13:57+02:00</time>
      </trkpt>
      <trkpt lat="39.50814" lon="-0.4430453299999999">
        <ele>66.0</ele>
        <time>2022-05-31T09:13:59+02:00</time>
      </trkpt>
      <trkpt lat="39.50819334" lon="-0.44303165999999994">
        <ele>66.0</ele>
        <time>2022-05-31T09:14:01+02:00</time>
      </trkpt>
      <trkpt lat="39.508246670000005" lon="-0.44301766000000004">
        <ele>67.0</ele>
        <time>2022-05-31T09:14:03+02:00</time>
      </trkpt>
      <trkpt lat="39.50830667000001" lon="-0.443005">
        <ele>67.0</ele>
        <time>2022-05-31T09:14:06+02:00</time>
      </trkpt>
      <trkpt lat="39.50836667" lon="-0.442992">
        <ele>67.0</ele>
        <time>2022-05-31T09:14:08+02:00</time>
      </trkpt>
      <trkpt lat="39.508438340000005" lon="-0.44297699999999995">
        <ele>68.0</ele>
        <time>2022-05-31T09:14:10+02:00</time>
      </trkpt>
      <trkpt lat="39.508505" lon="-0.4429600000000001">
        <ele>68.0</ele>
        <time>2022-05-31T09:14:12+02:00</time>
      </trkpt>
      <trkpt lat="39.50855167" lon="-0.44294933">
        <ele>69.0</ele>
        <time>2022-05-31T09:14:13+02:00</time>
      </trkpt>
      <trkpt lat="39.50862167000001" lon="-0.44293132999999996">
        <ele>69.0</ele>
        <time>2022-05-31T09:14:15+02:00</time>
      </trkpt>
      <trkpt lat="39.508669999999995" lon="-0.44292065999999986">
        <ele>69.0</ele>
        <time>2022-05-31T09:14:16+02:00</time>
      </trkpt>
      <trkpt lat="39.50875333999999" lon="-0.44290566">
        <ele>69.0</ele>
        <time>2022-05-31T09:14:18+02:00</time>
      </trkpt>
      <trkpt lat="39.50883167" lon="-0.44289300000000004">
        <ele>69.0</ele>
        <time>2022-05-31T09:14:20+02:00</time>
      </trkpt>
      <trkpt lat="39.508903339999996" lon="-0.44287833">
        <ele>70.0</ele>
        <time>2022-05-31T09:14:22+02:00</time>
      </trkpt>
      <trkpt lat="39.508995000000006" lon="-0.442863">
        <ele>70.0</ele>
        <time>2022-05-31T09:14:24+02:00</time>
      </trkpt>
      <trkpt lat="39.50907833999999" lon="-0.44284566">
        <ele>70.0</ele>
        <time>2022-05-31T09:14:26+02:00</time>
      </trkpt>
      <trkpt lat="39.50916334" lon="-0.4428280000000001">
        <ele>70.0</ele>
        <time>2022-05-31T09:14:28+02:00</time>
      </trkpt>
      <trkpt lat="39.50924667" lon="-0.44281065999999997">
        <ele>70.0</ele>
        <time>2022-05-31T09:14:30+02:00</time>
      </trkpt>
      <trkpt lat="39.509321670000006" lon="-0.442795">
        <ele>70.0</ele>
        <time>2022-05-31T09:14:32+02:00</time>
      </trkpt>
      <trkpt lat="39.50938167" lon="-0.442777">
        <ele>70.0</ele>
        <time>2022-05-31T09:14:34+02:00</time>
      </trkpt>
      <trkpt lat="39.50944334" lon="-0.442759">
        <ele>71.0</ele>
        <time>2022-05-31T09:14:36+02:00</time>
      </trkpt>
      <trkpt lat="39.50948834" lon="-0.44274333">
        <ele>71.0</ele>
        <time>2022-05-31T09:14:38+02:00</time>
      </trkpt>
      <trkpt lat="39.509555" lon="-0.4427276599999999">
        <ele>70.0</ele>
        <time>2022-05-31T09:14:40+02:00</time>
      </trkpt>
      <trkpt lat="39.50963" lon="-0.4427053299999999">
        <ele>70.0</ele>
        <time>2022-05-31T09:14:42+02:00</time>
      </trkpt>
      <trkpt lat="39.50969334" lon="-0.44268532999999993">
        <ele>70.0</ele>
        <time>2022-05-31T09:14:45+02:00</time>
      </trkpt>
      <trkpt lat="39.50977834" lon="-0.44266532999999997">
        <ele>70.0</ele>
        <time>2022-05-31T09:14:47+02:00</time>
      </trkpt>
      <trkpt lat="39.509843339999996" lon="-0.44264433">
        <ele>70.0</ele>
        <time>2022-05-31T09:14:48+02:00</time>
      </trkpt>
      <trkpt lat="39.50990667000001" lon="-0.442629">
        <ele>68.0</ele>
        <time>2022-05-31T09:14:50+02:00</time>
      </trkpt>
      <trkpt lat="39.509965" lon="-0.44260900000000003">
        <ele>68.0</ele>
        <time>2022-05-31T09:14:52+02:00</time>
      </trkpt>
      <trkpt lat="39.51004167000001" lon="-0.44259000000000004">
        <ele>68.0</ele>
        <time>2022-05-31T09:14:54+02:00</time>
      </trkpt>
      <trkpt lat="39.51011167" lon="-0.44256665999999995">
        <ele>68.0</ele>
        <time>2022-05-31T09:14:55+02:00</time>
      </trkpt>
      <trkpt lat="39.510165" lon="-0.44255300000000003">
        <ele>68.0</ele>
        <time>2022-05-31T09:14:57+02:00</time>
      </trkpt>
      <trkpt lat="39.51022833999999" lon="-0.44253099999999995">
        <ele>68.0</ele>
        <time>2022-05-31T09:14:59+02:00</time>
      </trkpt>
      <trkpt lat="39.51029167" lon="-0.44251433">
        <ele>68.0</ele>
        <time>2022-05-31T09:15:02+02:00</time>
      </trkpt>
      <trkpt lat="39.510346670000004" lon="-0.44249365999999996">
        <ele>68.0</ele>
        <time>2022-05-31T09:15:05+02:00</time>
      </trkpt>
      <trkpt lat="39.510416670000005" lon="-0.44247565999999994">
        <ele>68.0</ele>
        <time>2022-05-31T09:15:06+02:00</time>
      </trkpt>
      <trkpt lat="39.510479999999994" lon="-0.44244833000000006">
        <ele>68.0</ele>
        <time>2022-05-31T09:15:08+02:00</time>
      </trkpt>
      <trkpt lat="39.51053" lon="-0.44245165999999997">
        <ele>68.0</ele>
        <time>2022-05-31T09:15:10+02:00</time>
      </trkpt>
      <trkpt lat="39.51057667" lon="-0.44244666">
        <ele>68.0</ele>
        <time>2022-05-31T09:15:12+02:00</time>
      </trkpt>
      <trkpt lat="39.51063167" lon="-0.44245900000000005">
        <ele>68.0</ele>
        <time>2022-05-31T09:15:14+02:00</time>
      </trkpt>
      <trkpt lat="39.510668339999995" lon="-0.442525">
        <ele>68.0</ele>
        <time>2022-05-31T09:15:16+02:00</time>
      </trkpt>
      <trkpt lat="39.51071667000001" lon="-0.4425866599999999">
        <ele>68.0</ele>
        <time>2022-05-31T09:15:18+02:00</time>
      </trkpt>
      <trkpt lat="39.51077334" lon="-0.44264165999999994">
        <ele>68.0</ele>
        <time>2022-05-31T09:15:20+02:00</time>
      </trkpt>
      <trkpt lat="39.51083" lon="-0.44269499999999995">
        <ele>68.0</ele>
        <time>2022-05-31T09:15:22+02:00</time>
      </trkpt>
      <trkpt lat="39.51090000000001" lon="-0.4427526599999999">
        <ele>69.0</ele>
        <time>2022-05-31T09:15:24+02:00</time>
      </trkpt>
      <trkpt lat="39.51096667" lon="-0.4427980000000001">
        <ele>70.0</ele>
        <time>2022-05-31T09:15:26+02:00</time>
      </trkpt>
      <trkpt lat="39.511028339999996" lon="-0.44280666">
        <ele>70.0</ele>
        <time>2022-05-31T09:15:28+02:00</time>
      </trkpt>
      <trkpt lat="39.511086670000005" lon="-0.44281166">
        <ele>71.0</ele>
        <time>2022-05-31T09:15:30+02:00</time>
      </trkpt>
      <trkpt lat="39.51114667" lon="-0.44281000000000004">
        <ele>72.0</ele>
        <time>2022-05-31T09:15:33+02:00</time>
      </trkpt>
      <trkpt lat="39.51119167" lon="-0.44280732999999994">
        <ele>72.0</ele>
        <time>2022-05-31T09:15:35+02:00</time>
      </trkpt>
      <trkpt lat="39.51125834" lon="-0.44278165999999997">
        <ele>73.0</ele>
        <time>2022-05-31T09:15:38+02:00</time>
      </trkpt>
      <trkpt lat="39.51130334" lon="-0.44279665999999995">
        <ele>74.0</ele>
        <time>2022-05-31T09:15:40+02:00</time>
      </trkpt>
      <trkpt lat="39.51135" lon="-0.44281999999999994">
        <ele>74.0</ele>
        <time>2022-05-31T09:15:42+02:00</time>
      </trkpt>
      <trkpt lat="39.51141" lon="-0.44283799999999995">
        <ele>75.0</ele>
        <time>2022-05-31T09:15:45+02:00</time>
      </trkpt>
      <trkpt lat="39.51146334" lon="-0.442848">
        <ele>75.0</ele>
        <time>2022-05-31T09:15:46+02:00</time>
      </trkpt>
      <trkpt lat="39.511525" lon="-0.44284833">
        <ele>75.0</ele>
        <time>2022-05-31T09:15:48+02:00</time>
      </trkpt>
      <trkpt lat="39.51158167" lon="-0.4428496600000001">
        <ele>76.0</ele>
        <time>2022-05-31T09:15:50+02:00</time>
      </trkpt>
      <trkpt lat="39.51164167" lon="-0.44284599999999996">
        <ele>76.0</ele>
        <time>2022-05-31T09:15:52+02:00</time>
      </trkpt>
      <trkpt lat="39.51169334" lon="-0.44284833">
        <ele>77.0</ele>
        <time>2022-05-31T09:15:54+02:00</time>
      </trkpt>
      <trkpt lat="39.51176167" lon="-0.44285632999999996">
        <ele>77.0</ele>
        <time>2022-05-31T09:15:56+02:00</time>
      </trkpt>
      <trkpt lat="39.511818340000005" lon="-0.44287299999999996">
        <ele>78.0</ele>
        <time>2022-05-31T09:15:58+02:00</time>
      </trkpt>
      <trkpt lat="39.511874999999996" lon="-0.442905">
        <ele>78.0</ele>
        <time>2022-05-31T09:16:00+02:00</time>
      </trkpt>
      <trkpt lat="39.51192834" lon="-0.4429096599999999">
        <ele>78.0</ele>
        <time>2022-05-31T09:16:02+02:00</time>
      </trkpt>
      <trkpt lat="39.511998340000005" lon="-0.442915">
        <ele>78.0</ele>
        <time>2022-05-31T09:16:04+02:00</time>
      </trkpt>
      <trkpt lat="39.51206167" lon="-0.44292800000000004">
        <ele>77.0</ele>
        <time>2022-05-31T09:16:06+02:00</time>
      </trkpt>
      <trkpt lat="39.512096670000005" lon="-0.44297833000000003">
        <ele>77.0</ele>
        <time>2022-05-31T09:16:08+02:00</time>
      </trkpt>
      <trkpt lat="39.512105" lon="-0.44304833">
        <ele>77.0</ele>
        <time>2022-05-31T09:16:10+02:00</time>
      </trkpt>
      <trkpt lat="39.5121" lon="-0.44312500000000005">
        <ele>77.0</ele>
        <time>2022-05-31T09:16:12+02:00</time>
      </trkpt>
      <trkpt lat="39.51208334" lon="-0.44319666">
        <ele>77.0</ele>
        <time>2022-05-31T09:16:14+02:00</time>
      </trkpt>
      <trkpt lat="39.51206667000001" lon="-0.44325333">
        <ele>77.0</ele>
        <time>2022-05-31T09:16:16+02:00</time>
      </trkpt>
      <trkpt lat="39.512068" lon="-0.44332332999999996">
        <ele>77.0</ele>
        <time>2022-05-31T09:16:19+02:00</time>
      </trkpt>
      <trkpt lat="39.51209334" lon="-0.44338833">
        <ele>77.0</ele>
        <time>2022-05-31T09:16:21+02:00</time>
      </trkpt>
      <trkpt lat="39.51212334" lon="-0.44347166">
        <ele>77.0</ele>
        <time>2022-05-31T09:16:23+02:00</time>
      </trkpt>
      <trkpt lat="39.512151339999996" lon="-0.44355833">
        <ele>77.0</ele>
        <time>2022-05-31T09:16:25+02:00</time>
      </trkpt>
      <trkpt lat="39.512178999999996" lon="-0.44363">
        <ele>77.0</ele>
        <time>2022-05-31T09:16:27+02:00</time>
      </trkpt>
      <trkpt lat="39.51223167" lon="-0.44366000000000005">
        <ele>77.0</ele>
        <time>2022-05-31T09:16:29+02:00</time>
      </trkpt>
      <trkpt lat="39.512298339999994" lon="-0.4436616599999999">
        <ele>76.0</ele>
        <time>2022-05-31T09:16:31+02:00</time>
      </trkpt>
      <trkpt lat="39.51236" lon="-0.44367999999999996">
        <ele>76.0</ele>
        <time>2022-05-31T09:16:33+02:00</time>
      </trkpt>
      <trkpt lat="39.512405" lon="-0.44372332999999997">
        <ele>76.0</ele>
        <time>2022-05-31T09:16:35+02:00</time>
      </trkpt>
      <trkpt lat="39.512434999999996" lon="-0.44379">
        <ele>76.0</ele>
        <time>2022-05-31T09:16:37+02:00</time>
      </trkpt>
      <trkpt lat="39.51244834" lon="-0.44384666">
        <ele>76.0</ele>
        <time>2022-05-31T09:16:38+02:00</time>
      </trkpt>
      <trkpt lat="39.51245667" lon="-0.44393666">
        <ele>76.0</ele>
        <time>2022-05-31T09:16:40+02:00</time>
      </trkpt>
      <trkpt lat="39.512468" lon="-0.44403999999999993">
        <ele>76.0</ele>
        <time>2022-05-31T09:16:42+02:00</time>
      </trkpt>
      <trkpt lat="39.512485000000005" lon="-0.44414">
        <ele>76.0</ele>
        <time>2022-05-31T09:16:44+02:00</time>
      </trkpt>
      <trkpt lat="39.512497339999996" lon="-0.44424166">
        <ele>77.0</ele>
        <time>2022-05-31T09:16:46+02:00</time>
      </trkpt>
      <trkpt lat="39.51251067" lon="-0.44435">
        <ele>77.0</ele>
        <time>2022-05-31T09:16:48+02:00</time>
      </trkpt>
      <trkpt lat="39.51252167" lon="-0.44446">
        <ele>78.0</ele>
        <time>2022-05-31T09:16:50+02:00</time>
      </trkpt>
      <trkpt lat="39.51253467" lon="-0.44456832999999996">
        <ele>78.0</ele>
        <time>2022-05-31T09:16:52+02:00</time>
      </trkpt>
      <trkpt lat="39.51254567000001" lon="-0.444675">
        <ele>78.0</ele>
        <time>2022-05-31T09:16:54+02:00</time>
      </trkpt>
      <trkpt lat="39.512558999999996" lon="-0.44478665999999994">
        <ele>78.0</ele>
        <time>2022-05-31T09:16:56+02:00</time>
      </trkpt>
      <trkpt lat="39.51257033999999" lon="-0.44489999999999996">
        <ele>79.0</ele>
        <time>2022-05-31T09:16:58+02:00</time>
      </trkpt>
      <trkpt lat="39.512578999999995" lon="-0.44496">
        <ele>79.0</ele>
        <time>2022-05-31T09:16:59+02:00</time>
      </trkpt>
      <trkpt lat="39.512590339999996" lon="-0.44507665999999996">
        <ele>79.0</ele>
        <time>2022-05-31T09:17:01+02:00</time>
      </trkpt>
      <trkpt lat="39.512597670000005" lon="-0.4451383299999999">
        <ele>79.0</ele>
        <time>2022-05-31T09:17:02+02:00</time>
      </trkpt>
      <trkpt lat="39.512607" lon="-0.44519833000000003">
        <ele>79.0</ele>
        <time>2022-05-31T09:17:03+02:00</time>
      </trkpt>
      <trkpt lat="39.512620670000004" lon="-0.44531332999999995">
        <ele>80.0</ele>
        <time>2022-05-31T09:17:05+02:00</time>
      </trkpt>
      <trkpt lat="39.51262799999999" lon="-0.445375">
        <ele>80.0</ele>
        <time>2022-05-31T09:17:06+02:00</time>
      </trkpt>
      <trkpt lat="39.512636" lon="-0.44543999999999995">
        <ele>80.0</ele>
        <time>2022-05-31T09:17:07+02:00</time>
      </trkpt>
      <trkpt lat="39.51264367" lon="-0.44550166">
        <ele>80.0</ele>
        <time>2022-05-31T09:17:08+02:00</time>
      </trkpt>
      <trkpt lat="39.512650670000006" lon="-0.44556333">
        <ele>80.0</ele>
        <time>2022-05-31T09:17:09+02:00</time>
      </trkpt>
      <trkpt lat="39.512658" lon="-0.44562333">
        <ele>80.0</ele>
        <time>2022-05-31T09:17:10+02:00</time>
      </trkpt>
      <trkpt lat="39.51266534" lon="-0.44568665999999996">
        <ele>80.0</ele>
        <time>2022-05-31T09:17:11+02:00</time>
      </trkpt>
      <trkpt lat="39.51267299999999" lon="-0.44574832999999997">
        <ele>80.0</ele>
        <time>2022-05-31T09:17:12+02:00</time>
      </trkpt>
      <trkpt lat="39.51268" lon="-0.44581">
        <ele>80.0</ele>
        <time>2022-05-31T09:17:13+02:00</time>
      </trkpt>
      <trkpt lat="39.512687670000005" lon="-0.44587333000000007">
        <ele>80.0</ele>
        <time>2022-05-31T09:17:14+02:00</time>
      </trkpt>
      <trkpt lat="39.512694999999994" lon="-0.44593666">
        <ele>81.0</ele>
        <time>2022-05-31T09:17:15+02:00</time>
      </trkpt>
      <trkpt lat="39.51271034" lon="-0.44606333">
        <ele>81.0</ele>
        <time>2022-05-31T09:17:17+02:00</time>
      </trkpt>
      <trkpt lat="39.512717669999994" lon="-0.446125">
        <ele>81.0</ele>
        <time>2022-05-31T09:17:18+02:00</time>
      </trkpt>
      <trkpt lat="39.51272533999999" lon="-0.4461883299999999">
        <ele>81.0</ele>
        <time>2022-05-31T09:17:19+02:00</time>
      </trkpt>
      <trkpt lat="39.51273334" lon="-0.44625332999999995">
        <ele>81.0</ele>
        <time>2022-05-31T09:17:20+02:00</time>
      </trkpt>
      <trkpt lat="39.512745339999995" lon="-0.44631499999999996">
        <ele>81.0</ele>
        <time>2022-05-31T09:17:21+02:00</time>
      </trkpt>
      <trkpt lat="39.512753669999995" lon="-0.446375">
        <ele>81.0</ele>
        <time>2022-05-31T09:17:22+02:00</time>
      </trkpt>
      <trkpt lat="39.51276634" lon="-0.446435">
        <ele>81.0</ele>
        <time>2022-05-31T09:17:23+02:00</time>
      </trkpt>
      <trkpt lat="39.51277967" lon="-0.44649165999999996">
        <ele>81.0</ele>
        <time>2022-05-31T09:17:24+02:00</time>
      </trkpt>
      <trkpt lat="39.51279267" lon="-0.44654666">
        <ele>81.0</ele>
        <time>2022-05-31T09:17:25+02:00</time>
      </trkpt>
      <trkpt lat="39.51280634" lon="-0.44659832999999993">
        <ele>81.0</ele>
        <time>2022-05-31T09:17:26+02:00</time>
      </trkpt>
      <trkpt lat="39.51291" lon="-0.44664833000000004">
        <ele>81.0</ele>
        <time>2022-05-31T09:17:27+02:00</time>
      </trkpt>
      <trkpt lat="39.51294134" lon="-0.44669499999999995">
        <ele>81.0</ele>
        <time>2022-05-31T09:17:28+02:00</time>
      </trkpt>
      <trkpt lat="39.512973339999995" lon="-0.44674166">
        <ele>80.0</ele>
        <time>2022-05-31T09:17:29+02:00</time>
      </trkpt>
      <trkpt lat="39.51300467" lon="-0.4467866599999999">
        <ele>80.0</ele>
        <time>2022-05-31T09:17:30+02:00</time>
      </trkpt>
      <trkpt lat="39.51306167" lon="-0.44687">
        <ele>80.0</ele>
        <time>2022-05-31T09:17:32+02:00</time>
      </trkpt>
      <trkpt lat="39.51311334" lon="-0.44694332999999997">
        <ele>80.0</ele>
        <time>2022-05-31T09:17:34+02:00</time>
      </trkpt>
      <trkpt lat="39.51314633999999" lon="-0.44698832999999993">
        <ele>80.0</ele>
        <time>2022-05-31T09:17:35+02:00</time>
      </trkpt>
      <trkpt lat="39.51320267" lon="-0.44706665999999995">
        <ele>80.0</ele>
        <time>2022-05-31T09:17:37+02:00</time>
      </trkpt>
      <trkpt lat="39.51325567" lon="-0.44714833">
        <ele>79.0</ele>
        <time>2022-05-31T09:17:39+02:00</time>
      </trkpt>
      <trkpt lat="39.513265000000004" lon="-0.44722833">
        <ele>79.0</ele>
        <time>2022-05-31T09:17:42+02:00</time>
      </trkpt>
      <trkpt lat="39.51325667" lon="-0.4473216599999999">
        <ele>79.0</ele>
        <time>2022-05-31T09:17:43+02:00</time>
      </trkpt>
      <trkpt lat="39.51324167" lon="-0.4474166599999999">
        <ele>79.0</ele>
        <time>2022-05-31T09:17:45+02:00</time>
      </trkpt>
      <trkpt lat="39.51320667" lon="-0.44750333">
        <ele>79.0</ele>
        <time>2022-05-31T09:17:47+02:00</time>
      </trkpt>
      <trkpt lat="39.51317834" lon="-0.44755165999999996">
        <ele>79.0</ele>
        <time>2022-05-31T09:17:48+02:00</time>
      </trkpt>
      <trkpt lat="39.51314167" lon="-0.4476116599999999">
        <ele>79.0</ele>
        <time>2022-05-31T09:17:49+02:00</time>
      </trkpt>
      <trkpt lat="39.51310667" lon="-0.447655">
        <ele>78.0</ele>
        <time>2022-05-31T09:17:50+02:00</time>
      </trkpt>
      <trkpt lat="39.513068340000004" lon="-0.44769999999999993">
        <ele>78.0</ele>
        <time>2022-05-31T09:17:51+02:00</time>
      </trkpt>
      <trkpt lat="39.51302833999999" lon="-0.44775">
        <ele>78.0</ele>
        <time>2022-05-31T09:17:52+02:00</time>
      </trkpt>
      <trkpt lat="39.51298667" lon="-0.44779833">
        <ele>78.0</ele>
        <time>2022-05-31T09:17:53+02:00</time>
      </trkpt>
      <trkpt lat="39.51294" lon="-0.44784632999999996">
        <ele>78.0</ele>
        <time>2022-05-31T09:17:54+02:00</time>
      </trkpt>
      <trkpt lat="39.51289167" lon="-0.44789333">
        <ele>78.0</ele>
        <time>2022-05-31T09:17:55+02:00</time>
      </trkpt>
      <trkpt lat="39.51284334" lon="-0.44794165999999996">
        <ele>78.0</ele>
        <time>2022-05-31T09:17:56+02:00</time>
      </trkpt>
      <trkpt lat="39.512795" lon="-0.44799166">
        <ele>78.0</ele>
        <time>2022-05-31T09:17:57+02:00</time>
      </trkpt>
      <trkpt lat="39.512748339999995" lon="-0.4480426599999999">
        <ele>78.0</ele>
        <time>2022-05-31T09:17:58+02:00</time>
      </trkpt>
      <trkpt lat="39.51271167" lon="-0.44808933">
        <ele>78.0</ele>
        <time>2022-05-31T09:17:59+02:00</time>
      </trkpt>
      <trkpt lat="39.512685" lon="-0.44814999999999994">
        <ele>78.0</ele>
        <time>2022-05-31T09:18:01+02:00</time>
      </trkpt>
      <trkpt lat="39.512645000000006" lon="-0.44825166000000005">
        <ele>78.0</ele>
        <time>2022-05-31T09:18:02+02:00</time>
      </trkpt>
      <trkpt lat="39.51257833999999" lon="-0.44834166">
        <ele>78.0</ele>
        <time>2022-05-31T09:18:04+02:00</time>
      </trkpt>
      <trkpt lat="39.51253334" lon="-0.44838666">
        <ele>78.0</ele>
        <time>2022-05-31T09:18:06+02:00</time>
      </trkpt>
    </trkseg>
  </trk>
</gpx>
